<?xml version='1.0' encoding='UTF-8'?><gpx version="1.1" creator="JPX - https://github.com/jenetics/jpx" xmlns="http://www.topografix.com/GPX/1/1"><trk><trkseg><trkpt lat="44.623091598645345" lon="7.419947230274158"><ele>601.0</ele><time>2026-05-02T12:24:58Z</time></trkpt><trkpt lat="44.623122820928295" lon="7.419858130681561"><ele>601.0</ele><time>2026-05-02T12:25:16.999Z</time></trkpt><trkpt lat="44.62315507767612" lon="7.419659257061349"><ele>601.0</ele><time>2026-05-02T12:25:18.999Z</time></trkpt><trkpt lat="44.62315424102903" lon="7.419537563047789"><ele>601.0</ele><time>2026-05-02T12:25:19.999Z</time></trkpt><trkpt lat="44.62315420621003" lon="7.419415851025685"><ele>601.0</ele><time>2026-05-02T12:25:20.999Z</time></trkpt><trkpt lat="44.623153456375846" lon="7.419276339854681"><ele>599.8</ele><time>2026-05-02T12:25:21.998Z</time></trkpt><trkpt lat="44.62314985785933" lon="7.41915457836414"><ele>598.6</ele><time>2026-05-02T12:25:22.998Z</time></trkpt><trkpt lat="44.6231480115135" lon="7.41900945640609"><ele>597.4</ele><time>2026-05-02T12:25:23.998Z</time></trkpt><trkpt lat="44.623158247350105" lon="7.418852427681507"><ele>596.2</ele><time>2026-05-02T12:25:24.998Z</time></trkpt><trkpt lat="44.62314957392232" lon="7.418695443447571"><ele>595.0</ele><time>2026-05-02T12:25:25.998Z</time></trkpt><trkpt lat="44.62313187967205" lon="7.418535448972546"><ele>594.4</ele><time>2026-05-02T12:25:26.998Z</time></trkpt><trkpt lat="44.62312188507614" lon="7.418375859996671"><ele>593.8</ele><time>2026-05-02T12:25:27.998Z</time></trkpt><trkpt lat="44.623122497568644" lon="7.4182420255973245"><ele>593.2</ele><time>2026-05-02T12:25:28.998Z</time></trkpt><trkpt lat="44.62308429008185" lon="7.418132694713027"><ele>592.6</ele><time>2026-05-02T12:25:29.998Z</time></trkpt><trkpt lat="44.623050965139996" lon="7.418012099125229"><ele>592.0</ele><time>2026-05-02T12:25:31.998Z</time></trkpt><trkpt lat="44.62299925818962" lon="7.4179076898799465"><ele>591.4</ele><time>2026-05-02T12:25:33.998Z</time></trkpt><trkpt lat="44.62291314813035" lon="7.417808243681673"><ele>590.8000000000001</ele><time>2026-05-02T12:25:35.998Z</time></trkpt><trkpt lat="44.62283942063548" lon="7.417641156331701"><ele>590.2</ele><time>2026-05-02T12:25:37.998Z</time></trkpt><trkpt lat="44.622800715857984" lon="7.417548139423004"><ele>589.6</ele><time>2026-05-02T12:25:38.998Z</time></trkpt><trkpt lat="44.622762861110715" lon="7.417427616000602"><ele>589.0</ele><time>2026-05-02T12:25:39.998Z</time></trkpt><trkpt lat="44.622723398854475" lon="7.417263821407667"><ele>591.0</ele><time>2026-05-02T12:25:40.998Z</time></trkpt><trkpt lat="44.62268847699513" lon="7.417104050848134"><ele>593.0</ele><time>2026-05-02T12:25:41.998Z</time></trkpt><trkpt lat="44.622661111916145" lon="7.416978853226102"><ele>595.0</ele><time>2026-05-02T12:25:42.998Z</time></trkpt><trkpt lat="44.622620251235915" lon="7.416809887229874"><ele>597.0</ele><time>2026-05-02T12:25:43.998Z</time></trkpt><trkpt lat="44.62256604446949" lon="7.41664615553678"><ele>597.0</ele><time>2026-05-02T12:25:44.998Z</time></trkpt><trkpt lat="44.622501991454484" lon="7.4165031356575595"><ele>597.0</ele><time>2026-05-02T12:25:45.998Z</time></trkpt><trkpt lat="44.622433658219364" lon="7.416381041775954"><ele>597.0</ele><time>2026-05-02T12:25:46.998Z</time></trkpt><trkpt lat="44.62237659843042" lon="7.416290666435837"><ele>597.0</ele><time>2026-05-02T12:25:47.998Z</time></trkpt><trkpt lat="44.622321744022976" lon="7.4162020314165575"><ele>597.0</ele><time>2026-05-02T12:25:48.998Z</time></trkpt><trkpt lat="44.622273317407526" lon="7.416122850823729"><ele>596.8000000000001</ele><time>2026-05-02T12:25:49.998Z</time></trkpt><trkpt lat="44.622219881505906" lon="7.416045078765482"><ele>596.6</ele><time>2026-05-02T12:25:50.998Z</time></trkpt><trkpt lat="44.622156732654815" lon="7.415953617103622"><ele>596.4000000000001</ele><time>2026-05-02T12:25:51.998Z</time></trkpt><trkpt lat="44.622097432513826" lon="7.4158678794340185"><ele>596.2</ele><time>2026-05-02T12:25:52.998Z</time></trkpt><trkpt lat="44.62203395059178" lon="7.415776095620672"><ele>596.0</ele><time>2026-05-02T12:25:53.998Z</time></trkpt><trkpt lat="44.62195658563731" lon="7.41566423924096"><ele>596.0</ele><time>2026-05-02T12:25:54.998Z</time></trkpt><trkpt lat="44.62187465603547" lon="7.415545783162146"><ele>596.0</ele><time>2026-05-02T12:25:55.998Z</time></trkpt><trkpt lat="44.62180100399369" lon="7.4154392950188575"><ele>596.0</ele><time>2026-05-02T12:25:56.998Z</time></trkpt><trkpt lat="44.62170138795831" lon="7.415353570610941"><ele>596.0</ele><time>2026-05-02T12:25:57.998Z</time></trkpt><trkpt lat="44.62161252111289" lon="7.415247904112963"><ele>597.2</ele><time>2026-05-02T12:25:58.998Z</time></trkpt><trkpt lat="44.621522321058194" lon="7.415123998299457"><ele>598.4000000000001</ele><time>2026-05-02T12:25:59.998Z</time></trkpt><trkpt lat="44.621446331369604" lon="7.41500531563917"><ele>599.6</ele><time>2026-05-02T12:26:00.998Z</time></trkpt><trkpt lat="44.621369248019676" lon="7.414914523875185"><ele>600.8000000000001</ele><time>2026-05-02T12:26:01.998Z</time></trkpt><trkpt lat="44.62127476538816" lon="7.414850057104294"><ele>602.0</ele><time>2026-05-02T12:26:02.998Z</time></trkpt><trkpt lat="44.62119026598663" lon="7.414822130326972"><ele>603.8000000000001</ele><time>2026-05-02T12:26:03.998Z</time></trkpt><trkpt lat="44.62111724589665" lon="7.414764503075615"><ele>605.6</ele><time>2026-05-02T12:26:04.998Z</time></trkpt><trkpt lat="44.62105113752531" lon="7.414663361188953"><ele>607.4000000000001</ele><time>2026-05-02T12:26:05.998Z</time></trkpt><trkpt lat="44.620960123394184" lon="7.414572058446782"><ele>609.2</ele><time>2026-05-02T12:26:06.998Z</time></trkpt><trkpt lat="44.62087167424507" lon="7.41445521539024"><ele>611.0</ele><time>2026-05-02T12:26:07.998Z</time></trkpt><trkpt lat="44.62075874194054" lon="7.414366775893747"><ele>611.6</ele><time>2026-05-02T12:26:08.998Z</time></trkpt><trkpt lat="44.62065574125825" lon="7.414265147959901"><ele>612.2</ele><time>2026-05-02T12:26:09.998Z</time></trkpt><trkpt lat="44.620569163895134" lon="7.414184292828677"><ele>612.8</ele><time>2026-05-02T12:26:10.998Z</time></trkpt><trkpt lat="44.62048000162611" lon="7.414105855531303"><ele>613.4</ele><time>2026-05-02T12:26:11.998Z</time></trkpt><trkpt lat="44.62040568316705" lon="7.41403236338991"><ele>614.0</ele><time>2026-05-02T12:26:12.998Z</time></trkpt><trkpt lat="44.62033769381854" lon="7.41395174944942"><ele>613.0</ele><time>2026-05-02T12:26:13.998Z</time></trkpt><trkpt lat="44.62028021120027" lon="7.41385509867543"><ele>612.0</ele><time>2026-05-02T12:26:14.998Z</time></trkpt><trkpt lat="44.6202266283627" lon="7.413772689690849"><ele>611.0</ele><time>2026-05-02T12:26:15.999Z</time></trkpt><trkpt lat="44.620178557948066" lon="7.413694389337929"><ele>610.0</ele><time>2026-05-02T12:26:16.999Z</time></trkpt><trkpt lat="44.62011009596427" lon="7.413622154567518"><ele>609.0</ele><time>2026-05-02T12:26:17.999Z</time></trkpt><trkpt lat="44.62005244746277" lon="7.413547347008119"><ele>608.0</ele><time>2026-05-02T12:26:18.999Z</time></trkpt><trkpt lat="44.61997458683693" lon="7.413476292766958"><ele>611.8</ele><time>2026-05-02T12:26:19.999Z</time></trkpt><trkpt lat="44.61988770063401" lon="7.413424526609736"><ele>615.5999999999999</ele><time>2026-05-02T12:26:20.999Z</time></trkpt><trkpt lat="44.619813328521786" lon="7.4133710878876995"><ele>619.4000000000001</ele><time>2026-05-02T12:26:21.999Z</time></trkpt><trkpt lat="44.61973471523386" lon="7.41329614929331"><ele>623.2</ele><time>2026-05-02T12:26:22.999Z</time></trkpt><trkpt lat="44.6196683850872" lon="7.413184888973436"><ele>627.0</ele><time>2026-05-02T12:26:23.999Z</time></trkpt><trkpt lat="44.61960657763507" lon="7.413098709645307"><ele>627.0</ele><time>2026-05-02T12:26:24.999Z</time></trkpt><trkpt lat="44.61952857096394" lon="7.413047821411379"><ele>627.0</ele><time>2026-05-02T12:26:25.999Z</time></trkpt><trkpt lat="44.619443394917575" lon="7.4130406932952875"><ele>627.0</ele><time>2026-05-02T12:26:26.999Z</time></trkpt><trkpt lat="44.61935905750146" lon="7.413045361777657"><ele>627.0</ele><time>2026-05-02T12:26:27.999Z</time></trkpt><trkpt lat="44.61927316952114" lon="7.413060912444016"><ele>627.0</ele><time>2026-05-02T12:26:28.999Z</time></trkpt><trkpt lat="44.619197682275306" lon="7.413047032126217"><ele>627.0</ele><time>2026-05-02T12:26:29.999Z</time></trkpt><trkpt lat="44.61915480826038" lon="7.412957447402683"><ele>628.2</ele><time>2026-05-02T12:26:31.999Z</time></trkpt><trkpt lat="44.61912355411511" lon="7.412798363389323"><ele>629.4000000000001</ele><time>2026-05-02T12:26:33.999Z</time></trkpt><trkpt lat="44.6191090210768" lon="7.412696235300682"><ele>630.5999999999999</ele><time>2026-05-02T12:26:34.999Z</time></trkpt><trkpt lat="44.61909172102301" lon="7.41256304529855"><ele>631.8</ele><time>2026-05-02T12:26:35.999Z</time></trkpt><trkpt lat="44.619064028910984" lon="7.4124214922860086"><ele>633.0</ele><time>2026-05-02T12:26:36.999Z</time></trkpt><trkpt lat="44.61905496131181" lon="7.412261081567107"><ele>634.0</ele><time>2026-05-02T12:26:37.999Z</time></trkpt><trkpt lat="44.61907439637335" lon="7.4121095948536775"><ele>635.0</ele><time>2026-05-02T12:26:38.999Z</time></trkpt><trkpt lat="44.619087626902214" lon="7.411983716633622"><ele>636.0</ele><time>2026-05-02T12:26:39.999Z</time></trkpt><trkpt lat="44.61907046099441" lon="7.411891517730659"><ele>637.0</ele><time>2026-05-02T12:26:40.999Z</time></trkpt><trkpt lat="44.61900290387654" lon="7.411783018608832"><ele>638.0</ele><time>2026-05-02T12:26:41.999Z</time></trkpt><trkpt lat="44.618931444006776" lon="7.411676643148549"><ele>638.0</ele><time>2026-05-02T12:26:42.999Z</time></trkpt><trkpt lat="44.61885558316669" lon="7.411595624500103"><ele>638.0</ele><time>2026-05-02T12:26:43.999Z</time></trkpt><trkpt lat="44.61877458011342" lon="7.411505247695296"><ele>638.0</ele><time>2026-05-02T12:26:44.999Z</time></trkpt><trkpt lat="44.61868557544136" lon="7.411412623674452"><ele>638.0</ele><time>2026-05-02T12:26:45.999Z</time></trkpt><trkpt lat="44.61860386501009" lon="7.41130378347633"><ele>638.0</ele><time>2026-05-02T12:26:46.999Z</time></trkpt><trkpt lat="44.618508508143016" lon="7.4111767201867815"><ele>640.5999999999999</ele><time>2026-05-02T12:26:47.999Z</time></trkpt><trkpt lat="44.61841534858019" lon="7.411094530483552"><ele>643.1999999999999</ele><time>2026-05-02T12:26:48.999Z</time></trkpt><trkpt lat="44.61836596909713" lon="7.4110000828683305"><ele>645.8</ele><time>2026-05-02T12:26:49.999Z</time></trkpt><trkpt lat="44.61830795454974" lon="7.410826017833093"><ele>648.4</ele><time>2026-05-02T12:26:51.999Z</time></trkpt><trkpt lat="44.61828070318445" lon="7.410710285537508"><ele>651.0</ele><time>2026-05-02T12:26:52.999Z</time></trkpt><trkpt lat="44.61826423240165" lon="7.410588958874012"><ele>651.1999999999999</ele><time>2026-05-02T12:26:53.999Z</time></trkpt><trkpt lat="44.618263956114134" lon="7.410465829373353"><ele>651.4</ele><time>2026-05-02T12:26:54.999Z</time></trkpt><trkpt lat="44.61827056290217" lon="7.410323436316074"><ele>651.6</ele><time>2026-05-02T12:26:55.999Z</time></trkpt><trkpt lat="44.61828829927585" lon="7.410154197264968"><ele>651.8</ele><time>2026-05-02T12:26:56.999Z</time></trkpt><trkpt lat="44.61830708742558" lon="7.409988906849603"><ele>652.0</ele><time>2026-05-02T12:26:57.999Z</time></trkpt><trkpt lat="44.618335333241035" lon="7.409826261001238"><ele>652.0</ele><time>2026-05-02T12:26:58.999Z</time></trkpt><trkpt lat="44.618349489326604" lon="7.409667505226042"><ele>652.0</ele><time>2026-05-02T12:26:59.999Z</time></trkpt><trkpt lat="44.61834612094667" lon="7.409505394735602"><ele>652.0</ele><time>2026-05-02T12:27:00.999Z</time></trkpt><trkpt lat="44.6183205776619" lon="7.409330200509869"><ele>652.0</ele><time>2026-05-02T12:27:01.999Z</time></trkpt><trkpt lat="44.618278002787044" lon="7.409189325272396"><ele>652.4000000000001</ele><time>2026-05-02T12:27:02.999Z</time></trkpt><trkpt lat="44.618214038706995" lon="7.4090830153806415"><ele>652.8000000000001</ele><time>2026-05-02T12:27:03.999Z</time></trkpt><trkpt lat="44.61818195565942" lon="7.4089559648338845"><ele>653.2</ele><time>2026-05-02T12:27:04.999Z</time></trkpt><trkpt lat="44.61814356257616" lon="7.408845834934556"><ele>653.6</ele><time>2026-05-02T12:27:05.999Z</time></trkpt><trkpt lat="44.61810294538971" lon="7.408684324192"><ele>654.0</ele><time>2026-05-02T12:27:06.999Z</time></trkpt><trkpt lat="44.61807187658363" lon="7.408520210124207"><ele>655.8000000000001</ele><time>2026-05-02T12:27:07.999Z</time></trkpt><trkpt lat="44.61806014647899" lon="7.408366290823182"><ele>657.6</ele><time>2026-05-02T12:27:08.999Z</time></trkpt><trkpt lat="44.618051313572415" lon="7.408205873376764"><ele>659.4</ele><time>2026-05-02T12:27:09.999Z</time></trkpt><trkpt lat="44.61803843279707" lon="7.408047214099312"><ele>661.2</ele><time>2026-05-02T12:27:10.999Z</time></trkpt><trkpt lat="44.618037229917135" lon="7.407893496739069"><ele>663.0</ele><time>2026-05-02T12:27:11.999Z</time></trkpt><trkpt lat="44.618018904264545" lon="7.407764738578584"><ele>663.0</ele><time>2026-05-02T12:27:12.999Z</time></trkpt><trkpt lat="44.617982383287654" lon="7.40765379655852"><ele>663.0</ele><time>2026-05-02T12:27:13.999Z</time></trkpt><trkpt lat="44.617903118729096" lon="7.407549232370697"><ele>663.0</ele><time>2026-05-02T12:27:14.999Z</time></trkpt><trkpt lat="44.61781095015304" lon="7.407477349176793"><ele>663.0</ele><time>2026-05-02T12:27:15.999Z</time></trkpt><trkpt lat="44.617698687723916" lon="7.407439557598555"><ele>663.0</ele><time>2026-05-02T12:27:16.999Z</time></trkpt><trkpt lat="44.617604965274076" lon="7.407391187729093"><ele>663.5999999999999</ele><time>2026-05-02T12:27:17.999Z</time></trkpt><trkpt lat="44.617510783632135" lon="7.407326251165884"><ele>664.1999999999999</ele><time>2026-05-02T12:27:18.999Z</time></trkpt><trkpt lat="44.61747175589112" lon="7.407231814543589"><ele>664.8</ele><time>2026-05-02T12:27:19.999Z</time></trkpt><trkpt lat="44.61744341936036" lon="7.4071222637003045"><ele>665.4</ele><time>2026-05-02T12:27:20.999Z</time></trkpt><trkpt lat="44.61741223156675" lon="7.406989124607342"><ele>666.0</ele><time>2026-05-02T12:27:21.999Z</time></trkpt><trkpt lat="44.617383560477066" lon="7.406853597077578"><ele>667.0</ele><time>2026-05-02T12:27:22.999Z</time></trkpt><trkpt lat="44.6173558249206" lon="7.406754053984808"><ele>668.0</ele><time>2026-05-02T12:27:23.999Z</time></trkpt><trkpt lat="44.61732515268395" lon="7.40663799678961"><ele>669.0</ele><time>2026-05-02T12:27:24.999Z</time></trkpt><trkpt lat="44.617271538921976" lon="7.406510967005853"><ele>670.0</ele><time>2026-05-02T12:27:25.999Z</time></trkpt><trkpt lat="44.617196954527664" lon="7.406379109040621"><ele>671.0</ele><time>2026-05-02T12:27:26.999Z</time></trkpt><trkpt lat="44.61710703660407" lon="7.406255676561636"><ele>673.25</ele><time>2026-05-02T12:27:27.999Z</time></trkpt><trkpt lat="44.61700480784598" lon="7.4061195902620405"><ele>675.5</ele><time>2026-05-02T12:27:28.999Z</time></trkpt><trkpt lat="44.61689594062624" lon="7.405978477074534"><ele>677.75</ele><time>2026-05-02T12:27:29.999Z</time></trkpt><trkpt lat="44.61677955733054" lon="7.405832760096731"><ele>680.0</ele><time>2026-05-02T12:27:30.999Z</time></trkpt><trkpt lat="44.61667805513466" lon="7.405702940057427"><ele>680.0</ele><time>2026-05-02T12:27:31.999Z</time></trkpt><trkpt lat="44.61658600763857" lon="7.405556959100721"><ele>680.0</ele><time>2026-05-02T12:27:32.999Z</time></trkpt><trkpt lat="44.61651238446449" lon="7.405401096144558"><ele>680.0</ele><time>2026-05-02T12:27:33.999Z</time></trkpt><trkpt lat="44.61643043884412" lon="7.4052651145622015"><ele>680.0</ele><time>2026-05-02T12:27:34.999Z</time></trkpt><trkpt lat="44.61637283571823" lon="7.40514660227039"><ele>680.2</ele><time>2026-05-02T12:27:35.999Z</time></trkpt><trkpt lat="44.616329568609345" lon="7.4050570968710385"><ele>680.4</ele><time>2026-05-02T12:27:36.999Z</time></trkpt><trkpt lat="44.61628769098947" lon="7.40497105263586"><ele>680.5999999999999</ele><time>2026-05-02T12:27:37.999Z</time></trkpt><trkpt lat="44.61627777050841" lon="7.404766996209154"><ele>680.8</ele><time>2026-05-02T12:27:39.999Z</time></trkpt><trkpt lat="44.61629635352162" lon="7.404641510498971"><ele>681.0</ele><time>2026-05-02T12:27:40.999Z</time></trkpt><trkpt lat="44.61632832387727" lon="7.404498873799422"><ele>681.0</ele><time>2026-05-02T12:27:41.999Z</time></trkpt><trkpt lat="44.616334486060055" lon="7.40436517755316"><ele>681.0</ele><time>2026-05-02T12:27:42.999Z</time></trkpt><trkpt lat="44.61632618445294" lon="7.404246727513383"><ele>681.0</ele><time>2026-05-02T12:27:43.999Z</time></trkpt><trkpt lat="44.61631202944866" lon="7.404126885034695"><ele>681.0</ele><time>2026-05-02T12:27:44.999Z</time></trkpt><trkpt lat="44.61629969915545" lon="7.404021037577273"><ele>681.0</ele><time>2026-05-02T12:27:45.999Z</time></trkpt><trkpt lat="44.61631673550704" lon="7.403825440373981"><ele>679.8333333333334</ele><time>2026-05-02T12:27:47.999Z</time></trkpt><trkpt lat="44.61631544311725" lon="7.4037104247159595"><ele>678.6666666666666</ele><time>2026-05-02T12:27:48.999Z</time></trkpt><trkpt lat="44.616310492660354" lon="7.403601565108771"><ele>677.5</ele><time>2026-05-02T12:27:49.999Z</time></trkpt><trkpt lat="44.61631454773972" lon="7.4034889444817615"><ele>676.3333333333333</ele><time>2026-05-02T12:27:50.999Z</time></trkpt><trkpt lat="44.61630473782342" lon="7.403388945486632"><ele>675.1666666666666</ele><time>2026-05-02T12:27:51.999Z</time></trkpt><trkpt lat="44.61626442085106" lon="7.403297934947228"><ele>674.0</ele><time>2026-05-02T12:27:52.999Z</time></trkpt><trkpt lat="44.61620293711881" lon="7.4031787487180605"><ele>675.6</ele><time>2026-05-02T12:27:53.999Z</time></trkpt><trkpt lat="44.616134067550206" lon="7.4030758470524765"><ele>677.2</ele><time>2026-05-02T12:27:54.999Z</time></trkpt><trkpt lat="44.616062865100425" lon="7.402963442151779"><ele>678.8000000000001</ele><time>2026-05-02T12:27:55.999Z</time></trkpt><trkpt lat="44.615997208245474" lon="7.402852167403921"><ele>680.4000000000001</ele><time>2026-05-02T12:27:56.999Z</time></trkpt><trkpt lat="44.61595037399674" lon="7.402734577852373"><ele>682.0</ele><time>2026-05-02T12:27:57.999Z</time></trkpt><trkpt lat="44.61590718694537" lon="7.4026167948507755"><ele>682.2</ele><time>2026-05-02T12:27:58.999Z</time></trkpt><trkpt lat="44.61587857638701" lon="7.402486719209872"><ele>682.4000000000001</ele><time>2026-05-02T12:27:59.999Z</time></trkpt><trkpt lat="44.615868786125" lon="7.402348999257024"><ele>682.5999999999999</ele><time>2026-05-02T12:28:00.999Z</time></trkpt><trkpt lat="44.61582363582521" lon="7.402229141081612"><ele>682.8</ele><time>2026-05-02T12:28:01.999Z</time></trkpt><trkpt lat="44.61578694165001" lon="7.402120720639377"><ele>683.0</ele><time>2026-05-02T12:28:02.999Z</time></trkpt><trkpt lat="44.615722121145986" lon="7.402014603544952"><ele>684.5999999999999</ele><time>2026-05-02T12:28:03.999Z</time></trkpt><trkpt lat="44.615624313982266" lon="7.401916325515647"><ele>686.1999999999999</ele><time>2026-05-02T12:28:04.999Z</time></trkpt><trkpt lat="44.61553421412235" lon="7.401847980346682"><ele>687.8</ele><time>2026-05-02T12:28:05.999Z</time></trkpt><trkpt lat="44.615456219852454" lon="7.40179221839852"><ele>689.4</ele><time>2026-05-02T12:28:06.999Z</time></trkpt><trkpt lat="44.61537806982157" lon="7.401749307843561"><ele>691.0</ele><time>2026-05-02T12:28:07.999Z</time></trkpt><trkpt lat="44.61531188308446" lon="7.401717607779027"><ele>691.0</ele><time>2026-05-02T12:28:08.999Z</time></trkpt><trkpt lat="44.61519052965479" lon="7.401701648674113"><ele>691.0</ele><time>2026-05-02T12:28:10.999Z</time></trkpt><trkpt lat="44.6151041937566" lon="7.401723626670523"><ele>691.0</ele><time>2026-05-02T12:28:11.999Z</time></trkpt><trkpt lat="44.61500821476039" lon="7.401711309897111"><ele>691.0</ele><time>2026-05-02T12:28:12.999Z</time></trkpt><trkpt lat="44.61491421224676" lon="7.401696717892745"><ele>691.0</ele><time>2026-05-02T12:28:13.999Z</time></trkpt><trkpt lat="44.61480745878943" lon="7.401695086418002"><ele>691.0</ele><time>2026-05-02T12:28:14.999Z</time></trkpt><trkpt lat="44.614704348074476" lon="7.4016999626641065"><ele>691.0</ele><time>2026-05-02T12:28:15.999Z</time></trkpt><trkpt lat="44.61462967216741" lon="7.401677621559835"><ele>691.0</ele><time>2026-05-02T12:28:16.999Z</time></trkpt><trkpt lat="44.61455350887727" lon="7.401650439633036"><ele>691.0</ele><time>2026-05-02T12:28:17.999Z</time></trkpt><trkpt lat="44.61448152307444" lon="7.401595802567916"><ele>691.0</ele><time>2026-05-02T12:28:19Z</time></trkpt><trkpt lat="44.61438435596621" lon="7.401543898897511"><ele>691.0</ele><time>2026-05-02T12:28:20Z</time></trkpt><trkpt lat="44.614320057390664" lon="7.401493881395455"><ele>692.4</ele><time>2026-05-02T12:28:21Z</time></trkpt><trkpt lat="44.614296666097864" lon="7.4013512755574125"><ele>693.8</ele><time>2026-05-02T12:28:23Z</time></trkpt><trkpt lat="44.61438969597479" lon="7.4012121867744165"><ele>695.1999999999999</ele><time>2026-05-02T12:28:25Z</time></trkpt><trkpt lat="44.61447008137786" lon="7.401155798373715"><ele>696.5999999999999</ele><time>2026-05-02T12:28:26Z</time></trkpt><trkpt lat="44.61453380466595" lon="7.401117128672808"><ele>698.0</ele><time>2026-05-02T12:28:27Z</time></trkpt><trkpt lat="44.614607412032605" lon="7.401065418636505"><ele>699.8</ele><time>2026-05-02T12:28:28Z</time></trkpt><trkpt lat="44.61467192579315" lon="7.400993285811939"><ele>701.5999999999999</ele><time>2026-05-02T12:28:29Z</time></trkpt><trkpt lat="44.614742915975995" lon="7.4009228138422"><ele>703.4000000000001</ele><time>2026-05-02T12:28:30Z</time></trkpt><trkpt lat="44.61482770486963" lon="7.400842700829081"><ele>705.2</ele><time>2026-05-02T12:28:31Z</time></trkpt><trkpt lat="44.61489748148713" lon="7.400749399093214"><ele>707.0</ele><time>2026-05-02T12:28:32Z</time></trkpt><trkpt lat="44.6149782196519" lon="7.400643436979894"><ele>707.0</ele><time>2026-05-02T12:28:33Z</time></trkpt><trkpt lat="44.61508480781494" lon="7.400544300858425"><ele>707.0</ele><time>2026-05-02T12:28:34Z</time></trkpt><trkpt lat="44.615185640405215" lon="7.400497399506869"><ele>707.0</ele><time>2026-05-02T12:28:35Z</time></trkpt><trkpt lat="44.61526133115565" lon="7.400451100157092"><ele>707.0</ele><time>2026-05-02T12:28:36Z</time></trkpt><trkpt lat="44.61533776887001" lon="7.400472063861237"><ele>707.0</ele><time>2026-05-02T12:28:37Z</time></trkpt><trkpt lat="44.61540708896575" lon="7.400422087300011"><ele>708.6</ele><time>2026-05-02T12:28:39Z</time></trkpt><trkpt lat="44.615400575970035" lon="7.4002939593920605"><ele>710.2</ele><time>2026-05-02T12:28:41Z</time></trkpt><trkpt lat="44.615304254798204" lon="7.400154006095227"><ele>711.8</ele><time>2026-05-02T12:28:44Z</time></trkpt><trkpt lat="44.61526780608304" lon="7.400027109693592"><ele>713.4</ele><time>2026-05-02T12:28:45Z</time></trkpt><trkpt lat="44.615216655457274" lon="7.399921529608547"><ele>715.0</ele><time>2026-05-02T12:28:46Z</time></trkpt><trkpt lat="44.61513783195278" lon="7.3998002588518395"><ele>718.0</ele><time>2026-05-02T12:28:47Z</time></trkpt><trkpt lat="44.615056858456214" lon="7.399663317054835"><ele>721.0</ele><time>2026-05-02T12:28:48Z</time></trkpt><trkpt lat="44.61495947777343" lon="7.399565511027613"><ele>724.0</ele><time>2026-05-02T12:28:49Z</time></trkpt><trkpt lat="44.61489606194244" lon="7.399507255837545"><ele>727.0</ele><time>2026-05-02T12:28:50Z</time></trkpt><trkpt lat="44.614854653877096" lon="7.399393792743745"><ele>730.0</ele><time>2026-05-02T12:28:51Z</time></trkpt><trkpt lat="44.61498951194975" lon="7.399350682639766"><ele>730.0</ele><time>2026-05-02T12:28:52.999Z</time></trkpt><trkpt lat="44.61508301652899" lon="7.399371570861553"><ele>730.0</ele><time>2026-05-02T12:28:53.999Z</time></trkpt><trkpt lat="44.61518941262773" lon="7.399378508202585"><ele>730.0</ele><time>2026-05-02T12:28:54.999Z</time></trkpt><trkpt lat="44.6152878716323" lon="7.399361520342487"><ele>730.0</ele><time>2026-05-02T12:28:55.999Z</time></trkpt><trkpt lat="44.61535068296453" lon="7.399334332302451"><ele>730.0</ele><time>2026-05-02T12:28:56.999Z</time></trkpt><trkpt lat="44.61536716456332" lon="7.399234262953747"><ele>730.0</ele><time>2026-05-02T12:28:58.999Z</time></trkpt><trkpt lat="44.61527202888449" lon="7.399170840164385"><ele>730.0</ele><time>2026-05-02T12:29:00.999Z</time></trkpt><trkpt lat="44.615153499121796" lon="7.399141506426532"><ele>730.0</ele><time>2026-05-02T12:29:02.999Z</time></trkpt><trkpt lat="44.61506907072871" lon="7.399174540845071"><ele>730.0</ele><time>2026-05-02T12:29:04.999Z</time></trkpt><trkpt lat="44.614987334746715" lon="7.399186998038477"><ele>730.0</ele><time>2026-05-02T12:29:06.999Z</time></trkpt><trkpt lat="44.61487464620254" lon="7.399114986520688"><ele>730.0</ele><time>2026-05-02T12:29:08.999Z</time></trkpt><trkpt lat="44.61480554898383" lon="7.399038770122833"><ele>730.0</ele><time>2026-05-02T12:29:10.999Z</time></trkpt><trkpt lat="44.61474152600761" lon="7.398958646268813"><ele>730.0</ele><time>2026-05-02T12:29:12.999Z</time></trkpt><trkpt lat="44.614623876842266" lon="7.398933967362002"><ele>730.0</ele><time>2026-05-02T12:29:14.999Z</time></trkpt><trkpt lat="44.61454090248971" lon="7.398950689026004"><ele>730.0</ele><time>2026-05-02T12:29:15.999Z</time></trkpt><trkpt lat="44.61446250472827" lon="7.398969482390384"><ele>730.0</ele><time>2026-05-02T12:29:16.999Z</time></trkpt><trkpt lat="44.61434113958765" lon="7.399036913512838"><ele>734.4</ele><time>2026-05-02T12:29:17.999Z</time></trkpt><trkpt lat="44.61425018379523" lon="7.399131153202734"><ele>738.8</ele><time>2026-05-02T12:29:18.999Z</time></trkpt><trkpt lat="44.614186753306086" lon="7.399240075418446"><ele>743.2</ele><time>2026-05-02T12:29:19.999Z</time></trkpt><trkpt lat="44.614141691722196" lon="7.399346633442903"><ele>747.6</ele><time>2026-05-02T12:29:20.999Z</time></trkpt><trkpt lat="44.6140809835947" lon="7.399429793820227"><ele>752.0</ele><time>2026-05-02T12:29:21.999Z</time></trkpt><trkpt lat="44.61399361280318" lon="7.39948913358253"><ele>752.0</ele><time>2026-05-02T12:29:23.999Z</time></trkpt><trkpt lat="44.613929135461596" lon="7.3995385729536025"><ele>752.0</ele><time>2026-05-02T12:29:25.999Z</time></trkpt><trkpt lat="44.61385370986595" lon="7.399538346976317"><ele>752.0</ele><time>2026-05-02T12:29:27.999Z</time></trkpt><trkpt lat="44.61379202691344" lon="7.399482239780332"><ele>752.0</ele><time>2026-05-02T12:29:29.999Z</time></trkpt><trkpt lat="44.61371756603817" lon="7.3993663129384695"><ele>752.0</ele><time>2026-05-02T12:29:31.999Z</time></trkpt><trkpt lat="44.613592698507944" lon="7.399309800926064"><ele>752.6</ele><time>2026-05-02T12:29:33.999Z</time></trkpt><trkpt lat="44.613517553872946" lon="7.399272103373845"><ele>753.2</ele><time>2026-05-02T12:29:34.999Z</time></trkpt><trkpt lat="44.613435908398834" lon="7.399233669494543"><ele>753.8</ele><time>2026-05-02T12:29:35.999Z</time></trkpt><trkpt lat="44.61331998512617" lon="7.399197168990278"><ele>754.4</ele><time>2026-05-02T12:29:36.999Z</time></trkpt><trkpt lat="44.61319704123028" lon="7.3991611799372805"><ele>755.0</ele><time>2026-05-02T12:29:37.999Z</time></trkpt><trkpt lat="44.61303450230838" lon="7.399146623755768"><ele>755.0</ele><time>2026-05-02T12:29:38.999Z</time></trkpt><trkpt lat="44.61286716064389" lon="7.399177847710965"><ele>755.0</ele><time>2026-05-02T12:29:39.999Z</time></trkpt><trkpt lat="44.61273993497697" lon="7.399282433249224"><ele>755.0</ele><time>2026-05-02T12:29:40.999Z</time></trkpt><trkpt lat="44.612661708737754" lon="7.3993835142170985"><ele>755.0</ele><time>2026-05-02T12:29:41.999Z</time></trkpt><trkpt lat="44.61257911896222" lon="7.399413322447955"><ele>755.8</ele><time>2026-05-02T12:29:44.999Z</time></trkpt><trkpt lat="44.61250826398557" lon="7.399361523383536"><ele>756.6</ele><time>2026-05-02T12:29:45.999Z</time></trkpt><trkpt lat="44.61244605843185" lon="7.399265773874954"><ele>757.4000000000001</ele><time>2026-05-02T12:29:46.999Z</time></trkpt><trkpt lat="44.612389212209976" lon="7.399204709603125"><ele>758.2</ele><time>2026-05-02T12:29:47.999Z</time></trkpt><trkpt lat="44.61232165932527" lon="7.399154320871563"><ele>759.0</ele><time>2026-05-02T12:29:48.999Z</time></trkpt><trkpt lat="44.612218437644444" lon="7.398990962698818"><ele>759.0</ele><time>2026-05-02T12:29:50.999Z</time></trkpt><trkpt lat="44.612325230200305" lon="7.398873044286176"><ele>759.0</ele><time>2026-05-02T12:29:56.999Z</time></trkpt><trkpt lat="44.61239798198803" lon="7.398864373785596"><ele>759.0</ele><time>2026-05-02T12:29:57.999Z</time></trkpt><trkpt lat="44.61248241814441" lon="7.398807383088024"><ele>759.0</ele><time>2026-05-02T12:29:58.999Z</time></trkpt><trkpt lat="44.6125547961931" lon="7.398776222506256"><ele>759.0</ele><time>2026-05-02T12:29:59.999Z</time></trkpt><trkpt lat="44.61262021801342" lon="7.398700441374336"><ele>758.0</ele><time>2026-05-02T12:30:00.999Z</time></trkpt><trkpt lat="44.61270425239053" lon="7.3986760384908"><ele>757.0</ele><time>2026-05-02T12:30:01.999Z</time></trkpt><trkpt lat="44.61277927572761" lon="7.39873754712442"><ele>756.0</ele><time>2026-05-02T12:30:02.999Z</time></trkpt><trkpt lat="44.61290352865563" lon="7.398867111714946"><ele>755.0</ele><time>2026-05-02T12:30:03.999Z</time></trkpt><trkpt lat="44.613029044801884" lon="7.398824332425616"><ele>760.0</ele><time>2026-05-02T12:30:04.999Z</time></trkpt><trkpt lat="44.61313360701944" lon="7.398788396982255"><ele>765.0</ele><time>2026-05-02T12:30:05.999Z</time></trkpt><trkpt lat="44.61322370236196" lon="7.398765798487693"><ele>770.0</ele><time>2026-05-02T12:30:06.999Z</time></trkpt><trkpt lat="44.61333958072721" lon="7.3987708759721755"><ele>775.0</ele><time>2026-05-02T12:30:07.999Z</time></trkpt><trkpt lat="44.61340676849429" lon="7.398735714604598"><ele>780.0</ele><time>2026-05-02T12:30:08.999Z</time></trkpt><trkpt lat="44.61349169143158" lon="7.3987249107843525"><ele>780.0</ele><time>2026-05-02T12:30:09.999Z</time></trkpt><trkpt lat="44.6135834725998" lon="7.398712554402741"><ele>780.0</ele><time>2026-05-02T12:30:10.999Z</time></trkpt><trkpt lat="44.61367544378878" lon="7.398697678126023"><ele>780.0</ele><time>2026-05-02T12:30:11.999Z</time></trkpt><trkpt lat="44.61377469039864" lon="7.398675523154447"><ele>780.0</ele><time>2026-05-02T12:30:12.999Z</time></trkpt><trkpt lat="44.61384893524851" lon="7.398639346110172"><ele>780.0</ele><time>2026-05-02T12:30:13.999Z</time></trkpt><trkpt lat="44.613927197592645" lon="7.3985299802000295"><ele>780.0</ele><time>2026-05-02T12:30:15.999Z</time></trkpt><trkpt lat="44.61389943515898" lon="7.398441317518414"><ele>780.0</ele><time>2026-05-02T12:30:16.999Z</time></trkpt><trkpt lat="44.613829781276905" lon="7.398330855176783"><ele>780.0</ele><time>2026-05-02T12:30:18.999Z</time></trkpt><trkpt lat="44.613719868084935" lon="7.398313369202491"><ele>780.0</ele><time>2026-05-02T12:30:19.999Z</time></trkpt><trkpt lat="44.61360947855652" lon="7.3982192331402405"><ele>780.0</ele><time>2026-05-02T12:30:20.999Z</time></trkpt><trkpt lat="44.613519291907075" lon="7.398128850702608"><ele>780.0</ele><time>2026-05-02T12:30:21.999Z</time></trkpt><trkpt lat="44.61346482058493" lon="7.398057547708449"><ele>780.0</ele><time>2026-05-02T12:30:22.999Z</time></trkpt><trkpt lat="44.61351073100545" lon="7.397926025218961"><ele>780.0</ele><time>2026-05-02T12:30:25Z</time></trkpt><trkpt lat="44.61361229436042" lon="7.397995032701029"><ele>780.0</ele><time>2026-05-02T12:30:26Z</time></trkpt><trkpt lat="44.61377503683095" lon="7.397911165238584"><ele>780.0</ele><time>2026-05-02T12:30:30Z</time></trkpt><trkpt lat="44.61376367340948" lon="7.397747592634085"><ele>780.0</ele><time>2026-05-02T12:30:33Z</time></trkpt><trkpt lat="44.61366919819416" lon="7.3976729930697065"><ele>780.0</ele><time>2026-05-02T12:30:36Z</time></trkpt><trkpt lat="44.612890675348616" lon="7.397502105052566"><ele>786.0</ele><time>2026-05-02T12:30:41Z</time></trkpt><trkpt lat="44.61281023227839" lon="7.397400840501556"><ele>792.0</ele><time>2026-05-02T12:30:42Z</time></trkpt><trkpt lat="44.61270452880753" lon="7.397319761022167"><ele>798.0</ele><time>2026-05-02T12:30:43Z</time></trkpt><trkpt lat="44.61260969693241" lon="7.3972691544366"><ele>804.0</ele><time>2026-05-02T12:30:44Z</time></trkpt><trkpt lat="44.612481935965064" lon="7.397227022887787"><ele>804.0</ele><time>2026-05-02T12:30:45Z</time></trkpt><trkpt lat="44.612371485564346" lon="7.397209867133262"><ele>804.0</ele><time>2026-05-02T12:30:46Z</time></trkpt><trkpt lat="44.61225117444903" lon="7.397253696114297"><ele>804.0</ele><time>2026-05-02T12:30:47Z</time></trkpt><trkpt lat="44.61218766653488" lon="7.397405991843991"><ele>804.0</ele><time>2026-05-02T12:30:48Z</time></trkpt><trkpt lat="44.612011940430534" lon="7.397457158377191"><ele>804.5</ele><time>2026-05-02T12:30:49Z</time></trkpt><trkpt lat="44.611893765441025" lon="7.3974447688065395"><ele>805.0</ele><time>2026-05-02T12:30:50Z</time></trkpt><trkpt lat="44.61181396135692" lon="7.397496356503453"><ele>805.5</ele><time>2026-05-02T12:30:51Z</time></trkpt><trkpt lat="44.61175084198487" lon="7.397504472039572"><ele>806.0</ele><time>2026-05-02T12:30:52Z</time></trkpt><trkpt lat="44.61174854999422" lon="7.39724697532125"><ele>809.1999999999999</ele><time>2026-05-02T12:30:53Z</time></trkpt><trkpt lat="44.61179222140925" lon="7.397127959275711"><ele>812.4</ele><time>2026-05-02T12:30:55Z</time></trkpt><trkpt lat="44.61188675330063" lon="7.397098254964848"><ele>815.6</ele><time>2026-05-02T12:30:56Z</time></trkpt><trkpt lat="44.611835631273976" lon="7.396938141148462"><ele>818.8</ele><time>2026-05-02T12:30:58Z</time></trkpt><trkpt lat="44.611807752684484" lon="7.396850827456377"><ele>822.0</ele><time>2026-05-02T12:30:59Z</time></trkpt><trkpt lat="44.6117762470348" lon="7.396754078872096"><ele>822.0</ele><time>2026-05-02T12:30:59.999Z</time></trkpt><trkpt lat="44.61173733900891" lon="7.396648573203069"><ele>822.0</ele><time>2026-05-02T12:31:00.999Z</time></trkpt><trkpt lat="44.61169888774793" lon="7.3965402281049295"><ele>822.0</ele><time>2026-05-02T12:31:01.999Z</time></trkpt><trkpt lat="44.61159217374651" lon="7.396355411524077"><ele>822.0</ele><time>2026-05-02T12:31:03.999Z</time></trkpt><trkpt lat="44.611528700305854" lon="7.396263020284004"><ele>822.0</ele><time>2026-05-02T12:31:05.999Z</time></trkpt><trkpt lat="44.6114908257048" lon="7.3961726668058425"><ele>823.5</ele><time>2026-05-02T12:31:08.999Z</time></trkpt><trkpt lat="44.61151615596218" lon="7.396080760093259"><ele>825.0</ele><time>2026-05-02T12:31:12.999Z</time></trkpt><trkpt lat="44.611613988308456" lon="7.396120367639139"><ele>826.5</ele><time>2026-05-02T12:31:20.999Z</time></trkpt><trkpt lat="44.61167685006697" lon="7.39611214770962"><ele>828.0</ele><time>2026-05-02T12:31:23.999Z</time></trkpt><trkpt lat="44.611752148220376" lon="7.396120212973645"><ele>829.5</ele><time>2026-05-02T12:31:27.999Z</time></trkpt><trkpt lat="44.61181735569427" lon="7.396087432193315"><ele>831.0</ele><time>2026-05-02T12:31:29.999Z</time></trkpt><trkpt lat="44.611902174654645" lon="7.396049974836214"><ele>831.0</ele><time>2026-05-02T12:31:32.999Z</time></trkpt><trkpt lat="44.611971219399834" lon="7.395991182856212"><ele>831.0</ele><time>2026-05-02T12:31:34.999Z</time></trkpt><trkpt lat="44.611988167956326" lon="7.395882244304187"><ele>831.0</ele><time>2026-05-02T12:31:36.999Z</time></trkpt><trkpt lat="44.61197781171501" lon="7.395780905773615"><ele>831.0</ele><time>2026-05-02T12:31:38.999Z</time></trkpt><trkpt lat="44.61191544264833" lon="7.395705111686384"><ele>831.0</ele><time>2026-05-02T12:31:39.999Z</time></trkpt><trkpt lat="44.6118554949207" lon="7.395659224542141"><ele>831.0</ele><time>2026-05-02T12:31:40.999Z</time></trkpt><trkpt lat="44.61179033857358" lon="7.395619298835942"><ele>831.0</ele><time>2026-05-02T12:31:41.999Z</time></trkpt><trkpt lat="44.61171347010411" lon="7.395625385503252"><ele>831.0</ele><time>2026-05-02T12:31:42.999Z</time></trkpt><trkpt lat="44.61165019036569" lon="7.395604829817958"><ele>831.0</ele><time>2026-05-02T12:31:43.999Z</time></trkpt><trkpt lat="44.61155178766399" lon="7.3955899400117895"><ele>831.0</ele><time>2026-05-02T12:31:44.999Z</time></trkpt><trkpt lat="44.611477832903454" lon="7.395542143153489"><ele>831.0</ele><time>2026-05-02T12:31:45.999Z</time></trkpt><trkpt lat="44.61142467863426" lon="7.395474391633674"><ele>831.0</ele><time>2026-05-02T12:31:46.999Z</time></trkpt><trkpt lat="44.61149778214263" lon="7.395306326922951"><ele>831.1999999999999</ele><time>2026-05-02T12:31:47.999Z</time></trkpt><trkpt lat="44.611497479475574" lon="7.395190477094"><ele>831.4</ele><time>2026-05-02T12:31:48.999Z</time></trkpt><trkpt lat="44.61147881281544" lon="7.395053219129053"><ele>831.6</ele><time>2026-05-02T12:31:49.999Z</time></trkpt><trkpt lat="44.611452403396605" lon="7.3949041895887655"><ele>831.8</ele><time>2026-05-02T12:31:50.999Z</time></trkpt><trkpt lat="44.611426678492165" lon="7.394768347017248"><ele>832.0</ele><time>2026-05-02T12:31:51.999Z</time></trkpt><trkpt lat="44.61140438782066" lon="7.394661862111087"><ele>830.8</ele><time>2026-05-02T12:31:52.999Z</time></trkpt><trkpt lat="44.61138114586874" lon="7.394550832844331"><ele>829.6</ele><time>2026-05-02T12:31:53.999Z</time></trkpt><trkpt lat="44.61135486023111" lon="7.394425263400324"><ele>828.4</ele><time>2026-05-02T12:31:54.999Z</time></trkpt><trkpt lat="44.61132840647668" lon="7.39429889091323"><ele>827.1999999999999</ele><time>2026-05-02T12:31:55.999Z</time></trkpt><trkpt lat="44.61130189062109" lon="7.39417222181772"><ele>826.0</ele><time>2026-05-02T12:31:56.999Z</time></trkpt><trkpt lat="44.61127363440199" lon="7.394033539703217"><ele>825.9999999999999</ele><time>2026-05-02T12:31:57.999Z</time></trkpt><trkpt lat="44.61124241315342" lon="7.39392594274489"><ele>826.0</ele><time>2026-05-02T12:31:58.999Z</time></trkpt><trkpt lat="44.61121538880315" lon="7.39382073411666"><ele>826.0</ele><time>2026-05-02T12:31:59.999Z</time></trkpt><trkpt lat="44.61119700081345" lon="7.393729191518365"><ele>826.0</ele><time>2026-05-02T12:32:00.999Z</time></trkpt><trkpt lat="44.61117312588526" lon="7.393615542623296"><ele>825.9999999999999</ele><time>2026-05-02T12:32:01.999Z</time></trkpt><trkpt lat="44.6111670099868" lon="7.393512987818576"><ele>826.0</ele><time>2026-05-02T12:32:02.999Z</time></trkpt><trkpt lat="44.61114105349388" lon="7.393393950262264"><ele>826.0</ele><time>2026-05-02T12:32:03.999Z</time></trkpt><trkpt lat="44.611114503949516" lon="7.393270926917804"><ele>826.0</ele><time>2026-05-02T12:32:04.999Z</time></trkpt><trkpt lat="44.61108990676832" lon="7.3931568937143535"><ele>826.0</ele><time>2026-05-02T12:32:05.999Z</time></trkpt><trkpt lat="44.611055467664976" lon="7.393048774318986"><ele>826.0</ele><time>2026-05-02T12:32:06.999Z</time></trkpt><trkpt lat="44.61103131297441" lon="7.392868462135853"><ele>826.0</ele><time>2026-05-02T12:32:08.999Z</time></trkpt><trkpt lat="44.6110083921495" lon="7.392761074436744"><ele>829.4</ele><time>2026-05-02T12:32:09.999Z</time></trkpt><trkpt lat="44.61095515159673" lon="7.392643072895609"><ele>832.8</ele><time>2026-05-02T12:32:10.999Z</time></trkpt><trkpt lat="44.61089592763609" lon="7.392522182290701"><ele>836.1999999999999</ele><time>2026-05-02T12:32:11.999Z</time></trkpt><trkpt lat="44.610840169546606" lon="7.392413669454845"><ele>839.5999999999999</ele><time>2026-05-02T12:32:12.999Z</time></trkpt><trkpt lat="44.61078775569336" lon="7.392312534261612"><ele>843.0</ele><time>2026-05-02T12:32:13.999Z</time></trkpt><trkpt lat="44.61074843846751" lon="7.392225116196758"><ele>846.8</ele><time>2026-05-02T12:32:14.999Z</time></trkpt><trkpt lat="44.610679065939706" lon="7.39208642313783"><ele>850.5999999999999</ele><time>2026-05-02T12:32:16.999Z</time></trkpt><trkpt lat="44.61061778422108" lon="7.391979154084113"><ele>854.4000000000001</ele><time>2026-05-02T12:32:18.999Z</time></trkpt><trkpt lat="44.61057924717608" lon="7.391865341999213"><ele>858.2</ele><time>2026-05-02T12:32:20.999Z</time></trkpt><trkpt lat="44.61047696107635" lon="7.391746285862568"><ele>862.0</ele><time>2026-05-02T12:32:22.999Z</time></trkpt><trkpt lat="44.61043558407897" lon="7.391659262414702"><ele>861.9999999999999</ele><time>2026-05-02T12:32:23.999Z</time></trkpt><trkpt lat="44.61039223596442" lon="7.39156990011789"><ele>862.0</ele><time>2026-05-02T12:32:24.999Z</time></trkpt><trkpt lat="44.610349660253256" lon="7.391489532445753"><ele>862.0</ele><time>2026-05-02T12:32:25.999Z</time></trkpt><trkpt lat="44.6102993113137" lon="7.39140671037905"><ele>862.0</ele><time>2026-05-02T12:32:26.999Z</time></trkpt><trkpt lat="44.610251424246435" lon="7.391327937774868"><ele>861.9999999999999</ele><time>2026-05-02T12:32:27.999Z</time></trkpt><trkpt lat="44.610171352784086" lon="7.391212055953944"><ele>862.0</ele><time>2026-05-02T12:32:29.999Z</time></trkpt><trkpt lat="44.61007102572162" lon="7.391098927642008"><ele>863.9999999999999</ele><time>2026-05-02T12:32:32Z</time></trkpt><trkpt lat="44.6099894232983" lon="7.391040749415873"><ele>866.0</ele><time>2026-05-02T12:32:33Z</time></trkpt><trkpt lat="44.60989924269874" lon="7.391012266295239"><ele>868.0</ele><time>2026-05-02T12:32:35Z</time></trkpt><trkpt lat="44.60982265873354" lon="7.390987843639709"><ele>870.0</ele><time>2026-05-02T12:32:36Z</time></trkpt><trkpt lat="44.60974116770285" lon="7.390926625252833"><ele>871.9999999999999</ele><time>2026-05-02T12:32:37Z</time></trkpt><trkpt lat="44.609672695620596" lon="7.3908942512369"><ele>874.0</ele><time>2026-05-02T12:32:38Z</time></trkpt><trkpt lat="44.609604121758075" lon="7.390880853654682"><ele>873.9999999999999</ele><time>2026-05-02T12:32:39Z</time></trkpt><trkpt lat="44.60953440311816" lon="7.390849243015019"><ele>874.0</ele><time>2026-05-02T12:32:40Z</time></trkpt><trkpt lat="44.609436116980746" lon="7.390844361604541"><ele>874.0</ele><time>2026-05-02T12:32:41Z</time></trkpt><trkpt lat="44.60934415040144" lon="7.390871170438489"><ele>874.0</ele><time>2026-05-02T12:32:42Z</time></trkpt><trkpt lat="44.609268878915096" lon="7.39089899225319"><ele>873.9999999999999</ele><time>2026-05-02T12:32:43Z</time></trkpt><trkpt lat="44.609199002081084" lon="7.390930280601804"><ele>874.0</ele><time>2026-05-02T12:32:44Z</time></trkpt><trkpt lat="44.609124803260265" lon="7.390910249087234"><ele>873.4999999999999</ele><time>2026-05-02T12:32:45Z</time></trkpt><trkpt lat="44.60905457017048" lon="7.390906574268396"><ele>873.0</ele><time>2026-05-02T12:32:46Z</time></trkpt><trkpt lat="44.60893816756053" lon="7.390859339405692"><ele>872.5</ele><time>2026-05-02T12:32:48Z</time></trkpt><trkpt lat="44.60883752387347" lon="7.390830042292509"><ele>872.0</ele><time>2026-05-02T12:32:49Z</time></trkpt><trkpt lat="44.60877098079159" lon="7.390829594638361"><ele>871.4999999999999</ele><time>2026-05-02T12:32:50Z</time></trkpt><trkpt lat="44.60870362046831" lon="7.390808324097359"><ele>871.0</ele><time>2026-05-02T12:32:51Z</time></trkpt><trkpt lat="44.60862200448089" lon="7.3907897029310545"><ele>869.0</ele><time>2026-05-02T12:32:52Z</time></trkpt><trkpt lat="44.60853554368221" lon="7.3908486656340475"><ele>866.9999999999999</ele><time>2026-05-02T12:32:53Z</time></trkpt><trkpt lat="44.60847436256615" lon="7.3908749626144825"><ele>864.9999999999999</ele><time>2026-05-02T12:32:55Z</time></trkpt><trkpt lat="44.608382159567775" lon="7.390860134177774"><ele>863.0</ele><time>2026-05-02T12:32:58Z</time></trkpt><trkpt lat="44.608313750317066" lon="7.390775320961684"><ele>861.0</ele><time>2026-05-02T12:32:59Z</time></trkpt><trkpt lat="44.60822645796206" lon="7.390678713054573"><ele>861.0</ele><time>2026-05-02T12:33:00Z</time></trkpt><trkpt lat="44.60816609710779" lon="7.390561785027853"><ele>860.9999999999999</ele><time>2026-05-02T12:33:01Z</time></trkpt><trkpt lat="44.6080989304615" lon="7.390498922814091"><ele>860.9999999999999</ele><time>2026-05-02T12:33:02Z</time></trkpt><trkpt lat="44.60802421739556" lon="7.390469759908712"><ele>861.0</ele><time>2026-05-02T12:33:03Z</time></trkpt><trkpt lat="44.60795631362683" lon="7.390488173918523"><ele>861.0</ele><time>2026-05-02T12:33:04Z</time></trkpt><trkpt lat="44.60783714778114" lon="7.390498797740952"><ele>859.6666666666666</ele><time>2026-05-02T12:33:05.999Z</time></trkpt><trkpt lat="44.607758442222696" lon="7.390495303054625"><ele>858.3333333333333</ele><time>2026-05-02T12:33:07.999Z</time></trkpt><trkpt lat="44.60768877090344" lon="7.390378376241445"><ele>857.0</ele><time>2026-05-02T12:33:10.999Z</time></trkpt><trkpt lat="44.60766107700535" lon="7.3902760911718"><ele>855.6666666666666</ele><time>2026-05-02T12:33:11.999Z</time></trkpt><trkpt lat="44.60763859050896" lon="7.390185262180992"><ele>854.3333333333333</ele><time>2026-05-02T12:33:12.999Z</time></trkpt><trkpt lat="44.6076021901945" lon="7.390055530426065"><ele>853.0</ele><time>2026-05-02T12:33:14.999Z</time></trkpt><trkpt lat="44.607546293946434" lon="7.389921188237604"><ele>853.0</ele><time>2026-05-02T12:33:16.999Z</time></trkpt><trkpt lat="44.60743900040448" lon="7.3898556383157405"><ele>853.0</ele><time>2026-05-02T12:33:18.999Z</time></trkpt><trkpt lat="44.6073391947733" lon="7.389799027052364"><ele>853.0</ele><time>2026-05-02T12:33:20.999Z</time></trkpt><trkpt lat="44.60726369043624" lon="7.389714280363845"><ele>853.0</ele><time>2026-05-02T12:33:22.999Z</time></trkpt><trkpt lat="44.60716634040548" lon="7.389695219818288"><ele>853.0</ele><time>2026-05-02T12:33:24.999Z</time></trkpt><trkpt lat="44.60706716507143" lon="7.389676956597889"><ele>847.0</ele><time>2026-05-02T12:33:26.999Z</time></trkpt><trkpt lat="44.6069866210654" lon="7.3896467267955215"><ele>841.0</ele><time>2026-05-02T12:33:28.999Z</time></trkpt><trkpt lat="44.606894499007645" lon="7.389483544543998"><ele>835.0</ele><time>2026-05-02T12:33:31.999Z</time></trkpt><trkpt lat="44.60691916919068" lon="7.389275081691924"><ele>829.0</ele><time>2026-05-02T12:33:33.999Z</time></trkpt><trkpt lat="44.60697476833518" lon="7.389174553101377"><ele>836.0</ele><time>2026-05-02T12:33:34.999Z</time></trkpt><trkpt lat="44.60704086430098" lon="7.389103910545121"><ele>843.0</ele><time>2026-05-02T12:33:35.999Z</time></trkpt><trkpt lat="44.60712967214024" lon="7.389000771153294"><ele>850.0000000000001</ele><time>2026-05-02T12:33:37.999Z</time></trkpt><trkpt lat="44.60720464129227" lon="7.388869519010195"><ele>857.0</ele><time>2026-05-02T12:33:39.999Z</time></trkpt><trkpt lat="44.607223897193506" lon="7.388743744304472"><ele>864.0</ele><time>2026-05-02T12:33:41.999Z</time></trkpt><trkpt lat="44.60718243556199" lon="7.38867067408348"><ele>864.8571428571429</ele><time>2026-05-02T12:33:42.999Z</time></trkpt><trkpt lat="44.60709955321887" lon="7.388661421493801"><ele>865.7142857142857</ele><time>2026-05-02T12:33:43.999Z</time></trkpt><trkpt lat="44.60702650589604" lon="7.388651495444495"><ele>866.5714285714287</ele><time>2026-05-02T12:33:44.999Z</time></trkpt><trkpt lat="44.606955692528636" lon="7.388630586562322"><ele>867.4285714285714</ele><time>2026-05-02T12:33:45.999Z</time></trkpt><trkpt lat="44.60689822348568" lon="7.38858961693606"><ele>868.2857142857143</ele><time>2026-05-02T12:33:46.999Z</time></trkpt><trkpt lat="44.60685239422043" lon="7.38851913311053"><ele>869.1428571428572</ele><time>2026-05-02T12:33:47.999Z</time></trkpt><trkpt lat="44.606812010580235" lon="7.388430114337538"><ele>870.0</ele><time>2026-05-02T12:33:48.999Z</time></trkpt><trkpt lat="44.606778143860716" lon="7.388318280425968"><ele>865.6</ele><time>2026-05-02T12:33:49.999Z</time></trkpt><trkpt lat="44.606757390712744" lon="7.388179094790153"><ele>861.2</ele><time>2026-05-02T12:33:50.999Z</time></trkpt><trkpt lat="44.60672481471465" lon="7.388034508029556"><ele>856.8</ele><time>2026-05-02T12:33:51.999Z</time></trkpt><trkpt lat="44.6066921244869" lon="7.387877130427602"><ele>852.4</ele><time>2026-05-02T12:33:52.999Z</time></trkpt><trkpt lat="44.60667619836919" lon="7.387710876065743"><ele>848.0</ele><time>2026-05-02T12:33:53.999Z</time></trkpt><trkpt lat="44.60664963708408" lon="7.387549551981854"><ele>848.0</ele><time>2026-05-02T12:33:54.999Z</time></trkpt><trkpt lat="44.60660557076498" lon="7.387384058701262"><ele>848.0</ele><time>2026-05-02T12:33:55.999Z</time></trkpt><trkpt lat="44.60655624437742" lon="7.387229543010939"><ele>848.0</ele><time>2026-05-02T12:33:56.999Z</time></trkpt><trkpt lat="44.606527432548106" lon="7.387078233526866"><ele>848.0</ele><time>2026-05-02T12:33:57.999Z</time></trkpt><trkpt lat="44.60651679964741" lon="7.386913321562577"><ele>850.0</ele><time>2026-05-02T12:33:58.999Z</time></trkpt><trkpt lat="44.60649509826234" lon="7.386765146712303"><ele>852.0</ele><time>2026-05-02T12:33:59.999Z</time></trkpt><trkpt lat="44.606452512989144" lon="7.386622593659263"><ele>854.0</ele><time>2026-05-02T12:34:00.999Z</time></trkpt><trkpt lat="44.60640594803293" lon="7.386484282492217"><ele>856.0</ele><time>2026-05-02T12:34:01.999Z</time></trkpt><trkpt lat="44.60636280388514" lon="7.38636066760968"><ele>858.0</ele><time>2026-05-02T12:34:02.999Z</time></trkpt><trkpt lat="44.60632507499819" lon="7.386263882724958"><ele>857.6666666666666</ele><time>2026-05-02T12:34:03.999Z</time></trkpt><trkpt lat="44.60628503492084" lon="7.386193969806928"><ele>857.3333333333333</ele><time>2026-05-02T12:34:04.999Z</time></trkpt><trkpt lat="44.606204918733894" lon="7.3860602145673875"><ele>857.0</ele><time>2026-05-02T12:34:06.999Z</time></trkpt><trkpt lat="44.60615649875682" lon="7.385990633705722"><ele>856.6666666666666</ele><time>2026-05-02T12:34:07.999Z</time></trkpt><trkpt lat="44.606097837796675" lon="7.385910686566046"><ele>856.3333333333333</ele><time>2026-05-02T12:34:08.999Z</time></trkpt><trkpt lat="44.60604115800218" lon="7.385834218342854"><ele>856.0</ele><time>2026-05-02T12:34:09.999Z</time></trkpt><trkpt lat="44.60597546415814" lon="7.3857450789411105"><ele>855.9999999999999</ele><time>2026-05-02T12:34:10.999Z</time></trkpt><trkpt lat="44.60591227543132" lon="7.385658699598247"><ele>856.0</ele><time>2026-05-02T12:34:11.999Z</time></trkpt><trkpt lat="44.605857221971306" lon="7.385578601993905"><ele>856.0</ele><time>2026-05-02T12:34:12.999Z</time></trkpt><trkpt lat="44.60580746686911" lon="7.385500078089866"><ele>856.0</ele><time>2026-05-02T12:34:13.999Z</time></trkpt><trkpt lat="44.6057695478696" lon="7.3854270637914325"><ele>855.9999999999999</ele><time>2026-05-02T12:34:14.999Z</time></trkpt><trkpt lat="44.60572819847097" lon="7.385329585573725"><ele>856.0</ele><time>2026-05-02T12:34:15.999Z</time></trkpt><trkpt lat="44.60569218625676" lon="7.385215963667321"><ele>859.0</ele><time>2026-05-02T12:34:16.999Z</time></trkpt><trkpt lat="44.60566323428392" lon="7.385092660725841"><ele>861.9999999999999</ele><time>2026-05-02T12:34:17.999Z</time></trkpt><trkpt lat="44.605628907043176" lon="7.384956514577209"><ele>864.9999999999999</ele><time>2026-05-02T12:34:18.999Z</time></trkpt><trkpt lat="44.605596941010795" lon="7.384832683140784"><ele>868.0</ele><time>2026-05-02T12:34:19.999Z</time></trkpt><trkpt lat="44.60556899332465" lon="7.384715933226739"><ele>871.0</ele><time>2026-05-02T12:34:20.999Z</time></trkpt><trkpt lat="44.605540935172996" lon="7.3845964491374385"><ele>871.4999999999999</ele><time>2026-05-02T12:34:21.999Z</time></trkpt><trkpt lat="44.60551316156561" lon="7.38448296919509"><ele>872.0</ele><time>2026-05-02T12:34:22.999Z</time></trkpt><trkpt lat="44.60548099277505" lon="7.384370185390731"><ele>872.5</ele><time>2026-05-02T12:34:23.999Z</time></trkpt><trkpt lat="44.60544625464147" lon="7.384271111559177"><ele>873.0</ele><time>2026-05-02T12:34:24.999Z</time></trkpt><trkpt lat="44.605405786986076" lon="7.384171643126588"><ele>873.4999999999999</ele><time>2026-05-02T12:34:25.999Z</time></trkpt><trkpt lat="44.60537165721409" lon="7.384080372031228"><ele>874.0</ele><time>2026-05-02T12:34:26.999Z</time></trkpt><trkpt lat="44.605306110350504" lon="7.3840146831638185"><ele>874.0</ele><time>2026-05-02T12:34:27.999Z</time></trkpt><trkpt lat="44.60524099955985" lon="7.38393242432291"><ele>874.0000000000001</ele><time>2026-05-02T12:34:28.999Z</time></trkpt><trkpt lat="44.605178545692034" lon="7.383832704349849"><ele>874.0000000000001</ele><time>2026-05-02T12:34:29.999Z</time></trkpt><trkpt lat="44.60509335955781" lon="7.383731613156431"><ele>874.0</ele><time>2026-05-02T12:34:30.999Z</time></trkpt><trkpt lat="44.604998434905816" lon="7.383628405829198"><ele>874.0</ele><time>2026-05-02T12:34:31.999Z</time></trkpt><trkpt lat="44.60492613274227" lon="7.383550300669939"><ele>876.4999999999999</ele><time>2026-05-02T12:34:32.999Z</time></trkpt><trkpt lat="44.60486732408135" lon="7.383509646792894"><ele>879.0</ele><time>2026-05-02T12:34:33.999Z</time></trkpt><trkpt lat="44.604797971475044" lon="7.383514874262229"><ele>881.5</ele><time>2026-05-02T12:34:34.999Z</time></trkpt><trkpt lat="44.60471902343048" lon="7.383574885957898"><ele>884.0</ele><time>2026-05-02T12:34:35.999Z</time></trkpt><trkpt lat="44.60463717948442" lon="7.383592404024082"><ele>886.4999999999999</ele><time>2026-05-02T12:34:37Z</time></trkpt><trkpt lat="44.60453202338308" lon="7.383608685385707"><ele>889.0</ele><time>2026-05-02T12:34:38Z</time></trkpt><trkpt lat="44.60443736566837" lon="7.383637422557626"><ele>888.9999999999999</ele><time>2026-05-02T12:34:39Z</time></trkpt><trkpt lat="44.604356527946024" lon="7.383673034481245"><ele>889.0</ele><time>2026-05-02T12:34:40Z</time></trkpt><trkpt lat="44.60429201945069" lon="7.383650881161671"><ele>889.0</ele><time>2026-05-02T12:34:41Z</time></trkpt><trkpt lat="44.60419119229991" lon="7.383603804174473"><ele>889.0</ele><time>2026-05-02T12:34:42Z</time></trkpt><trkpt lat="44.60410726162471" lon="7.3835486437918325"><ele>888.9999999999999</ele><time>2026-05-02T12:34:43Z</time></trkpt><trkpt lat="44.60404675179594" lon="7.383463119454265"><ele>889.0</ele><time>2026-05-02T12:34:44Z</time></trkpt><trkpt lat="44.60400013224938" lon="7.3833514004730985"><ele>889.0</ele><time>2026-05-02T12:34:45Z</time></trkpt><trkpt lat="44.60400373104324" lon="7.383194005576091"><ele>889.0000000000001</ele><time>2026-05-02T12:34:46Z</time></trkpt><trkpt lat="44.603995888729024" lon="7.38304115313208"><ele>889.0000000000001</ele><time>2026-05-02T12:34:47Z</time></trkpt><trkpt lat="44.60397035384827" lon="7.38291093055316"><ele>889.0</ele><time>2026-05-02T12:34:48Z</time></trkpt><trkpt lat="44.60392229925203" lon="7.3827901823620286"><ele>889.0</ele><time>2026-05-02T12:34:49Z</time></trkpt><trkpt lat="44.60386519742098" lon="7.3826655202494305"><ele>891.1666666666666</ele><time>2026-05-02T12:34:50Z</time></trkpt><trkpt lat="44.603817721927946" lon="7.382563038078113"><ele>893.3333333333333</ele><time>2026-05-02T12:34:51Z</time></trkpt><trkpt lat="44.603784883227746" lon="7.382483054335168"><ele>895.5</ele><time>2026-05-02T12:34:52Z</time></trkpt><trkpt lat="44.603756719993065" lon="7.3823791018438785"><ele>897.6666666666667</ele><time>2026-05-02T12:34:53Z</time></trkpt><trkpt lat="44.6037439264182" lon="7.3822368203179405"><ele>899.8333333333334</ele><time>2026-05-02T12:34:54Z</time></trkpt><trkpt lat="44.603748513250586" lon="7.382122735181006"><ele>902.0</ele><time>2026-05-02T12:34:55Z</time></trkpt><trkpt lat="44.603828461780964" lon="7.382009696351996"><ele>902.0</ele><time>2026-05-02T12:34:57Z</time></trkpt><trkpt lat="44.603997494592825" lon="7.382006277515888"><ele>902.0</ele><time>2026-05-02T12:34:59Z</time></trkpt><trkpt lat="44.60409331770903" lon="7.381923651170989"><ele>902.0</ele><time>2026-05-02T12:35:00Z</time></trkpt><trkpt lat="44.604179590928695" lon="7.381750868435579"><ele>902.0</ele><time>2026-05-02T12:35:01Z</time></trkpt><trkpt lat="44.604219112529584" lon="7.381590995018481"><ele>902.0</ele><time>2026-05-02T12:35:02Z</time></trkpt><trkpt lat="44.60423777980716" lon="7.381488106444801"><ele>902.0</ele><time>2026-05-02T12:35:03Z</time></trkpt><trkpt lat="44.604255523918674" lon="7.381292319676077"><ele>902.0</ele><time>2026-05-02T12:35:04Z</time></trkpt><trkpt lat="44.604261469999685" lon="7.381173186346768"><ele>902.0</ele><time>2026-05-02T12:35:05Z</time></trkpt><trkpt lat="44.60426744522217" lon="7.381017266533792"><ele>902.0</ele><time>2026-05-02T12:35:06Z</time></trkpt><trkpt lat="44.6042580865253" lon="7.380885783196936"><ele>901.6</ele><time>2026-05-02T12:35:07Z</time></trkpt><trkpt lat="44.604270520741004" lon="7.380708661583661"><ele>901.2</ele><time>2026-05-02T12:35:08Z</time></trkpt><trkpt lat="44.60428096422762" lon="7.380564375360962"><ele>900.8</ele><time>2026-05-02T12:35:09Z</time></trkpt><trkpt lat="44.60433686700543" lon="7.3804534440529"><ele>900.4</ele><time>2026-05-02T12:35:10Z</time></trkpt><trkpt lat="44.604420543282465" lon="7.380407407067049"><ele>900.0</ele><time>2026-05-02T12:35:10.999Z</time></trkpt><trkpt lat="44.604493904045775" lon="7.380227439618653"><ele>899.6666666666666</ele><time>2026-05-02T12:35:11.999Z</time></trkpt><trkpt lat="44.60451100283124" lon="7.380139048079314"><ele>899.3333333333333</ele><time>2026-05-02T12:35:12.999Z</time></trkpt><trkpt lat="44.60451223866602" lon="7.380024503872392"><ele>899.0</ele><time>2026-05-02T12:35:13.999Z</time></trkpt><trkpt lat="44.60447580638914" lon="7.379919303932705"><ele>898.6666666666666</ele><time>2026-05-02T12:35:14.999Z</time></trkpt><trkpt lat="44.60444556852717" lon="7.379806554045256"><ele>898.3333333333333</ele><time>2026-05-02T12:35:15.999Z</time></trkpt><trkpt lat="44.604445959363616" lon="7.379686259068288"><ele>898.0</ele><time>2026-05-02T12:35:16.999Z</time></trkpt><trkpt lat="44.60448105106186" lon="7.379574241262714"><ele>895.8</ele><time>2026-05-02T12:35:17.999Z</time></trkpt><trkpt lat="44.60448819074486" lon="7.379466107416102"><ele>893.5999999999999</ele><time>2026-05-02T12:35:18.999Z</time></trkpt><trkpt lat="44.604522566578474" lon="7.379364804390645"><ele>891.4000000000001</ele><time>2026-05-02T12:35:19.999Z</time></trkpt><trkpt lat="44.6045776243734" lon="7.379282755594707"><ele>889.2</ele><time>2026-05-02T12:35:20.999Z</time></trkpt><trkpt lat="44.60468169881869" lon="7.379256110306519"><ele>887.0</ele><time>2026-05-02T12:35:21.999Z</time></trkpt><trkpt lat="44.6047948670052" lon="7.379242682571229"><ele>889.4000000000001</ele><time>2026-05-02T12:35:22.999Z</time></trkpt><trkpt lat="44.604892022117" lon="7.379185770895571"><ele>891.8000000000001</ele><time>2026-05-02T12:35:23.999Z</time></trkpt><trkpt lat="44.60497009771668" lon="7.379141698737973"><ele>894.2</ele><time>2026-05-02T12:35:24.999Z</time></trkpt><trkpt lat="44.605045503857895" lon="7.379057101572505"><ele>896.6</ele><time>2026-05-02T12:35:25.999Z</time></trkpt><trkpt lat="44.60509064547366" lon="7.378936432341052"><ele>899.0</ele><time>2026-05-02T12:35:26.999Z</time></trkpt><trkpt lat="44.60507776006223" lon="7.378774337833424"><ele>899.0</ele><time>2026-05-02T12:35:27.999Z</time></trkpt><trkpt lat="44.60501797029161" lon="7.378540412035485"><ele>899.0</ele><time>2026-05-02T12:35:28.999Z</time></trkpt><trkpt lat="44.60506551492984" lon="7.378428706115779"><ele>899.0</ele><time>2026-05-02T12:35:29.999Z</time></trkpt><trkpt lat="44.60511457227139" lon="7.378313443242678"><ele>899.0</ele><time>2026-05-02T12:35:30.999Z</time></trkpt><trkpt lat="44.60516612641223" lon="7.378192315665881"><ele>899.0</ele><time>2026-05-02T12:35:31.999Z</time></trkpt><trkpt lat="44.60526191176321" lon="7.378094515372007"><ele>899.0</ele><time>2026-05-02T12:35:32.999Z</time></trkpt><trkpt lat="44.605405312287985" lon="7.37812324810105"><ele>899.0</ele><time>2026-05-02T12:35:33.999Z</time></trkpt><trkpt lat="44.60550414680459" lon="7.378051020630663"><ele>899.0</ele><time>2026-05-02T12:35:34.999Z</time></trkpt><trkpt lat="44.60560311993169" lon="7.377924066882094"><ele>904.25</ele><time>2026-05-02T12:35:35.999Z</time></trkpt><trkpt lat="44.605672035642016" lon="7.377774039508099"><ele>909.5</ele><time>2026-05-02T12:35:36.999Z</time></trkpt><trkpt lat="44.605708391222436" lon="7.377611682536018"><ele>914.75</ele><time>2026-05-02T12:35:37.999Z</time></trkpt><trkpt lat="44.60575154604217" lon="7.377482722106308"><ele>920.0</ele><time>2026-05-02T12:35:38.999Z</time></trkpt><trkpt lat="44.605746186214866" lon="7.377337999817014"><ele>920.0</ele><time>2026-05-02T12:35:39.999Z</time></trkpt><trkpt lat="44.60558240422447" lon="7.377221583965339"><ele>920.0</ele><time>2026-05-02T12:35:40.999Z</time></trkpt><trkpt lat="44.6055751796348" lon="7.3770691849937515"><ele>920.0</ele><time>2026-05-02T12:35:41.999Z</time></trkpt><trkpt lat="44.60557306187903" lon="7.376902110768057"><ele>920.0</ele><time>2026-05-02T12:35:42.999Z</time></trkpt><trkpt lat="44.60557913747525" lon="7.376774763287505"><ele>920.0000000000001</ele><time>2026-05-02T12:35:43.999Z</time></trkpt><trkpt lat="44.60559787947783" lon="7.3766447892441285"><ele>920.0</ele><time>2026-05-02T12:35:44.999Z</time></trkpt><trkpt lat="44.605625809170604" lon="7.376554811281354"><ele>920.0</ele><time>2026-05-02T12:35:45.999Z</time></trkpt><trkpt lat="44.6056770702926" lon="7.3764826463814455"><ele>920.0</ele><time>2026-05-02T12:35:46.999Z</time></trkpt><trkpt lat="44.60576301998752" lon="7.376522658375459"><ele>920.0000000000001</ele><time>2026-05-02T12:35:47.999Z</time></trkpt><trkpt lat="44.605835611683496" lon="7.3765789520067"><ele>920.0</ele><time>2026-05-02T12:35:48.999Z</time></trkpt><trkpt lat="44.605937569038666" lon="7.376566827290967"><ele>920.0</ele><time>2026-05-02T12:35:49.999Z</time></trkpt><trkpt lat="44.60605134849778" lon="7.376561687990901"><ele>920.0</ele><time>2026-05-02T12:35:50.999Z</time></trkpt><trkpt lat="44.60616192007754" lon="7.376546910554447"><ele>920.0</ele><time>2026-05-02T12:35:51.999Z</time></trkpt><trkpt lat="44.60626090743915" lon="7.376513970425496"><ele>920.0</ele><time>2026-05-02T12:35:52.999Z</time></trkpt><trkpt lat="44.606348537427706" lon="7.37644250054333"><ele>920.0</ele><time>2026-05-02T12:35:53.999Z</time></trkpt><trkpt lat="44.606394387851395" lon="7.376307364138594"><ele>922.2</ele><time>2026-05-02T12:35:54.999Z</time></trkpt><trkpt lat="44.60639711025739" lon="7.376171324204049"><ele>924.4</ele><time>2026-05-02T12:35:55.999Z</time></trkpt><trkpt lat="44.60639253080008" lon="7.3760113284637745"><ele>926.5999999999999</ele><time>2026-05-02T12:35:56.999Z</time></trkpt><trkpt lat="44.60638688321947" lon="7.375868842273388"><ele>928.8</ele><time>2026-05-02T12:35:57.999Z</time></trkpt><trkpt lat="44.606361588164326" lon="7.375708641330391"><ele>931.0</ele><time>2026-05-02T12:35:58.999Z</time></trkpt><trkpt lat="44.60635077774701" lon="7.3754885870047255"><ele>931.0</ele><time>2026-05-02T12:35:59.999Z</time></trkpt><trkpt lat="44.60634634059082" lon="7.375324214234682"><ele>931.0</ele><time>2026-05-02T12:36:00.999Z</time></trkpt><trkpt lat="44.60634247814233" lon="7.37517996547679"><ele>931.0</ele><time>2026-05-02T12:36:01.999Z</time></trkpt><trkpt lat="44.60633771034167" lon="7.374994810929344"><ele>931.0</ele><time>2026-05-02T12:36:02.999Z</time></trkpt><trkpt lat="44.60633004051744" lon="7.374783089742062"><ele>932.25</ele><time>2026-05-02T12:36:03.999Z</time></trkpt><trkpt lat="44.606331040690115" lon="7.3745725990437965"><ele>933.5</ele><time>2026-05-02T12:36:04.999Z</time></trkpt><trkpt lat="44.60630737501086" lon="7.374395867177771"><ele>934.75</ele><time>2026-05-02T12:36:05.999Z</time></trkpt><trkpt lat="44.60625871689267" lon="7.374226761803598"><ele>936.0</ele><time>2026-05-02T12:36:06.999Z</time></trkpt><trkpt lat="44.60617221405701" lon="7.374128145549836"><ele>933.5999999999999</ele><time>2026-05-02T12:36:07.999Z</time></trkpt><trkpt lat="44.60609243337775" lon="7.37402163702367"><ele>931.1999999999999</ele><time>2026-05-02T12:36:08.999Z</time></trkpt><trkpt lat="44.60602340983765" lon="7.373924720003008"><ele>928.8000000000001</ele><time>2026-05-02T12:36:09.999Z</time></trkpt><trkpt lat="44.60596620155117" lon="7.373833799346037"><ele>926.4000000000001</ele><time>2026-05-02T12:36:10.999Z</time></trkpt><trkpt lat="44.60591664864102" lon="7.373745573535788"><ele>924.0</ele><time>2026-05-02T12:36:11.999Z</time></trkpt><trkpt lat="44.606107274525016" lon="7.373303925340444"><ele>924.0</ele><time>2026-05-02T12:36:12.999Z</time></trkpt><trkpt lat="44.606080654109306" lon="7.373147946460566"><ele>924.0000000000001</ele><time>2026-05-02T12:36:13.999Z</time></trkpt><trkpt lat="44.6060398401275" lon="7.373002331015834"><ele>924.0000000000001</ele><time>2026-05-02T12:36:14.999Z</time></trkpt><trkpt lat="44.60597738493822" lon="7.3728713169530495"><ele>924.0</ele><time>2026-05-02T12:36:15.999Z</time></trkpt><trkpt lat="44.60593076365294" lon="7.372767578962438"><ele>924.0</ele><time>2026-05-02T12:36:16.999Z</time></trkpt><trkpt lat="44.605901531270334" lon="7.372667542734082"><ele>925.3333333333334</ele><time>2026-05-02T12:36:17.999Z</time></trkpt><trkpt lat="44.60589402848224" lon="7.372554599182269"><ele>926.6666666666667</ele><time>2026-05-02T12:36:18.999Z</time></trkpt><trkpt lat="44.60584168199047" lon="7.372454405427604"><ele>928.0</ele><time>2026-05-02T12:36:19.999Z</time></trkpt><trkpt lat="44.605804108321074" lon="7.3723544699137005"><ele>929.3333333333334</ele><time>2026-05-02T12:36:20.999Z</time></trkpt><trkpt lat="44.6057636270214" lon="7.3722741891120105"><ele>930.6666666666667</ele><time>2026-05-02T12:36:21.999Z</time></trkpt><trkpt lat="44.60570077971895" lon="7.372178964323889"><ele>932.0</ele><time>2026-05-02T12:36:22.999Z</time></trkpt><trkpt lat="44.60565057210299" lon="7.372093844274275"><ele>933.5</ele><time>2026-05-02T12:36:23.999Z</time></trkpt><trkpt lat="44.60558820290729" lon="7.371977246759439"><ele>935.0</ele><time>2026-05-02T12:36:24.999Z</time></trkpt><trkpt lat="44.60552334549906" lon="7.371847525542237"><ele>936.5</ele><time>2026-05-02T12:36:25.999Z</time></trkpt><trkpt lat="44.60549315180235" lon="7.371682865504597"><ele>938.0</ele><time>2026-05-02T12:36:26.999Z</time></trkpt><trkpt lat="44.60542907085337" lon="7.371507884205697"><ele>939.5</ele><time>2026-05-02T12:36:27.999Z</time></trkpt><trkpt lat="44.60537450899256" lon="7.371322325558123"><ele>941.0</ele><time>2026-05-02T12:36:28.999Z</time></trkpt><trkpt lat="44.605316747722476" lon="7.37115382872095"><ele>942.5</ele><time>2026-05-02T12:36:29.999Z</time></trkpt><trkpt lat="44.60527321933466" lon="7.370978606299795"><ele>944.0</ele><time>2026-05-02T12:36:30.999Z</time></trkpt><trkpt lat="44.605249992083785" lon="7.370843767136168"><ele>941.0000000000001</ele><time>2026-05-02T12:36:31.999Z</time></trkpt><trkpt lat="44.60525636596597" lon="7.370691009703705"><ele>938.0</ele><time>2026-05-02T12:36:33.999Z</time></trkpt><trkpt lat="44.605265868933856" lon="7.370603202747612"><ele>935.0</ele><time>2026-05-02T12:36:34.999Z</time></trkpt><trkpt lat="44.60524969704474" lon="7.370499751415931"><ele>932.0</ele><time>2026-05-02T12:36:36.999Z</time></trkpt><trkpt lat="44.60517659700332" lon="7.370485186505614"><ele>929.0000000000001</ele><time>2026-05-02T12:36:37.999Z</time></trkpt><trkpt lat="44.605102661608136" lon="7.370420060665059"><ele>926.0</ele><time>2026-05-02T12:36:38.999Z</time></trkpt><trkpt lat="44.60503643513402" lon="7.370367163781363"><ele>926.0</ele><time>2026-05-02T12:36:39.999Z</time></trkpt><trkpt lat="44.604976605175445" lon="7.370267406252297"><ele>925.9999999999999</ele><time>2026-05-02T12:36:40.999Z</time></trkpt><trkpt lat="44.60491648751163" lon="7.370126224795743"><ele>925.9999999999999</ele><time>2026-05-02T12:36:43Z</time></trkpt><trkpt lat="44.60492247537525" lon="7.370010219465551"><ele>926.0</ele><time>2026-05-02T12:36:44Z</time></trkpt><trkpt lat="44.60495856106726" lon="7.369865872776551"><ele>926.0</ele><time>2026-05-02T12:36:45Z</time></trkpt><trkpt lat="44.60502293146977" lon="7.369729094755608"><ele>927.4</ele><time>2026-05-02T12:36:46Z</time></trkpt><trkpt lat="44.6050748423742" lon="7.3696155211662955"><ele>928.8</ele><time>2026-05-02T12:36:47Z</time></trkpt><trkpt lat="44.60510912281627" lon="7.369510392023048"><ele>930.1999999999999</ele><time>2026-05-02T12:36:48Z</time></trkpt><trkpt lat="44.605116124100334" lon="7.369358699242553"><ele>931.5999999999999</ele><time>2026-05-02T12:36:49Z</time></trkpt><trkpt lat="44.60511049748664" lon="7.369208279860548"><ele>933.0</ele><time>2026-05-02T12:36:50Z</time></trkpt><trkpt lat="44.605065536930184" lon="7.369041227904518"><ele>933.0</ele><time>2026-05-02T12:36:51Z</time></trkpt><trkpt lat="44.60501357086863" lon="7.368930611247544"><ele>933.0</ele><time>2026-05-02T12:36:52Z</time></trkpt><trkpt lat="44.60497731909742" lon="7.368818200468032"><ele>933.0</ele><time>2026-05-02T12:36:53Z</time></trkpt><trkpt lat="44.604936814411694" lon="7.368699971901896"><ele>933.0</ele><time>2026-05-02T12:36:54Z</time></trkpt><trkpt lat="44.604902360467264" lon="7.368553662495337"><ele>933.0</ele><time>2026-05-02T12:36:55Z</time></trkpt><trkpt lat="44.60486961318575" lon="7.368412670129733"><ele>934.0</ele><time>2026-05-02T12:36:56Z</time></trkpt><trkpt lat="44.60482643170793" lon="7.368238757642699"><ele>935.0</ele><time>2026-05-02T12:36:57Z</time></trkpt><trkpt lat="44.60480419404647" lon="7.368038511893421"><ele>936.0</ele><time>2026-05-02T12:36:58Z</time></trkpt><trkpt lat="44.6047864463094" lon="7.367849742353575"><ele>937.0</ele><time>2026-05-02T12:36:59Z</time></trkpt><trkpt lat="44.604771973755966" lon="7.3676450226217565"><ele>939.25</ele><time>2026-05-02T12:37:00Z</time></trkpt><trkpt lat="44.60475680111087" lon="7.367441997131161"><ele>941.5</ele><time>2026-05-02T12:37:01Z</time></trkpt><trkpt lat="44.60476143835411" lon="7.367271596695146"><ele>943.75</ele><time>2026-05-02T12:37:02Z</time></trkpt><trkpt lat="44.60476914807768" lon="7.367075571720031"><ele>946.0</ele><time>2026-05-02T12:37:03Z</time></trkpt><trkpt lat="44.604766952671206" lon="7.3669119641547125"><ele>948.0</ele><time>2026-05-02T12:37:04Z</time></trkpt><trkpt lat="44.60472394049677" lon="7.366742042340379"><ele>950.0</ele><time>2026-05-02T12:37:05Z</time></trkpt><trkpt lat="44.604651209386596" lon="7.366597493926032"><ele>952.0</ele><time>2026-05-02T12:37:06Z</time></trkpt><trkpt lat="44.60459117087181" lon="7.366461424731813"><ele>954.0</ele><time>2026-05-02T12:37:07Z</time></trkpt><trkpt lat="44.60452234584763" lon="7.366347553489984"><ele>950.0</ele><time>2026-05-02T12:37:08Z</time></trkpt><trkpt lat="44.60447847606269" lon="7.3662286029782065"><ele>946.0000000000001</ele><time>2026-05-02T12:37:09Z</time></trkpt><trkpt lat="44.60445804862127" lon="7.366088741225578"><ele>942.0000000000001</ele><time>2026-05-02T12:37:10Z</time></trkpt><trkpt lat="44.6044553367213" lon="7.3659093436384335"><ele>938.0</ele><time>2026-05-02T12:37:11Z</time></trkpt><trkpt lat="44.604485675439925" lon="7.365749565015289"><ele>934.0</ele><time>2026-05-02T12:37:12Z</time></trkpt><trkpt lat="44.60449291180952" lon="7.365567350914509"><ele>934.75</ele><time>2026-05-02T12:37:13Z</time></trkpt><trkpt lat="44.60445988671416" lon="7.365372357915794"><ele>935.5</ele><time>2026-05-02T12:37:13.999Z</time></trkpt><trkpt lat="44.60443056380712" lon="7.365157323453145"><ele>936.25</ele><time>2026-05-02T12:37:14.999Z</time></trkpt><trkpt lat="44.60441681347421" lon="7.364964424670866"><ele>937.0</ele><time>2026-05-02T12:37:15.999Z</time></trkpt><trkpt lat="44.60440381573217" lon="7.364806645911299"><ele>941.75</ele><time>2026-05-02T12:37:16.999Z</time></trkpt><trkpt lat="44.60438443415656" lon="7.364661240548449"><ele>946.5</ele><time>2026-05-02T12:37:17.999Z</time></trkpt><trkpt lat="44.60432669282094" lon="7.3645004904643185"><ele>951.25</ele><time>2026-05-02T12:37:18.999Z</time></trkpt><trkpt lat="44.604255454639095" lon="7.364389708401318"><ele>956.0</ele><time>2026-05-02T12:37:19.999Z</time></trkpt><trkpt lat="44.604179203395276" lon="7.364276836361319"><ele>956.0</ele><time>2026-05-02T12:37:20.999Z</time></trkpt><trkpt lat="44.60406264918659" lon="7.364153195755722"><ele>955.9999999999999</ele><time>2026-05-02T12:37:21.999Z</time></trkpt><trkpt lat="44.6039837155911" lon="7.3640509780567145"><ele>955.9999999999999</ele><time>2026-05-02T12:37:22.999Z</time></trkpt><trkpt lat="44.60390785826649" lon="7.363956570929686"><ele>956.0</ele><time>2026-05-02T12:37:23.999Z</time></trkpt><trkpt lat="44.603857606136756" lon="7.363879260357501"><ele>956.0</ele><time>2026-05-02T12:37:24.999Z</time></trkpt><trkpt lat="44.6037957699954" lon="7.363806683823326"><ele>958.0</ele><time>2026-05-02T12:37:25.999Z</time></trkpt><trkpt lat="44.60371979016308" lon="7.363738310567697"><ele>959.9999999999999</ele><time>2026-05-02T12:37:26.999Z</time></trkpt><trkpt lat="44.6036545567043" lon="7.363656586748572"><ele>961.9999999999999</ele><time>2026-05-02T12:37:27.999Z</time></trkpt><trkpt lat="44.60355206719385" lon="7.363595651476195"><ele>964.0</ele><time>2026-05-02T12:37:29.999Z</time></trkpt><trkpt lat="44.60349212263071" lon="7.363554063066064"><ele>966.0</ele><time>2026-05-02T12:37:30.999Z</time></trkpt><trkpt lat="44.603394822366496" lon="7.363535399391997"><ele>966.0</ele><time>2026-05-02T12:37:31.999Z</time></trkpt><trkpt lat="44.6032888826265" lon="7.363459154399046"><ele>965.9999999999999</ele><time>2026-05-02T12:37:32.999Z</time></trkpt><trkpt lat="44.60320773065165" lon="7.363413633128492"><ele>965.9999999999999</ele><time>2026-05-02T12:37:33.999Z</time></trkpt><trkpt lat="44.60313684915561" lon="7.363313370981861"><ele>966.0</ele><time>2026-05-02T12:37:34.999Z</time></trkpt><trkpt lat="44.603055105014825" lon="7.363196125818116"><ele>966.0</ele><time>2026-05-02T12:37:35.999Z</time></trkpt><trkpt lat="44.602942684067735" lon="7.363056867554521"><ele>969.0</ele><time>2026-05-02T12:37:36.999Z</time></trkpt><trkpt lat="44.6028532473248" lon="7.362915481465146"><ele>972.0</ele><time>2026-05-02T12:37:37.999Z</time></trkpt><trkpt lat="44.60277779526915" lon="7.362746758316285"><ele>975.0</ele><time>2026-05-02T12:37:38.999Z</time></trkpt><trkpt lat="44.60272292492446" lon="7.362587735956357"><ele>978.0</ele><time>2026-05-02T12:37:39.999Z</time></trkpt><trkpt lat="44.602650484701336" lon="7.36242871308132"><ele>978.0</ele><time>2026-05-02T12:37:40.999Z</time></trkpt><trkpt lat="44.60260083508109" lon="7.362285459863009"><ele>978.0</ele><time>2026-05-02T12:37:41.999Z</time></trkpt><trkpt lat="44.60253854316286" lon="7.362175221319864"><ele>978.0</ele><time>2026-05-02T12:37:42.999Z</time></trkpt><trkpt lat="44.60255261466044" lon="7.362084826671718"><ele>978.0</ele><time>2026-05-02T12:37:43.999Z</time></trkpt><trkpt lat="44.6025610814395" lon="7.361977616972358"><ele>978.0</ele><time>2026-05-02T12:37:45.999Z</time></trkpt><trkpt lat="44.60261368749353" lon="7.361894448392708"><ele>978.0</ele><time>2026-05-02T12:37:46.999Z</time></trkpt><trkpt lat="44.6026176450768" lon="7.361798315262828"><ele>980.2</ele><time>2026-05-02T12:37:47.999Z</time></trkpt><trkpt lat="44.602599891221075" lon="7.361700240328015"><ele>982.4</ele><time>2026-05-02T12:37:48.999Z</time></trkpt><trkpt lat="44.60259696696878" lon="7.3615859855923205"><ele>984.6000000000001</ele><time>2026-05-02T12:37:49.999Z</time></trkpt><trkpt lat="44.602559229930485" lon="7.361459131739823"><ele>986.8000000000001</ele><time>2026-05-02T12:37:50.999Z</time></trkpt><trkpt lat="44.60250733198396" lon="7.361340281237469"><ele>989.0</ele><time>2026-05-02T12:37:51.999Z</time></trkpt><trkpt lat="44.60244757812546" lon="7.36119221169008"><ele>991.25</ele><time>2026-05-02T12:37:52.999Z</time></trkpt><trkpt lat="44.60237725527233" lon="7.36102708070611"><ele>993.5</ele><time>2026-05-02T12:37:53.999Z</time></trkpt><trkpt lat="44.602322783475536" lon="7.360856928936598"><ele>995.75</ele><time>2026-05-02T12:37:54.999Z</time></trkpt><trkpt lat="44.602283840245605" lon="7.360705343460891"><ele>998.0</ele><time>2026-05-02T12:37:55.999Z</time></trkpt><trkpt lat="44.60224106002111" lon="7.3605668205114965"><ele>998.4</ele><time>2026-05-02T12:37:56.999Z</time></trkpt><trkpt lat="44.60220236108501" lon="7.360433163977114"><ele>998.8</ele><time>2026-05-02T12:37:57.999Z</time></trkpt><trkpt lat="44.602131030042756" lon="7.360312583173032"><ele>999.2</ele><time>2026-05-02T12:37:58.999Z</time></trkpt><trkpt lat="44.60207121873307" lon="7.3601967420054155"><ele>999.6</ele><time>2026-05-02T12:37:59.999Z</time></trkpt><trkpt lat="44.60202067547007" lon="7.360081360379244"><ele>1000.0</ele><time>2026-05-02T12:38:00.999Z</time></trkpt><trkpt lat="44.601965622914925" lon="7.359969544178828"><ele>1000.8333333333333</ele><time>2026-05-02T12:38:01.999Z</time></trkpt><trkpt lat="44.60193396126016" lon="7.359850131489202"><ele>1001.6666666666666</ele><time>2026-05-02T12:38:02.999Z</time></trkpt><trkpt lat="44.60189513388972" lon="7.359737402989559"><ele>1002.5</ele><time>2026-05-02T12:38:03.999Z</time></trkpt><trkpt lat="44.601839172856664" lon="7.359636402714962"><ele>1003.3333333333333</ele><time>2026-05-02T12:38:04.999Z</time></trkpt><trkpt lat="44.60179620661872" lon="7.35953726094739"><ele>1004.1666666666666</ele><time>2026-05-02T12:38:05.999Z</time></trkpt><trkpt lat="44.60177992382587" lon="7.359415022712409"><ele>1005.0</ele><time>2026-05-02T12:38:06.999Z</time></trkpt><trkpt lat="44.60175548662691" lon="7.3593301807870395"><ele>1005.0</ele><time>2026-05-02T12:38:07.999Z</time></trkpt><trkpt lat="44.60176912019468" lon="7.35922665621853"><ele>1005.0</ele><time>2026-05-02T12:38:09.999Z</time></trkpt><trkpt lat="44.60175266331645" lon="7.359314247068011"><ele>1005.0</ele><time>2026-05-02T12:39:11Z</time></trkpt><trkpt lat="44.601719283369114" lon="7.3593939744663075"><ele>1005.0</ele><time>2026-05-02T12:42:23.999Z</time></trkpt><trkpt lat="44.601749399092824" lon="7.359573806641074"><ele>1005.0</ele><time>2026-05-02T12:42:25.999Z</time></trkpt><trkpt lat="44.6017780436644" lon="7.359662733034919"><ele>1005.0</ele><time>2026-05-02T12:42:26.999Z</time></trkpt><trkpt lat="44.60178479322181" lon="7.359813278637315"><ele>1006.1666666666666</ele><time>2026-05-02T12:42:28.999Z</time></trkpt><trkpt lat="44.60176576961922" lon="7.3599151066130215"><ele>1007.3333333333333</ele><time>2026-05-02T12:42:29.999Z</time></trkpt><trkpt lat="44.601732516712566" lon="7.360024809939289"><ele>1008.5</ele><time>2026-05-02T12:42:30.999Z</time></trkpt><trkpt lat="44.601694681840534" lon="7.360154858429248"><ele>1009.6666666666666</ele><time>2026-05-02T12:42:31.999Z</time></trkpt><trkpt lat="44.6016849590987" lon="7.360258858135125"><ele>1010.8333333333333</ele><time>2026-05-02T12:42:32.999Z</time></trkpt><trkpt lat="44.601699753448905" lon="7.360372909700432"><ele>1012.0</ele><time>2026-05-02T12:42:33.999Z</time></trkpt><trkpt lat="44.60170725306466" lon="7.360506484362284"><ele>1012.0</ele><time>2026-05-02T12:42:34.999Z</time></trkpt><trkpt lat="44.60169911468805" lon="7.360625408438024"><ele>1012.0</ele><time>2026-05-02T12:42:35.999Z</time></trkpt><trkpt lat="44.60165977974107" lon="7.3607694677675"><ele>1012.0</ele><time>2026-05-02T12:42:37.999Z</time></trkpt><trkpt lat="44.60158800369133" lon="7.360892093823806"><ele>1012.0</ele><time>2026-05-02T12:42:39.999Z</time></trkpt><trkpt lat="44.60155903350201" lon="7.361006524720081"><ele>1012.0</ele><time>2026-05-02T12:42:41.999Z</time></trkpt><trkpt lat="44.601515505715746" lon="7.3610879018690065"><ele>1012.0</ele><time>2026-05-02T12:42:42.999Z</time></trkpt><trkpt lat="44.60148671012068" lon="7.361215717896437"><ele>1012.0</ele><time>2026-05-02T12:42:44.999Z</time></trkpt><trkpt lat="44.60147260358726" lon="7.361368806300675"><ele>1012.0</ele><time>2026-05-02T12:42:46.999Z</time></trkpt><trkpt lat="44.60143771432768" lon="7.361522928653295"><ele>1012.0</ele><time>2026-05-02T12:42:48.999Z</time></trkpt><trkpt lat="44.60138051866433" lon="7.36165597893676"><ele>1012.0</ele><time>2026-05-02T12:42:50.999Z</time></trkpt><trkpt lat="44.60132524926291" lon="7.361784031811593"><ele>1012.4999999999999</ele><time>2026-05-02T12:42:52.999Z</time></trkpt><trkpt lat="44.60129541826342" lon="7.361864147180358"><ele>1013.0</ele><time>2026-05-02T12:42:53.999Z</time></trkpt><trkpt lat="44.60123385641071" lon="7.361926873800751"><ele>1013.5</ele><time>2026-05-02T12:42:54.999Z</time></trkpt><trkpt lat="44.60117779446186" lon="7.361971981112992"><ele>1014.0</ele><time>2026-05-02T12:42:55.999Z</time></trkpt><trkpt lat="44.60112570205203" lon="7.362048974947633"><ele>1014.4999999999999</ele><time>2026-05-02T12:42:56.999Z</time></trkpt><trkpt lat="44.601055881031556" lon="7.362128107551754"><ele>1015.0</ele><time>2026-05-02T12:42:57.999Z</time></trkpt><trkpt lat="44.60096767528909" lon="7.362190572819597"><ele>1020.2</ele><time>2026-05-02T12:42:58.999Z</time></trkpt><trkpt lat="44.600864406723815" lon="7.362274190468958"><ele>1025.4</ele><time>2026-05-02T12:42:59.999Z</time></trkpt><trkpt lat="44.60077303440563" lon="7.3624023441422"><ele>1030.6</ele><time>2026-05-02T12:43:00.999Z</time></trkpt><trkpt lat="44.600711584238546" lon="7.362521220605368"><ele>1035.8</ele><time>2026-05-02T12:43:01.999Z</time></trkpt><trkpt lat="44.60067640598839" lon="7.362619736139172"><ele>1041.0</ele><time>2026-05-02T12:43:02.999Z</time></trkpt><trkpt lat="44.600601389667474" lon="7.362649413247263"><ele>1041.0</ele><time>2026-05-02T12:43:05.999Z</time></trkpt><trkpt lat="44.60054308687281" lon="7.362576176941022"><ele>1041.0</ele><time>2026-05-02T12:43:07.999Z</time></trkpt><trkpt lat="44.60047163477944" lon="7.362518254083064"><ele>1041.0</ele><time>2026-05-02T12:43:09.999Z</time></trkpt><trkpt lat="44.600357033411626" lon="7.362460439895048"><ele>1041.0</ele><time>2026-05-02T12:43:11.999Z</time></trkpt><trkpt lat="44.60028507645408" lon="7.362413015300644"><ele>1041.0</ele><time>2026-05-02T12:43:12.999Z</time></trkpt><trkpt lat="44.60023054601487" lon="7.362352600125792"><ele>1041.0</ele><time>2026-05-02T12:43:13.999Z</time></trkpt><trkpt lat="44.60016325844756" lon="7.362288748940704"><ele>1040.2</ele><time>2026-05-02T12:43:14.999Z</time></trkpt><trkpt lat="44.600098715030185" lon="7.3622321175558465"><ele>1039.3999999999999</ele><time>2026-05-02T12:43:15.999Z</time></trkpt><trkpt lat="44.600010105182875" lon="7.36220286708172"><ele>1038.6</ele><time>2026-05-02T12:43:16.999Z</time></trkpt><trkpt lat="44.59994256343706" lon="7.3621822018721295"><ele>1037.8</ele><time>2026-05-02T12:43:17.999Z</time></trkpt><trkpt lat="44.59984159167524" lon="7.362167617904002"><ele>1037.0</ele><time>2026-05-02T12:43:19.999Z</time></trkpt><trkpt lat="44.59974912857604" lon="7.362057841981792"><ele>1037.0</ele><time>2026-05-02T12:43:21.999Z</time></trkpt><trkpt lat="44.599692785332735" lon="7.361954817608683"><ele>1037.0</ele><time>2026-05-02T12:43:22.999Z</time></trkpt><trkpt lat="44.59959076263803" lon="7.3618589560672545"><ele>1037.0</ele><time>2026-05-02T12:43:23.999Z</time></trkpt><trkpt lat="44.599482901903" lon="7.361685314672771"><ele>1037.0</ele><time>2026-05-02T12:43:24.999Z</time></trkpt><trkpt lat="44.599362561326615" lon="7.36156210911489"><ele>1037.0</ele><time>2026-05-02T12:43:25.999Z</time></trkpt><trkpt lat="44.5992777078613" lon="7.3614486465205635"><ele>1037.0</ele><time>2026-05-02T12:43:26.999Z</time></trkpt><trkpt lat="44.59918467762035" lon="7.361339043501104"><ele>1037.0</ele><time>2026-05-02T12:43:27.999Z</time></trkpt><trkpt lat="44.5991078747394" lon="7.3612325605520255"><ele>1037.0</ele><time>2026-05-02T12:43:28.999Z</time></trkpt><trkpt lat="44.59900686134975" lon="7.361137377727844"><ele>1040.0</ele><time>2026-05-02T12:43:29.999Z</time></trkpt><trkpt lat="44.598889028203764" lon="7.361073505673221"><ele>1043.0</ele><time>2026-05-02T12:43:30.999Z</time></trkpt><trkpt lat="44.59876273650715" lon="7.361066980949448"><ele>1046.0</ele><time>2026-05-02T12:43:31.999Z</time></trkpt><trkpt lat="44.598651121949615" lon="7.361080404273643"><ele>1049.0</ele><time>2026-05-02T12:43:32.999Z</time></trkpt><trkpt lat="44.59855938426086" lon="7.361072758961053"><ele>1049.0</ele><time>2026-05-02T12:43:33.999Z</time></trkpt><trkpt lat="44.59847990462864" lon="7.361029474303656"><ele>1049.0</ele><time>2026-05-02T12:43:34.999Z</time></trkpt><trkpt lat="44.598387694425924" lon="7.3609633471645495"><ele>1049.0</ele><time>2026-05-02T12:43:35.999Z</time></trkpt><trkpt lat="44.59827470535153" lon="7.360871740294621"><ele>1049.0</ele><time>2026-05-02T12:43:36.999Z</time></trkpt><trkpt lat="44.598197971306064" lon="7.360810275538786"><ele>1049.0</ele><time>2026-05-02T12:43:37.999Z</time></trkpt><trkpt lat="44.59815327586388" lon="7.360689647320728"><ele>1049.0</ele><time>2026-05-02T12:43:39.999Z</time></trkpt><trkpt lat="44.59806296276022" lon="7.360651985152311"><ele>1049.0</ele><time>2026-05-02T12:43:42Z</time></trkpt><trkpt lat="44.59798585580185" lon="7.360653805027856"><ele>1049.0</ele><time>2026-05-02T12:43:43Z</time></trkpt><trkpt lat="44.59789052452838" lon="7.3606714237524"><ele>1049.0</ele><time>2026-05-02T12:43:44Z</time></trkpt><trkpt lat="44.59781320597855" lon="7.360689139117253"><ele>1049.0</ele><time>2026-05-02T12:43:45Z</time></trkpt><trkpt lat="44.597703811530785" lon="7.360623744859726"><ele>1048.0</ele><time>2026-05-02T12:43:47Z</time></trkpt><trkpt lat="44.597633002634254" lon="7.360551237365914"><ele>1047.0</ele><time>2026-05-02T12:43:48Z</time></trkpt><trkpt lat="44.59754919896673" lon="7.360524024017863"><ele>1046.0</ele><time>2026-05-02T12:43:49Z</time></trkpt><trkpt lat="44.597440077450166" lon="7.360547086985343"><ele>1045.0</ele><time>2026-05-02T12:43:50Z</time></trkpt><trkpt lat="44.59735102552488" lon="7.360550618792063"><ele>1044.0</ele><time>2026-05-02T12:43:51Z</time></trkpt><trkpt lat="44.597273958331485" lon="7.360579597043971"><ele>1044.0</ele><time>2026-05-02T12:43:52Z</time></trkpt><trkpt lat="44.59719988483514" lon="7.3606694859017185"><ele>1044.0</ele><time>2026-05-02T12:43:53Z</time></trkpt><trkpt lat="44.59712095461711" lon="7.360768211708806"><ele>1044.0</ele><time>2026-05-02T12:43:54Z</time></trkpt><trkpt lat="44.597034334359364" lon="7.360899566946002"><ele>1044.0</ele><time>2026-05-02T12:43:55Z</time></trkpt><trkpt lat="44.59695511514421" lon="7.361029612153564"><ele>1042.0</ele><time>2026-05-02T12:43:56Z</time></trkpt><trkpt lat="44.59688087644392" lon="7.361124943906348"><ele>1040.0</ele><time>2026-05-02T12:43:57Z</time></trkpt><trkpt lat="44.59682153832084" lon="7.361265940451252"><ele>1038.0</ele><time>2026-05-02T12:43:58Z</time></trkpt><trkpt lat="44.59676104854044" lon="7.361364917099854"><ele>1036.0</ele><time>2026-05-02T12:43:59Z</time></trkpt><trkpt lat="44.59669562987351" lon="7.361467824366065"><ele>1034.0</ele><time>2026-05-02T12:44:00Z</time></trkpt><trkpt lat="44.5966040279587" lon="7.361551095005502"><ele>1034.0</ele><time>2026-05-02T12:44:01Z</time></trkpt><trkpt lat="44.5965268551464" lon="7.36160810478397"><ele>1034.0</ele><time>2026-05-02T12:44:02Z</time></trkpt><trkpt lat="44.59644073701488" lon="7.361637507200957"><ele>1034.0</ele><time>2026-05-02T12:44:04Z</time></trkpt><trkpt lat="44.59637409914825" lon="7.361594060403586"><ele>1034.0</ele><time>2026-05-02T12:44:05Z</time></trkpt><trkpt lat="44.596270707762514" lon="7.361560114512608"><ele>1034.0</ele><time>2026-05-02T12:44:06Z</time></trkpt><trkpt lat="44.596182166044045" lon="7.361545239611766"><ele>1034.0</ele><time>2026-05-02T12:44:07Z</time></trkpt><trkpt lat="44.59608812452054" lon="7.361528685711692"><ele>1036.8</ele><time>2026-05-02T12:44:08Z</time></trkpt><trkpt lat="44.5959870229572" lon="7.361578773997663"><ele>1039.6000000000001</ele><time>2026-05-02T12:44:09Z</time></trkpt><trkpt lat="44.59590771104213" lon="7.361649124670373"><ele>1042.4</ele><time>2026-05-02T12:44:10Z</time></trkpt><trkpt lat="44.59582029981832" lon="7.3616720091163605"><ele>1045.2</ele><time>2026-05-02T12:44:12Z</time></trkpt><trkpt lat="44.59570754965218" lon="7.361625282071729"><ele>1048.0</ele><time>2026-05-02T12:44:14Z</time></trkpt><trkpt lat="44.59561908561604" lon="7.361636378960221"><ele>1048.0</ele><time>2026-05-02T12:44:15Z</time></trkpt><trkpt lat="44.59553572437085" lon="7.361684943913352"><ele>1048.0</ele><time>2026-05-02T12:44:16Z</time></trkpt><trkpt lat="44.595428331424586" lon="7.361684767474233"><ele>1048.0</ele><time>2026-05-02T12:44:18Z</time></trkpt><trkpt lat="44.59535216937609" lon="7.36164689881221"><ele>1048.0</ele><time>2026-05-02T12:44:19Z</time></trkpt><trkpt lat="44.595267639070926" lon="7.361660641967596"><ele>1048.0</ele><time>2026-05-02T12:44:20Z</time></trkpt><trkpt lat="44.595178687180365" lon="7.361701560358007"><ele>1051.6666666666665</ele><time>2026-05-02T12:44:21Z</time></trkpt><trkpt lat="44.595085175445384" lon="7.361726580630105"><ele>1055.3333333333333</ele><time>2026-05-02T12:44:23Z</time></trkpt><trkpt lat="44.59496177474501" lon="7.3617008624958995"><ele>1059.0</ele><time>2026-05-02T12:44:25Z</time></trkpt><trkpt lat="44.594899833390244" lon="7.36171717568199"><ele>1062.6666666666667</ele><time>2026-05-02T12:44:26Z</time></trkpt><trkpt lat="44.5948404892837" lon="7.361752716438544"><ele>1066.3333333333335</ele><time>2026-05-02T12:44:27Z</time></trkpt><trkpt lat="44.59479161230656" lon="7.361839662535497"><ele>1070.0</ele><time>2026-05-02T12:44:28Z</time></trkpt><trkpt lat="44.59474903365322" lon="7.361942217609785"><ele>1070.0</ele><time>2026-05-02T12:44:29Z</time></trkpt><trkpt lat="44.59468490634637" lon="7.3620451627423575"><ele>1070.0</ele><time>2026-05-02T12:44:30Z</time></trkpt><trkpt lat="44.59462576429084" lon="7.3621333855020765"><ele>1070.0</ele><time>2026-05-02T12:44:31Z</time></trkpt><trkpt lat="44.594580507786894" lon="7.362232153175316"><ele>1070.0</ele><time>2026-05-02T12:44:32Z</time></trkpt><trkpt lat="44.594524402824156" lon="7.3623022119608414"><ele>1070.0</ele><time>2026-05-02T12:44:34Z</time></trkpt><trkpt lat="44.59447857605132" lon="7.362206905295027"><ele>1070.0</ele><time>2026-05-02T12:44:36Z</time></trkpt><trkpt lat="44.594502590026266" lon="7.3621223054188984"><ele>1071.2</ele><time>2026-05-02T12:44:37Z</time></trkpt><trkpt lat="44.59449597899376" lon="7.361999036575944"><ele>1072.4</ele><time>2026-05-02T12:44:39Z</time></trkpt><trkpt lat="44.594428198958255" lon="7.361828836662173"><ele>1073.6</ele><time>2026-05-02T12:44:41Z</time></trkpt><trkpt lat="44.59435790736294" lon="7.361726176196967"><ele>1074.8</ele><time>2026-05-02T12:44:42Z</time></trkpt><trkpt lat="44.59432102093105" lon="7.361599391098302"><ele>1076.0</ele><time>2026-05-02T12:44:43Z</time></trkpt><trkpt lat="44.594282887343496" lon="7.361495300734852"><ele>1076.0</ele><time>2026-05-02T12:44:44Z</time></trkpt><trkpt lat="44.59425932323245" lon="7.3613877391437486"><ele>1076.0</ele><time>2026-05-02T12:44:45Z</time></trkpt><trkpt lat="44.59424471385751" lon="7.361268425340275"><ele>1076.0</ele><time>2026-05-02T12:44:46Z</time></trkpt><trkpt lat="44.5942459938458" lon="7.361156412684125"><ele>1076.0</ele><time>2026-05-02T12:44:47Z</time></trkpt><trkpt lat="44.59426850816774" lon="7.361019727942148"><ele>1076.0</ele><time>2026-05-02T12:44:48Z</time></trkpt><trkpt lat="44.59430737284487" lon="7.3608962784462175"><ele>1076.0</ele><time>2026-05-02T12:44:49Z</time></trkpt><trkpt lat="44.59433542292321" lon="7.36077809834809"><ele>1076.0</ele><time>2026-05-02T12:44:50Z</time></trkpt><trkpt lat="44.594380615189415" lon="7.360658712809065"><ele>1076.0</ele><time>2026-05-02T12:44:51Z</time></trkpt><trkpt lat="44.59442015980637" lon="7.360541868334804"><ele>1076.0</ele><time>2026-05-02T12:44:52Z</time></trkpt><trkpt lat="44.59445509961272" lon="7.360443756077619"><ele>1076.0</ele><time>2026-05-02T12:44:53Z</time></trkpt><trkpt lat="44.5944934079264" lon="7.360354618027836"><ele>1076.0</ele><time>2026-05-02T12:44:54Z</time></trkpt><trkpt lat="44.59453710932065" lon="7.36026941127665"><ele>1076.0</ele><time>2026-05-02T12:44:55Z</time></trkpt><trkpt lat="44.5945833197409" lon="7.360187294151477"><ele>1081.6666666666667</ele><time>2026-05-02T12:44:56Z</time></trkpt><trkpt lat="44.59464913579253" lon="7.36012779519831"><ele>1087.3333333333335</ele><time>2026-05-02T12:44:57Z</time></trkpt><trkpt lat="44.59472402107465" lon="7.360071877306689"><ele>1093.0</ele><time>2026-05-02T12:44:58Z</time></trkpt><trkpt lat="44.59480095472245" lon="7.360014228460543"><ele>1098.6666666666667</ele><time>2026-05-02T12:44:59Z</time></trkpt><trkpt lat="44.59487162956679" lon="7.359937394832515"><ele>1104.3333333333333</ele><time>2026-05-02T12:45:00Z</time></trkpt><trkpt lat="44.59492816479231" lon="7.359876587034506"><ele>1110.0</ele><time>2026-05-02T12:45:01Z</time></trkpt><trkpt lat="44.59498794019244" lon="7.3599506458220505"><ele>1110.0</ele><time>2026-05-02T12:45:03Z</time></trkpt><trkpt lat="44.59498129808564" lon="7.3600482787818065"><ele>1110.0</ele><time>2026-05-02T12:45:04Z</time></trkpt><trkpt lat="44.59492807079223" lon="7.3601321841002605"><ele>1110.0</ele><time>2026-05-02T12:45:05Z</time></trkpt><trkpt lat="44.59488041686584" lon="7.360214079098816"><ele>1110.0</ele><time>2026-05-02T12:45:06Z</time></trkpt><trkpt lat="44.59483969163067" lon="7.360307754803926"><ele>1110.0</ele><time>2026-05-02T12:45:07Z</time></trkpt><trkpt lat="44.594819577099045" lon="7.360422793624089"><ele>1110.0</ele><time>2026-05-02T12:45:08Z</time></trkpt><trkpt lat="44.59479827983565" lon="7.3605340404963595"><ele>1109.0</ele><time>2026-05-02T12:45:09Z</time></trkpt><trkpt lat="44.594788636015586" lon="7.3606516242015525"><ele>1108.0</ele><time>2026-05-02T12:45:10Z</time></trkpt><trkpt lat="44.59479752850507" lon="7.36074670223795"><ele>1107.0</ele><time>2026-05-02T12:45:11Z</time></trkpt><trkpt lat="44.59488289095554" lon="7.360767629267585"><ele>1106.0</ele><time>2026-05-02T12:45:13Z</time></trkpt><trkpt lat="44.59497432824286" lon="7.360720696740208"><ele>1105.0</ele><time>2026-05-02T12:45:15Z</time></trkpt><trkpt lat="44.595067413434634" lon="7.360634541026124"><ele>1104.0</ele><time>2026-05-02T12:45:17Z</time></trkpt><trkpt lat="44.59511805864932" lon="7.360551541666698"><ele>1105.2</ele><time>2026-05-02T12:45:19Z</time></trkpt><trkpt lat="44.59517208704779" lon="7.360447264554202"><ele>1106.4</ele><time>2026-05-02T12:45:20Z</time></trkpt><trkpt lat="44.59524567888127" lon="7.360304451558639"><ele>1107.6</ele><time>2026-05-02T12:45:21Z</time></trkpt><trkpt lat="44.59528858668747" lon="7.36018634559285"><ele>1108.8</ele><time>2026-05-02T12:45:22Z</time></trkpt><trkpt lat="44.595343845507855" lon="7.360062590739949"><ele>1110.0</ele><time>2026-05-02T12:45:23Z</time></trkpt><trkpt lat="44.595391341316635" lon="7.3599278965072665"><ele>1113.75</ele><time>2026-05-02T12:45:24Z</time></trkpt><trkpt lat="44.595440128711246" lon="7.359790118623334"><ele>1117.5</ele><time>2026-05-02T12:45:25Z</time></trkpt><trkpt lat="44.59550067483201" lon="7.359639258341394"><ele>1121.25</ele><time>2026-05-02T12:45:26Z</time></trkpt><trkpt lat="44.59555014936515" lon="7.359480807195881"><ele>1125.0</ele><time>2026-05-02T12:45:27Z</time></trkpt><trkpt lat="44.59559227134586" lon="7.359313935466743"><ele>1127.4</ele><time>2026-05-02T12:45:28Z</time></trkpt><trkpt lat="44.595641358422505" lon="7.359162432569265"><ele>1129.8</ele><time>2026-05-02T12:45:29Z</time></trkpt><trkpt lat="44.59567687623942" lon="7.3590187625172465"><ele>1132.2</ele><time>2026-05-02T12:45:30Z</time></trkpt><trkpt lat="44.595710342337924" lon="7.358872224416488"><ele>1134.6</ele><time>2026-05-02T12:45:31Z</time></trkpt><trkpt lat="44.59574987326241" lon="7.358747121988094"><ele>1137.0</ele><time>2026-05-02T12:45:32Z</time></trkpt><trkpt lat="44.595770389858735" lon="7.358641474630707"><ele>1138.5</ele><time>2026-05-02T12:45:33Z</time></trkpt><trkpt lat="44.5957751981004" lon="7.358524943318641"><ele>1140.0</ele><time>2026-05-02T12:45:34Z</time></trkpt><trkpt lat="44.59574230023537" lon="7.3583920882549805"><ele>1141.5</ele><time>2026-05-02T12:45:35Z</time></trkpt><trkpt lat="44.59569131970645" lon="7.358275644673688"><ele>1143.0</ele><time>2026-05-02T12:45:36Z</time></trkpt><trkpt lat="44.59567703909058" lon="7.358158231183539"><ele>1144.5</ele><time>2026-05-02T12:45:37Z</time></trkpt><trkpt lat="44.5956904510488" lon="7.358054988775303"><ele>1146.0</ele><time>2026-05-02T12:45:38Z</time></trkpt><trkpt lat="44.59570418857653" lon="7.35794661994305"><ele>1146.0</ele><time>2026-05-02T12:45:39Z</time></trkpt><trkpt lat="44.59573936197988" lon="7.357827354970084"><ele>1146.0</ele><time>2026-05-02T12:45:40Z</time></trkpt><trkpt lat="44.595805083265766" lon="7.357724373134907"><ele>1146.0</ele><time>2026-05-02T12:45:41Z</time></trkpt><trkpt lat="44.59585401945829" lon="7.357620528759237"><ele>1146.0</ele><time>2026-05-02T12:45:42Z</time></trkpt><trkpt lat="44.595909116355976" lon="7.357531589537852"><ele>1146.0</ele><time>2026-05-02T12:45:43Z</time></trkpt><trkpt lat="44.595966519364374" lon="7.357450439838377"><ele>1146.0</ele><time>2026-05-02T12:45:44Z</time></trkpt><trkpt lat="44.59603637333401" lon="7.357377214575335"><ele>1146.0</ele><time>2026-05-02T12:45:45Z</time></trkpt><trkpt lat="44.59606845258956" lon="7.357294977990494"><ele>1146.0</ele><time>2026-05-02T12:45:46Z</time></trkpt><trkpt lat="44.59608147343304" lon="7.3571684144346445"><ele>1146.0</ele><time>2026-05-02T12:45:48Z</time></trkpt><trkpt lat="44.596117645684664" lon="7.357014394101236"><ele>1146.0</ele><time>2026-05-02T12:45:50Z</time></trkpt><trkpt lat="44.596159095675006" lon="7.35690540766563"><ele>1146.0</ele><time>2026-05-02T12:45:51Z</time></trkpt><trkpt lat="44.59621261765369" lon="7.356804785198643"><ele>1148.6</ele><time>2026-05-02T12:45:52Z</time></trkpt><trkpt lat="44.59629348757558" lon="7.356723190540791"><ele>1151.1999999999998</ele><time>2026-05-02T12:45:53Z</time></trkpt><trkpt lat="44.59637523679351" lon="7.356605744867529"><ele>1153.8000000000002</ele><time>2026-05-02T12:45:54Z</time></trkpt><trkpt lat="44.59643832240375" lon="7.356477606154844"><ele>1156.4</ele><time>2026-05-02T12:45:55Z</time></trkpt><trkpt lat="44.59650347753558" lon="7.3563730774250695"><ele>1159.0</ele><time>2026-05-02T12:45:56Z</time></trkpt><trkpt lat="44.59656493036512" lon="7.356279623673512"><ele>1160.1666666666665</ele><time>2026-05-02T12:45:57Z</time></trkpt><trkpt lat="44.596634420646154" lon="7.356195905022081"><ele>1161.3333333333333</ele><time>2026-05-02T12:45:58Z</time></trkpt><trkpt lat="44.596712429750006" lon="7.356130124555877"><ele>1162.5</ele><time>2026-05-02T12:45:59Z</time></trkpt><trkpt lat="44.59677693279992" lon="7.35606076637244"><ele>1163.6666666666667</ele><time>2026-05-02T12:46:00Z</time></trkpt><trkpt lat="44.5968400562502" lon="7.355972832349502"><ele>1164.8333333333335</ele><time>2026-05-02T12:46:01Z</time></trkpt><trkpt lat="44.59688915116898" lon="7.355884156339612"><ele>1166.0</ele><time>2026-05-02T12:46:02Z</time></trkpt><trkpt lat="44.59695236389626" lon="7.3558007817721025"><ele>1166.0</ele><time>2026-05-02T12:46:03Z</time></trkpt><trkpt lat="44.59698945912394" lon="7.355697128590401"><ele>1166.0</ele><time>2026-05-02T12:46:04Z</time></trkpt><trkpt lat="44.59699576269335" lon="7.355556408693183"><ele>1166.0</ele><time>2026-05-02T12:46:05Z</time></trkpt><trkpt lat="44.5969695926885" lon="7.355419342593368"><ele>1166.0</ele><time>2026-05-02T12:46:06Z</time></trkpt><trkpt lat="44.59691781078336" lon="7.355286925703807"><ele>1166.0</ele><time>2026-05-02T12:46:07Z</time></trkpt><trkpt lat="44.5968593144949" lon="7.35514255255566"><ele>1168.8</ele><time>2026-05-02T12:46:08Z</time></trkpt><trkpt lat="44.596805534219484" lon="7.355022353779621"><ele>1171.6</ele><time>2026-05-02T12:46:09Z</time></trkpt><trkpt lat="44.59674772872747" lon="7.354893720673317"><ele>1174.4</ele><time>2026-05-02T12:46:10Z</time></trkpt><trkpt lat="44.596733845711896" lon="7.354762388825821"><ele>1177.2</ele><time>2026-05-02T12:46:11Z</time></trkpt><trkpt lat="44.596715183616425" lon="7.354640039116143"><ele>1180.0</ele><time>2026-05-02T12:46:12Z</time></trkpt><trkpt lat="44.59670975998032" lon="7.354525949070099"><ele>1181.6666666666665</ele><time>2026-05-02T12:46:13Z</time></trkpt><trkpt lat="44.596696539643084" lon="7.354434303414796"><ele>1183.3333333333333</ele><time>2026-05-02T12:46:14Z</time></trkpt><trkpt lat="44.59668933015785" lon="7.354326437945471"><ele>1185.0</ele><time>2026-05-02T12:46:15Z</time></trkpt><trkpt lat="44.59671069306796" lon="7.354203975427921"><ele>1186.6666666666667</ele><time>2026-05-02T12:46:16Z</time></trkpt><trkpt lat="44.596736773483315" lon="7.354083450264397"><ele>1188.3333333333335</ele><time>2026-05-02T12:46:17Z</time></trkpt><trkpt lat="44.596774510547654" lon="7.353956575953155"><ele>1190.0</ele><time>2026-05-02T12:46:18Z</time></trkpt><trkpt lat="44.59681423215405" lon="7.353815881569768"><ele>1192.75</ele><time>2026-05-02T12:46:19Z</time></trkpt><trkpt lat="44.59684946352556" lon="7.35365222507337"><ele>1195.5</ele><time>2026-05-02T12:46:20Z</time></trkpt><trkpt lat="44.59687001069447" lon="7.353504159709209"><ele>1198.25</ele><time>2026-05-02T12:46:21Z</time></trkpt><trkpt lat="44.59688859390871" lon="7.353354168701752"><ele>1201.0</ele><time>2026-05-02T12:46:22Z</time></trkpt><trkpt lat="44.596909974493606" lon="7.3531979542342"><ele>1201.0</ele><time>2026-05-02T12:46:23Z</time></trkpt><trkpt lat="44.59692769050554" lon="7.353050044282101"><ele>1201.0</ele><time>2026-05-02T12:46:24Z</time></trkpt><trkpt lat="44.596959175980444" lon="7.352915219866345"><ele>1201.0</ele><time>2026-05-02T12:46:25Z</time></trkpt><trkpt lat="44.59699930884784" lon="7.352778274422942"><ele>1201.0</ele><time>2026-05-02T12:46:26Z</time></trkpt><trkpt lat="44.597048460240835" lon="7.352640027147689"><ele>1201.0</ele><time>2026-05-02T12:46:27Z</time></trkpt><trkpt lat="44.59709674939415" lon="7.35250165577965"><ele>1198.3999999999999</ele><time>2026-05-02T12:46:28Z</time></trkpt><trkpt lat="44.59715383868913" lon="7.352382429989432"><ele>1195.8</ele><time>2026-05-02T12:46:29Z</time></trkpt><trkpt lat="44.59721979622198" lon="7.352253780605022"><ele>1193.1999999999998</ele><time>2026-05-02T12:46:30Z</time></trkpt><trkpt lat="44.59726667161809" lon="7.352137639849966"><ele>1190.6</ele><time>2026-05-02T12:46:31Z</time></trkpt><trkpt lat="44.597289772666635" lon="7.351992963326366"><ele>1188.0</ele><time>2026-05-02T12:46:32Z</time></trkpt><trkpt lat="44.597315467890155" lon="7.35186981890963"><ele>1192.8333333333333</ele><time>2026-05-02T12:46:33Z</time></trkpt><trkpt lat="44.59739865271556" lon="7.351832450185084"><ele>1197.6666666666667</ele><time>2026-05-02T12:46:35Z</time></trkpt><trkpt lat="44.597449276980356" lon="7.351905505204619"><ele>1202.5</ele><time>2026-05-02T12:46:36Z</time></trkpt><trkpt lat="44.597523298310634" lon="7.351969426886381"><ele>1207.3333333333335</ele><time>2026-05-02T12:46:37Z</time></trkpt><trkpt lat="44.59763285215486" lon="7.352033454808124"><ele>1212.1666666666667</ele><time>2026-05-02T12:46:38Z</time></trkpt><trkpt lat="44.59769865114096" lon="7.352053394059874"><ele>1217.0</ele><time>2026-05-02T12:46:39Z</time></trkpt><trkpt lat="44.59778104583385" lon="7.352031196193715"><ele>1219.6</ele><time>2026-05-02T12:46:40Z</time></trkpt><trkpt lat="44.59787011739237" lon="7.351944903851419"><ele>1222.2</ele><time>2026-05-02T12:46:41Z</time></trkpt><trkpt lat="44.59795024862389" lon="7.35185761631915"><ele>1224.8</ele><time>2026-05-02T12:46:42Z</time></trkpt><trkpt lat="44.598065493031186" lon="7.351863638218454"><ele>1227.4</ele><time>2026-05-02T12:46:43Z</time></trkpt><trkpt lat="44.59817633413309" lon="7.351874481388483"><ele>1230.0</ele><time>2026-05-02T12:46:44Z</time></trkpt><trkpt lat="44.59825201785199" lon="7.351909042162404"><ele>1230.0</ele><time>2026-05-02T12:46:45Z</time></trkpt><trkpt lat="44.598343152687846" lon="7.351933076717169"><ele>1230.0</ele><time>2026-05-02T12:46:46Z</time></trkpt><trkpt lat="44.59842821608825" lon="7.351964652633264"><ele>1230.0</ele><time>2026-05-02T12:46:47Z</time></trkpt><trkpt lat="44.59850510975254" lon="7.3519634384708725"><ele>1230.0</ele><time>2026-05-02T12:46:48Z</time></trkpt><trkpt lat="44.59857679718345" lon="7.351976839026004"><ele>1230.0</ele><time>2026-05-02T12:46:49Z</time></trkpt><trkpt lat="44.59863867697271" lon="7.352004597248405"><ele>1230.0</ele><time>2026-05-02T12:46:50Z</time></trkpt><trkpt lat="44.59870137829237" lon="7.352057576384478"><ele>1230.0</ele><time>2026-05-02T12:46:51Z</time></trkpt><trkpt lat="44.59877499893007" lon="7.352095263023384"><ele>1230.0</ele><time>2026-05-02T12:46:52Z</time></trkpt><trkpt lat="44.59876125756341" lon="7.351969548102025"><ele>1230.0</ele><time>2026-05-02T12:46:55Z</time></trkpt><trkpt lat="44.59869913063356" lon="7.3518920271647445"><ele>1230.0</ele><time>2026-05-02T12:46:56Z</time></trkpt><trkpt lat="44.59865325693853" lon="7.351820359826147"><ele>1230.0</ele><time>2026-05-02T12:46:57Z</time></trkpt><trkpt lat="44.59857522013699" lon="7.351704724697412"><ele>1230.0</ele><time>2026-05-02T12:46:59Z</time></trkpt><trkpt lat="44.59851849771371" lon="7.351629414712272"><ele>1230.0</ele><time>2026-05-02T12:47:00Z</time></trkpt><trkpt lat="44.59845456148935" lon="7.3515600387324564"><ele>1230.0</ele><time>2026-05-02T12:47:01Z</time></trkpt><trkpt lat="44.59837431027116" lon="7.351498371620576"><ele>1230.0</ele><time>2026-05-02T12:47:02Z</time></trkpt><trkpt lat="44.598263415690624" lon="7.35144757737114"><ele>1230.0</ele><time>2026-05-02T12:47:04Z</time></trkpt><trkpt lat="44.59817862650222" lon="7.351383526661277"><ele>1230.0</ele><time>2026-05-02T12:47:11Z</time></trkpt><trkpt lat="44.598070362252344" lon="7.351314892806082"><ele>1234.3333333333333</ele><time>2026-05-02T12:47:13Z</time></trkpt><trkpt lat="44.5980141462898" lon="7.351238234174737"><ele>1238.6666666666667</ele><time>2026-05-02T12:47:14Z</time></trkpt><trkpt lat="44.59793419941008" lon="7.351188033603449"><ele>1243.0</ele><time>2026-05-02T12:47:15Z</time></trkpt><trkpt lat="44.5978545395383" lon="7.351131339649554"><ele>1247.3333333333335</ele><time>2026-05-02T12:47:16Z</time></trkpt><trkpt lat="44.597796991018505" lon="7.351064311235984"><ele>1251.6666666666667</ele><time>2026-05-02T12:47:17Z</time></trkpt><trkpt lat="44.59770858061486" lon="7.351022356220974"><ele>1256.0</ele><time>2026-05-02T12:47:18Z</time></trkpt><trkpt lat="44.59760845341255" lon="7.350978664274171"><ele>1256.0</ele><time>2026-05-02T12:47:19Z</time></trkpt><trkpt lat="44.597509907383795" lon="7.350896574068157"><ele>1256.0</ele><time>2026-05-02T12:47:20Z</time></trkpt><trkpt lat="44.597421157993146" lon="7.350825318584046"><ele>1256.0</ele><time>2026-05-02T12:47:21Z</time></trkpt><trkpt lat="44.597339414255956" lon="7.350781365423315"><ele>1256.0</ele><time>2026-05-02T12:47:22Z</time></trkpt><trkpt lat="44.597260595942096" lon="7.350752151489872"><ele>1256.0</ele><time>2026-05-02T12:47:23Z</time></trkpt><trkpt lat="44.59716890839845" lon="7.350750745605226"><ele>1255.9999999999998</ele><time>2026-05-02T12:47:25Z</time></trkpt><trkpt lat="44.5970974187614" lon="7.350734746419062"><ele>1256.0</ele><time>2026-05-02T12:47:27Z</time></trkpt><trkpt lat="44.59702338033274" lon="7.3507027710855715"><ele>1256.0</ele><time>2026-05-02T12:47:30Z</time></trkpt><trkpt lat="44.596942546256805" lon="7.350666288836681"><ele>1256.0</ele><time>2026-05-02T12:47:33Z</time></trkpt><trkpt lat="44.59687571041814" lon="7.35063685929295"><ele>1256.0</ele><time>2026-05-02T12:47:35Z</time></trkpt><trkpt lat="44.59681339896949" lon="7.350619625901032"><ele>1255.9999999999998</ele><time>2026-05-02T12:47:37Z</time></trkpt><trkpt lat="44.596744280280966" lon="7.350659801204801"><ele>1256.0</ele><time>2026-05-02T12:47:40Z</time></trkpt><trkpt lat="44.59669876472159" lon="7.350781109752107"><ele>1256.8333333333335</ele><time>2026-05-02T12:47:42Z</time></trkpt><trkpt lat="44.596656539212695" lon="7.35085258238837"><ele>1257.6666666666667</ele><time>2026-05-02T12:47:43Z</time></trkpt><trkpt lat="44.596588631049215" lon="7.350923224062934"><ele>1258.5</ele><time>2026-05-02T12:47:44Z</time></trkpt><trkpt lat="44.596521925464444" lon="7.3509796403296725"><ele>1259.3333333333333</ele><time>2026-05-02T12:47:45Z</time></trkpt><trkpt lat="44.596449634679615" lon="7.35105040485414"><ele>1260.1666666666665</ele><time>2026-05-02T12:47:46Z</time></trkpt><trkpt lat="44.59637346176075" lon="7.351142008031966"><ele>1261.0</ele><time>2026-05-02T12:47:47Z</time></trkpt><trkpt lat="44.59630510664211" lon="7.351219051818258"><ele>1261.0</ele><time>2026-05-02T12:47:48Z</time></trkpt><trkpt lat="44.59623215778844" lon="7.351287853248997"><ele>1261.0</ele><time>2026-05-02T12:47:49Z</time></trkpt><trkpt lat="44.59617433163386" lon="7.3513462068567135"><ele>1261.0</ele><time>2026-05-02T12:47:50Z</time></trkpt><trkpt lat="44.59611321037722" lon="7.3514428596222166"><ele>1261.0</ele><time>2026-05-02T12:47:51Z</time></trkpt><trkpt lat="44.59605485238332" lon="7.351532157254239"><ele>1261.0</ele><time>2026-05-02T12:47:52Z</time></trkpt><trkpt lat="44.59600585017507" lon="7.351644654556128"><ele>1261.0</ele><time>2026-05-02T12:47:53Z</time></trkpt><trkpt lat="44.595947473303816" lon="7.351728734911226"><ele>1261.3333333333333</ele><time>2026-05-02T12:47:54Z</time></trkpt><trkpt lat="44.59589091804671" lon="7.351787158361991"><ele>1261.6666666666665</ele><time>2026-05-02T12:47:55Z</time></trkpt><trkpt lat="44.59581064477805" lon="7.351759190858726"><ele>1262.0</ele><time>2026-05-02T12:47:57Z</time></trkpt><trkpt lat="44.59577005907169" lon="7.351691267039217"><ele>1262.3333333333333</ele><time>2026-05-02T12:47:58Z</time></trkpt><trkpt lat="44.595691870062694" lon="7.351631119668269"><ele>1262.6666666666667</ele><time>2026-05-02T12:48:00Z</time></trkpt><trkpt lat="44.595658680477705" lon="7.3515542906153"><ele>1263.0</ele><time>2026-05-02T12:48:01Z</time></trkpt><trkpt lat="44.59561500065693" lon="7.351454613064136"><ele>1265.3333333333333</ele><time>2026-05-02T12:48:02Z</time></trkpt><trkpt lat="44.595563274736094" lon="7.351359657339002"><ele>1267.6666666666667</ele><time>2026-05-02T12:48:03Z</time></trkpt><trkpt lat="44.595491132473505" lon="7.351252965242262"><ele>1270.0</ele><time>2026-05-02T12:48:04Z</time></trkpt><trkpt lat="44.59543347120775" lon="7.351144208116148"><ele>1272.3333333333335</ele><time>2026-05-02T12:48:05Z</time></trkpt><trkpt lat="44.595385147913134" lon="7.351056982037666"><ele>1274.6666666666667</ele><time>2026-05-02T12:48:06Z</time></trkpt><trkpt lat="44.59533957997756" lon="7.35096079241503"><ele>1277.0</ele><time>2026-05-02T12:48:07Z</time></trkpt><trkpt lat="44.5952706889169" lon="7.350819953669553"><ele>1277.0</ele><time>2026-05-02T12:48:08Z</time></trkpt><trkpt lat="44.59520859031991" lon="7.350683285330219"><ele>1277.0</ele><time>2026-05-02T12:48:09Z</time></trkpt><trkpt lat="44.59515435327547" lon="7.350590830839129"><ele>1277.0</ele><time>2026-05-02T12:48:10Z</time></trkpt><trkpt lat="44.595090123787266" lon="7.350493175265605"><ele>1277.0</ele><time>2026-05-02T12:48:11Z</time></trkpt><trkpt lat="44.59506231752473" lon="7.350389245625957"><ele>1277.0</ele><time>2026-05-02T12:48:12Z</time></trkpt><trkpt lat="44.59498516059127" lon="7.350308336165563"><ele>1281.2</ele><time>2026-05-02T12:48:43Z</time></trkpt><trkpt lat="44.59490178323916" lon="7.350247300565759"><ele>1285.4</ele><time>2026-05-02T12:48:45Z</time></trkpt><trkpt lat="44.59478189435589" lon="7.350208656667525"><ele>1289.6000000000001</ele><time>2026-05-02T12:48:47Z</time></trkpt><trkpt lat="44.5946573628187" lon="7.350166061136572"><ele>1293.8000000000002</ele><time>2026-05-02T12:48:49Z</time></trkpt><trkpt lat="44.594576327798215" lon="7.350140989396694"><ele>1298.0</ele><time>2026-05-02T12:48:50Z</time></trkpt><trkpt lat="44.59449432926811" lon="7.3501080968560135"><ele>1298.0</ele><time>2026-05-02T12:48:51Z</time></trkpt><trkpt lat="44.59440343263384" lon="7.350069843266353"><ele>1298.0</ele><time>2026-05-02T12:48:52Z</time></trkpt><trkpt lat="44.59432563103495" lon="7.350041725943261"><ele>1298.0</ele><time>2026-05-02T12:48:53Z</time></trkpt><trkpt lat="44.594245216967394" lon="7.350031200130555"><ele>1298.0</ele><time>2026-05-02T12:48:54Z</time></trkpt><trkpt lat="44.59419804833137" lon="7.3499715561398125"><ele>1298.0</ele><time>2026-05-02T12:48:55Z</time></trkpt><trkpt lat="44.59419568729215" lon="7.34987906154206"><ele>1298.0</ele><time>2026-05-02T12:48:56Z</time></trkpt><trkpt lat="44.594212025359056" lon="7.349755633091632"><ele>1299.6000000000001</ele><time>2026-05-02T12:48:57Z</time></trkpt><trkpt lat="44.59423920415784" lon="7.3496338757378235"><ele>1301.2</ele><time>2026-05-02T12:48:58Z</time></trkpt><trkpt lat="44.59431322210426" lon="7.349533963563301"><ele>1302.8</ele><time>2026-05-02T12:48:59Z</time></trkpt><trkpt lat="44.5943885609069" lon="7.349390880081004"><ele>1304.4</ele><time>2026-05-02T12:49:01Z</time></trkpt><trkpt lat="44.594474700908755" lon="7.349330688274348"><ele>1306.0</ele><time>2026-05-02T12:49:02Z</time></trkpt><trkpt lat="44.5945194131239" lon="7.349244112414854"><ele>1308.6</ele><time>2026-05-02T12:49:03Z</time></trkpt><trkpt lat="44.59458889820823" lon="7.349140410063297"><ele>1311.1999999999998</ele><time>2026-05-02T12:49:04Z</time></trkpt><trkpt lat="44.59463884232412" lon="7.349049771806913"><ele>1313.8000000000002</ele><time>2026-05-02T12:49:05Z</time></trkpt><trkpt lat="44.594668616964846" lon="7.348939290348373"><ele>1316.4</ele><time>2026-05-02T12:49:06Z</time></trkpt><trkpt lat="44.59470869266707" lon="7.348822523457306"><ele>1319.0</ele><time>2026-05-02T12:49:07Z</time></trkpt><trkpt lat="44.59476143969937" lon="7.348709035193966"><ele>1320.4</ele><time>2026-05-02T12:49:08Z</time></trkpt><trkpt lat="44.594788614773286" lon="7.348597588123546"><ele>1321.8000000000002</ele><time>2026-05-02T12:49:09Z</time></trkpt><trkpt lat="44.59480873943552" lon="7.348461335835882"><ele>1323.1999999999998</ele><time>2026-05-02T12:49:10Z</time></trkpt><trkpt lat="44.59482092341722" lon="7.348296679336292"><ele>1324.6</ele><time>2026-05-02T12:49:11Z</time></trkpt><trkpt lat="44.5948332687497" lon="7.348102398014213"><ele>1326.0</ele><time>2026-05-02T12:49:12Z</time></trkpt><trkpt lat="44.59484105082078" lon="7.347909971495658"><ele>1326.25</ele><time>2026-05-02T12:49:13Z</time></trkpt><trkpt lat="44.594860840765314" lon="7.347730717684593"><ele>1326.5</ele><time>2026-05-02T12:49:14Z</time></trkpt><trkpt lat="44.594879836650406" lon="7.3475609984229004"><ele>1326.75</ele><time>2026-05-02T12:49:14.999Z</time></trkpt><trkpt lat="44.59490319290703" lon="7.347403338831029"><ele>1327.0</ele><time>2026-05-02T12:49:15.999Z</time></trkpt><trkpt lat="44.59492397117159" lon="7.347274414030448"><ele>1328.0</ele><time>2026-05-02T12:49:16.999Z</time></trkpt><trkpt lat="44.59492795506624" lon="7.3471520285690834"><ele>1329.0</ele><time>2026-05-02T12:49:17.999Z</time></trkpt><trkpt lat="44.59490177710184" lon="7.347013939976359"><ele>1330.0</ele><time>2026-05-02T12:49:19Z</time></trkpt><trkpt lat="44.59488296787591" lon="7.346863228940554"><ele>1331.0</ele><time>2026-05-02T12:49:20Z</time></trkpt><trkpt lat="44.59487890824322" lon="7.346717267433371"><ele>1332.0</ele><time>2026-05-02T12:49:21Z</time></trkpt><trkpt lat="44.594887843112176" lon="7.346571190986814"><ele>1332.0</ele><time>2026-05-02T12:49:22Z</time></trkpt><trkpt lat="44.59490789673722" lon="7.346429413230982"><ele>1332.0</ele><time>2026-05-02T12:49:23Z</time></trkpt><trkpt lat="44.594887884312236" lon="7.346288958275418"><ele>1332.0</ele><time>2026-05-02T12:49:24Z</time></trkpt><trkpt lat="44.594834520668485" lon="7.346145983155668"><ele>1332.0</ele><time>2026-05-02T12:49:25Z</time></trkpt><trkpt lat="44.5947630715417" lon="7.3460108101354"><ele>1332.0</ele><time>2026-05-02T12:49:26Z</time></trkpt><trkpt lat="44.59472821564878" lon="7.345923078243429"><ele>1332.6666666666667</ele><time>2026-05-02T12:49:27Z</time></trkpt><trkpt lat="44.59473239116552" lon="7.345825873616955"><ele>1333.3333333333333</ele><time>2026-05-02T12:49:28Z</time></trkpt><trkpt lat="44.59474888983986" lon="7.345729893630151"><ele>1334.0</ele><time>2026-05-02T12:49:29Z</time></trkpt><trkpt lat="44.59478637993139" lon="7.345621407554665"><ele>1334.6666666666665</ele><time>2026-05-02T12:49:30Z</time></trkpt><trkpt lat="44.594829701647555" lon="7.345525609985474"><ele>1335.3333333333333</ele><time>2026-05-02T12:49:31Z</time></trkpt><trkpt lat="44.59486327637587" lon="7.3454243758321605"><ele>1336.0</ele><time>2026-05-02T12:49:32Z</time></trkpt><trkpt lat="44.594900855357224" lon="7.345324589739504"><ele>1336.0</ele><time>2026-05-02T12:49:33Z</time></trkpt><trkpt lat="44.59493469177631" lon="7.345227726956078"><ele>1336.0</ele><time>2026-05-02T12:49:34Z</time></trkpt><trkpt lat="44.59497009097351" lon="7.345143925325938"><ele>1336.0</ele><time>2026-05-02T12:49:35Z</time></trkpt><trkpt lat="44.595010309831814" lon="7.3450590253669406"><ele>1336.0</ele><time>2026-05-02T12:49:36Z</time></trkpt><trkpt lat="44.59505992176253" lon="7.344969592837156"><ele>1336.0</ele><time>2026-05-02T12:49:37Z</time></trkpt><trkpt lat="44.59509604024419" lon="7.3448757734716565"><ele>1336.0</ele><time>2026-05-02T12:49:38Z</time></trkpt><trkpt lat="44.595127084957" lon="7.344786504874818"><ele>1336.0</ele><time>2026-05-02T12:49:39Z</time></trkpt><trkpt lat="44.595213465877976" lon="7.344703934927512"><ele>1340.25</ele><time>2026-05-02T12:49:41Z</time></trkpt><trkpt lat="44.59534033177074" lon="7.344600667915669"><ele>1344.5</ele><time>2026-05-02T12:49:43Z</time></trkpt><trkpt lat="44.595429704052364" lon="7.344528259690545"><ele>1348.75</ele><time>2026-05-02T12:49:44Z</time></trkpt><trkpt lat="44.595505739092275" lon="7.344419366688183"><ele>1353.0</ele><time>2026-05-02T12:49:45Z</time></trkpt><trkpt lat="44.59560307621459" lon="7.3443320333316295"><ele>1353.0</ele><time>2026-05-02T12:49:46Z</time></trkpt><trkpt lat="44.59568908948588" lon="7.344228497731682"><ele>1353.0</ele><time>2026-05-02T12:49:47Z</time></trkpt><trkpt lat="44.59576639132121" lon="7.3440907704027305"><ele>1353.0</ele><time>2026-05-02T12:49:48Z</time></trkpt><trkpt lat="44.5958360588858" lon="7.343885427707345"><ele>1353.0</ele><time>2026-05-02T12:49:49Z</time></trkpt><trkpt lat="44.59586276153969" lon="7.343680484274795"><ele>1352.5</ele><time>2026-05-02T12:49:50Z</time></trkpt><trkpt lat="44.59588589219478" lon="7.343476531945257"><ele>1352.0</ele><time>2026-05-02T12:49:51Z</time></trkpt><trkpt lat="44.595893175561145" lon="7.343296961886536"><ele>1351.5</ele><time>2026-05-02T12:49:52Z</time></trkpt><trkpt lat="44.59589953679794" lon="7.343126945829911"><ele>1351.0</ele><time>2026-05-02T12:49:53Z</time></trkpt><trkpt lat="44.5958832940327" lon="7.34295471051759"><ele>1351.0</ele><time>2026-05-02T12:49:54Z</time></trkpt><trkpt lat="44.595907833694156" lon="7.3427833066331365"><ele>1351.0</ele><time>2026-05-02T12:49:55Z</time></trkpt><trkpt lat="44.59592073872965" lon="7.342641542227519"><ele>1351.0</ele><time>2026-05-02T12:49:56Z</time></trkpt><trkpt lat="44.59593666210918" lon="7.3425038538141925"><ele>1351.0</ele><time>2026-05-02T12:49:57Z</time></trkpt><trkpt lat="44.595935978202874" lon="7.342347646504065"><ele>1351.0</ele><time>2026-05-02T12:49:58Z</time></trkpt><trkpt lat="44.59592201042726" lon="7.3421792880871575"><ele>1350.4</ele><time>2026-05-02T12:49:59Z</time></trkpt><trkpt lat="44.59589111835293" lon="7.341997971754042"><ele>1349.8</ele><time>2026-05-02T12:50:00Z</time></trkpt><trkpt lat="44.59589664226894" lon="7.3418636083837"><ele>1349.2</ele><time>2026-05-02T12:50:01Z</time></trkpt><trkpt lat="44.59593621365844" lon="7.341789815485001"><ele>1348.6000000000001</ele><time>2026-05-02T12:50:02Z</time></trkpt><trkpt lat="44.59600312945221" lon="7.341637227827388"><ele>1348.0</ele><time>2026-05-02T12:50:04Z</time></trkpt><trkpt lat="44.596080595213756" lon="7.341527073377621"><ele>1348.0</ele><time>2026-05-02T12:50:05Z</time></trkpt><trkpt lat="44.59615185002027" lon="7.341392766527346"><ele>1348.0</ele><time>2026-05-02T12:50:06Z</time></trkpt><trkpt lat="44.59621947933658" lon="7.341231646497662"><ele>1348.0</ele><time>2026-05-02T12:50:07Z</time></trkpt><trkpt lat="44.596271616864115" lon="7.341076982108064"><ele>1348.0</ele><time>2026-05-02T12:50:08Z</time></trkpt><trkpt lat="44.59631179823696" lon="7.340936562959776"><ele>1353.75</ele><time>2026-05-02T12:50:09Z</time></trkpt><trkpt lat="44.59632424642134" lon="7.34078936003438"><ele>1359.5</ele><time>2026-05-02T12:50:10Z</time></trkpt><trkpt lat="44.596323101989455" lon="7.340635441433517"><ele>1365.25</ele><time>2026-05-02T12:50:11Z</time></trkpt><trkpt lat="44.59635338592605" lon="7.3404846425570955"><ele>1371.0</ele><time>2026-05-02T12:50:12Z</time></trkpt><trkpt lat="44.596393569650544" lon="7.3403084592509655"><ele>1371.1999999999998</ele><time>2026-05-02T12:50:13Z</time></trkpt><trkpt lat="44.59645137869794" lon="7.3401640329377145"><ele>1371.3999999999999</ele><time>2026-05-02T12:50:14Z</time></trkpt><trkpt lat="44.59646056535398" lon="7.3400685599728215"><ele>1371.6</ele><time>2026-05-02T12:50:15Z</time></trkpt><trkpt lat="44.59644574256016" lon="7.3399718346901786"><ele>1371.8</ele><time>2026-05-02T12:50:16Z</time></trkpt><trkpt lat="44.596420354694544" lon="7.339848713654871"><ele>1372.0</ele><time>2026-05-02T12:50:17Z</time></trkpt><trkpt lat="44.59637458465656" lon="7.3397215857269416"><ele>1373.6666666666665</ele><time>2026-05-02T12:50:18Z</time></trkpt><trkpt lat="44.59635847534175" lon="7.339607007104921"><ele>1375.3333333333333</ele><time>2026-05-02T12:50:19Z</time></trkpt><trkpt lat="44.59635938739836" lon="7.339485117960469"><ele>1377.0</ele><time>2026-05-02T12:50:20Z</time></trkpt><trkpt lat="44.59635782578737" lon="7.3393564811188465"><ele>1378.6666666666667</ele><time>2026-05-02T12:50:21Z</time></trkpt><trkpt lat="44.59635448110156" lon="7.339236188001716"><ele>1380.3333333333335</ele><time>2026-05-02T12:50:22Z</time></trkpt><trkpt lat="44.59632951985754" lon="7.3391287118148965"><ele>1382.0</ele><time>2026-05-02T12:50:23Z</time></trkpt><trkpt lat="44.59627976009356" lon="7.339014859666343"><ele>1382.0</ele><time>2026-05-02T12:50:24Z</time></trkpt><trkpt lat="44.59623518876207" lon="7.338900302749713"><ele>1382.0</ele><time>2026-05-02T12:50:25Z</time></trkpt><trkpt lat="44.59619267409127" lon="7.338774957442902"><ele>1382.0</ele><time>2026-05-02T12:50:26Z</time></trkpt><trkpt lat="44.59617030655445" lon="7.338677533584699"><ele>1382.0</ele><time>2026-05-02T12:50:27Z</time></trkpt><trkpt lat="44.59617096123499" lon="7.338560504334633"><ele>1382.0</ele><time>2026-05-02T12:50:28Z</time></trkpt><trkpt lat="44.5961961162465" lon="7.3384170337216625"><ele>1384.25</ele><time>2026-05-02T12:50:29Z</time></trkpt><trkpt lat="44.59620386373399" lon="7.33825619350369"><ele>1386.5</ele><time>2026-05-02T12:50:30Z</time></trkpt><trkpt lat="44.59617947348634" lon="7.338082932007146"><ele>1388.75</ele><time>2026-05-02T12:50:31Z</time></trkpt><trkpt lat="44.59613705378004" lon="7.337887444969741"><ele>1391.0</ele><time>2026-05-02T12:50:32Z</time></trkpt><trkpt lat="44.59612828125766" lon="7.337673174287021"><ele>1382.25</ele><time>2026-05-02T12:50:33Z</time></trkpt><trkpt lat="44.59610080393842" lon="7.3374541508969955"><ele>1373.5</ele><time>2026-05-02T12:50:34Z</time></trkpt><trkpt lat="44.59607927878451" lon="7.33726742889511"><ele>1364.75</ele><time>2026-05-02T12:50:35Z</time></trkpt><trkpt lat="44.59604939100927" lon="7.337131505189371"><ele>1356.0</ele><time>2026-05-02T12:50:36Z</time></trkpt><trkpt lat="44.596030819967694" lon="7.337026229224849"><ele>1354.8</ele><time>2026-05-02T12:50:37Z</time></trkpt><trkpt lat="44.59602392794623" lon="7.336893659554072"><ele>1353.6</ele><time>2026-05-02T12:50:38Z</time></trkpt><trkpt lat="44.59609108373039" lon="7.336792780110758"><ele>1352.4</ele><time>2026-05-02T12:50:41Z</time></trkpt><trkpt lat="44.59618346262529" lon="7.3366762317535095"><ele>1351.2</ele><time>2026-05-02T12:50:42Z</time></trkpt><trkpt lat="44.59622616904099" lon="7.336580104146778"><ele>1350.0</ele><time>2026-05-02T12:50:43Z</time></trkpt><trkpt lat="44.59624693047441" lon="7.33649005169497"><ele>1352.5</ele><time>2026-05-02T12:50:44Z</time></trkpt><trkpt lat="44.59628896607185" lon="7.33636542024952"><ele>1355.0</ele><time>2026-05-02T12:50:46Z</time></trkpt><trkpt lat="44.59632931495495" lon="7.336286746298854"><ele>1357.5</ele><time>2026-05-02T12:50:47Z</time></trkpt><trkpt lat="44.5964153305429" lon="7.33616584736012"><ele>1360.0</ele><time>2026-05-02T12:50:49Z</time></trkpt><trkpt lat="44.59657078980777" lon="7.33603869535951"><ele>1360.0</ele><time>2026-05-02T12:50:51Z</time></trkpt><trkpt lat="44.59665145394739" lon="7.335950859775255"><ele>1360.0</ele><time>2026-05-02T12:50:52Z</time></trkpt><trkpt lat="44.596713241320124" lon="7.335866463946222"><ele>1360.0</ele><time>2026-05-02T12:50:53Z</time></trkpt><trkpt lat="44.596789213206506" lon="7.335815236822582"><ele>1360.0</ele><time>2026-05-02T12:50:54Z</time></trkpt><trkpt lat="44.59686789233817" lon="7.335769045830971"><ele>1360.0</ele><time>2026-05-02T12:50:55Z</time></trkpt><trkpt lat="44.59695793635011" lon="7.33573891920256"><ele>1361.0</ele><time>2026-05-02T12:50:56Z</time></trkpt><trkpt lat="44.59706426929545" lon="7.335681111121795"><ele>1362.0</ele><time>2026-05-02T12:50:57Z</time></trkpt><trkpt lat="44.59717494017685" lon="7.335588594544576"><ele>1363.0</ele><time>2026-05-02T12:50:58Z</time></trkpt><trkpt lat="44.59725421689548" lon="7.3354556595869305"><ele>1364.0</ele><time>2026-05-02T12:50:59Z</time></trkpt><trkpt lat="44.59731133322945" lon="7.3353566201007165"><ele>1364.0</ele><time>2026-05-02T12:51:00Z</time></trkpt><trkpt lat="44.59735439751509" lon="7.335269347917182"><ele>1364.0</ele><time>2026-05-02T12:51:01Z</time></trkpt><trkpt lat="44.59742533987197" lon="7.335223358801013"><ele>1364.0</ele><time>2026-05-02T12:51:02Z</time></trkpt><trkpt lat="44.597520291592005" lon="7.3351958317338735"><ele>1364.0</ele><time>2026-05-02T12:51:03Z</time></trkpt><trkpt lat="44.59761229306996" lon="7.335170493317271"><ele>1364.0</ele><time>2026-05-02T12:51:04Z</time></trkpt><trkpt lat="44.59768520979502" lon="7.335140504380529"><ele>1364.0</ele><time>2026-05-02T12:51:05Z</time></trkpt><trkpt lat="44.59779425633591" lon="7.335080252288421"><ele>1365.8000000000002</ele><time>2026-05-02T12:51:07Z</time></trkpt><trkpt lat="44.59787930973917" lon="7.335040513351956"><ele>1367.6000000000001</ele><time>2026-05-02T12:51:09Z</time></trkpt><trkpt lat="44.598002167454354" lon="7.334957285725075"><ele>1369.4</ele><time>2026-05-02T12:51:11Z</time></trkpt><trkpt lat="44.59807279099228" lon="7.334934048773102"><ele>1371.2</ele><time>2026-05-02T12:51:12Z</time></trkpt><trkpt lat="44.598192508930694" lon="7.334939450976674"><ele>1373.0</ele><time>2026-05-02T12:51:14Z</time></trkpt><trkpt lat="44.59823814079061" lon="7.335060357847969"><ele>1373.0</ele><time>2026-05-02T12:51:16Z</time></trkpt><trkpt lat="44.598299927942065" lon="7.335118641417315"><ele>1373.0</ele><time>2026-05-02T12:51:17.999Z</time></trkpt><trkpt lat="44.59840875878571" lon="7.335062956879332"><ele>1373.0</ele><time>2026-05-02T12:51:18.999Z</time></trkpt><trkpt lat="44.59842921988253" lon="7.335171871477977"><ele>1373.0</ele><time>2026-05-02T12:51:21.999Z</time></trkpt><trkpt lat="44.598480252971555" lon="7.335260458917014"><ele>1373.0</ele><time>2026-05-02T12:51:23.999Z</time></trkpt><trkpt lat="44.598557612971504" lon="7.335253429725907"><ele>1373.0</ele><time>2026-05-02T12:53:10Z</time></trkpt></trkseg><trkseg><trkpt lat="44.59847869994905" lon="7.335280194778665"><ele>1373.0</ele><time>2026-05-02T13:09:08Z</time></trkpt><trkpt lat="44.59847603854215" lon="7.335168621230196"><ele>1373.0</ele><time>2026-05-02T13:09:13Z</time></trkpt><trkpt lat="44.598528872675665" lon="7.335108891823205"><ele>1373.0</ele><time>2026-05-02T13:09:15Z</time></trkpt><trkpt lat="44.598585377038916" lon="7.335027488675874"><ele>1373.0</ele><time>2026-05-02T13:09:17Z</time></trkpt><trkpt lat="44.598627516523905" lon="7.3349317767420485"><ele>1373.0</ele><time>2026-05-02T13:09:19Z</time></trkpt><trkpt lat="44.59866645681903" lon="7.334854495805876"><ele>1373.0</ele><time>2026-05-02T13:09:21Z</time></trkpt><trkpt lat="44.5986925630982" lon="7.33476159602881"><ele>1373.0</ele><time>2026-05-02T13:09:23Z</time></trkpt><trkpt lat="44.5986927946986" lon="7.334654311506531"><ele>1373.3333333333335</ele><time>2026-05-02T13:09:25Z</time></trkpt><trkpt lat="44.598674579206794" lon="7.334548071406116"><ele>1373.6666666666667</ele><time>2026-05-02T13:09:27Z</time></trkpt><trkpt lat="44.59862712056089" lon="7.334413908262759"><ele>1374.0</ele><time>2026-05-02T13:09:29Z</time></trkpt><trkpt lat="44.59859718515185" lon="7.334325498296017"><ele>1374.3333333333333</ele><time>2026-05-02T13:09:31Z</time></trkpt><trkpt lat="44.59865317802783" lon="7.33421520408525"><ele>1374.6666666666665</ele><time>2026-05-02T13:09:33Z</time></trkpt><trkpt lat="44.59872169162443" lon="7.3341686239729516"><ele>1375.0</ele><time>2026-05-02T13:09:34Z</time></trkpt><trkpt lat="44.59878113243977" lon="7.334106334467668"><ele>1375.0</ele><time>2026-05-02T13:09:35Z</time></trkpt><trkpt lat="44.59883934539953" lon="7.334036262630774"><ele>1375.0</ele><time>2026-05-02T13:09:36Z</time></trkpt><trkpt lat="44.59889752694035" lon="7.333957524689953"><ele>1375.0</ele><time>2026-05-02T13:09:37Z</time></trkpt><trkpt lat="44.59894723540726" lon="7.33386244971429"><ele>1375.0</ele><time>2026-05-02T13:09:38Z</time></trkpt><trkpt lat="44.598992805306516" lon="7.333751098302451"><ele>1375.0</ele><time>2026-05-02T13:09:39Z</time></trkpt><trkpt lat="44.599040572588784" lon="7.333632176156494"><ele>1375.0</ele><time>2026-05-02T13:09:40Z</time></trkpt><trkpt lat="44.59907585333411" lon="7.333518812797839"><ele>1374.2</ele><time>2026-05-02T13:09:41Z</time></trkpt><trkpt lat="44.599126303342096" lon="7.333452555043935"><ele>1373.4</ele><time>2026-05-02T13:09:42Z</time></trkpt><trkpt lat="44.599195534260765" lon="7.333291203611145"><ele>1372.6</ele><time>2026-05-02T13:09:44Z</time></trkpt><trkpt lat="44.59926600504297" lon="7.333222052824468"><ele>1371.8</ele><time>2026-05-02T13:09:45Z</time></trkpt><trkpt lat="44.5993205589888" lon="7.333163092374091"><ele>1371.0</ele><time>2026-05-02T13:09:46Z</time></trkpt><trkpt lat="44.59945325572056" lon="7.333084646367089"><ele>1375.0</ele><time>2026-05-02T13:09:48Z</time></trkpt><trkpt lat="44.59951556101868" lon="7.333013189332047"><ele>1379.0</ele><time>2026-05-02T13:09:49Z</time></trkpt><trkpt lat="44.59959240060848" lon="7.33294639297073"><ele>1383.0</ele><time>2026-05-02T13:09:50Z</time></trkpt><trkpt lat="44.59966809444669" lon="7.33285790753483"><ele>1387.0</ele><time>2026-05-02T13:09:51Z</time></trkpt><trkpt lat="44.59971086743503" lon="7.332759969013708"><ele>1391.0</ele><time>2026-05-02T13:09:52Z</time></trkpt><trkpt lat="44.59976316325577" lon="7.332635900419278"><ele>1391.0</ele><time>2026-05-02T13:09:54Z</time></trkpt><trkpt lat="44.59980507472485" lon="7.3325669371323565"><ele>1391.0</ele><time>2026-05-02T13:09:55Z</time></trkpt><trkpt lat="44.59984400828521" lon="7.332452291214803"><ele>1391.0</ele><time>2026-05-02T13:09:56Z</time></trkpt><trkpt lat="44.5999107674602" lon="7.332362908582833"><ele>1391.0</ele><time>2026-05-02T13:09:57Z</time></trkpt><trkpt lat="44.59991822789027" lon="7.332257326235203"><ele>1391.0</ele><time>2026-05-02T13:09:58Z</time></trkpt><trkpt lat="44.59991278800253" lon="7.332131679264094"><ele>1391.0</ele><time>2026-05-02T13:09:59Z</time></trkpt><trkpt lat="44.599891350022624" lon="7.331967895015299"><ele>1390.8</ele><time>2026-05-02T13:10:00Z</time></trkpt><trkpt lat="44.59988884714403" lon="7.331792117338488"><ele>1390.6</ele><time>2026-05-02T13:10:01Z</time></trkpt><trkpt lat="44.59987225074498" lon="7.331640474438008"><ele>1390.4</ele><time>2026-05-02T13:10:02Z</time></trkpt><trkpt lat="44.599861323092874" lon="7.3314990632641965"><ele>1390.2</ele><time>2026-05-02T13:10:03Z</time></trkpt><trkpt lat="44.599859044476744" lon="7.331372903164554"><ele>1390.0</ele><time>2026-05-02T13:10:04Z</time></trkpt><trkpt lat="44.59989434510922" lon="7.3312674233318305"><ele>1388.0000000000002</ele><time>2026-05-02T13:10:05Z</time></trkpt><trkpt lat="44.599933804898896" lon="7.3311846077108775"><ele>1386.0</ele><time>2026-05-02T13:10:06Z</time></trkpt><trkpt lat="44.59997196820169" lon="7.331104726712183"><ele>1384.0</ele><time>2026-05-02T13:10:07Z</time></trkpt><trkpt lat="44.60001866787791" lon="7.331012379908722"><ele>1382.0</ele><time>2026-05-02T13:10:08Z</time></trkpt><trkpt lat="44.6000632886624" lon="7.3309284562142585"><ele>1380.0</ele><time>2026-05-02T13:10:09Z</time></trkpt><trkpt lat="44.60011005231332" lon="7.33085422364793"><ele>1378.0000000000002</ele><time>2026-05-02T13:10:10Z</time></trkpt><trkpt lat="44.60016554989665" lon="7.330775544562888"><ele>1376.0</ele><time>2026-05-02T13:10:11Z</time></trkpt><trkpt lat="44.60023490178463" lon="7.33069474457163"><ele>1376.0</ele><time>2026-05-02T13:10:12Z</time></trkpt><trkpt lat="44.60030442821625" lon="7.330613389103236"><ele>1376.0</ele><time>2026-05-02T13:10:13Z</time></trkpt><trkpt lat="44.60036984534484" lon="7.330528274865984"><ele>1376.0</ele><time>2026-05-02T13:10:14Z</time></trkpt><trkpt lat="44.600430615155396" lon="7.330418420859325"><ele>1376.0</ele><time>2026-05-02T13:10:15Z</time></trkpt><trkpt lat="44.60049464184249" lon="7.330296632330028"><ele>1376.0</ele><time>2026-05-02T13:10:16Z</time></trkpt><trkpt lat="44.60055849239903" lon="7.330150175657292"><ele>1376.8333333333335</ele><time>2026-05-02T13:10:17Z</time></trkpt><trkpt lat="44.60063596750948" lon="7.330043397945182"><ele>1377.6666666666667</ele><time>2026-05-02T13:10:18Z</time></trkpt><trkpt lat="44.600679358836345" lon="7.32993144448404"><ele>1378.5</ele><time>2026-05-02T13:10:19Z</time></trkpt><trkpt lat="44.6006843082299" lon="7.329773854398924"><ele>1379.3333333333333</ele><time>2026-05-02T13:10:20Z</time></trkpt><trkpt lat="44.600687016976366" lon="7.329671545631454"><ele>1380.1666666666665</ele><time>2026-05-02T13:10:21Z</time></trkpt><trkpt lat="44.600729569236925" lon="7.329604932954417"><ele>1381.0</ele><time>2026-05-02T13:10:22Z</time></trkpt><trkpt lat="44.60080717412707" lon="7.3295589075473195"><ele>1378.6</ele><time>2026-05-02T13:10:23Z</time></trkpt><trkpt lat="44.60087423258485" lon="7.3294695299594705"><ele>1376.1999999999998</ele><time>2026-05-02T13:10:24Z</time></trkpt><trkpt lat="44.6009380836557" lon="7.329376118382128"><ele>1373.8000000000002</ele><time>2026-05-02T13:10:25Z</time></trkpt><trkpt lat="44.60099386737654" lon="7.329242115468087"><ele>1371.4</ele><time>2026-05-02T13:10:26Z</time></trkpt><trkpt lat="44.60104109731704" lon="7.329085809643796"><ele>1369.0</ele><time>2026-05-02T13:10:27Z</time></trkpt><trkpt lat="44.601100950675495" lon="7.328944686008398"><ele>1367.8000000000002</ele><time>2026-05-02T13:10:28Z</time></trkpt><trkpt lat="44.601145640980604" lon="7.328818431487386"><ele>1366.6000000000001</ele><time>2026-05-02T13:10:29Z</time></trkpt><trkpt lat="44.60116525871966" lon="7.328726942348544"><ele>1365.4</ele><time>2026-05-02T13:10:30Z</time></trkpt><trkpt lat="44.601118836306185" lon="7.328546793906046"><ele>1364.2</ele><time>2026-05-02T13:10:32Z</time></trkpt><trkpt lat="44.60105919289473" lon="7.328439829370293"><ele>1363.0</ele><time>2026-05-02T13:10:33Z</time></trkpt><trkpt lat="44.60100454959517" lon="7.328334802367048"><ele>1363.0</ele><time>2026-05-02T13:10:34Z</time></trkpt><trkpt lat="44.60095018452038" lon="7.328228540155195"><ele>1363.0</ele><time>2026-05-02T13:10:35Z</time></trkpt><trkpt lat="44.60090183565061" lon="7.32812727375124"><ele>1363.0</ele><time>2026-05-02T13:10:36Z</time></trkpt><trkpt lat="44.60087444167396" lon="7.3279978185672405"><ele>1363.0</ele><time>2026-05-02T13:10:38Z</time></trkpt><trkpt lat="44.600891533203786" lon="7.327873531995771"><ele>1363.0</ele><time>2026-05-02T13:10:39Z</time></trkpt><trkpt lat="44.60094941861456" lon="7.327728387455603"><ele>1362.25</ele><time>2026-05-02T13:10:40Z</time></trkpt><trkpt lat="44.60102334465264" lon="7.327563621729104"><ele>1361.5</ele><time>2026-05-02T13:10:41Z</time></trkpt><trkpt lat="44.601093527764014" lon="7.327427852326206"><ele>1360.75</ele><time>2026-05-02T13:10:42Z</time></trkpt><trkpt lat="44.60117892535548" lon="7.327292575193861"><ele>1360.0</ele><time>2026-05-02T13:10:43Z</time></trkpt><trkpt lat="44.601257748167335" lon="7.327147235618958"><ele>1362.25</ele><time>2026-05-02T13:10:44Z</time></trkpt><trkpt lat="44.601317361137866" lon="7.326987268272671"><ele>1364.5</ele><time>2026-05-02T13:10:45Z</time></trkpt><trkpt lat="44.60138969566739" lon="7.326842637229656"><ele>1366.75</ele><time>2026-05-02T13:10:46Z</time></trkpt><trkpt lat="44.60145922245003" lon="7.32671359469677"><ele>1369.0</ele><time>2026-05-02T13:10:47Z</time></trkpt><trkpt lat="44.60153556586999" lon="7.326593018741767"><ele>1369.0</ele><time>2026-05-02T13:10:47.999Z</time></trkpt><trkpt lat="44.601626767268186" lon="7.326456325792856"><ele>1369.0</ele><time>2026-05-02T13:10:48.999Z</time></trkpt><trkpt lat="44.60171055675465" lon="7.326325787168587"><ele>1369.0</ele><time>2026-05-02T13:10:49.999Z</time></trkpt><trkpt lat="44.601766333015796" lon="7.326174744142153"><ele>1369.0</ele><time>2026-05-02T13:10:50.999Z</time></trkpt><trkpt lat="44.60180699569563" lon="7.3260272589882165"><ele>1369.8000000000002</ele><time>2026-05-02T13:10:51.999Z</time></trkpt><trkpt lat="44.60182683997066" lon="7.325894924315188"><ele>1370.6000000000001</ele><time>2026-05-02T13:10:52.999Z</time></trkpt><trkpt lat="44.601930724142804" lon="7.325803093189308"><ele>1371.4</ele><time>2026-05-02T13:10:55Z</time></trkpt><trkpt lat="44.602002573894985" lon="7.325721839033121"><ele>1372.2</ele><time>2026-05-02T13:10:56Z</time></trkpt><trkpt lat="44.60206989954245" lon="7.3256457012276295"><ele>1373.0</ele><time>2026-05-02T13:10:57Z</time></trkpt><trkpt lat="44.602109646802866" lon="7.325540917608567"><ele>1373.0</ele><time>2026-05-02T13:10:58Z</time></trkpt><trkpt lat="44.60216508475219" lon="7.325478202530148"><ele>1373.0</ele><time>2026-05-02T13:11:00Z</time></trkpt><trkpt lat="44.602216048425916" lon="7.325552094865721"><ele>1373.0</ele><time>2026-05-02T13:11:03Z</time></trkpt><trkpt lat="44.60226571694904" lon="7.32569603628274"><ele>1373.0</ele><time>2026-05-02T13:11:05Z</time></trkpt><trkpt lat="44.60232779550909" lon="7.325865120526728"><ele>1373.0</ele><time>2026-05-02T13:11:07Z</time></trkpt><trkpt lat="44.60236161007969" lon="7.325986611431465"><ele>1370.3333333333335</ele><time>2026-05-02T13:11:08Z</time></trkpt><trkpt lat="44.602367055804805" lon="7.326106490728786"><ele>1367.6666666666667</ele><time>2026-05-02T13:11:09Z</time></trkpt><trkpt lat="44.602404384318994" lon="7.326212315742806"><ele>1365.0</ele><time>2026-05-02T13:11:10Z</time></trkpt><trkpt lat="44.602438591131204" lon="7.3263049218660425"><ele>1362.3333333333333</ele><time>2026-05-02T13:11:11Z</time></trkpt><trkpt lat="44.6024773831356" lon="7.3263763561311475"><ele>1359.6666666666665</ele><time>2026-05-02T13:11:12Z</time></trkpt><trkpt lat="44.602511615916136" lon="7.326553372261728"><ele>1357.0</ele><time>2026-05-02T13:11:14Z</time></trkpt><trkpt lat="44.6025288911513" lon="7.326646573190672"><ele>1355.857142857143</ele><time>2026-05-02T13:11:15Z</time></trkpt><trkpt lat="44.60253874944177" lon="7.326741186373461"><ele>1354.7142857142858</ele><time>2026-05-02T13:11:16Z</time></trkpt><trkpt lat="44.60254740153867" lon="7.326834830014904"><ele>1353.5714285714284</ele><time>2026-05-02T13:11:17Z</time></trkpt><trkpt lat="44.60255811240566" lon="7.326933106796165"><ele>1352.4285714285716</ele><time>2026-05-02T13:11:18Z</time></trkpt><trkpt lat="44.602597294213425" lon="7.32702638029299"><ele>1351.2857142857144</ele><time>2026-05-02T13:11:19Z</time></trkpt><trkpt lat="44.602623856601596" lon="7.3271183332238685"><ele>1350.142857142857</ele><time>2026-05-02T13:11:20Z</time></trkpt><trkpt lat="44.60265319437863" lon="7.327201747628653"><ele>1349.0</ele><time>2026-05-02T13:11:21Z</time></trkpt><trkpt lat="44.602683097381124" lon="7.32728559060299"><ele>1348.6666666666667</ele><time>2026-05-02T13:11:22Z</time></trkpt><trkpt lat="44.60271612000554" lon="7.327386536658025"><ele>1348.3333333333335</ele><time>2026-05-02T13:11:23Z</time></trkpt><trkpt lat="44.60274558756205" lon="7.327473005283185"><ele>1348.0</ele><time>2026-05-02T13:11:24Z</time></trkpt><trkpt lat="44.60278945162609" lon="7.327652780934299"><ele>1347.6666666666667</ele><time>2026-05-02T13:11:26Z</time></trkpt><trkpt lat="44.60281300497754" lon="7.3277517234535985"><ele>1347.3333333333333</ele><time>2026-05-02T13:11:27Z</time></trkpt><trkpt lat="44.602832556428275" lon="7.327852309270608"><ele>1347.0</ele><time>2026-05-02T13:11:28Z</time></trkpt><trkpt lat="44.60284657755047" lon="7.3279497984666575"><ele>1339.142857142857</ele><time>2026-05-02T13:11:29Z</time></trkpt><trkpt lat="44.60285596178421" lon="7.328054042582978"><ele>1331.2857142857142</ele><time>2026-05-02T13:11:30Z</time></trkpt><trkpt lat="44.602860429926615" lon="7.328167669525891"><ele>1323.4285714285716</ele><time>2026-05-02T13:11:31Z</time></trkpt><trkpt lat="44.60285888868242" lon="7.328257375583764"><ele>1315.5714285714284</ele><time>2026-05-02T13:11:32Z</time></trkpt><trkpt lat="44.60285706509171" lon="7.32835013358932"><ele>1307.7142857142858</ele><time>2026-05-02T13:11:33Z</time></trkpt><trkpt lat="44.60285354525708" lon="7.32845907606246"><ele>1299.857142857143</ele><time>2026-05-02T13:11:34Z</time></trkpt><trkpt lat="44.6028502468636" lon="7.328561164700908"><ele>1292.0</ele><time>2026-05-02T13:11:35Z</time></trkpt><trkpt lat="44.60284691129739" lon="7.328664403950677"><ele>1292.0</ele><time>2026-05-02T13:11:36Z</time></trkpt><trkpt lat="44.602859625869876" lon="7.328837609070245"><ele>1292.0</ele><time>2026-05-02T13:11:38Z</time></trkpt><trkpt lat="44.6028655734698" lon="7.329006146700031"><ele>1292.0</ele><time>2026-05-02T13:11:40Z</time></trkpt><trkpt lat="44.60293914106911" lon="7.329077533949518"><ele>1292.0</ele><time>2026-05-02T13:11:41Z</time></trkpt><trkpt lat="44.60303628612181" lon="7.3291414895813185"><ele>1292.0</ele><time>2026-05-02T13:11:43Z</time></trkpt><trkpt lat="44.603153081300135" lon="7.329244128464106"><ele>1292.5</ele><time>2026-05-02T13:11:45Z</time></trkpt><trkpt lat="44.603205139441044" lon="7.329322205295765"><ele>1293.0</ele><time>2026-05-02T13:11:46Z</time></trkpt><trkpt lat="44.60328578646505" lon="7.329417037258096"><ele>1293.5</ele><time>2026-05-02T13:11:48Z</time></trkpt><trkpt lat="44.60337632037404" lon="7.329530621085876"><ele>1294.0</ele><time>2026-05-02T13:11:50Z</time></trkpt><trkpt lat="44.60342393948397" lon="7.329598243084818"><ele>1294.5</ele><time>2026-05-02T13:11:51Z</time></trkpt><trkpt lat="44.60347049180503" lon="7.3296577959034375"><ele>1295.0</ele><time>2026-05-02T13:11:52Z</time></trkpt><trkpt lat="44.60355063388333" lon="7.329792228184099"><ele>1298.2</ele><time>2026-05-02T13:11:54Z</time></trkpt><trkpt lat="44.60361694378265" lon="7.329884165679586"><ele>1301.4</ele><time>2026-05-02T13:11:55Z</time></trkpt><trkpt lat="44.60368333722853" lon="7.329975159446988"><ele>1304.6</ele><time>2026-05-02T13:11:57Z</time></trkpt><trkpt lat="44.603763382578244" lon="7.330047487298642"><ele>1307.8</ele><time>2026-05-02T13:11:59Z</time></trkpt><trkpt lat="44.60380356812408" lon="7.330117457021265"><ele>1311.0</ele><time>2026-05-02T13:12:00Z</time></trkpt><trkpt lat="44.603891019306765" lon="7.3302064272143665"><ele>1304.3999999999999</ele><time>2026-05-02T13:12:02Z</time></trkpt><trkpt lat="44.603943525829514" lon="7.330263730832012"><ele>1297.8</ele><time>2026-05-02T13:12:03Z</time></trkpt><trkpt lat="44.6040337332298" lon="7.330377723445416"><ele>1291.1999999999998</ele><time>2026-05-02T13:12:05Z</time></trkpt><trkpt lat="44.60408333884286" lon="7.33044245047678"><ele>1284.6</ele><time>2026-05-02T13:12:06Z</time></trkpt><trkpt lat="44.60417864934805" lon="7.330566672137741"><ele>1278.0</ele><time>2026-05-02T13:12:08Z</time></trkpt><trkpt lat="44.604234611257624" lon="7.330638812393973"><ele>1278.0</ele><time>2026-05-02T13:12:09Z</time></trkpt><trkpt lat="44.604285875936995" lon="7.330704897522272"><ele>1278.0</ele><time>2026-05-02T13:12:10Z</time></trkpt><trkpt lat="44.60434257425098" lon="7.330774884694245"><ele>1278.0</ele><time>2026-05-02T13:12:11Z</time></trkpt><trkpt lat="44.60439897597803" lon="7.330835025811847"><ele>1278.0</ele><time>2026-05-02T13:12:12Z</time></trkpt><trkpt lat="44.60446122236684" lon="7.330872826983593"><ele>1278.0</ele><time>2026-05-02T13:12:13Z</time></trkpt><trkpt lat="44.604574393546905" lon="7.3309471654054805"><ele>1278.0</ele><time>2026-05-02T13:12:15Z</time></trkpt><trkpt lat="44.60468241790834" lon="7.3310070603937145"><ele>1270.0</ele><time>2026-05-02T13:12:17Z</time></trkpt><trkpt lat="44.60474549853988" lon="7.331060323508308"><ele>1262.0</ele><time>2026-05-02T13:12:18Z</time></trkpt><trkpt lat="44.60478998108004" lon="7.331127644390412"><ele>1254.0</ele><time>2026-05-02T13:12:19Z</time></trkpt><trkpt lat="44.60489676642258" lon="7.331225519821125"><ele>1246.0</ele><time>2026-05-02T13:12:21Z</time></trkpt><trkpt lat="44.60500260125619" lon="7.3313123320063625"><ele>1238.0</ele><time>2026-05-02T13:12:23Z</time></trkpt><trkpt lat="44.60506407757461" lon="7.331356435217666"><ele>1239.5</ele><time>2026-05-02T13:12:24Z</time></trkpt><trkpt lat="44.6051318789641" lon="7.331407018397012"><ele>1241.0</ele><time>2026-05-02T13:12:25Z</time></trkpt><trkpt lat="44.60518688876117" lon="7.33145041715686"><ele>1242.5</ele><time>2026-05-02T13:12:26Z</time></trkpt><trkpt lat="44.6052551434145" lon="7.331484669065272"><ele>1244.0</ele><time>2026-05-02T13:12:27Z</time></trkpt><trkpt lat="44.605310885001224" lon="7.331562195082078"><ele>1245.5</ele><time>2026-05-02T13:12:28Z</time></trkpt><trkpt lat="44.60540301474341" lon="7.331676320366209"><ele>1247.0</ele><time>2026-05-02T13:12:30Z</time></trkpt><trkpt lat="44.605459938869075" lon="7.331719424225222"><ele>1241.4</ele><time>2026-05-02T13:12:31Z</time></trkpt><trkpt lat="44.605526059307365" lon="7.33174335874988"><ele>1235.8000000000002</ele><time>2026-05-02T13:12:32Z</time></trkpt><trkpt lat="44.60558449464132" lon="7.331783664090591"><ele>1230.2</ele><time>2026-05-02T13:12:33Z</time></trkpt><trkpt lat="44.60569502022015" lon="7.33184081890516"><ele>1224.6000000000001</ele><time>2026-05-02T13:12:35Z</time></trkpt><trkpt lat="44.605817633084264" lon="7.331923969751283"><ele>1219.0</ele><time>2026-05-02T13:12:37Z</time></trkpt><trkpt lat="44.60586661202711" lon="7.332005892979364"><ele>1219.0</ele><time>2026-05-02T13:12:38Z</time></trkpt><trkpt lat="44.60592617386914" lon="7.332037976875849"><ele>1219.0</ele><time>2026-05-02T13:12:39Z</time></trkpt><trkpt lat="44.60598610165069" lon="7.332084458705369"><ele>1219.0</ele><time>2026-05-02T13:12:40Z</time></trkpt><trkpt lat="44.60604636367821" lon="7.332129949114729"><ele>1219.0</ele><time>2026-05-02T13:12:41Z</time></trkpt><trkpt lat="44.606151505575895" lon="7.332210835694828"><ele>1219.0</ele><time>2026-05-02T13:12:43Z</time></trkpt><trkpt lat="44.60625353878611" lon="7.332283819610554"><ele>1219.0</ele><time>2026-05-02T13:12:45Z</time></trkpt><trkpt lat="44.60631863713114" lon="7.3323108623895825"><ele>1216.4</ele><time>2026-05-02T13:12:46Z</time></trkpt><trkpt lat="44.606388227546454" lon="7.332310431673397"><ele>1213.8000000000002</ele><time>2026-05-02T13:12:47Z</time></trkpt><trkpt lat="44.60650051871657" lon="7.332287581160068"><ele>1211.1999999999998</ele><time>2026-05-02T13:12:49Z</time></trkpt><trkpt lat="44.60661076654365" lon="7.33234836674486"><ele>1208.6</ele><time>2026-05-02T13:12:50.999Z</time></trkpt><trkpt lat="44.606693600222414" lon="7.332461535796697"><ele>1206.0</ele><time>2026-05-02T13:12:52.999Z</time></trkpt><trkpt lat="44.606773355339826" lon="7.332547002952797"><ele>1206.0</ele><time>2026-05-02T13:12:54.999Z</time></trkpt><trkpt lat="44.60683438383092" lon="7.332619251100341"><ele>1206.0</ele><time>2026-05-02T13:12:56.999Z</time></trkpt><trkpt lat="44.60689146314354" lon="7.332663051982943"><ele>1206.0</ele><time>2026-05-02T13:12:58.999Z</time></trkpt><trkpt lat="44.60694403200552" lon="7.3327151017625924"><ele>1206.0</ele><time>2026-05-02T13:13:01Z</time></trkpt><trkpt lat="44.60700382802746" lon="7.332801477569547"><ele>1206.0</ele><time>2026-05-02T13:13:03Z</time></trkpt><trkpt lat="44.607081066607336" lon="7.332848371064098"><ele>1206.0</ele><time>2026-05-02T13:13:06Z</time></trkpt><trkpt lat="44.60718568808731" lon="7.332955962592033"><ele>1203.6</ele><time>2026-05-02T13:13:08Z</time></trkpt><trkpt lat="44.60727271952987" lon="7.333009501019296"><ele>1201.1999999999998</ele><time>2026-05-02T13:13:10Z</time></trkpt><trkpt lat="44.607362948801736" lon="7.333064149349119"><ele>1198.8000000000002</ele><time>2026-05-02T13:13:12Z</time></trkpt><trkpt lat="44.60747865464903" lon="7.333067536383935"><ele>1196.4</ele><time>2026-05-02T13:13:14Z</time></trkpt><trkpt lat="44.60758991170233" lon="7.333047863074226"><ele>1194.0</ele><time>2026-05-02T13:13:16Z</time></trkpt><trkpt lat="44.60766996962642" lon="7.33304962346327"><ele>1194.0</ele><time>2026-05-02T13:13:17Z</time></trkpt><trkpt lat="44.60774917432825" lon="7.333070612030783"><ele>1194.0</ele><time>2026-05-02T13:13:18Z</time></trkpt><trkpt lat="44.607826784115204" lon="7.33314713114698"><ele>1194.0</ele><time>2026-05-02T13:13:19Z</time></trkpt><trkpt lat="44.60790027021189" lon="7.333196251804654"><ele>1194.0</ele><time>2026-05-02T13:13:20Z</time></trkpt><trkpt lat="44.6079674091761" lon="7.333237658271028"><ele>1194.0</ele><time>2026-05-02T13:13:21Z</time></trkpt><trkpt lat="44.60802950796411" lon="7.333274466914754"><ele>1194.0</ele><time>2026-05-02T13:13:22Z</time></trkpt><trkpt lat="44.6081238059097" lon="7.333316355528235"><ele>1192.1666666666667</ele><time>2026-05-02T13:13:24Z</time></trkpt><trkpt lat="44.608182354383516" lon="7.333272461250015"><ele>1190.3333333333333</ele><time>2026-05-02T13:13:27Z</time></trkpt><trkpt lat="44.60813883549048" lon="7.333154324977752"><ele>1188.5</ele><time>2026-05-02T13:13:29Z</time></trkpt><trkpt lat="44.608093723432475" lon="7.333066665442012"><ele>1186.6666666666665</ele><time>2026-05-02T13:13:31Z</time></trkpt><trkpt lat="44.60804055707813" lon="7.332995706569084"><ele>1184.8333333333333</ele><time>2026-05-02T13:13:32Z</time></trkpt><trkpt lat="44.60795864613124" lon="7.332904958037062"><ele>1183.0</ele><time>2026-05-02T13:13:33Z</time></trkpt><trkpt lat="44.60788687442886" lon="7.332825442533896"><ele>1183.8</ele><time>2026-05-02T13:13:35Z</time></trkpt><trkpt lat="44.60781277319916" lon="7.332742240791074"><ele>1184.6</ele><time>2026-05-02T13:13:37Z</time></trkpt><trkpt lat="44.607735828233935" lon="7.332648961043223"><ele>1185.4</ele><time>2026-05-02T13:13:39Z</time></trkpt><trkpt lat="44.607662748353604" lon="7.332551882397057"><ele>1186.2</ele><time>2026-05-02T13:13:41Z</time></trkpt><trkpt lat="44.60760123147481" lon="7.332453625856676"><ele>1187.0</ele><time>2026-05-02T13:13:43Z</time></trkpt><trkpt lat="44.607576579726874" lon="7.332362326515692"><ele>1187.0</ele><time>2026-05-02T13:13:45Z</time></trkpt><trkpt lat="44.60749372818234" lon="7.3322785340316035"><ele>1187.0</ele><time>2026-05-02T13:13:47Z</time></trkpt><trkpt lat="44.607515500463265" lon="7.3321090847378105"><ele>1187.0</ele><time>2026-05-02T13:13:49Z</time></trkpt><trkpt lat="44.60762415910352" lon="7.332024603923402"><ele>1187.0</ele><time>2026-05-02T13:13:50Z</time></trkpt><trkpt lat="44.607643845108136" lon="7.331925724877776"><ele>1187.0</ele><time>2026-05-02T13:13:51Z</time></trkpt><trkpt lat="44.60766414318322" lon="7.33177816274776"><ele>1184.2</ele><time>2026-05-02T13:13:53Z</time></trkpt><trkpt lat="44.60761224963964" lon="7.331620384840776"><ele>1181.4</ele><time>2026-05-02T13:13:55Z</time></trkpt><trkpt lat="44.60757673422148" lon="7.3315331390811"><ele>1178.6</ele><time>2026-05-02T13:13:56Z</time></trkpt><trkpt lat="44.60754441451872" lon="7.331452208635897"><ele>1175.8</ele><time>2026-05-02T13:13:57Z</time></trkpt><trkpt lat="44.60747919696074" lon="7.331336042071886"><ele>1173.0</ele><time>2026-05-02T13:13:59Z</time></trkpt><trkpt lat="44.60743332474419" lon="7.3311744275032735"><ele>1170.0</ele><time>2026-05-02T13:14:01Z</time></trkpt><trkpt lat="44.60737931015765" lon="7.330997106138722"><ele>1167.0</ele><time>2026-05-02T13:14:03Z</time></trkpt><trkpt lat="44.607340525853715" lon="7.3309107987598"><ele>1164.0</ele><time>2026-05-02T13:14:04Z</time></trkpt><trkpt lat="44.607281032582925" lon="7.33081436870055"><ele>1161.0</ele><time>2026-05-02T13:14:05Z</time></trkpt><trkpt lat="44.60723561991037" lon="7.330740268745246"><ele>1158.0</ele><time>2026-05-02T13:14:06Z</time></trkpt><trkpt lat="44.60719471467487" lon="7.330660242343481"><ele>1155.0</ele><time>2026-05-02T13:14:07Z</time></trkpt><trkpt lat="44.60713983812749" lon="7.330601727987535"><ele>1151.0</ele><time>2026-05-02T13:14:08Z</time></trkpt><trkpt lat="44.607088574580544" lon="7.330549079033987"><ele>1147.0</ele><time>2026-05-02T13:14:09Z</time></trkpt><trkpt lat="44.60703779394354" lon="7.33045934635728"><ele>1143.0</ele><time>2026-05-02T13:14:11Z</time></trkpt><trkpt lat="44.60711246839139" lon="7.330378318036718"><ele>1139.0</ele><time>2026-05-02T13:14:13Z</time></trkpt><trkpt lat="44.60717462644114" lon="7.330471040364488"><ele>1135.0</ele><time>2026-05-02T13:14:15Z</time></trkpt><trkpt lat="44.6072589489083" lon="7.330536665581909"><ele>1131.0</ele><time>2026-05-02T13:14:17Z</time></trkpt><trkpt lat="44.6073238362798" lon="7.330534395567845"><ele>1131.0</ele><time>2026-05-02T13:14:18Z</time></trkpt><trkpt lat="44.60739709261666" lon="7.330550305541709"><ele>1131.0</ele><time>2026-05-02T13:14:19Z</time></trkpt><trkpt lat="44.60747339911705" lon="7.330557308280115"><ele>1131.0</ele><time>2026-05-02T13:14:20Z</time></trkpt><trkpt lat="44.60753857514447" lon="7.33058283217767"><ele>1131.0</ele><time>2026-05-02T13:14:21Z</time></trkpt><trkpt lat="44.607607613567204" lon="7.330587032309779"><ele>1131.0</ele><time>2026-05-02T13:14:22Z</time></trkpt><trkpt lat="44.607663344255826" lon="7.330629082674303"><ele>1131.0</ele><time>2026-05-02T13:14:23Z</time></trkpt><trkpt lat="44.60777762107134" lon="7.330666401844331"><ele>1130.0</ele><time>2026-05-02T13:14:25Z</time></trkpt><trkpt lat="44.60784229547569" lon="7.3306616709654815"><ele>1129.0</ele><time>2026-05-02T13:14:26Z</time></trkpt><trkpt lat="44.60794430634013" lon="7.330708556602282"><ele>1128.0</ele><time>2026-05-02T13:14:28Z</time></trkpt><trkpt lat="44.608046876055" lon="7.330775311050041"><ele>1127.0</ele><time>2026-05-02T13:14:30Z</time></trkpt><trkpt lat="44.60812363645216" lon="7.3308783116836995"><ele>1126.0</ele><time>2026-05-02T13:14:32Z</time></trkpt><trkpt lat="44.608190101778405" lon="7.33100303811356"><ele>1126.0</ele><time>2026-05-02T13:14:34Z</time></trkpt><trkpt lat="44.60826323321362" lon="7.331137215098718"><ele>1126.0</ele><time>2026-05-02T13:14:36Z</time></trkpt><trkpt lat="44.608389042312936" lon="7.331212263455816"><ele>1126.0</ele><time>2026-05-02T13:14:38Z</time></trkpt><trkpt lat="44.608445308940595" lon="7.331258552553888"><ele>1126.0</ele><time>2026-05-02T13:14:39Z</time></trkpt><trkpt lat="44.60849554945736" lon="7.331339961563465"><ele>1126.0</ele><time>2026-05-02T13:14:40Z</time></trkpt><trkpt lat="44.60856035198623" lon="7.331411779908702"><ele>1125.0</ele><time>2026-05-02T13:14:41Z</time></trkpt><trkpt lat="44.60862086723593" lon="7.331458812261209"><ele>1124.0</ele><time>2026-05-02T13:14:42Z</time></trkpt><trkpt lat="44.60867595791084" lon="7.331516964569094"><ele>1123.0</ele><time>2026-05-02T13:14:43Z</time></trkpt><trkpt lat="44.60872878322334" lon="7.3315688035009705"><ele>1122.0</ele><time>2026-05-02T13:14:44Z</time></trkpt><trkpt lat="44.60876804306944" lon="7.331646405898758"><ele>1121.0</ele><time>2026-05-02T13:14:45Z</time></trkpt><trkpt lat="44.60882768535407" lon="7.331690047957287"><ele>1120.0</ele><time>2026-05-02T13:14:46Z</time></trkpt><trkpt lat="44.60889264475674" lon="7.331715012490058"><ele>1119.0</ele><time>2026-05-02T13:14:47Z</time></trkpt><trkpt lat="44.608962572892935" lon="7.331657160758538"><ele>1119.0</ele><time>2026-05-02T13:14:48Z</time></trkpt><trkpt lat="44.609049860971574" lon="7.331734953869606"><ele>1119.0</ele><time>2026-05-02T13:14:50Z</time></trkpt><trkpt lat="44.609152920777696" lon="7.331786897396024"><ele>1119.0</ele><time>2026-05-02T13:14:51.999Z</time></trkpt><trkpt lat="44.609278343548304" lon="7.33180003862699"><ele>1119.0</ele><time>2026-05-02T13:14:53.999Z</time></trkpt><trkpt lat="44.6093614093711" lon="7.331795105381077"><ele>1119.0</ele><time>2026-05-02T13:14:54.999Z</time></trkpt><trkpt lat="44.60943269280564" lon="7.331775723884441"><ele>1115.6666666666667</ele><time>2026-05-02T13:14:55.999Z</time></trkpt><trkpt lat="44.6094982287749" lon="7.331766143002809"><ele>1112.3333333333333</ele><time>2026-05-02T13:14:56.999Z</time></trkpt><trkpt lat="44.609573121306234" lon="7.331750457138553"><ele>1109.0</ele><time>2026-05-02T13:14:57.999Z</time></trkpt><trkpt lat="44.609641519331184" lon="7.331742745209195"><ele>1105.6666666666665</ele><time>2026-05-02T13:14:58.999Z</time></trkpt><trkpt lat="44.60976083231789" lon="7.33175502837983"><ele>1102.3333333333333</ele><time>2026-05-02T13:15:00.999Z</time></trkpt><trkpt lat="44.60987507617501" lon="7.3317585722933805"><ele>1099.0</ele><time>2026-05-02T13:15:02.999Z</time></trkpt><trkpt lat="44.609997836867485" lon="7.331778304344408"><ele>1099.0</ele><time>2026-05-02T13:15:04.999Z</time></trkpt><trkpt lat="44.61010313635456" lon="7.331839217517185"><ele>1099.0</ele><time>2026-05-02T13:15:07Z</time></trkpt><trkpt lat="44.610203909027035" lon="7.331863742830758"><ele>1099.0</ele><time>2026-05-02T13:15:09Z</time></trkpt><trkpt lat="44.61026870394872" lon="7.331828027552863"><ele>1099.0</ele><time>2026-05-02T13:15:11Z</time></trkpt><trkpt lat="44.61032667719097" lon="7.331765504466011"><ele>1099.0</ele><time>2026-05-02T13:15:13Z</time></trkpt><trkpt lat="44.61033811430043" lon="7.331672078445576"><ele>1099.0</ele><time>2026-05-02T13:15:21Z</time></trkpt><trkpt lat="44.61030962092573" lon="7.331573019083004"><ele>1099.0</ele><time>2026-05-02T13:15:25Z</time></trkpt><trkpt lat="44.61023610771367" lon="7.331478220782746"><ele>1099.0</ele><time>2026-05-02T13:15:28Z</time></trkpt><trkpt lat="44.610156488466366" lon="7.331385318156791"><ele>1099.0</ele><time>2026-05-02T13:15:30Z</time></trkpt><trkpt lat="44.61007932085574" lon="7.331306167251968"><ele>1099.0</ele><time>2026-05-02T13:15:32Z</time></trkpt><trkpt lat="44.61001158740344" lon="7.331193926660095"><ele>1099.0</ele><time>2026-05-02T13:15:34Z</time></trkpt><trkpt lat="44.60995053923478" lon="7.331072203584477"><ele>1093.6000000000001</ele><time>2026-05-02T13:15:36Z</time></trkpt><trkpt lat="44.609877312125285" lon="7.33093991648307"><ele>1088.2</ele><time>2026-05-02T13:15:38Z</time></trkpt><trkpt lat="44.609808685081255" lon="7.330836252519565"><ele>1082.8000000000002</ele><time>2026-05-02T13:15:40Z</time></trkpt><trkpt lat="44.60973863776629" lon="7.330743309799603"><ele>1077.4</ele><time>2026-05-02T13:15:42Z</time></trkpt><trkpt lat="44.609675201496735" lon="7.330610277496021"><ele>1072.0</ele><time>2026-05-02T13:15:44Z</time></trkpt><trkpt lat="44.609587646398566" lon="7.330471884382455"><ele>1070.75</ele><time>2026-05-02T13:15:46Z</time></trkpt><trkpt lat="44.609511110655845" lon="7.330347312436352"><ele>1069.5</ele><time>2026-05-02T13:15:48Z</time></trkpt><trkpt lat="44.60944516360745" lon="7.33023546411316"><ele>1068.25</ele><time>2026-05-02T13:15:50Z</time></trkpt><trkpt lat="44.609381177533976" lon="7.33009404258099"><ele>1067.0</ele><time>2026-05-02T13:15:52Z</time></trkpt><trkpt lat="44.60931552313132" lon="7.329953568594656"><ele>1067.0</ele><time>2026-05-02T13:15:54Z</time></trkpt><trkpt lat="44.609293413296925" lon="7.329867305231203"><ele>1067.0</ele><time>2026-05-02T13:15:55Z</time></trkpt><trkpt lat="44.609209983897635" lon="7.329742207440097"><ele>1067.0</ele><time>2026-05-02T13:15:57Z</time></trkpt><trkpt lat="44.609091682469604" lon="7.32973319007786"><ele>1067.0</ele><time>2026-05-02T13:15:59Z</time></trkpt><trkpt lat="44.60901342046528" lon="7.329701631971087"><ele>1067.0</ele><time>2026-05-02T13:16:01Z</time></trkpt><trkpt lat="44.60894230499729" lon="7.329735301814216"><ele>1061.6</ele><time>2026-05-02T13:16:04Z</time></trkpt><trkpt lat="44.608894895141255" lon="7.329634585243376"><ele>1056.2</ele><time>2026-05-02T13:16:20Z</time></trkpt><trkpt lat="44.60895589771218" lon="7.329569562990259"><ele>1050.8</ele><time>2026-05-02T13:16:22Z</time></trkpt><trkpt lat="44.60905613570876" lon="7.329589577405163"><ele>1045.4</ele><time>2026-05-02T13:16:24Z</time></trkpt><trkpt lat="44.60916246483896" lon="7.329595210117415"><ele>1040.0</ele><time>2026-05-02T13:16:26Z</time></trkpt><trkpt lat="44.609270363800086" lon="7.329624718995943"><ele>1040.0</ele><time>2026-05-02T13:16:28Z</time></trkpt><trkpt lat="44.60936933016352" lon="7.32968638703122"><ele>1040.0</ele><time>2026-05-02T13:16:30Z</time></trkpt><trkpt lat="44.6094613210108" lon="7.329738759804596"><ele>1040.0</ele><time>2026-05-02T13:16:32Z</time></trkpt><trkpt lat="44.60954206897814" lon="7.32980651909738"><ele>1040.0</ele><time>2026-05-02T13:16:34Z</time></trkpt><trkpt lat="44.60960918377997" lon="7.329878675053371"><ele>1040.0</ele><time>2026-05-02T13:16:36Z</time></trkpt><trkpt lat="44.60967509727221" lon="7.329956817671181"><ele>1040.2857142857144</ele><time>2026-05-02T13:16:38Z</time></trkpt><trkpt lat="44.60974077857839" lon="7.32997694249941"><ele>1040.5714285714287</ele><time>2026-05-02T13:16:42Z</time></trkpt><trkpt lat="44.60982238917229" lon="7.32996528435489"><ele>1040.857142857143</ele><time>2026-05-02T13:17:01.999Z</time></trkpt><trkpt lat="44.60991149832611" lon="7.329967194732231"><ele>1041.1428571428573</ele><time>2026-05-02T13:17:03.999Z</time></trkpt><trkpt lat="44.60997409584994" lon="7.329979032863967"><ele>1041.4285714285716</ele><time>2026-05-02T13:17:04.999Z</time></trkpt><trkpt lat="44.61004849280237" lon="7.329989778545595"><ele>1041.7142857142858</ele><time>2026-05-02T13:17:05.999Z</time></trkpt><trkpt lat="44.610117786990955" lon="7.330022240760642"><ele>1042.0</ele><time>2026-05-02T13:17:06.999Z</time></trkpt><trkpt lat="44.61016253024424" lon="7.330115742667313"><ele>1042.0</ele><time>2026-05-02T13:17:07.999Z</time></trkpt><trkpt lat="44.610255306975304" lon="7.330181884486805"><ele>1042.0</ele><time>2026-05-02T13:17:09.999Z</time></trkpt><trkpt lat="44.61033072334776" lon="7.330237459590102"><ele>1042.0</ele><time>2026-05-02T13:17:12Z</time></trkpt><trkpt lat="44.61043445612198" lon="7.330311824609421"><ele>1042.0</ele><time>2026-05-02T13:17:14Z</time></trkpt><trkpt lat="44.61049236702922" lon="7.330349580878407"><ele>1042.0</ele><time>2026-05-02T13:17:15Z</time></trkpt><trkpt lat="44.61056528164563" lon="7.330381873004295"><ele>1042.0</ele><time>2026-05-02T13:17:16Z</time></trkpt><trkpt lat="44.610645642427215" lon="7.330409864061686"><ele>1039.142857142857</ele><time>2026-05-02T13:17:17Z</time></trkpt><trkpt lat="44.610711162840936" lon="7.330424051049755"><ele>1036.2857142857142</ele><time>2026-05-02T13:17:18Z</time></trkpt><trkpt lat="44.61078869740643" lon="7.330431961180473"><ele>1033.4285714285716</ele><time>2026-05-02T13:17:19Z</time></trkpt><trkpt lat="44.6108584547224" lon="7.330432401192254"><ele>1030.5714285714284</ele><time>2026-05-02T13:17:20Z</time></trkpt><trkpt lat="44.6109292286454" lon="7.330429528634387"><ele>1027.7142857142858</ele><time>2026-05-02T13:17:21Z</time></trkpt><trkpt lat="44.61099511628766" lon="7.330402852983393"><ele>1024.857142857143</ele><time>2026-05-02T13:17:22Z</time></trkpt><trkpt lat="44.6110683287154" lon="7.330398752206481"><ele>1022.0</ele><time>2026-05-02T13:17:23Z</time></trkpt><trkpt lat="44.61113421816358" lon="7.330401387523043"><ele>1019.8</ele><time>2026-05-02T13:17:24Z</time></trkpt><trkpt lat="44.61124952824804" lon="7.3303983979619955"><ele>1017.6</ele><time>2026-05-02T13:17:26Z</time></trkpt><trkpt lat="44.61131645196534" lon="7.330397601211733"><ele>1015.3999999999999</ele><time>2026-05-02T13:17:27Z</time></trkpt><trkpt lat="44.611447011660694" lon="7.330396099431877"><ele>1013.1999999999999</ele><time>2026-05-02T13:17:29Z</time></trkpt><trkpt lat="44.61151786288658" lon="7.33039073143253"><ele>1011.0</ele><time>2026-05-02T13:17:30Z</time></trkpt><trkpt lat="44.6115869325533" lon="7.330349759567711"><ele>1011.0</ele><time>2026-05-02T13:17:31Z</time></trkpt><trkpt lat="44.61165467227125" lon="7.330321786544484"><ele>1011.0</ele><time>2026-05-02T13:17:32Z</time></trkpt><trkpt lat="44.61176373223585" lon="7.330327465847384"><ele>1011.0</ele><time>2026-05-02T13:17:34Z</time></trkpt><trkpt lat="44.61187263297656" lon="7.3302975127759895"><ele>1011.0</ele><time>2026-05-02T13:17:36Z</time></trkpt><trkpt lat="44.61193544064651" lon="7.330323246811284"><ele>1011.0</ele><time>2026-05-02T13:17:37Z</time></trkpt><trkpt lat="44.611996475195205" lon="7.330373885097938"><ele>1011.0</ele><time>2026-05-02T13:17:38Z</time></trkpt><trkpt lat="44.61205456776391" lon="7.33044460310411"><ele>1012.142857142857</ele><time>2026-05-02T13:17:39Z</time></trkpt><trkpt lat="44.6121143807799" lon="7.33050022499957"><ele>1013.2857142857142</ele><time>2026-05-02T13:17:40Z</time></trkpt><trkpt lat="44.61217628685015" lon="7.330557793804427"><ele>1014.4285714285714</ele><time>2026-05-02T13:17:41Z</time></trkpt><trkpt lat="44.6122354802917" lon="7.330610284048094"><ele>1015.5714285714286</ele><time>2026-05-02T13:17:42Z</time></trkpt><trkpt lat="44.612308756084346" lon="7.33066590323672"><ele>1016.7142857142858</ele><time>2026-05-02T13:17:43Z</time></trkpt><trkpt lat="44.612385667004865" lon="7.33068035414835"><ele>1017.857142857143</ele><time>2026-05-02T13:17:44Z</time></trkpt><trkpt lat="44.61245118018619" lon="7.330705308351622"><ele>1019.0000000000001</ele><time>2026-05-02T13:17:45Z</time></trkpt><trkpt lat="44.61251563171219" lon="7.330721637392294"><ele>1019.0000000000001</ele><time>2026-05-02T13:17:46Z</time></trkpt><trkpt lat="44.612579782842836" lon="7.330785242928218"><ele>1019.0</ele><time>2026-05-02T13:17:47Z</time></trkpt><trkpt lat="44.61263385203674" lon="7.330836276624023"><ele>1019.0</ele><time>2026-05-02T13:17:48Z</time></trkpt><trkpt lat="44.61268533174397" lon="7.330894835148634"><ele>1019.0</ele><time>2026-05-02T13:17:49Z</time></trkpt><trkpt lat="44.61274109893249" lon="7.330964701552856"><ele>1019.0000000000001</ele><time>2026-05-02T13:17:50Z</time></trkpt><trkpt lat="44.6127971922301" lon="7.331034595607117"><ele>1019.0</ele><time>2026-05-02T13:17:51Z</time></trkpt><trkpt lat="44.61288739247491" lon="7.331151085958169"><ele>1013.3333333333334</ele><time>2026-05-02T13:17:53Z</time></trkpt><trkpt lat="44.612950700615706" lon="7.331220603166831"><ele>1007.6666666666667</ele><time>2026-05-02T13:17:55Z</time></trkpt><trkpt lat="44.613021561203" lon="7.3312787784193105"><ele>1002.0</ele><time>2026-05-02T13:17:58Z</time></trkpt><trkpt lat="44.613062292010476" lon="7.331206800431756"><ele>996.3333333333333</ele><time>2026-05-02T13:18:05Z</time></trkpt><trkpt lat="44.61302461086834" lon="7.331103819825297"><ele>990.6666666666666</ele><time>2026-05-02T13:18:11Z</time></trkpt><trkpt lat="44.61294827758207" lon="7.3310235381217135"><ele>985.0</ele><time>2026-05-02T13:18:13Z</time></trkpt><trkpt lat="44.61287765641265" lon="7.330887528288585"><ele>985.0</ele><time>2026-05-02T13:18:15Z</time></trkpt><trkpt lat="44.61284076700174" lon="7.330757612207214"><ele>985.0</ele><time>2026-05-02T13:18:17Z</time></trkpt><trkpt lat="44.612775736109604" lon="7.330609671177168"><ele>985.0</ele><time>2026-05-02T13:18:19Z</time></trkpt><trkpt lat="44.61270794249213" lon="7.330487952485489"><ele>985.0</ele><time>2026-05-02T13:18:21Z</time></trkpt><trkpt lat="44.612645440745645" lon="7.330439921832554"><ele>985.0</ele><time>2026-05-02T13:18:22Z</time></trkpt><trkpt lat="44.61255434074957" lon="7.330381717640608"><ele>985.3333333333333</ele><time>2026-05-02T13:18:23Z</time></trkpt><trkpt lat="44.612469654815435" lon="7.330321783052191"><ele>985.6666666666666</ele><time>2026-05-02T13:18:24Z</time></trkpt><trkpt lat="44.61240487281898" lon="7.330258983013364"><ele>986.0</ele><time>2026-05-02T13:18:25Z</time></trkpt><trkpt lat="44.61235519509237" lon="7.330192211194277"><ele>986.3333333333333</ele><time>2026-05-02T13:18:26Z</time></trkpt><trkpt lat="44.61228751708033" lon="7.330072785119144"><ele>986.6666666666666</ele><time>2026-05-02T13:18:28Z</time></trkpt><trkpt lat="44.612255883327556" lon="7.329995888900362"><ele>987.0</ele><time>2026-05-02T13:18:29Z</time></trkpt><trkpt lat="44.61221675672597" lon="7.329918527470049"><ele>987.0</ele><time>2026-05-02T13:18:30Z</time></trkpt><trkpt lat="44.612163855886045" lon="7.329757406195502"><ele>987.0</ele><time>2026-05-02T13:18:32Z</time></trkpt><trkpt lat="44.61213948091695" lon="7.329670710398179"><ele>987.0</ele><time>2026-05-02T13:18:33Z</time></trkpt><trkpt lat="44.61213692514587" lon="7.329559244838862"><ele>987.0</ele><time>2026-05-02T13:18:34Z</time></trkpt><trkpt lat="44.61210740127937" lon="7.329475559908514"><ele>987.0</ele><time>2026-05-02T13:18:35Z</time></trkpt><trkpt lat="44.6120634114758" lon="7.329390607974591"><ele>987.0</ele><time>2026-05-02T13:18:36Z</time></trkpt><trkpt lat="44.61200882378965" lon="7.329327872414101"><ele>986.0</ele><time>2026-05-02T13:18:37Z</time></trkpt><trkpt lat="44.61195400289748" lon="7.329271913056181"><ele>985.0</ele><time>2026-05-02T13:18:38Z</time></trkpt><trkpt lat="44.61189002846416" lon="7.329216022091089"><ele>984.0</ele><time>2026-05-02T13:18:39Z</time></trkpt><trkpt lat="44.61182648030663" lon="7.329171745801889"><ele>983.0</ele><time>2026-05-02T13:18:40Z</time></trkpt><trkpt lat="44.61172188686106" lon="7.329122289645396"><ele>982.0</ele><time>2026-05-02T13:18:42Z</time></trkpt><trkpt lat="44.611651289455345" lon="7.3291101200127216"><ele>981.0</ele><time>2026-05-02T13:18:43Z</time></trkpt><trkpt lat="44.61153368045734" lon="7.329103870780152"><ele>981.0</ele><time>2026-05-02T13:18:44.999Z</time></trkpt><trkpt lat="44.61142542306444" lon="7.329086898153412"><ele>980.9999999999999</ele><time>2026-05-02T13:18:46.999Z</time></trkpt><trkpt lat="44.61132749668661" lon="7.328994881430196"><ele>980.9999999999999</ele><time>2026-05-02T13:18:48.999Z</time></trkpt><trkpt lat="44.6112585565117" lon="7.328890599155666"><ele>981.0</ele><time>2026-05-02T13:18:50.999Z</time></trkpt><trkpt lat="44.61116450818589" lon="7.328786588985875"><ele>981.0</ele><time>2026-05-02T13:18:52.999Z</time></trkpt><trkpt lat="44.611111430752366" lon="7.32873439612006"><ele>977.4</ele><time>2026-05-02T13:18:53.999Z</time></trkpt><trkpt lat="44.61101381961768" lon="7.328639769203633"><ele>973.8</ele><time>2026-05-02T13:18:55.999Z</time></trkpt><trkpt lat="44.61090966220655" lon="7.328552934954916"><ele>970.1999999999999</ele><time>2026-05-02T13:18:57.999Z</time></trkpt><trkpt lat="44.61085098216865" lon="7.328513293060487"><ele>966.5999999999999</ele><time>2026-05-02T13:18:58.999Z</time></trkpt><trkpt lat="44.610738478594634" lon="7.328459238903602"><ele>963.0</ele><time>2026-05-02T13:19:00.999Z</time></trkpt><trkpt lat="44.610623955745424" lon="7.328409259261997"><ele>963.0</ele><time>2026-05-02T13:19:02.999Z</time></trkpt><trkpt lat="44.61052336309666" lon="7.328349283171617"><ele>963.0</ele><time>2026-05-02T13:19:04.999Z</time></trkpt><trkpt lat="44.610427482040976" lon="7.3282271085203305"><ele>963.0</ele><time>2026-05-02T13:19:06.999Z</time></trkpt><trkpt lat="44.61038773855577" lon="7.3281516008191385"><ele>963.0</ele><time>2026-05-02T13:19:07.999Z</time></trkpt><trkpt lat="44.61033521590979" lon="7.328083356704563"><ele>963.0</ele><time>2026-05-02T13:19:08.999Z</time></trkpt><trkpt lat="44.6102958971959" lon="7.327996476835843"><ele>962.6666666666666</ele><time>2026-05-02T13:19:09.999Z</time></trkpt><trkpt lat="44.61027317648784" lon="7.3278946545126225"><ele>962.3333333333333</ele><time>2026-05-02T13:19:10.999Z</time></trkpt><trkpt lat="44.61022535564092" lon="7.327826079569332"><ele>962.0</ele><time>2026-05-02T13:19:11.999Z</time></trkpt><trkpt lat="44.61020211215807" lon="7.327735486695715"><ele>961.6666666666666</ele><time>2026-05-02T13:19:12.999Z</time></trkpt><trkpt lat="44.61015007872817" lon="7.3276703342315574"><ele>961.3333333333333</ele><time>2026-05-02T13:19:13.999Z</time></trkpt><trkpt lat="44.61004757816257" lon="7.327602560626059"><ele>961.0</ele><time>2026-05-02T13:19:15.999Z</time></trkpt><trkpt lat="44.61001930808585" lon="7.3275208044572615"><ele>961.0</ele><time>2026-05-02T13:19:18Z</time></trkpt><trkpt lat="44.61017340091141" lon="7.327525935599478"><ele>961.0</ele><time>2026-05-02T13:19:22Z</time></trkpt><trkpt lat="44.61026810513627" lon="7.327601241142065"><ele>961.0</ele><time>2026-05-02T13:19:24Z</time></trkpt><trkpt lat="44.61035952827018" lon="7.327662884327289"><ele>961.0</ele><time>2026-05-02T13:19:26Z</time></trkpt><trkpt lat="44.610441994834154" lon="7.327744498434671"><ele>957.1999999999999</ele><time>2026-05-02T13:19:28Z</time></trkpt><trkpt lat="44.61053944796209" lon="7.327782582294401"><ele>953.3999999999999</ele><time>2026-05-02T13:19:30Z</time></trkpt><trkpt lat="44.61062755307798" lon="7.3278257026250895"><ele>949.6</ele><time>2026-05-02T13:19:32Z</time></trkpt><trkpt lat="44.61075675891133" lon="7.327837997266893"><ele>945.8</ele><time>2026-05-02T13:19:34Z</time></trkpt><trkpt lat="44.61082987207274" lon="7.327836310545244"><ele>942.0</ele><time>2026-05-02T13:19:35Z</time></trkpt><trkpt lat="44.6108995766824" lon="7.3278368050779195"><ele>942.0000000000001</ele><time>2026-05-02T13:19:36Z</time></trkpt><trkpt lat="44.61096497621072" lon="7.327838175256793"><ele>942.0</ele><time>2026-05-02T13:19:37Z</time></trkpt><trkpt lat="44.611030976624455" lon="7.327844230351067"><ele>942.0000000000001</ele><time>2026-05-02T13:19:38Z</time></trkpt><trkpt lat="44.6110950811789" lon="7.327865717675117"><ele>942.0000000000001</ele><time>2026-05-02T13:19:39Z</time></trkpt><trkpt lat="44.61116693593265" lon="7.327899365724283"><ele>942.0</ele><time>2026-05-02T13:19:40Z</time></trkpt><trkpt lat="44.611227091850864" lon="7.327952453208056"><ele>942.0000000000001</ele><time>2026-05-02T13:19:41Z</time></trkpt><trkpt lat="44.611277003961455" lon="7.32800812226501"><ele>942.0000000000001</ele><time>2026-05-02T13:19:42Z</time></trkpt><trkpt lat="44.611345040524554" lon="7.328146841564605"><ele>942.6666666666666</ele><time>2026-05-02T13:19:44Z</time></trkpt><trkpt lat="44.61139623987196" lon="7.328202739576603"><ele>943.3333333333333</ele><time>2026-05-02T13:19:45Z</time></trkpt><trkpt lat="44.611468207576614" lon="7.328240771777845"><ele>944.0</ele><time>2026-05-02T13:19:46Z</time></trkpt><trkpt lat="44.61153500795342" lon="7.328252742776482"><ele>944.6666666666666</ele><time>2026-05-02T13:19:47Z</time></trkpt><trkpt lat="44.61159688920687" lon="7.328211864508917"><ele>945.3333333333333</ele><time>2026-05-02T13:19:48Z</time></trkpt><trkpt lat="44.61166107497973" lon="7.328209275480907"><ele>946.0</ele><time>2026-05-02T13:19:49Z</time></trkpt><trkpt lat="44.611775795098815" lon="7.328180430906001"><ele>946.0</ele><time>2026-05-02T13:19:51Z</time></trkpt><trkpt lat="44.611842504480435" lon="7.328194586406988"><ele>946.0</ele><time>2026-05-02T13:19:52Z</time></trkpt><trkpt lat="44.611908832416546" lon="7.328192848254899"><ele>946.0</ele><time>2026-05-02T13:19:53Z</time></trkpt><trkpt lat="44.6119782847769" lon="7.328196204730255"><ele>946.0</ele><time>2026-05-02T13:19:54Z</time></trkpt><trkpt lat="44.61205579087205" lon="7.328201205345913"><ele>946.0</ele><time>2026-05-02T13:19:55Z</time></trkpt><trkpt lat="44.612135152299025" lon="7.328211118788417"><ele>946.0</ele><time>2026-05-02T13:19:56Z</time></trkpt><trkpt lat="44.61221607186843" lon="7.328227878345204"><ele>946.0</ele><time>2026-05-02T13:19:57Z</time></trkpt><trkpt lat="44.612296277663674" lon="7.328230101576998"><ele>942.6666666666666</ele><time>2026-05-02T13:19:58Z</time></trkpt><trkpt lat="44.61236780507966" lon="7.328209034189394"><ele>939.3333333333333</ele><time>2026-05-02T13:19:59Z</time></trkpt><trkpt lat="44.61243447206434" lon="7.328215961404549"><ele>936.0</ele><time>2026-05-02T13:20:00Z</time></trkpt><trkpt lat="44.612550589116736" lon="7.328193117658257"><ele>932.6666666666667</ele><time>2026-05-02T13:20:02Z</time></trkpt><trkpt lat="44.612621031926416" lon="7.328224419840321"><ele>929.3333333333334</ele><time>2026-05-02T13:20:03Z</time></trkpt><trkpt lat="44.61266982775256" lon="7.328292304458642"><ele>926.0</ele><time>2026-05-02T13:20:04Z</time></trkpt><trkpt lat="44.61272413922603" lon="7.328341261751557"><ele>921.6666666666667</ele><time>2026-05-02T13:20:05Z</time></trkpt><trkpt lat="44.61282407593912" lon="7.328454011679738"><ele>917.3333333333334</ele><time>2026-05-02T13:20:07Z</time></trkpt><trkpt lat="44.61287551806548" lon="7.328515107127965"><ele>913.0</ele><time>2026-05-02T13:20:08Z</time></trkpt><trkpt lat="44.612925785224874" lon="7.328574807228764"><ele>908.6666666666667</ele><time>2026-05-02T13:20:09Z</time></trkpt><trkpt lat="44.61298244935885" lon="7.3286436497611325"><ele>904.3333333333334</ele><time>2026-05-02T13:20:10Z</time></trkpt><trkpt lat="44.61303634980213" lon="7.3287157875162245"><ele>900.0</ele><time>2026-05-02T13:20:11Z</time></trkpt><trkpt lat="44.61308756276468" lon="7.328778896894321"><ele>900.0</ele><time>2026-05-02T13:20:12Z</time></trkpt><trkpt lat="44.61313583507498" lon="7.328850900638345"><ele>900.0</ele><time>2026-05-02T13:20:13Z</time></trkpt><trkpt lat="44.61319005739402" lon="7.32891276683106"><ele>900.0</ele><time>2026-05-02T13:20:14Z</time></trkpt><trkpt lat="44.6132489720393" lon="7.328959160772114"><ele>900.0</ele><time>2026-05-02T13:20:15Z</time></trkpt><trkpt lat="44.613345842448034" lon="7.329037560567412"><ele>900.0</ele><time>2026-05-02T13:20:17Z</time></trkpt><trkpt lat="44.613433322643154" lon="7.329092491542982"><ele>900.0</ele><time>2026-05-02T13:20:19Z</time></trkpt><trkpt lat="44.61354235908318" lon="7.329147437845357"><ele>903.0</ele><time>2026-05-02T13:20:21Z</time></trkpt><trkpt lat="44.613616005402946" lon="7.329144872951643"><ele>906.0</ele><time>2026-05-02T13:20:22Z</time></trkpt><trkpt lat="44.613688828252734" lon="7.329124728345495"><ele>909.0</ele><time>2026-05-02T13:20:23Z</time></trkpt><trkpt lat="44.61378409287341" lon="7.32909851949291"><ele>912.0</ele><time>2026-05-02T13:20:24Z</time></trkpt><trkpt lat="44.61387924251854" lon="7.32907517212519"><ele>915.0</ele><time>2026-05-02T13:20:25Z</time></trkpt><trkpt lat="44.6139697103224" lon="7.329058067133616"><ele>918.0</ele><time>2026-05-02T13:20:26Z</time></trkpt><trkpt lat="44.61405026052219" lon="7.329098478128015"><ele>918.0</ele><time>2026-05-02T13:20:27Z</time></trkpt><trkpt lat="44.614139909842535" lon="7.329114822037478"><ele>918.0</ele><time>2026-05-02T13:20:28Z</time></trkpt><trkpt lat="44.614214569025954" lon="7.329104489992524"><ele>918.0</ele><time>2026-05-02T13:20:29Z</time></trkpt><trkpt lat="44.61429320738987" lon="7.329121728127535"><ele>918.0</ele><time>2026-05-02T13:20:30Z</time></trkpt><trkpt lat="44.61437475598126" lon="7.329133281988254"><ele>918.0</ele><time>2026-05-02T13:20:31Z</time></trkpt><trkpt lat="44.61445339337438" lon="7.329123786492167"><ele>918.0</ele><time>2026-05-02T13:20:32Z</time></trkpt><trkpt lat="44.61453074536001" lon="7.329082683553728"><ele>916.0</ele><time>2026-05-02T13:20:33Z</time></trkpt><trkpt lat="44.614602518648496" lon="7.329048802086537"><ele>914.0</ele><time>2026-05-02T13:20:34Z</time></trkpt><trkpt lat="44.61466765603951" lon="7.328992615626256"><ele>912.0</ele><time>2026-05-02T13:20:35Z</time></trkpt><trkpt lat="44.614726383263616" lon="7.328958910344241"><ele>910.0</ele><time>2026-05-02T13:20:36Z</time></trkpt><trkpt lat="44.6147933749088" lon="7.328953357036946"><ele>908.0</ele><time>2026-05-02T13:20:37Z</time></trkpt><trkpt lat="44.61486110143054" lon="7.328954294233747"><ele>906.0</ele><time>2026-05-02T13:20:38Z</time></trkpt><trkpt lat="44.61495351061394" lon="7.329040209084719"><ele>906.0</ele><time>2026-05-02T13:20:40Z</time></trkpt><trkpt lat="44.614984643086295" lon="7.3291568157287745"><ele>906.0</ele><time>2026-05-02T13:20:41Z</time></trkpt><trkpt lat="44.61502246832562" lon="7.329267154680326"><ele>906.0</ele><time>2026-05-02T13:20:42Z</time></trkpt><trkpt lat="44.61508546828957" lon="7.329341322914301"><ele>906.0</ele><time>2026-05-02T13:20:43Z</time></trkpt><trkpt lat="44.615147112467426" lon="7.32939911548346"><ele>906.0</ele><time>2026-05-02T13:20:44Z</time></trkpt><trkpt lat="44.615215820533834" lon="7.32943692296089"><ele>906.0</ele><time>2026-05-02T13:20:44.999Z</time></trkpt><trkpt lat="44.6152760441395" lon="7.329481493215701"><ele>900.8333333333334</ele><time>2026-05-02T13:20:45.999Z</time></trkpt><trkpt lat="44.61535032993328" lon="7.3295507443334476"><ele>895.6666666666667</ele><time>2026-05-02T13:20:46.999Z</time></trkpt><trkpt lat="44.61545375030626" lon="7.329626973188444"><ele>890.5</ele><time>2026-05-02T13:20:47.999Z</time></trkpt><trkpt lat="44.61553446808382" lon="7.329671826585389"><ele>885.3333333333334</ele><time>2026-05-02T13:20:48.999Z</time></trkpt><trkpt lat="44.615602333033635" lon="7.329713487694294"><ele>880.1666666666667</ele><time>2026-05-02T13:20:49.999Z</time></trkpt><trkpt lat="44.61567594179269" lon="7.329715093845481"><ele>875.0</ele><time>2026-05-02T13:20:50.999Z</time></trkpt><trkpt lat="44.615745272741044" lon="7.329694543943771"><ele>875.0</ele><time>2026-05-02T13:20:51.999Z</time></trkpt><trkpt lat="44.61581472389432" lon="7.32964491953875"><ele>875.0</ele><time>2026-05-02T13:20:52.999Z</time></trkpt><trkpt lat="44.61588268456157" lon="7.329598214508285"><ele>875.0</ele><time>2026-05-02T13:20:53.999Z</time></trkpt><trkpt lat="44.6159505480292" lon="7.3295785415229"><ele>875.0</ele><time>2026-05-02T13:20:54.999Z</time></trkpt><trkpt lat="44.616016112483386" lon="7.329572522468929"><ele>875.0</ele><time>2026-05-02T13:20:55.999Z</time></trkpt><trkpt lat="44.61608565200972" lon="7.329584029268919"><ele>875.0</ele><time>2026-05-02T13:20:56.999Z</time></trkpt><trkpt lat="44.61615237249164" lon="7.329576475364281"><ele>875.0</ele><time>2026-05-02T13:20:57.999Z</time></trkpt><trkpt lat="44.61621713548512" lon="7.3295638523080395"><ele>871.4</ele><time>2026-05-02T13:20:58.999Z</time></trkpt><trkpt lat="44.61628682913113" lon="7.329551048374185"><ele>867.8</ele><time>2026-05-02T13:20:59.999Z</time></trkpt><trkpt lat="44.616349990929194" lon="7.329542742720219"><ele>864.2</ele><time>2026-05-02T13:21:00.999Z</time></trkpt><trkpt lat="44.61646506281223" lon="7.3295499907169885"><ele>860.6</ele><time>2026-05-02T13:21:02.999Z</time></trkpt><trkpt lat="44.61657424994461" lon="7.329590938300424"><ele>857.0</ele><time>2026-05-02T13:21:04.999Z</time></trkpt><trkpt lat="44.61669294603017" lon="7.329613782325518"><ele>857.0</ele><time>2026-05-02T13:21:06.999Z</time></trkpt><trkpt lat="44.61679545035949" lon="7.329640963713172"><ele>857.0</ele><time>2026-05-02T13:21:08.999Z</time></trkpt><trkpt lat="44.61686158041577" lon="7.329646265015286"><ele>857.0</ele><time>2026-05-02T13:21:09.999Z</time></trkpt><trkpt lat="44.616940840931186" lon="7.329694101193209"><ele>857.0</ele><time>2026-05-02T13:21:11.999Z</time></trkpt><trkpt lat="44.61703875328866" lon="7.32974268178797"><ele>857.0</ele><time>2026-05-02T13:21:13.999Z</time></trkpt><trkpt lat="44.617167819456" lon="7.329784741816001"><ele>859.6666666666667</ele><time>2026-05-02T13:21:15.999Z</time></trkpt><trkpt lat="44.61723748249856" lon="7.329817436181184"><ele>862.3333333333334</ele><time>2026-05-02T13:21:16.999Z</time></trkpt><trkpt lat="44.61730704245418" lon="7.329828028279124"><ele>865.0</ele><time>2026-05-02T13:21:17.999Z</time></trkpt><trkpt lat="44.617377661604735" lon="7.3298421648689285"><ele>867.6666666666667</ele><time>2026-05-02T13:21:18.999Z</time></trkpt><trkpt lat="44.61745559811044" lon="7.329857035501023"><ele>870.3333333333334</ele><time>2026-05-02T13:21:19.999Z</time></trkpt><trkpt lat="44.617527212987" lon="7.329881789544024"><ele>873.0</ele><time>2026-05-02T13:21:20.999Z</time></trkpt><trkpt lat="44.617612731284396" lon="7.329904370971589"><ele>873.0</ele><time>2026-05-02T13:21:21.999Z</time></trkpt><trkpt lat="44.61770759999141" lon="7.329940790795708"><ele>873.0</ele><time>2026-05-02T13:21:22.999Z</time></trkpt><trkpt lat="44.61779321735939" lon="7.3299754914825215"><ele>873.0</ele><time>2026-05-02T13:21:24Z</time></trkpt><trkpt lat="44.617903722675464" lon="7.3300211852698505"><ele>873.0</ele><time>2026-05-02T13:21:26Z</time></trkpt><trkpt lat="44.61797294420233" lon="7.330049800803416"><ele>873.0</ele><time>2026-05-02T13:21:28Z</time></trkpt><trkpt lat="44.61803818284609" lon="7.330099246987405"><ele>873.0</ele><time>2026-05-02T13:21:32Z</time></trkpt><trkpt lat="44.61810376312307" lon="7.330097489459474"><ele>873.0</ele><time>2026-05-02T13:21:55Z</time></trkpt><trkpt lat="44.618031304333805" lon="7.330072633005288"><ele>873.0</ele><time>2026-05-02T13:22:05Z</time></trkpt><trkpt lat="44.61794424587975" lon="7.330001977681252"><ele>873.0</ele><time>2026-05-02T13:22:07Z</time></trkpt><trkpt lat="44.61784514840606" lon="7.329990256586732"><ele>873.0</ele><time>2026-05-02T13:22:08Z</time></trkpt><trkpt lat="44.617759089316955" lon="7.329973483732677"><ele>873.0</ele><time>2026-05-02T13:22:09Z</time></trkpt><trkpt lat="44.61770066814387" lon="7.329882870825777"><ele>873.0</ele><time>2026-05-02T13:22:10Z</time></trkpt><trkpt lat="44.61758820153871" lon="7.32984246569857"><ele>873.0</ele><time>2026-05-02T13:22:12Z</time></trkpt><trkpt lat="44.617453420520945" lon="7.329811460115051"><ele>873.0</ele><time>2026-05-02T13:22:14Z</time></trkpt><trkpt lat="44.617380010610916" lon="7.329799854739467"><ele>873.0</ele><time>2026-05-02T13:22:15Z</time></trkpt><trkpt lat="44.61730817735682" lon="7.329788498413291"><ele>873.0</ele><time>2026-05-02T13:22:16Z</time></trkpt><trkpt lat="44.61724242024541" lon="7.329771895645179"><ele>873.0</ele><time>2026-05-02T13:22:17Z</time></trkpt><trkpt lat="44.61711985706114" lon="7.329705256564884"><ele>869.8</ele><time>2026-05-02T13:22:19Z</time></trkpt><trkpt lat="44.61701775848293" lon="7.329648526126813"><ele>866.5999999999999</ele><time>2026-05-02T13:22:20Z</time></trkpt><trkpt lat="44.616937588700296" lon="7.329607408520036"><ele>863.4000000000001</ele><time>2026-05-02T13:22:21Z</time></trkpt><trkpt lat="44.61681598129222" lon="7.329567780353294"><ele>860.2</ele><time>2026-05-02T13:22:23Z</time></trkpt><trkpt lat="44.61675069522151" lon="7.329553169105953"><ele>857.0</ele><time>2026-05-02T13:22:24Z</time></trkpt><trkpt lat="44.616684905817685" lon="7.329540530698985"><ele>857.0</ele><time>2026-05-02T13:22:25Z</time></trkpt><trkpt lat="44.61653671856047" lon="7.3295188015946575"><ele>857.0</ele><time>2026-05-02T13:22:26Z</time></trkpt><trkpt lat="44.61644552649296" lon="7.329510314409819"><ele>857.0</ele><time>2026-05-02T13:22:27Z</time></trkpt><trkpt lat="44.616368813892116" lon="7.32950614271788"><ele>857.0</ele><time>2026-05-02T13:22:28Z</time></trkpt><trkpt lat="44.616278586724164" lon="7.3295083285783"><ele>857.0</ele><time>2026-05-02T13:22:29Z</time></trkpt><trkpt lat="44.616192932291604" lon="7.329513382288324"><ele>860.6</ele><time>2026-05-02T13:22:30Z</time></trkpt><trkpt lat="44.61610284890437" lon="7.329522787399816"><ele>864.2</ele><time>2026-05-02T13:22:31Z</time></trkpt><trkpt lat="44.61600057056743" lon="7.329536565370274"><ele>867.8</ele><time>2026-05-02T13:22:32Z</time></trkpt><trkpt lat="44.61590201660123" lon="7.329564521657129"><ele>871.4</ele><time>2026-05-02T13:22:33Z</time></trkpt><trkpt lat="44.615806479010764" lon="7.329600030503552"><ele>875.0</ele><time>2026-05-02T13:22:34Z</time></trkpt><trkpt lat="44.61572235968761" lon="7.3296260507386854"><ele>875.0000000000001</ele><time>2026-05-02T13:22:35Z</time></trkpt><trkpt lat="44.615652919337414" lon="7.32964468290528"><ele>875.0</ele><time>2026-05-02T13:22:36Z</time></trkpt><trkpt lat="44.61558470944912" lon="7.329649875798559"><ele>875.0</ele><time>2026-05-02T13:22:37Z</time></trkpt><trkpt lat="44.61552217615564" lon="7.329615784157454"><ele>875.0</ele><time>2026-05-02T13:22:38Z</time></trkpt><trkpt lat="44.615460028154374" lon="7.329565344429963"><ele>875.0000000000001</ele><time>2026-05-02T13:22:39Z</time></trkpt><trkpt lat="44.61538929264203" lon="7.329505729450643"><ele>875.0</ele><time>2026-05-02T13:22:40Z</time></trkpt><trkpt lat="44.615298627227524" lon="7.329424195148285"><ele>880.1666666666667</ele><time>2026-05-02T13:22:41Z</time></trkpt><trkpt lat="44.61519964323395" lon="7.3293760461597355"><ele>885.3333333333334</ele><time>2026-05-02T13:22:42Z</time></trkpt><trkpt lat="44.61512705985424" lon="7.329320258408122"><ele>890.5</ele><time>2026-05-02T13:22:42.999Z</time></trkpt><trkpt lat="44.615076799964235" lon="7.329240384495649"><ele>895.6666666666667</ele><time>2026-05-02T13:22:43.999Z</time></trkpt><trkpt lat="44.61503002963998" lon="7.3291460327362845"><ele>900.8333333333334</ele><time>2026-05-02T13:22:44.999Z</time></trkpt><trkpt lat="44.614968782785866" lon="7.329034814646325"><ele>906.0</ele><time>2026-05-02T13:22:45.999Z</time></trkpt><trkpt lat="44.614912658467254" lon="7.328947899501125"><ele>906.0</ele><time>2026-05-02T13:22:46.999Z</time></trkpt><trkpt lat="44.61483150245532" lon="7.328794200608891"><ele>905.9999999999999</ele><time>2026-05-02T13:22:48.999Z</time></trkpt><trkpt lat="44.614698619594556" lon="7.328905808867217"><ele>905.9999999999999</ele><time>2026-05-02T13:22:49.999Z</time></trkpt><trkpt lat="44.61462495725214" lon="7.328940283725369"><ele>906.0</ele><time>2026-05-02T13:22:50.999Z</time></trkpt><trkpt lat="44.61455915656028" lon="7.328990637371489"><ele>906.0</ele><time>2026-05-02T13:22:51.999Z</time></trkpt><trkpt lat="44.6144760446803" lon="7.329040775983091"><ele>908.0</ele><time>2026-05-02T13:22:52.999Z</time></trkpt><trkpt lat="44.61439493513512" lon="7.329088544462367"><ele>910.0</ele><time>2026-05-02T13:22:53.999Z</time></trkpt><trkpt lat="44.61431592962139" lon="7.3290916889234765"><ele>912.0</ele><time>2026-05-02T13:22:54.999Z</time></trkpt><trkpt lat="44.614239002141446" lon="7.3290839676208925"><ele>914.0</ele><time>2026-05-02T13:22:55.999Z</time></trkpt><trkpt lat="44.614142889106276" lon="7.32906837063829"><ele>916.0</ele><time>2026-05-02T13:22:56.999Z</time></trkpt><trkpt lat="44.61405074496712" lon="7.329051539871407"><ele>918.0</ele><time>2026-05-02T13:22:57.999Z</time></trkpt><trkpt lat="44.613976810073375" lon="7.329031724497481"><ele>918.0</ele><time>2026-05-02T13:22:58.999Z</time></trkpt><trkpt lat="44.613872238601196" lon="7.329025747882284"><ele>918.0</ele><time>2026-05-02T13:22:59.999Z</time></trkpt><trkpt lat="44.613762273686945" lon="7.329068657026397"><ele>918.0</ele><time>2026-05-02T13:23:00.999Z</time></trkpt><trkpt lat="44.61365569717581" lon="7.329096493888949"><ele>918.0</ele><time>2026-05-02T13:23:01.999Z</time></trkpt><trkpt lat="44.613555162767526" lon="7.3291217723058795"><ele>918.0</ele><time>2026-05-02T13:23:02.999Z</time></trkpt><trkpt lat="44.61345730369856" lon="7.329082507726514"><ele>920.2</ele><time>2026-05-02T13:23:03.999Z</time></trkpt><trkpt lat="44.613375225961164" lon="7.329038572832029"><ele>922.4</ele><time>2026-05-02T13:23:04.999Z</time></trkpt><trkpt lat="44.61328972814337" lon="7.328960429126784"><ele>924.6000000000001</ele><time>2026-05-02T13:23:05.999Z</time></trkpt><trkpt lat="44.61321391830958" lon="7.32889086094155"><ele>926.8000000000001</ele><time>2026-05-02T13:23:06.999Z</time></trkpt><trkpt lat="44.61313993447525" lon="7.328796715477611"><ele>929.0</ele><time>2026-05-02T13:23:07.999Z</time></trkpt><trkpt lat="44.613051846915305" lon="7.3286719766564925"><ele>928.4000000000001</ele><time>2026-05-02T13:23:08.999Z</time></trkpt><trkpt lat="44.61296833171409" lon="7.328564220434103"><ele>927.8000000000001</ele><time>2026-05-02T13:23:09.999Z</time></trkpt><trkpt lat="44.61287580543741" lon="7.3284755858048785"><ele>927.1999999999999</ele><time>2026-05-02T13:23:10.999Z</time></trkpt><trkpt lat="44.61280761522433" lon="7.328366805568616"><ele>926.5999999999999</ele><time>2026-05-02T13:23:11.999Z</time></trkpt><trkpt lat="44.61272315532914" lon="7.328293404145307"><ele>926.0</ele><time>2026-05-02T13:23:12.999Z</time></trkpt><trkpt lat="44.61264116690009" lon="7.328214744685087"><ele>926.0000000000001</ele><time>2026-05-02T13:23:13.999Z</time></trkpt><trkpt lat="44.6125646875879" lon="7.328179270466081"><ele>926.0</ele><time>2026-05-02T13:23:14.999Z</time></trkpt><trkpt lat="44.61248632957287" lon="7.328164383057393"><ele>926.0</ele><time>2026-05-02T13:23:15.999Z</time></trkpt><trkpt lat="44.612400779581236" lon="7.328176438399916"><ele>926.0</ele><time>2026-05-02T13:23:16.999Z</time></trkpt><trkpt lat="44.61230222804774" lon="7.328181081143852"><ele>926.0000000000001</ele><time>2026-05-02T13:23:17.999Z</time></trkpt><trkpt lat="44.61222169285179" lon="7.328183496503901"><ele>926.0</ele><time>2026-05-02T13:23:18.999Z</time></trkpt><trkpt lat="44.612143117853975" lon="7.328165360425877"><ele>926.0</ele><time>2026-05-02T13:23:19.999Z</time></trkpt><trkpt lat="44.612048375143885" lon="7.328153717929016"><ele>925.9999999999999</ele><time>2026-05-02T13:23:20.999Z</time></trkpt><trkpt lat="44.61194685376891" lon="7.328148825998556"><ele>925.9999999999999</ele><time>2026-05-02T13:23:21.999Z</time></trkpt><trkpt lat="44.611847875173844" lon="7.328148833811135"><ele>926.0</ele><time>2026-05-02T13:23:22.999Z</time></trkpt><trkpt lat="44.61175119274591" lon="7.328156661814747"><ele>926.0</ele><time>2026-05-02T13:23:23.999Z</time></trkpt><trkpt lat="44.611667442916406" lon="7.328168217022502"><ele>924.1666666666667</ele><time>2026-05-02T13:23:24.999Z</time></trkpt><trkpt lat="44.611565804608105" lon="7.32818680617971"><ele>922.3333333333334</ele><time>2026-05-02T13:23:25.999Z</time></trkpt><trkpt lat="44.61148808655256" lon="7.328196896546218"><ele>920.5</ele><time>2026-05-02T13:23:26.999Z</time></trkpt><trkpt lat="44.61142412521885" lon="7.328181636215526"><ele>918.6666666666667</ele><time>2026-05-02T13:23:27.999Z</time></trkpt><trkpt lat="44.61132728855568" lon="7.328061302360568"><ele>916.8333333333334</ele><time>2026-05-02T13:23:30Z</time></trkpt><trkpt lat="44.61128421211421" lon="7.327977070548827"><ele>915.0</ele><time>2026-05-02T13:23:31Z</time></trkpt><trkpt lat="44.61123828013731" lon="7.327902233956679"><ele>915.0</ele><time>2026-05-02T13:23:32Z</time></trkpt><trkpt lat="44.61118519521264" lon="7.3278418496002375"><ele>915.0</ele><time>2026-05-02T13:23:33Z</time></trkpt><trkpt lat="44.61110886924011" lon="7.3278049569414945"><ele>915.0</ele><time>2026-05-02T13:23:34Z</time></trkpt><trkpt lat="44.61101595572139" lon="7.327792337259797"><ele>915.0</ele><time>2026-05-02T13:23:35Z</time></trkpt><trkpt lat="44.61092773421949" lon="7.327796080758843"><ele>915.0</ele><time>2026-05-02T13:23:36Z</time></trkpt><trkpt lat="44.61085067585925" lon="7.327807729248855"><ele>915.0</ele><time>2026-05-02T13:23:37Z</time></trkpt><trkpt lat="44.61076654156541" lon="7.327791160344494"><ele>919.5</ele><time>2026-05-02T13:23:38Z</time></trkpt><trkpt lat="44.61068484716059" lon="7.327791796590938"><ele>924.0</ele><time>2026-05-02T13:23:39Z</time></trkpt><trkpt lat="44.610609944957645" lon="7.327774832603831"><ele>928.5</ele><time>2026-05-02T13:23:40Z</time></trkpt><trkpt lat="44.610545319556124" lon="7.327755870403335"><ele>933.0</ele><time>2026-05-02T13:23:41Z</time></trkpt><trkpt lat="44.61048358793583" lon="7.327730280159492"><ele>937.5</ele><time>2026-05-02T13:23:42Z</time></trkpt><trkpt lat="44.61037561397196" lon="7.3276170528227285"><ele>942.0</ele><time>2026-05-02T13:23:44Z</time></trkpt><trkpt lat="44.61030848236818" lon="7.327550603426149"><ele>945.1666666666666</ele><time>2026-05-02T13:23:45Z</time></trkpt><trkpt lat="44.610239441770794" lon="7.327519204275414"><ele>948.3333333333333</ele><time>2026-05-02T13:23:46Z</time></trkpt><trkpt lat="44.61015899823249" lon="7.327484517584676"><ele>951.5</ele><time>2026-05-02T13:23:47Z</time></trkpt><trkpt lat="44.61009708650315" lon="7.327463172563885"><ele>954.6666666666666</ele><time>2026-05-02T13:23:48Z</time></trkpt><trkpt lat="44.61001691601321" lon="7.327502013630983"><ele>957.8333333333333</ele><time>2026-05-02T13:23:50Z</time></trkpt><trkpt lat="44.61002278603632" lon="7.327616507108838"><ele>961.0</ele><time>2026-05-02T13:23:52Z</time></trkpt><trkpt lat="44.61011402815954" lon="7.327713425598228"><ele>960.9999999999999</ele><time>2026-05-02T13:23:54Z</time></trkpt><trkpt lat="44.61018297957443" lon="7.327748072980283"><ele>961.0</ele><time>2026-05-02T13:23:55Z</time></trkpt><trkpt lat="44.61023213647697" lon="7.3278517131926995"><ele>961.0</ele><time>2026-05-02T13:23:56Z</time></trkpt><trkpt lat="44.610263088741405" lon="7.32796347612592"><ele>961.0</ele><time>2026-05-02T13:23:57Z</time></trkpt><trkpt lat="44.61031289472351" lon="7.328082827373022"><ele>960.9999999999999</ele><time>2026-05-02T13:23:58Z</time></trkpt><trkpt lat="44.610360009012595" lon="7.328177483547624"><ele>961.0</ele><time>2026-05-02T13:23:59Z</time></trkpt><trkpt lat="44.610411193987396" lon="7.328272484611413"><ele>961.3333333333333</ele><time>2026-05-02T13:24:00Z</time></trkpt><trkpt lat="44.61046889124961" lon="7.328353882769608"><ele>961.6666666666666</ele><time>2026-05-02T13:24:01Z</time></trkpt><trkpt lat="44.61054046726062" lon="7.328417932515023"><ele>962.0</ele><time>2026-05-02T13:24:02Z</time></trkpt><trkpt lat="44.61061746627022" lon="7.3284598370860285"><ele>962.3333333333333</ele><time>2026-05-02T13:24:03Z</time></trkpt><trkpt lat="44.6107021907436" lon="7.328492219164362"><ele>962.6666666666666</ele><time>2026-05-02T13:24:04Z</time></trkpt><trkpt lat="44.61078619860426" lon="7.328530139187044"><ele>963.0</ele><time>2026-05-02T13:24:05Z</time></trkpt><trkpt lat="44.61085844077824" lon="7.328568253990304"><ele>963.0</ele><time>2026-05-02T13:24:06Z</time></trkpt><trkpt lat="44.61093060889748" lon="7.328621468589057"><ele>963.0</ele><time>2026-05-02T13:24:07Z</time></trkpt><trkpt lat="44.61099984710318" lon="7.328682526121052"><ele>963.0</ele><time>2026-05-02T13:24:08Z</time></trkpt><trkpt lat="44.61107400062182" lon="7.328754542879419"><ele>963.0</ele><time>2026-05-02T13:24:09Z</time></trkpt><trkpt lat="44.61115277685128" lon="7.3288320063133074"><ele>963.0</ele><time>2026-05-02T13:24:10Z</time></trkpt><trkpt lat="44.611220256342435" lon="7.328903995982532"><ele>963.0</ele><time>2026-05-02T13:24:11Z</time></trkpt><trkpt lat="44.611290540409925" lon="7.32899078169759"><ele>966.0</ele><time>2026-05-02T13:24:12Z</time></trkpt><trkpt lat="44.61136413191621" lon="7.329071394712218"><ele>969.0</ele><time>2026-05-02T13:24:13Z</time></trkpt><trkpt lat="44.61143355937647" lon="7.329130895763019"><ele>972.0</ele><time>2026-05-02T13:24:14Z</time></trkpt><trkpt lat="44.61151478613545" lon="7.329179383167299"><ele>975.0</ele><time>2026-05-02T13:24:15Z</time></trkpt><trkpt lat="44.61160210698887" lon="7.329180790018991"><ele>978.0</ele><time>2026-05-02T13:24:16Z</time></trkpt><trkpt lat="44.611688311666654" lon="7.329166870868503"><ele>981.0</ele><time>2026-05-02T13:24:17Z</time></trkpt><trkpt lat="44.61176547705723" lon="7.329176808744535"><ele>981.0</ele><time>2026-05-02T13:24:18Z</time></trkpt><trkpt lat="44.61182444468316" lon="7.329215646938106"><ele>981.0</ele><time>2026-05-02T13:24:19Z</time></trkpt><trkpt lat="44.611883675481856" lon="7.329264041587497"><ele>981.0</ele><time>2026-05-02T13:24:20Z</time></trkpt><trkpt lat="44.61195855129871" lon="7.329333394474574"><ele>981.0</ele><time>2026-05-02T13:24:21Z</time></trkpt><trkpt lat="44.61202172710277" lon="7.329400388272731"><ele>981.0</ele><time>2026-05-02T13:24:22Z</time></trkpt><trkpt lat="44.61206980236824" lon="7.329477760256168"><ele>981.0</ele><time>2026-05-02T13:24:23Z</time></trkpt><trkpt lat="44.61211942137812" lon="7.3295767749342895"><ele>982.1999999999999</ele><time>2026-05-02T13:24:24Z</time></trkpt><trkpt lat="44.61211209040037" lon="7.329719109349724"><ele>983.3999999999999</ele><time>2026-05-02T13:24:25Z</time></trkpt><trkpt lat="44.61215270804227" lon="7.329844322094639"><ele>984.6</ele><time>2026-05-02T13:24:26Z</time></trkpt><trkpt lat="44.61220318643786" lon="7.329957676134668"><ele>985.8</ele><time>2026-05-02T13:24:27Z</time></trkpt><trkpt lat="44.61225193214931" lon="7.330055386068145"><ele>987.0</ele><time>2026-05-02T13:24:28Z</time></trkpt><trkpt lat="44.61230494609644" lon="7.330164014233182"><ele>987.0</ele><time>2026-05-02T13:24:29Z</time></trkpt><trkpt lat="44.61237780061944" lon="7.330296069786674"><ele>987.0</ele><time>2026-05-02T13:24:30Z</time></trkpt><trkpt lat="44.61249344819376" lon="7.330404429378087"><ele>987.0</ele><time>2026-05-02T13:24:31Z</time></trkpt><trkpt lat="44.612602272227306" lon="7.330475859347479"><ele>987.0</ele><time>2026-05-02T13:24:32Z</time></trkpt><trkpt lat="44.61267392820523" lon="7.330555708117633"><ele>986.6666666666666</ele><time>2026-05-02T13:24:33Z</time></trkpt><trkpt lat="44.612724662049224" lon="7.330628769075125"><ele>986.3333333333333</ele><time>2026-05-02T13:24:34Z</time></trkpt><trkpt lat="44.612773386303296" lon="7.330707529315809"><ele>986.0</ele><time>2026-05-02T13:24:35Z</time></trkpt><trkpt lat="44.61283516648744" lon="7.330807392960715"><ele>985.6666666666666</ele><time>2026-05-02T13:24:36Z</time></trkpt><trkpt lat="44.61289677841955" lon="7.330908176463388"><ele>985.3333333333333</ele><time>2026-05-02T13:24:37Z</time></trkpt><trkpt lat="44.612956388706564" lon="7.331000758450608"><ele>985.0</ele><time>2026-05-02T13:24:38Z</time></trkpt><trkpt lat="44.613001368987774" lon="7.331071582680939"><ele>984.9999999999999</ele><time>2026-05-02T13:24:38.999Z</time></trkpt><trkpt lat="44.61306730304669" lon="7.3311131576104795"><ele>985.0</ele><time>2026-05-02T13:24:40.999Z</time></trkpt><trkpt lat="44.61305174950826" lon="7.331204755608356"><ele>985.0</ele><time>2026-05-02T13:24:42.999Z</time></trkpt><trkpt lat="44.612958778173635" lon="7.331174050682493"><ele>985.0</ele><time>2026-05-02T13:24:44.999Z</time></trkpt><trkpt lat="44.61291539351097" lon="7.331083862616366"><ele>984.9999999999999</ele><time>2026-05-02T13:24:45.999Z</time></trkpt><trkpt lat="44.61285674393155" lon="7.330998880205354"><ele>985.0</ele><time>2026-05-02T13:24:46.999Z</time></trkpt><trkpt lat="44.61278059313853" lon="7.330920930704812"><ele>991.8</ele><time>2026-05-02T13:24:47.999Z</time></trkpt><trkpt lat="44.612706592366266" lon="7.33083554548758"><ele>998.6</ele><time>2026-05-02T13:24:48.999Z</time></trkpt><trkpt lat="44.612633437803154" lon="7.330745246999834"><ele>1005.4000000000001</ele><time>2026-05-02T13:24:49.999Z</time></trkpt><trkpt lat="44.61255458333328" lon="7.330681539393348"><ele>1012.2</ele><time>2026-05-02T13:24:50.999Z</time></trkpt><trkpt lat="44.61245979199654" lon="7.330655710363156"><ele>1019.0</ele><time>2026-05-02T13:24:51.999Z</time></trkpt><trkpt lat="44.61236244283383" lon="7.330608952479488"><ele>1019.0000000000001</ele><time>2026-05-02T13:24:52.999Z</time></trkpt><trkpt lat="44.61227590291343" lon="7.330585251102241"><ele>1019.0</ele><time>2026-05-02T13:24:53.999Z</time></trkpt><trkpt lat="44.61219534077269" lon="7.330531540883772"><ele>1019.0</ele><time>2026-05-02T13:24:54.999Z</time></trkpt><trkpt lat="44.61211712232971" lon="7.330465806145041"><ele>1019.0</ele><time>2026-05-02T13:24:55.999Z</time></trkpt><trkpt lat="44.612044878986154" lon="7.330399311541572"><ele>1019.0000000000001</ele><time>2026-05-02T13:24:56.999Z</time></trkpt><trkpt lat="44.61198785129895" lon="7.3303125702219925"><ele>1019.0</ele><time>2026-05-02T13:24:57.999Z</time></trkpt><trkpt lat="44.611918903528704" lon="7.3302516823341115"><ele>1017.4000000000001</ele><time>2026-05-02T13:24:58.999Z</time></trkpt><trkpt lat="44.61183161974025" lon="7.330224106136863"><ele>1015.8000000000001</ele><time>2026-05-02T13:24:59.999Z</time></trkpt><trkpt lat="44.6117313461836" lon="7.330250256227232"><ele>1014.1999999999999</ele><time>2026-05-02T13:25:00.999Z</time></trkpt><trkpt lat="44.61161388567956" lon="7.3302924376232905"><ele>1012.5999999999999</ele><time>2026-05-02T13:25:01.999Z</time></trkpt><trkpt lat="44.61151904223594" lon="7.330342749079725"><ele>1011.0</ele><time>2026-05-02T13:25:02.999Z</time></trkpt><trkpt lat="44.61141790856128" lon="7.330350985361203"><ele>1011.0</ele><time>2026-05-02T13:25:03.999Z</time></trkpt><trkpt lat="44.611315109699866" lon="7.330350996853927"><ele>1010.9999999999999</ele><time>2026-05-02T13:25:04.999Z</time></trkpt><trkpt lat="44.61121505534532" lon="7.3303659770723675"><ele>1010.9999999999999</ele><time>2026-05-02T13:25:05.999Z</time></trkpt><trkpt lat="44.61111916916041" lon="7.330361243423708"><ele>1011.0</ele><time>2026-05-02T13:25:06.999Z</time></trkpt><trkpt lat="44.611028586392024" lon="7.330372045861849"><ele>1011.0</ele><time>2026-05-02T13:25:07.999Z</time></trkpt><trkpt lat="44.6109410750172" lon="7.330381954826154"><ele>1013.1999999999999</ele><time>2026-05-02T13:25:08.999Z</time></trkpt><trkpt lat="44.61086156202726" lon="7.330385796893035"><ele>1015.3999999999999</ele><time>2026-05-02T13:25:09.999Z</time></trkpt><trkpt lat="44.61076230109141" lon="7.3303860664145475"><ele>1017.6</ele><time>2026-05-02T13:25:10.999Z</time></trkpt><trkpt lat="44.61067842647907" lon="7.3303366418769365"><ele>1019.8</ele><time>2026-05-02T13:25:11.999Z</time></trkpt><trkpt lat="44.610585235443565" lon="7.330317473234468"><ele>1022.0</ele><time>2026-05-02T13:25:12.999Z</time></trkpt><trkpt lat="44.6104956296752" lon="7.330274591510113"><ele>1022.0</ele><time>2026-05-02T13:25:13.999Z</time></trkpt><trkpt lat="44.6104198485556" lon="7.330224135946867"><ele>1022.0</ele><time>2026-05-02T13:25:14.999Z</time></trkpt><trkpt lat="44.610346925569296" lon="7.33017039822513"><ele>1022.0</ele><time>2026-05-02T13:25:15.999Z</time></trkpt><trkpt lat="44.610273366329515" lon="7.330116191659345"><ele>1022.0</ele><time>2026-05-02T13:25:16.999Z</time></trkpt><trkpt lat="44.610186413915045" lon="7.330063918203389"><ele>1022.0</ele><time>2026-05-02T13:25:17.999Z</time></trkpt><trkpt lat="44.61007673150452" lon="7.3300337706190755"><ele>1026.0</ele><time>2026-05-02T13:25:18.999Z</time></trkpt><trkpt lat="44.60996421013318" lon="7.329981371159444"><ele>1030.0</ele><time>2026-05-02T13:25:19.999Z</time></trkpt><trkpt lat="44.60985514001024" lon="7.32996759304581"><ele>1034.0</ele><time>2026-05-02T13:25:20.999Z</time></trkpt><trkpt lat="44.609752805125915" lon="7.329955717694606"><ele>1038.0</ele><time>2026-05-02T13:25:21.999Z</time></trkpt><trkpt lat="44.60966744026072" lon="7.3299465045694765"><ele>1042.0</ele><time>2026-05-02T13:25:22.999Z</time></trkpt><trkpt lat="44.60962262261368" lon="7.329880047741178"><ele>1042.0</ele><time>2026-05-02T13:25:23.999Z</time></trkpt><trkpt lat="44.60956465115777" lon="7.32978233967117"><ele>1042.0</ele><time>2026-05-02T13:25:24.999Z</time></trkpt><trkpt lat="44.60949441981712" lon="7.329724662373278"><ele>1042.0</ele><time>2026-05-02T13:25:25.999Z</time></trkpt><trkpt lat="44.609422486322046" lon="7.329683609532157"><ele>1042.0</ele><time>2026-05-02T13:25:26.999Z</time></trkpt><trkpt lat="44.60932809332836" lon="7.329618889578174"><ele>1042.0</ele><time>2026-05-02T13:25:27.999Z</time></trkpt><trkpt lat="44.609233299822755" lon="7.329580944267629"><ele>1041.6666666666665</ele><time>2026-05-02T13:25:28.999Z</time></trkpt><trkpt lat="44.60915170727377" lon="7.329552718782531"><ele>1041.3333333333333</ele><time>2026-05-02T13:25:29.999Z</time></trkpt><trkpt lat="44.609077702974986" lon="7.329530948729399"><ele>1041.0</ele><time>2026-05-02T13:25:30.999Z</time></trkpt><trkpt lat="44.60899001585952" lon="7.329513897950184"><ele>1040.6666666666667</ele><time>2026-05-02T13:25:31.999Z</time></trkpt><trkpt lat="44.60889953921312" lon="7.32952228509406"><ele>1040.3333333333335</ele><time>2026-05-02T13:25:33.999Z</time></trkpt><trkpt lat="44.60887633961303" lon="7.329640845029607"><ele>1040.0</ele><time>2026-05-02T13:25:36Z</time></trkpt><trkpt lat="44.60893922484802" lon="7.329724091560388"><ele>1045.4</ele><time>2026-05-02T13:25:38Z</time></trkpt><trkpt lat="44.60902619857656" lon="7.32973283976377"><ele>1050.8</ele><time>2026-05-02T13:25:40Z</time></trkpt><trkpt lat="44.609137866990594" lon="7.329773108434995"><ele>1056.2</ele><time>2026-05-02T13:25:42Z</time></trkpt><trkpt lat="44.6092511614457" lon="7.329842345849533"><ele>1061.6</ele><time>2026-05-02T13:25:44Z</time></trkpt><trkpt lat="44.60929155519779" lon="7.329944855707414"><ele>1067.0</ele><time>2026-05-02T13:25:45Z</time></trkpt><trkpt lat="44.60932562079552" lon="7.330051325818676"><ele>1066.9999999999998</ele><time>2026-05-02T13:25:46Z</time></trkpt><trkpt lat="44.60936816042006" lon="7.330156573898754"><ele>1067.0</ele><time>2026-05-02T13:25:47Z</time></trkpt><trkpt lat="44.60940420264068" lon="7.330237529978389"><ele>1067.0</ele><time>2026-05-02T13:25:48Z</time></trkpt><trkpt lat="44.60945741101356" lon="7.330296115282622"><ele>1067.0</ele><time>2026-05-02T13:25:49Z</time></trkpt><trkpt lat="44.6094910248638" lon="7.330375183764725"><ele>1067.0</ele><time>2026-05-02T13:25:50Z</time></trkpt><trkpt lat="44.609541804595466" lon="7.330446461037853"><ele>1066.9999999999998</ele><time>2026-05-02T13:25:51Z</time></trkpt><trkpt lat="44.60959455822137" lon="7.3305478872735135"><ele>1067.0</ele><time>2026-05-02T13:25:52Z</time></trkpt><trkpt lat="44.609651501620796" lon="7.330641657150151"><ele>1068.0</ele><time>2026-05-02T13:25:53Z</time></trkpt><trkpt lat="44.60972374074839" lon="7.330734366461869"><ele>1069.0</ele><time>2026-05-02T13:25:54Z</time></trkpt><trkpt lat="44.60977577419045" lon="7.330842860225503"><ele>1070.0</ele><time>2026-05-02T13:25:55Z</time></trkpt><trkpt lat="44.60983714514411" lon="7.3309420489041965"><ele>1071.0</ele><time>2026-05-02T13:25:56Z</time></trkpt><trkpt lat="44.60989677781929" lon="7.331038427968754"><ele>1072.0</ele><time>2026-05-02T13:25:57Z</time></trkpt><trkpt lat="44.60995420679796" lon="7.331131245308627"><ele>1072.0</ele><time>2026-05-02T13:25:58Z</time></trkpt><trkpt lat="44.61001462363645" lon="7.331224391199554"><ele>1072.0</ele><time>2026-05-02T13:25:59Z</time></trkpt><trkpt lat="44.610084957840705" lon="7.331305159511296"><ele>1072.0</ele><time>2026-05-02T13:26:00Z</time></trkpt><trkpt lat="44.6101308491383" lon="7.331397495913562"><ele>1072.0</ele><time>2026-05-02T13:26:01Z</time></trkpt><trkpt lat="44.610203901420995" lon="7.331447798559217"><ele>1072.0</ele><time>2026-05-02T13:26:02Z</time></trkpt><trkpt lat="44.61026845826324" lon="7.331514976645793"><ele>1072.0</ele><time>2026-05-02T13:26:03Z</time></trkpt><trkpt lat="44.61032667312036" lon="7.331601404403426"><ele>1075.4</ele><time>2026-05-02T13:26:04Z</time></trkpt><trkpt lat="44.61036719539299" lon="7.331704132508037"><ele>1078.8000000000002</ele><time>2026-05-02T13:26:06Z</time></trkpt><trkpt lat="44.61027121902347" lon="7.331788083884331"><ele>1082.2</ele><time>2026-05-02T13:26:08Z</time></trkpt><trkpt lat="44.61021500370023" lon="7.331831073509696"><ele>1085.6000000000001</ele><time>2026-05-02T13:26:09Z</time></trkpt><trkpt lat="44.6100862551545" lon="7.331820997128541"><ele>1089.0</ele><time>2026-05-02T13:26:11Z</time></trkpt><trkpt lat="44.609967869491214" lon="7.331740021510018"><ele>1090.6666666666667</ele><time>2026-05-02T13:26:13Z</time></trkpt><trkpt lat="44.60989192205097" lon="7.331708304356057"><ele>1092.3333333333333</ele><time>2026-05-02T13:26:14Z</time></trkpt><trkpt lat="44.609803937508595" lon="7.33170339420675"><ele>1094.0</ele><time>2026-05-02T13:26:15Z</time></trkpt><trkpt lat="44.60971453117536" lon="7.3317105189111755"><ele>1095.6666666666665</ele><time>2026-05-02T13:26:16Z</time></trkpt><trkpt lat="44.609633679181755" lon="7.3317168222426785"><ele>1097.3333333333333</ele><time>2026-05-02T13:26:17Z</time></trkpt><trkpt lat="44.60955121449058" lon="7.33172325130537"><ele>1099.0</ele><time>2026-05-02T13:26:18Z</time></trkpt><trkpt lat="44.60946658480089" lon="7.33172984916968"><ele>1103.0</ele><time>2026-05-02T13:26:19Z</time></trkpt><trkpt lat="44.6093761207122" lon="7.33175840012699"><ele>1107.0</ele><time>2026-05-02T13:26:20Z</time></trkpt><trkpt lat="44.60929537122691" lon="7.331768732964324"><ele>1111.0</ele><time>2026-05-02T13:26:21Z</time></trkpt><trkpt lat="44.60922571845995" lon="7.331774949257956"><ele>1115.0</ele><time>2026-05-02T13:26:22Z</time></trkpt><trkpt lat="44.60912580922908" lon="7.3317242135578695"><ele>1119.0</ele><time>2026-05-02T13:26:24Z</time></trkpt><trkpt lat="44.60901380533247" lon="7.331630541223579"><ele>1119.0</ele><time>2026-05-02T13:26:26Z</time></trkpt><trkpt lat="44.608935369186305" lon="7.33159455605492"><ele>1119.0</ele><time>2026-05-02T13:26:27Z</time></trkpt><trkpt lat="44.60885208909851" lon="7.331619920930576"><ele>1119.0</ele><time>2026-05-02T13:26:28Z</time></trkpt><trkpt lat="44.60877856668831" lon="7.331623370119884"><ele>1119.0</ele><time>2026-05-02T13:26:29Z</time></trkpt><trkpt lat="44.60871628899064" lon="7.3315863558931555"><ele>1119.0</ele><time>2026-05-02T13:26:30Z</time></trkpt><trkpt lat="44.608678529774735" lon="7.331484258667538"><ele>1119.0</ele><time>2026-05-02T13:26:31Z</time></trkpt><trkpt lat="44.6086195471418" lon="7.331418103164485"><ele>1120.1666666666667</ele><time>2026-05-02T13:26:32Z</time></trkpt><trkpt lat="44.60855383680341" lon="7.331345119520304"><ele>1121.3333333333333</ele><time>2026-05-02T13:26:33Z</time></trkpt><trkpt lat="44.60848601819185" lon="7.33126995877071"><ele>1122.5</ele><time>2026-05-02T13:26:34Z</time></trkpt><trkpt lat="44.60841761028654" lon="7.33120031156815"><ele>1123.6666666666665</ele><time>2026-05-02T13:26:35Z</time></trkpt><trkpt lat="44.608338065047164" lon="7.3311558189679396"><ele>1124.8333333333333</ele><time>2026-05-02T13:26:36Z</time></trkpt><trkpt lat="44.60826921578275" lon="7.331091242436155"><ele>1126.0</ele><time>2026-05-02T13:26:37Z</time></trkpt><trkpt lat="44.60821971766362" lon="7.331007198517997"><ele>1126.0</ele><time>2026-05-02T13:26:38Z</time></trkpt><trkpt lat="44.608170842329116" lon="7.3309134309225685"><ele>1126.0</ele><time>2026-05-02T13:26:38.999Z</time></trkpt><trkpt lat="44.6081114163014" lon="7.330809377587293"><ele>1126.0</ele><time>2026-05-02T13:26:39.999Z</time></trkpt><trkpt lat="44.60804915677353" lon="7.330716361089985"><ele>1126.0</ele><time>2026-05-02T13:26:40.999Z</time></trkpt><trkpt lat="44.607980224640286" lon="7.3306533847099145"><ele>1126.0</ele><time>2026-05-02T13:26:41.999Z</time></trkpt><trkpt lat="44.60791266877218" lon="7.330627424029287"><ele>1126.0</ele><time>2026-05-02T13:26:42.999Z</time></trkpt><trkpt lat="44.6078304697405" lon="7.330641073216079"><ele>1126.8333333333333</ele><time>2026-05-02T13:26:43.999Z</time></trkpt><trkpt lat="44.60774328031412" lon="7.3306182066908425"><ele>1127.6666666666665</ele><time>2026-05-02T13:26:44.999Z</time></trkpt><trkpt lat="44.60766580582637" lon="7.330583076847253"><ele>1128.5</ele><time>2026-05-02T13:26:45.999Z</time></trkpt><trkpt lat="44.60758632702069" lon="7.330554650108379"><ele>1129.3333333333333</ele><time>2026-05-02T13:26:46.999Z</time></trkpt><trkpt lat="44.60749167947929" lon="7.330532049369156"><ele>1130.1666666666667</ele><time>2026-05-02T13:26:47.999Z</time></trkpt><trkpt lat="44.6074103516449" lon="7.330514916843867"><ele>1131.0</ele><time>2026-05-02T13:26:48.999Z</time></trkpt><trkpt lat="44.60731580434671" lon="7.330508438784743"><ele>1131.0</ele><time>2026-05-02T13:26:49.999Z</time></trkpt><trkpt lat="44.6072381457784" lon="7.330461879974078"><ele>1131.0</ele><time>2026-05-02T13:26:50.999Z</time></trkpt><trkpt lat="44.607174941189115" lon="7.3303958017398845"><ele>1131.0</ele><time>2026-05-02T13:26:51.999Z</time></trkpt><trkpt lat="44.60707940733213" lon="7.330345653415535"><ele>1131.0</ele><time>2026-05-02T13:26:53.999Z</time></trkpt><trkpt lat="44.60702484610572" lon="7.3304174533837685"><ele>1131.0</ele><time>2026-05-02T13:26:55.999Z</time></trkpt><trkpt lat="44.607075539128076" lon="7.3305873791298035"><ele>1135.8</ele><time>2026-05-02T13:26:57.999Z</time></trkpt><trkpt lat="44.60714745420029" lon="7.330654432246978"><ele>1140.6</ele><time>2026-05-02T13:26:58.999Z</time></trkpt><trkpt lat="44.607206063405755" lon="7.330736193035701"><ele>1145.4</ele><time>2026-05-02T13:26:59.999Z</time></trkpt><trkpt lat="44.60727938271798" lon="7.330831524588308"><ele>1150.2</ele><time>2026-05-02T13:27:00.999Z</time></trkpt><trkpt lat="44.60732447685837" lon="7.330961375128482"><ele>1155.0</ele><time>2026-05-02T13:27:01.999Z</time></trkpt><trkpt lat="44.60736664653825" lon="7.331060634214709"><ele>1155.0</ele><time>2026-05-02T13:27:02.999Z</time></trkpt><trkpt lat="44.60740266515659" lon="7.331164757544586"><ele>1155.0</ele><time>2026-05-02T13:27:03.999Z</time></trkpt><trkpt lat="44.60743600589493" lon="7.331263851496593"><ele>1155.0</ele><time>2026-05-02T13:27:04.999Z</time></trkpt><trkpt lat="44.60747091385661" lon="7.331363659611369"><ele>1155.0</ele><time>2026-05-02T13:27:05.999Z</time></trkpt><trkpt lat="44.607508289404876" lon="7.331457250209403"><ele>1155.0</ele><time>2026-05-02T13:27:06.999Z</time></trkpt><trkpt lat="44.60755768904657" lon="7.331564439916271"><ele>1155.0</ele><time>2026-05-02T13:27:07.999Z</time></trkpt><trkpt lat="44.60758665673613" lon="7.331653486437877"><ele>1158.6</ele><time>2026-05-02T13:27:08.999Z</time></trkpt><trkpt lat="44.60761767628928" lon="7.3317485823949085"><ele>1162.2</ele><time>2026-05-02T13:27:09.999Z</time></trkpt><trkpt lat="44.60764351848859" lon="7.331917815849836"><ele>1165.8</ele><time>2026-05-02T13:27:11.999Z</time></trkpt><trkpt lat="44.60756068487983" lon="7.332085133022767"><ele>1169.4</ele><time>2026-05-02T13:27:13.999Z</time></trkpt><trkpt lat="44.60754396738869" lon="7.332206442393973"><ele>1173.0</ele><time>2026-05-02T13:27:14.999Z</time></trkpt><trkpt lat="44.607540949068394" lon="7.332332611206152"><ele>1172.0</ele><time>2026-05-02T13:27:15.999Z</time></trkpt><trkpt lat="44.607558960784445" lon="7.332448331214848"><ele>1171.0</ele><time>2026-05-02T13:27:16.999Z</time></trkpt><trkpt lat="44.607627445866896" lon="7.332580671407767"><ele>1170.0</ele><time>2026-05-02T13:27:18.999Z</time></trkpt><trkpt lat="44.607729878517624" lon="7.332703794076115"><ele>1169.0</ele><time>2026-05-02T13:27:20.999Z</time></trkpt><trkpt lat="44.60779002229257" lon="7.3327763808883875"><ele>1168.0</ele><time>2026-05-02T13:27:21.999Z</time></trkpt><trkpt lat="44.60784305767933" lon="7.332836326769824"><ele>1168.0</ele><time>2026-05-02T13:27:22.999Z</time></trkpt><trkpt lat="44.60790814909164" lon="7.332908441209808"><ele>1168.0</ele><time>2026-05-02T13:27:23.999Z</time></trkpt><trkpt lat="44.60797645968271" lon="7.332984122148321"><ele>1168.0</ele><time>2026-05-02T13:27:24.999Z</time></trkpt><trkpt lat="44.60803785559565" lon="7.333055853702164"><ele>1168.0</ele><time>2026-05-02T13:27:25.999Z</time></trkpt><trkpt lat="44.60809459752284" lon="7.333125357986179"><ele>1168.0</ele><time>2026-05-02T13:27:26.999Z</time></trkpt><trkpt lat="44.60813278827625" lon="7.333216606770483"><ele>1168.0</ele><time>2026-05-02T13:27:28.999Z</time></trkpt><trkpt lat="44.608074913875264" lon="7.333267942838543"><ele>1171.75</ele><time>2026-05-02T13:27:31.999Z</time></trkpt><trkpt lat="44.60799448293848" lon="7.333203193208087"><ele>1175.5</ele><time>2026-05-02T13:27:33.999Z</time></trkpt><trkpt lat="44.60792132967003" lon="7.333158318214004"><ele>1179.25</ele><time>2026-05-02T13:27:35.999Z</time></trkpt><trkpt lat="44.60770300548859" lon="7.3330280165258275"><ele>1183.0</ele><time>2026-05-02T13:27:37.999Z</time></trkpt><trkpt lat="44.60758893830581" lon="7.333026183349902"><ele>1183.6666666666665</ele><time>2026-05-02T13:27:38.999Z</time></trkpt><trkpt lat="44.607499573914716" lon="7.333032199454302"><ele>1184.3333333333333</ele><time>2026-05-02T13:27:39.999Z</time></trkpt><trkpt lat="44.60742112986343" lon="7.333026738368923"><ele>1185.0</ele><time>2026-05-02T13:27:40.999Z</time></trkpt><trkpt lat="44.60733518687448" lon="7.332999363984182"><ele>1185.6666666666667</ele><time>2026-05-02T13:27:42Z</time></trkpt><trkpt lat="44.60727062725356" lon="7.332961148609397"><ele>1186.3333333333335</ele><time>2026-05-02T13:27:43Z</time></trkpt><trkpt lat="44.60719381161953" lon="7.332912387935848"><ele>1187.0</ele><time>2026-05-02T13:27:44Z</time></trkpt><trkpt lat="44.607119872195696" lon="7.332851200308418"><ele>1187.0</ele><time>2026-05-02T13:27:45Z</time></trkpt><trkpt lat="44.607045723991675" lon="7.332785182551072"><ele>1187.0</ele><time>2026-05-02T13:27:46Z</time></trkpt><trkpt lat="44.606981703688156" lon="7.332720570102522"><ele>1187.0</ele><time>2026-05-02T13:27:47Z</time></trkpt><trkpt lat="44.6069102117313" lon="7.332639242301132"><ele>1187.0</ele><time>2026-05-02T13:27:48Z</time></trkpt><trkpt lat="44.606848753416095" lon="7.332564908718228"><ele>1187.0</ele><time>2026-05-02T13:27:49Z</time></trkpt><trkpt lat="44.606791917067284" lon="7.332490344552625"><ele>1187.0</ele><time>2026-05-02T13:27:50Z</time></trkpt><trkpt lat="44.60673005199748" lon="7.332409279945432"><ele>1188.2</ele><time>2026-05-02T13:27:51Z</time></trkpt><trkpt lat="44.60666783943109" lon="7.3323264898778895"><ele>1189.4</ele><time>2026-05-02T13:27:52Z</time></trkpt><trkpt lat="44.60660407098088" lon="7.332244749678704"><ele>1190.6</ele><time>2026-05-02T13:27:53Z</time></trkpt><trkpt lat="44.60654015828901" lon="7.332185208887617"><ele>1191.8</ele><time>2026-05-02T13:27:54Z</time></trkpt><trkpt lat="44.60639557762601" lon="7.332206837209292"><ele>1193.0</ele><time>2026-05-02T13:27:56Z</time></trkpt><trkpt lat="44.60629499068395" lon="7.332255201735267"><ele>1193.0</ele><time>2026-05-02T13:27:57Z</time></trkpt><trkpt lat="44.60622376687812" lon="7.3322059946066105"><ele>1193.0</ele><time>2026-05-02T13:27:58Z</time></trkpt><trkpt lat="44.6061487608262" lon="7.332140726469555"><ele>1193.0</ele><time>2026-05-02T13:27:59Z</time></trkpt><trkpt lat="44.60608099270953" lon="7.332116395751626"><ele>1193.0</ele><time>2026-05-02T13:28:00Z</time></trkpt><trkpt lat="44.60600668970278" lon="7.332077228905801"><ele>1193.0</ele><time>2026-05-02T13:28:01Z</time></trkpt><trkpt lat="44.60592512500935" lon="7.332026758913411"><ele>1193.0</ele><time>2026-05-02T13:28:02Z</time></trkpt><trkpt lat="44.605865777762475" lon="7.331936672558245"><ele>1197.3333333333335</ele><time>2026-05-02T13:28:03Z</time></trkpt><trkpt lat="44.60579672588853" lon="7.331872520130913"><ele>1201.6666666666667</ele><time>2026-05-02T13:28:04Z</time></trkpt><trkpt lat="44.60571481258167" lon="7.331839063187073"><ele>1206.0</ele><time>2026-05-02T13:28:05Z</time></trkpt><trkpt lat="44.605635938111384" lon="7.331785102787593"><ele>1210.3333333333333</ele><time>2026-05-02T13:28:06Z</time></trkpt><trkpt lat="44.60555202193111" lon="7.3317376991468155"><ele>1214.6666666666665</ele><time>2026-05-02T13:28:07Z</time></trkpt><trkpt lat="44.605463195129744" lon="7.331686523928114"><ele>1219.0</ele><time>2026-05-02T13:28:08Z</time></trkpt><trkpt lat="44.60538261842031" lon="7.331618581481135"><ele>1222.8</ele><time>2026-05-02T13:28:09Z</time></trkpt><trkpt lat="44.60531699788471" lon="7.331511429917121"><ele>1226.6000000000001</ele><time>2026-05-02T13:28:10Z</time></trkpt><trkpt lat="44.60522920127419" lon="7.331456917209588"><ele>1230.4</ele><time>2026-05-02T13:28:11Z</time></trkpt><trkpt lat="44.60515500867225" lon="7.331382984987373"><ele>1234.2</ele><time>2026-05-02T13:28:12Z</time></trkpt><trkpt lat="44.605086457976014" lon="7.331320917018469"><ele>1238.0</ele><time>2026-05-02T13:28:13Z</time></trkpt><trkpt lat="44.60501438235744" lon="7.331266527780793"><ele>1238.0</ele><time>2026-05-02T13:28:14Z</time></trkpt><trkpt lat="44.60493939880606" lon="7.331213043852451"><ele>1238.0</ele><time>2026-05-02T13:28:15Z</time></trkpt><trkpt lat="44.60486981100972" lon="7.331158174306875"><ele>1238.0</ele><time>2026-05-02T13:28:16Z</time></trkpt><trkpt lat="44.60480756638152" lon="7.331088055744068"><ele>1238.0</ele><time>2026-05-02T13:28:17Z</time></trkpt><trkpt lat="44.60474924568633" lon="7.3310341866532225"><ele>1238.0</ele><time>2026-05-02T13:28:18Z</time></trkpt><trkpt lat="44.60468654496259" lon="7.330980786950128"><ele>1238.0</ele><time>2026-05-02T13:28:19Z</time></trkpt><trkpt lat="44.60462244527763" lon="7.330947141483206"><ele>1238.0</ele><time>2026-05-02T13:28:20Z</time></trkpt><trkpt lat="44.604545233902655" lon="7.3308980232258625"><ele>1238.0</ele><time>2026-05-02T13:28:22Z</time></trkpt><trkpt lat="44.604452156346554" lon="7.3308430587748505"><ele>1238.0</ele><time>2026-05-02T13:28:24Z</time></trkpt><trkpt lat="44.604373039115025" lon="7.330766199960827"><ele>1238.0</ele><time>2026-05-02T13:28:27Z</time></trkpt><trkpt lat="44.60419870075639" lon="7.330543500483784"><ele>1243.4</ele><time>2026-05-02T13:28:30Z</time></trkpt><trkpt lat="44.6041309820027" lon="7.3304527498713945"><ele>1248.8</ele><time>2026-05-02T13:28:32Z</time></trkpt><trkpt lat="44.604056344044146" lon="7.330351644918382"><ele>1254.2</ele><time>2026-05-02T13:28:34Z</time></trkpt><trkpt lat="44.603981034419284" lon="7.330236231333504"><ele>1259.6</ele><time>2026-05-02T13:28:36Z</time></trkpt><trkpt lat="44.603907617193805" lon="7.3301679176784935"><ele>1265.0</ele><time>2026-05-02T13:28:38Z</time></trkpt><trkpt lat="44.60381257648747" lon="7.330067497768933"><ele>1265.0</ele><time>2026-05-02T13:28:39.999Z</time></trkpt><trkpt lat="44.6037222129298" lon="7.329963302349498"><ele>1265.0</ele><time>2026-05-02T13:28:41.999Z</time></trkpt><trkpt lat="44.60366312417135" lon="7.32988260665985"><ele>1265.0</ele><time>2026-05-02T13:28:43.999Z</time></trkpt><trkpt lat="44.60359810369835" lon="7.32979245664571"><ele>1265.0</ele><time>2026-05-02T13:28:45.999Z</time></trkpt><trkpt lat="44.603515197664585" lon="7.329677190153926"><ele>1265.0</ele><time>2026-05-02T13:28:47.999Z</time></trkpt><trkpt lat="44.60346942306705" lon="7.3296128506144065"><ele>1272.5</ele><time>2026-05-02T13:28:48.999Z</time></trkpt><trkpt lat="44.60339244887226" lon="7.329502359379874"><ele>1280.0</ele><time>2026-05-02T13:28:50.999Z</time></trkpt><trkpt lat="44.60333272633067" lon="7.32941837509086"><ele>1287.5</ele><time>2026-05-02T13:28:52.999Z</time></trkpt><trkpt lat="44.60326890245352" lon="7.3293370891719825"><ele>1295.0</ele><time>2026-05-02T13:28:55.999Z</time></trkpt><trkpt lat="44.60306918864534" lon="7.329109516067955"><ele>1295.0</ele><time>2026-05-02T13:28:58.999Z</time></trkpt><trkpt lat="44.6029796496212" lon="7.329014175337235"><ele>1295.0</ele><time>2026-05-02T13:29:00.999Z</time></trkpt><trkpt lat="44.602889240593605" lon="7.328900578830699"><ele>1295.0</ele><time>2026-05-02T13:29:02.999Z</time></trkpt><trkpt lat="44.60285162717418" lon="7.328763908974506"><ele>1295.0</ele><time>2026-05-02T13:29:04.999Z</time></trkpt><trkpt lat="44.60288154893999" lon="7.328623723191651"><ele>1295.0</ele><time>2026-05-02T13:29:06.999Z</time></trkpt><trkpt lat="44.602887366863584" lon="7.32844365210957"><ele>1294.5</ele><time>2026-05-02T13:29:08.999Z</time></trkpt><trkpt lat="44.602890573039346" lon="7.328344417555555"><ele>1294.0</ele><time>2026-05-02T13:29:09.999Z</time></trkpt><trkpt lat="44.60289251420831" lon="7.328235547999035"><ele>1293.5</ele><time>2026-05-02T13:29:10.999Z</time></trkpt><trkpt lat="44.602891875132684" lon="7.328109190465507"><ele>1293.0</ele><time>2026-05-02T13:29:11.999Z</time></trkpt><trkpt lat="44.60288355003383" lon="7.327982840966942"><ele>1292.5</ele><time>2026-05-02T13:29:12.999Z</time></trkpt><trkpt lat="44.602868737889125" lon="7.327860359789562"><ele>1292.0</ele><time>2026-05-02T13:29:13.999Z</time></trkpt><trkpt lat="44.602844496748254" lon="7.327736535199678"><ele>1301.1666666666667</ele><time>2026-05-02T13:29:14.999Z</time></trkpt><trkpt lat="44.602817357199434" lon="7.3276232493775755"><ele>1310.3333333333335</ele><time>2026-05-02T13:29:15.999Z</time></trkpt><trkpt lat="44.60278604459392" lon="7.327510193386158"><ele>1319.5</ele><time>2026-05-02T13:29:16.999Z</time></trkpt><trkpt lat="44.60274493356634" lon="7.327428060158803"><ele>1328.6666666666667</ele><time>2026-05-02T13:29:17.999Z</time></trkpt><trkpt lat="44.6027075386958" lon="7.327329472226863"><ele>1337.8333333333333</ele><time>2026-05-02T13:29:18.999Z</time></trkpt><trkpt lat="44.60267344854131" lon="7.32723402903352"><ele>1347.0</ele><time>2026-05-02T13:29:19.999Z</time></trkpt><trkpt lat="44.602651447372686" lon="7.3271180847018"><ele>1347.3333333333333</ele><time>2026-05-02T13:29:20.999Z</time></trkpt><trkpt lat="44.602603376582785" lon="7.3270229384538945"><ele>1347.6666666666667</ele><time>2026-05-02T13:29:21.999Z</time></trkpt><trkpt lat="44.60258937352636" lon="7.326899836177162"><ele>1348.0</ele><time>2026-05-02T13:29:22.999Z</time></trkpt><trkpt lat="44.60257662979096" lon="7.326794036946946"><ele>1348.3333333333335</ele><time>2026-05-02T13:29:23.999Z</time></trkpt><trkpt lat="44.60256811767339" lon="7.326695310970952"><ele>1348.6666666666667</ele><time>2026-05-02T13:29:24.999Z</time></trkpt><trkpt lat="44.60254236518458" lon="7.326607466284664"><ele>1349.0</ele><time>2026-05-02T13:29:25.999Z</time></trkpt><trkpt lat="44.60253151521783" lon="7.326483956818065"><ele>1350.6</ele><time>2026-05-02T13:29:26.999Z</time></trkpt><trkpt lat="44.602506452255724" lon="7.3263900978752785"><ele>1352.2</ele><time>2026-05-02T13:29:27.999Z</time></trkpt><trkpt lat="44.602442610406854" lon="7.326263956400037"><ele>1353.8</ele><time>2026-05-02T13:29:29.999Z</time></trkpt><trkpt lat="44.60239153094197" lon="7.326105179446049"><ele>1355.3999999999999</ele><time>2026-05-02T13:29:31.999Z</time></trkpt><trkpt lat="44.602354123881526" lon="7.326006540457724"><ele>1357.0</ele><time>2026-05-02T13:29:32.999Z</time></trkpt><trkpt lat="44.60233402292915" lon="7.325881020740066"><ele>1357.0</ele><time>2026-05-02T13:29:33.999Z</time></trkpt><trkpt lat="44.60229751781463" lon="7.325758602754308"><ele>1357.0</ele><time>2026-05-02T13:29:34.999Z</time></trkpt><trkpt lat="44.60225822337897" lon="7.325645736810997"><ele>1357.0</ele><time>2026-05-02T13:29:35.999Z</time></trkpt><trkpt lat="44.6022225979614" lon="7.325556408753706"><ele>1357.0</ele><time>2026-05-02T13:29:36.999Z</time></trkpt><trkpt lat="44.602172572553464" lon="7.325470300810617"><ele>1357.0</ele><time>2026-05-02T13:29:38.999Z</time></trkpt><trkpt lat="44.60215014008011" lon="7.325352682788912"><ele>1357.0</ele><time>2026-05-02T13:29:48Z</time></trkpt><trkpt lat="44.60215255721199" lon="7.325246167727922"><ele>1358.0</ele><time>2026-05-02T13:29:49Z</time></trkpt><trkpt lat="44.60210068277942" lon="7.32510701840027"><ele>1359.0</ele><time>2026-05-02T13:29:51Z</time></trkpt><trkpt lat="44.60205207550648" lon="7.3249593227012335"><ele>1360.0</ele><time>2026-05-02T13:29:53Z</time></trkpt><trkpt lat="44.60199870395583" lon="7.324802568907982"><ele>1361.0</ele><time>2026-05-02T13:29:55Z</time></trkpt><trkpt lat="44.60197572851517" lon="7.324709828780356"><ele>1362.0</ele><time>2026-05-02T13:29:56Z</time></trkpt><trkpt lat="44.6019956965433" lon="7.324602598933939"><ele>1366.1666666666667</ele><time>2026-05-02T13:29:57Z</time></trkpt><trkpt lat="44.60206233137139" lon="7.3244955096193545"><ele>1370.3333333333333</ele><time>2026-05-02T13:29:58Z</time></trkpt><trkpt lat="44.60210788714794" lon="7.324382413115718"><ele>1374.5</ele><time>2026-05-02T13:29:59Z</time></trkpt><trkpt lat="44.60213282444941" lon="7.3242951191146615"><ele>1378.6666666666665</ele><time>2026-05-02T13:30:00Z</time></trkpt><trkpt lat="44.60213685424406" lon="7.32418777590418"><ele>1382.8333333333333</ele><time>2026-05-02T13:30:01Z</time></trkpt><trkpt lat="44.60213179916057" lon="7.324085553585326"><ele>1387.0</ele><time>2026-05-02T13:30:02Z</time></trkpt><trkpt lat="44.602122418469214" lon="7.323982307711988"><ele>1387.3333333333333</ele><time>2026-05-02T13:30:03Z</time></trkpt><trkpt lat="44.60214908934379" lon="7.323862258118352"><ele>1387.6666666666665</ele><time>2026-05-02T13:30:05Z</time></trkpt><trkpt lat="44.60217616361536" lon="7.323760465722176"><ele>1388.0</ele><time>2026-05-02T13:30:07Z</time></trkpt><trkpt lat="44.60220431937168" lon="7.323664828989113"><ele>1388.3333333333333</ele><time>2026-05-02T13:30:09Z</time></trkpt><trkpt lat="44.60224167189989" lon="7.32353205407374"><ele>1388.6666666666667</ele><time>2026-05-02T13:30:11Z</time></trkpt><trkpt lat="44.60226520999175" lon="7.323445494635273"><ele>1389.0</ele><time>2026-05-02T13:30:12Z</time></trkpt><trkpt lat="44.60228746436808" lon="7.323358213700543"><ele>1389.0</ele><time>2026-05-02T13:30:13Z</time></trkpt><trkpt lat="44.60231887035272" lon="7.3232288264938905"><ele>1389.0</ele><time>2026-05-02T13:30:15Z</time></trkpt><trkpt lat="44.602340666434294" lon="7.323136990904537"><ele>1389.0</ele><time>2026-05-02T13:30:16Z</time></trkpt><trkpt lat="44.60238185045396" lon="7.322972677303998"><ele>1389.0</ele><time>2026-05-02T13:30:18Z</time></trkpt><trkpt lat="44.602432909178475" lon="7.322803402291192"><ele>1389.0</ele><time>2026-05-02T13:30:20Z</time></trkpt><trkpt lat="44.602474773931796" lon="7.322660120398303"><ele>1387.2</ele><time>2026-05-02T13:30:22Z</time></trkpt><trkpt lat="44.60250336611919" lon="7.322555298108647"><ele>1385.4</ele><time>2026-05-02T13:30:24Z</time></trkpt><trkpt lat="44.60253527315983" lon="7.322438596970622"><ele>1383.6</ele><time>2026-05-02T13:30:26Z</time></trkpt><trkpt lat="44.602566065705055" lon="7.3223201646366745"><ele>1381.8</ele><time>2026-05-02T13:30:28Z</time></trkpt><trkpt lat="44.60258371664614" lon="7.32217624453264"><ele>1380.0</ele><time>2026-05-02T13:30:30Z</time></trkpt><trkpt lat="44.602604789154825" lon="7.322022096809091"><ele>1379.0</ele><time>2026-05-02T13:30:32Z</time></trkpt><trkpt lat="44.602613222462644" lon="7.321917358231465"><ele>1378.0</ele><time>2026-05-02T13:30:33Z</time></trkpt><trkpt lat="44.602621001393075" lon="7.321802992057244"><ele>1377.0</ele><time>2026-05-02T13:30:34Z</time></trkpt><trkpt lat="44.60261604623769" lon="7.321673822850647"><ele>1376.0</ele><time>2026-05-02T13:30:35Z</time></trkpt><trkpt lat="44.602635427427956" lon="7.321550946490421"><ele>1375.0</ele><time>2026-05-02T13:30:35.999Z</time></trkpt><trkpt lat="44.602651619028244" lon="7.321422545920256"><ele>1374.0</ele><time>2026-05-02T13:30:36.999Z</time></trkpt><trkpt lat="44.60267427173218" lon="7.321318009406213"><ele>1374.0</ele><time>2026-05-02T13:30:37.999Z</time></trkpt><trkpt lat="44.602709742265034" lon="7.3212176544782475"><ele>1374.0</ele><time>2026-05-02T13:30:38.999Z</time></trkpt><trkpt lat="44.60272052451014" lon="7.321115112977052"><ele>1374.0</ele><time>2026-05-02T13:30:39.999Z</time></trkpt><trkpt lat="44.60271787066964" lon="7.3210136581522605"><ele>1374.0</ele><time>2026-05-02T13:30:40.999Z</time></trkpt><trkpt lat="44.602719661190285" lon="7.32090034817339"><ele>1374.0</ele><time>2026-05-02T13:30:41.999Z</time></trkpt><trkpt lat="44.602722381481634" lon="7.3207856324278815"><ele>1374.0</ele><time>2026-05-02T13:30:42.999Z</time></trkpt><trkpt lat="44.60270214832283" lon="7.320694494593492"><ele>1374.0</ele><time>2026-05-02T13:30:43.999Z</time></trkpt><trkpt lat="44.60267815691287" lon="7.320610051097561"><ele>1374.0</ele><time>2026-05-02T13:30:45.999Z</time></trkpt><trkpt lat="44.60267438957885" lon="7.320516259338998"><ele>1374.0</ele><time>2026-05-02T13:30:47.999Z</time></trkpt><trkpt lat="44.60260802266602" lon="7.3204576935953085"><ele>1374.0</ele><time>2026-05-02T13:30:49.999Z</time></trkpt><trkpt lat="44.60254126927163" lon="7.320391930222439"><ele>1374.0</ele><time>2026-05-02T13:30:51.999Z</time></trkpt><trkpt lat="44.602450790287904" lon="7.32020270390749"><ele>1377.1666666666667</ele><time>2026-05-02T13:30:53.999Z</time></trkpt><trkpt lat="44.602384859172034" lon="7.320094935878407"><ele>1380.3333333333333</ele><time>2026-05-02T13:30:54.999Z</time></trkpt><trkpt lat="44.602341428529925" lon="7.320016582785584"><ele>1383.5</ele><time>2026-05-02T13:30:55.999Z</time></trkpt><trkpt lat="44.60229981565489" lon="7.319923703815549"><ele>1386.6666666666665</ele><time>2026-05-02T13:30:56.999Z</time></trkpt><trkpt lat="44.602255308089404" lon="7.3198057723731775"><ele>1389.8333333333333</ele><time>2026-05-02T13:30:57.999Z</time></trkpt><trkpt lat="44.602222707200255" lon="7.319677280623184"><ele>1393.0</ele><time>2026-05-02T13:30:58.999Z</time></trkpt><trkpt lat="44.60218470781251" lon="7.31953036217313"><ele>1395.8000000000002</ele><time>2026-05-02T13:30:59.999Z</time></trkpt><trkpt lat="44.60215347310527" lon="7.319396922737988"><ele>1398.6</ele><time>2026-05-02T13:31:00.999Z</time></trkpt><trkpt lat="44.60213276067096" lon="7.319279132992081"><ele>1401.4</ele><time>2026-05-02T13:31:01.999Z</time></trkpt><trkpt lat="44.60211809940588" lon="7.319151140672143"><ele>1404.1999999999998</ele><time>2026-05-02T13:31:02.999Z</time></trkpt><trkpt lat="44.60211605737105" lon="7.319006214230804"><ele>1407.0</ele><time>2026-05-02T13:31:03.999Z</time></trkpt><trkpt lat="44.602104937017096" lon="7.318880006768451"><ele>1407.6</ele><time>2026-05-02T13:31:04.999Z</time></trkpt><trkpt lat="44.6021083489041" lon="7.318741744172076"><ele>1408.1999999999998</ele><time>2026-05-02T13:31:05.999Z</time></trkpt><trkpt lat="44.60209545641864" lon="7.318599594737107"><ele>1408.8</ele><time>2026-05-02T13:31:06.999Z</time></trkpt><trkpt lat="44.60207716120792" lon="7.318466728563921"><ele>1409.4</ele><time>2026-05-02T13:31:07.999Z</time></trkpt><trkpt lat="44.602040834190824" lon="7.3183281867126055"><ele>1410.0</ele><time>2026-05-02T13:31:08.999Z</time></trkpt><trkpt lat="44.60200471861108" lon="7.3182202006374135"><ele>1406.6</ele><time>2026-05-02T13:31:09.999Z</time></trkpt><trkpt lat="44.60197186912277" lon="7.318118149984091"><ele>1403.2</ele><time>2026-05-02T13:31:10.999Z</time></trkpt><trkpt lat="44.60193759646749" lon="7.318011193054708"><ele>1399.8000000000002</ele><time>2026-05-02T13:31:11.999Z</time></trkpt><trkpt lat="44.601910981406384" lon="7.317887444548892"><ele>1396.4</ele><time>2026-05-02T13:31:12.999Z</time></trkpt><trkpt lat="44.60185903357851" lon="7.317745149645366"><ele>1393.0</ele><time>2026-05-02T13:31:13.999Z</time></trkpt><trkpt lat="44.60179780020884" lon="7.317600582829758"><ele>1393.0</ele><time>2026-05-02T13:31:14.999Z</time></trkpt><trkpt lat="44.60173960415973" lon="7.317485374478948"><ele>1393.0</ele><time>2026-05-02T13:31:15.999Z</time></trkpt><trkpt lat="44.6016850574497" lon="7.317384563185255"><ele>1393.0</ele><time>2026-05-02T13:31:16.999Z</time></trkpt><trkpt lat="44.60163388021413" lon="7.317295661258388"><ele>1393.0</ele><time>2026-05-02T13:31:17.999Z</time></trkpt><trkpt lat="44.601585407230665" lon="7.317219444147099"><ele>1393.0</ele><time>2026-05-02T13:31:18.999Z</time></trkpt><trkpt lat="44.60153119827844" lon="7.317148428116873"><ele>1393.0</ele><time>2026-05-02T13:31:19.999Z</time></trkpt><trkpt lat="44.6014833589374" lon="7.317090046827727"><ele>1392.5</ele><time>2026-05-02T13:31:20.999Z</time></trkpt><trkpt lat="44.601421760652805" lon="7.317051914641107"><ele>1392.0</ele><time>2026-05-02T13:31:21.999Z</time></trkpt><trkpt lat="44.60133011202569" lon="7.316973231708175"><ele>1391.5</ele><time>2026-05-02T13:31:23.999Z</time></trkpt><trkpt lat="44.6013135072501" lon="7.31688613472891"><ele>1391.0</ele><time>2026-05-02T13:31:25.999Z</time></trkpt><trkpt lat="44.60125581481104" lon="7.316828046348739"><ele>1390.5</ele><time>2026-05-02T13:31:29.999Z</time></trkpt><trkpt lat="44.60115564905105" lon="7.316818531620084"><ele>1390.0</ele><time>2026-05-02T13:31:33.999Z</time></trkpt><trkpt lat="44.60109540269269" lon="7.31678474948455"><ele>1391.2</ele><time>2026-05-02T13:31:34.999Z</time></trkpt><trkpt lat="44.601035220535316" lon="7.316628761248615"><ele>1392.4</ele><time>2026-05-02T13:31:36.999Z</time></trkpt><trkpt lat="44.60105298021279" lon="7.316531373570074"><ele>1393.6</ele><time>2026-05-02T13:31:37.999Z</time></trkpt><trkpt lat="44.601070897088725" lon="7.316427967034625"><ele>1394.8</ele><time>2026-05-02T13:31:38.999Z</time></trkpt><trkpt lat="44.60102748349646" lon="7.316255429760256"><ele>1396.0</ele><time>2026-05-02T13:31:40.999Z</time></trkpt><trkpt lat="44.60097233991213" lon="7.316174831508788"><ele>1396.0</ele><time>2026-05-02T13:31:41.999Z</time></trkpt><trkpt lat="44.60091794247904" lon="7.316097081189018"><ele>1396.0</ele><time>2026-05-02T13:31:42.999Z</time></trkpt><trkpt lat="44.600877952286325" lon="7.31600758033521"><ele>1396.0</ele><time>2026-05-02T13:31:43.999Z</time></trkpt><trkpt lat="44.60082422114994" lon="7.315931519309581"><ele>1396.0</ele><time>2026-05-02T13:31:44.999Z</time></trkpt><trkpt lat="44.60077099502901" lon="7.315860026845358"><ele>1396.0</ele><time>2026-05-02T13:31:45.999Z</time></trkpt><trkpt lat="44.600711871927196" lon="7.315785507718661"><ele>1396.0</ele><time>2026-05-02T13:31:46.999Z</time></trkpt><trkpt lat="44.60064287503695" lon="7.315708383049676"><ele>1396.0</ele><time>2026-05-02T13:31:47.999Z</time></trkpt><trkpt lat="44.600572780062215" lon="7.315638487329386"><ele>1396.0</ele><time>2026-05-02T13:31:48.999Z</time></trkpt><trkpt lat="44.600505178651304" lon="7.315570754007033"><ele>1396.0</ele><time>2026-05-02T13:31:49.999Z</time></trkpt><trkpt lat="44.60044521464528" lon="7.315510335417719"><ele>1396.0</ele><time>2026-05-02T13:31:50.999Z</time></trkpt><trkpt lat="44.60037528392485" lon="7.3154361647703725"><ele>1396.0</ele><time>2026-05-02T13:31:51.999Z</time></trkpt><trkpt lat="44.60031292827946" lon="7.315353534846678"><ele>1396.0</ele><time>2026-05-02T13:31:52.999Z</time></trkpt><trkpt lat="44.600255787056994" lon="7.315264663554944"><ele>1397.4</ele><time>2026-05-02T13:31:54Z</time></trkpt><trkpt lat="44.60018930074414" lon="7.315147116515874"><ele>1398.8</ele><time>2026-05-02T13:31:55Z</time></trkpt><trkpt lat="44.600126739283375" lon="7.315015134650022"><ele>1400.2</ele><time>2026-05-02T13:31:56Z</time></trkpt><trkpt lat="44.600073353000425" lon="7.314879892762283"><ele>1401.6000000000001</ele><time>2026-05-02T13:31:57Z</time></trkpt><trkpt lat="44.60002169485763" lon="7.314745961991617"><ele>1403.0</ele><time>2026-05-02T13:31:58Z</time></trkpt><trkpt lat="44.599975969729265" lon="7.31462307792979"><ele>1403.0</ele><time>2026-05-02T13:31:59Z</time></trkpt><trkpt lat="44.599936593679686" lon="7.314517069269734"><ele>1403.0</ele><time>2026-05-02T13:32:00Z</time></trkpt><trkpt lat="44.59989498400464" lon="7.314417905313186"><ele>1403.0</ele><time>2026-05-02T13:32:01Z</time></trkpt><trkpt lat="44.599849980076684" lon="7.314326318381484"><ele>1403.0</ele><time>2026-05-02T13:32:02Z</time></trkpt><trkpt lat="44.5998232871271" lon="7.314130236811037"><ele>1403.0</ele><time>2026-05-02T13:32:04Z</time></trkpt><trkpt lat="44.59979985875851" lon="7.314005660353143"><ele>1404.6666666666667</ele><time>2026-05-02T13:32:05Z</time></trkpt><trkpt lat="44.59975781496517" lon="7.3139026100864735"><ele>1406.3333333333335</ele><time>2026-05-02T13:32:06Z</time></trkpt><trkpt lat="44.59971215348364" lon="7.313794346119683"><ele>1408.0</ele><time>2026-05-02T13:32:07Z</time></trkpt><trkpt lat="44.599659623783424" lon="7.313702180942722"><ele>1409.6666666666667</ele><time>2026-05-02T13:32:08Z</time></trkpt><trkpt lat="44.599603755932186" lon="7.313610658201741"><ele>1411.3333333333333</ele><time>2026-05-02T13:32:09Z</time></trkpt><trkpt lat="44.599559383212245" lon="7.313507977312891"><ele>1413.0</ele><time>2026-05-02T13:32:10Z</time></trkpt><trkpt lat="44.59950081679106" lon="7.313406904632523"><ele>1413.8333333333333</ele><time>2026-05-02T13:32:11Z</time></trkpt><trkpt lat="44.59943750589735" lon="7.313317585688495"><ele>1414.6666666666667</ele><time>2026-05-02T13:32:12Z</time></trkpt><trkpt lat="44.599376357979544" lon="7.31324459152217"><ele>1415.5</ele><time>2026-05-02T13:32:13Z</time></trkpt><trkpt lat="44.59931573777496" lon="7.313184442892891"><ele>1416.3333333333335</ele><time>2026-05-02T13:32:14Z</time></trkpt><trkpt lat="44.59926181353485" lon="7.3131368012851"><ele>1417.1666666666667</ele><time>2026-05-02T13:32:15Z</time></trkpt><trkpt lat="44.59915936171732" lon="7.313065351783459"><ele>1418.0</ele><time>2026-05-02T13:32:17Z</time></trkpt><trkpt lat="44.59907771733264" lon="7.313024255717287"><ele>1422.8000000000002</ele><time>2026-05-02T13:32:19Z</time></trkpt><trkpt lat="44.598993913001735" lon="7.313030930501948"><ele>1427.6</ele><time>2026-05-02T13:32:21Z</time></trkpt><trkpt lat="44.59891042834037" lon="7.313003300886921"><ele>1432.4</ele><time>2026-05-02T13:32:23Z</time></trkpt><trkpt lat="44.598800403182345" lon="7.312960972239332"><ele>1437.1999999999998</ele><time>2026-05-02T13:32:25Z</time></trkpt><trkpt lat="44.59870067146162" lon="7.312968826680118"><ele>1442.0</ele><time>2026-05-02T13:32:27Z</time></trkpt><trkpt lat="44.598604880334484" lon="7.312953643764174"><ele>1442.0</ele><time>2026-05-02T13:32:29Z</time></trkpt><trkpt lat="44.598507763847586" lon="7.312948843666948"><ele>1442.0</ele><time>2026-05-02T13:32:31Z</time></trkpt><trkpt lat="44.598407968695874" lon="7.312944153096699"><ele>1442.0</ele><time>2026-05-02T13:32:33Z</time></trkpt><trkpt lat="44.5983049278269" lon="7.312945748299161"><ele>1442.0</ele><time>2026-05-02T13:32:35Z</time></trkpt><trkpt lat="44.598229527098496" lon="7.312954705171934"><ele>1442.0</ele><time>2026-05-02T13:32:36.999Z</time></trkpt><trkpt lat="44.598154043219004" lon="7.31294045547323"><ele>1442.0</ele><time>2026-05-02T13:32:38.999Z</time></trkpt><trkpt lat="44.598073789253874" lon="7.312918401227625"><ele>1442.0</ele><time>2026-05-02T13:32:40.999Z</time></trkpt><trkpt lat="44.597979989355814" lon="7.312866564360974"><ele>1442.0</ele><time>2026-05-02T13:32:42.999Z</time></trkpt><trkpt lat="44.59786539435674" lon="7.312844310637412"><ele>1442.0</ele><time>2026-05-02T13:32:44.999Z</time></trkpt><trkpt lat="44.59777186233457" lon="7.312848364084411"><ele>1442.0</ele><time>2026-05-02T13:32:46.999Z</time></trkpt><trkpt lat="44.59771210050423" lon="7.312820495873364"><ele>1437.3333333333335</ele><time>2026-05-02T13:32:49.999Z</time></trkpt><trkpt lat="44.597643622568185" lon="7.31281631903244"><ele>1432.6666666666667</ele><time>2026-05-02T13:32:51.999Z</time></trkpt><trkpt lat="44.59758030034876" lon="7.312762929079853"><ele>1428.0</ele><time>2026-05-02T13:32:53.999Z</time></trkpt><trkpt lat="44.597518469421786" lon="7.312725608628955"><ele>1423.3333333333333</ele><time>2026-05-02T13:32:55.999Z</time></trkpt><trkpt lat="44.59744101593829" lon="7.312692615428552"><ele>1418.6666666666665</ele><time>2026-05-02T13:32:57.999Z</time></trkpt><trkpt lat="44.59734616367136" lon="7.31269055875847"><ele>1414.0</ele><time>2026-05-02T13:32:59.999Z</time></trkpt><trkpt lat="44.597225264692085" lon="7.312671504687382"><ele>1414.0</ele><time>2026-05-02T13:33:01.999Z</time></trkpt><trkpt lat="44.597118229662094" lon="7.312662729177232"><ele>1414.0</ele><time>2026-05-02T13:33:03.999Z</time></trkpt><trkpt lat="44.59705682783447" lon="7.312596068973645"><ele>1414.0</ele><time>2026-05-02T13:33:05.999Z</time></trkpt><trkpt lat="44.59702447001244" lon="7.312489999674219"><ele>1414.0</ele><time>2026-05-02T13:33:07.999Z</time></trkpt><trkpt lat="44.59701467028624" lon="7.312398356665003"><ele>1414.0</ele><time>2026-05-02T13:33:08.999Z</time></trkpt><trkpt lat="44.59700715350562" lon="7.312234628699432"><ele>1409.5714285714287</ele><time>2026-05-02T13:33:10.999Z</time></trkpt><trkpt lat="44.59699602765203" lon="7.312133424763911"><ele>1405.142857142857</ele><time>2026-05-02T13:33:12.999Z</time></trkpt><trkpt lat="44.596940607995165" lon="7.312088412855705"><ele>1400.7142857142858</ele><time>2026-05-02T13:33:14.999Z</time></trkpt><trkpt lat="44.59688150255313" lon="7.312130875943579"><ele>1396.2857142857142</ele><time>2026-05-02T13:33:17.999Z</time></trkpt><trkpt lat="44.596823280237516" lon="7.312191254028297"><ele>1391.857142857143</ele><time>2026-05-02T13:33:21.999Z</time></trkpt><trkpt lat="44.596769791817565" lon="7.312242189430172"><ele>1387.4285714285716</ele><time>2026-05-02T13:33:24.999Z</time></trkpt><trkpt lat="44.59671528278684" lon="7.312315656551246"><ele>1383.0</ele><time>2026-05-02T13:33:27.999Z</time></trkpt><trkpt lat="44.59664625016451" lon="7.312414161226622"><ele>1383.0</ele><time>2026-05-02T13:33:29.999Z</time></trkpt><trkpt lat="44.59659839616959" lon="7.312477903708023"><ele>1383.0</ele><time>2026-05-02T13:33:32.999Z</time></trkpt><trkpt lat="44.59655563407813" lon="7.312547757199178"><ele>1383.0</ele><time>2026-05-02T13:33:35.999Z</time></trkpt><trkpt lat="44.59647088434736" lon="7.312665091495783"><ele>1383.0</ele><time>2026-05-02T13:34:59.999Z</time></trkpt><trkpt lat="44.59652080144537" lon="7.312589766959128"><ele>1383.0</ele><time>2026-05-02T13:35:08.999Z</time></trkpt><trkpt lat="44.596564605834814" lon="7.3125052643418496"><ele>1383.0</ele><time>2026-05-02T13:35:10.999Z</time></trkpt><trkpt lat="44.59660240075193" lon="7.312426511519855"><ele>1383.0</ele><time>2026-05-02T13:35:12.999Z</time></trkpt><trkpt lat="44.59664003894774" lon="7.312347774731952"><ele>1383.0</ele><time>2026-05-02T13:35:14.999Z</time></trkpt><trkpt lat="44.59671132517414" lon="7.31225381976097"><ele>1383.0</ele><time>2026-05-02T13:35:16.999Z</time></trkpt><trkpt lat="44.59676801742554" lon="7.312180816569684"><ele>1383.0</ele><time>2026-05-02T13:35:18.999Z</time></trkpt><trkpt lat="44.596828678454976" lon="7.312094541389892"><ele>1383.0</ele><time>2026-05-02T13:35:20.999Z</time></trkpt><trkpt lat="44.596881616715585" lon="7.312008071103185"><ele>1383.0</ele><time>2026-05-02T13:35:22.999Z</time></trkpt><trkpt lat="44.59693385859514" lon="7.31207032737632"><ele>1383.0</ele><time>2026-05-02T13:35:24.999Z</time></trkpt><trkpt lat="44.59693786654737" lon="7.312231423652149"><ele>1383.0</ele><time>2026-05-02T13:35:26.999Z</time></trkpt><trkpt lat="44.59693883282387" lon="7.3123258554375115"><ele>1383.0</ele><time>2026-05-02T13:35:27.999Z</time></trkpt><trkpt lat="44.59694498738184" lon="7.3124226310945435"><ele>1383.0</ele><time>2026-05-02T13:35:28.999Z</time></trkpt><trkpt lat="44.59697818265827" lon="7.312519944122385"><ele>1383.0</ele><time>2026-05-02T13:35:29.999Z</time></trkpt><trkpt lat="44.59700900298741" lon="7.312636378037704"><ele>1383.0</ele><time>2026-05-02T13:35:31.999Z</time></trkpt><trkpt lat="44.59709737789295" lon="7.312713819618044"><ele>1388.1666666666667</ele><time>2026-05-02T13:35:33.999Z</time></trkpt><trkpt lat="44.597179610511304" lon="7.312766243723708"><ele>1393.3333333333333</ele><time>2026-05-02T13:35:35.999Z</time></trkpt><trkpt lat="44.597295491136144" lon="7.31276399001091"><ele>1398.5</ele><time>2026-05-02T13:35:37.999Z</time></trkpt><trkpt lat="44.59737557205362" lon="7.3127423595796905"><ele>1403.6666666666665</ele><time>2026-05-02T13:35:38.999Z</time></trkpt><trkpt lat="44.597440968600615" lon="7.3127232911248505"><ele>1408.8333333333333</ele><time>2026-05-02T13:35:39.999Z</time></trkpt><trkpt lat="44.597508847043315" lon="7.312723272451283"><ele>1414.0</ele><time>2026-05-02T13:35:40.999Z</time></trkpt><trkpt lat="44.59757197922341" lon="7.3127285173917596"><ele>1414.0</ele><time>2026-05-02T13:35:41.999Z</time></trkpt><trkpt lat="44.59766402308725" lon="7.3127969258634025"><ele>1414.0</ele><time>2026-05-02T13:35:43.999Z</time></trkpt><trkpt lat="44.5977286787962" lon="7.312835239648014"><ele>1414.0</ele><time>2026-05-02T13:35:46.999Z</time></trkpt><trkpt lat="44.59783779531416" lon="7.312923418180808"><ele>1414.0</ele><time>2026-05-02T13:35:48.999Z</time></trkpt><trkpt lat="44.59791134075935" lon="7.312942596036219"><ele>1414.0</ele><time>2026-05-02T13:35:49.999Z</time></trkpt><trkpt lat="44.59800021538048" lon="7.312975709250151"><ele>1418.6666666666665</ele><time>2026-05-02T13:35:50.999Z</time></trkpt><trkpt lat="44.598077098321774" lon="7.313045099787817"><ele>1423.3333333333333</ele><time>2026-05-02T13:35:52.999Z</time></trkpt><trkpt lat="44.59814133212828" lon="7.313042781942224"><ele>1428.0</ele><time>2026-05-02T13:35:54.999Z</time></trkpt><trkpt lat="44.598218776296385" lon="7.313028898980029"><ele>1432.6666666666667</ele><time>2026-05-02T13:35:56.999Z</time></trkpt><trkpt lat="44.598285636275776" lon="7.3129966048935495"><ele>1437.3333333333335</ele><time>2026-05-02T13:35:58.999Z</time></trkpt><trkpt lat="44.59839248207207" lon="7.312968678047052"><ele>1442.0</ele><time>2026-05-02T13:36:00.999Z</time></trkpt><trkpt lat="44.598490390857044" lon="7.312997233742187"><ele>1442.0</ele><time>2026-05-02T13:36:02.999Z</time></trkpt><trkpt lat="44.59858750547725" lon="7.312982578823832"><ele>1442.0</ele><time>2026-05-02T13:36:05Z</time></trkpt><trkpt lat="44.5987076508249" lon="7.312972786045333"><ele>1442.0</ele><time>2026-05-02T13:36:07Z</time></trkpt><trkpt lat="44.59878151867626" lon="7.3129844022536235"><ele>1442.0</ele><time>2026-05-02T13:36:08Z</time></trkpt><trkpt lat="44.598847248199675" lon="7.3130555260816905"><ele>1442.0</ele><time>2026-05-02T13:36:09Z</time></trkpt><trkpt lat="44.59892532530963" lon="7.313060459373759"><ele>1445.1999999999998</ele><time>2026-05-02T13:36:10Z</time></trkpt><trkpt lat="44.5990011510954" lon="7.31305048034636"><ele>1448.4</ele><time>2026-05-02T13:36:11Z</time></trkpt><trkpt lat="44.59906519207095" lon="7.313078229754295"><ele>1451.6</ele><time>2026-05-02T13:36:12Z</time></trkpt><trkpt lat="44.599187732093824" lon="7.313117400495854"><ele>1454.8000000000002</ele><time>2026-05-02T13:36:14Z</time></trkpt><trkpt lat="44.599245244357796" lon="7.313183969346852"><ele>1458.0</ele><time>2026-05-02T13:36:15Z</time></trkpt><trkpt lat="44.5993490154353" lon="7.313247664145636"><ele>1450.0</ele><time>2026-05-02T13:36:17Z</time></trkpt><trkpt lat="44.59943318015437" lon="7.313348163274696"><ele>1442.0</ele><time>2026-05-02T13:36:19Z</time></trkpt><trkpt lat="44.599507503750935" lon="7.313476846177054"><ele>1434.0</ele><time>2026-05-02T13:36:21Z</time></trkpt><trkpt lat="44.59957245333071" lon="7.313591683937284"><ele>1426.0</ele><time>2026-05-02T13:36:23Z</time></trkpt><trkpt lat="44.599622978758546" lon="7.31371351845404"><ele>1418.0</ele><time>2026-05-02T13:36:25Z</time></trkpt><trkpt lat="44.59967099605555" lon="7.313810382276547"><ele>1418.0000000000002</ele><time>2026-05-02T13:36:27Z</time></trkpt><trkpt lat="44.599667505305995" lon="7.313705282261358"><ele>1418.0</ele><time>2026-05-02T13:36:48.999Z</time></trkpt><trkpt lat="44.59965038502792" lon="7.313614215116017"><ele>1418.0</ele><time>2026-05-02T13:36:50.999Z</time></trkpt><trkpt lat="44.59959896233856" lon="7.313533473528048"><ele>1418.0</ele><time>2026-05-02T13:36:56.999Z</time></trkpt><trkpt lat="44.599547634367475" lon="7.313481749570135"><ele>1418.0</ele><time>2026-05-02T13:37:04.999Z</time></trkpt><trkpt lat="44.59949658907571" lon="7.31340745591"><ele>1418.0000000000002</ele><time>2026-05-02T13:37:07.999Z</time></trkpt><trkpt lat="44.59954036810359" lon="7.313473697255367"><ele>1418.0</ele><time>2026-05-02T13:40:06.999Z</time></trkpt><trkpt lat="44.599602143749046" lon="7.313498338885726"><ele>1417.0</ele><time>2026-05-02T13:41:58Z</time></trkpt><trkpt lat="44.5996527393602" lon="7.313579617454402"><ele>1416.0</ele><time>2026-05-02T13:42:03Z</time></trkpt><trkpt lat="44.59967577265092" lon="7.313712075992693"><ele>1415.0</ele><time>2026-05-02T13:42:05Z</time></trkpt><trkpt lat="44.59969127500834" lon="7.313812554392506"><ele>1414.0</ele><time>2026-05-02T13:42:08Z</time></trkpt><trkpt lat="44.59974409378604" lon="7.313913436959057"><ele>1413.0</ele><time>2026-05-02T13:45:36Z</time></trkpt><trkpt lat="44.599814626427126" lon="7.314050578550329"><ele>1412.4</ele><time>2026-05-02T13:45:38Z</time></trkpt><trkpt lat="44.599822048352806" lon="7.314180142105129"><ele>1411.8000000000002</ele><time>2026-05-02T13:45:39Z</time></trkpt><trkpt lat="44.59982394699602" lon="7.314313075042793"><ele>1411.2</ele><time>2026-05-02T13:45:40Z</time></trkpt><trkpt lat="44.59987862456033" lon="7.314447800249702"><ele>1410.6</ele><time>2026-05-02T13:45:41Z</time></trkpt><trkpt lat="44.59993380138037" lon="7.314610560584133"><ele>1410.0</ele><time>2026-05-02T13:45:42Z</time></trkpt><trkpt lat="44.59999131034124" lon="7.314765265701766"><ele>1410.0</ele><time>2026-05-02T13:45:43Z</time></trkpt><trkpt lat="44.60006874553905" lon="7.314917487645932"><ele>1410.0</ele><time>2026-05-02T13:45:44Z</time></trkpt><trkpt lat="44.60012158118768" lon="7.315063638290182"><ele>1410.0</ele><time>2026-05-02T13:45:45Z</time></trkpt><trkpt lat="44.6001806873668" lon="7.31519231047833"><ele>1410.0</ele><time>2026-05-02T13:45:46Z</time></trkpt><trkpt lat="44.60024080632787" lon="7.315317401239043"><ele>1410.0</ele><time>2026-05-02T13:45:47Z</time></trkpt><trkpt lat="44.60030416607273" lon="7.315419210687365"><ele>1410.0</ele><time>2026-05-02T13:45:48Z</time></trkpt><trkpt lat="44.600372035421536" lon="7.315503367758198"><ele>1410.0</ele><time>2026-05-02T13:45:49Z</time></trkpt><trkpt lat="44.60043041409152" lon="7.315566390129323"><ele>1410.0</ele><time>2026-05-02T13:45:50Z</time></trkpt><trkpt lat="44.60048830965881" lon="7.315625670420333"><ele>1410.0</ele><time>2026-05-02T13:45:51Z</time></trkpt><trkpt lat="44.60059618425318" lon="7.3157117294166865"><ele>1407.2</ele><time>2026-05-02T13:45:53Z</time></trkpt><trkpt lat="44.60068262902343" lon="7.3158129865375"><ele>1404.4</ele><time>2026-05-02T13:45:55Z</time></trkpt><trkpt lat="44.60077145541597" lon="7.315916079430855"><ele>1401.6</ele><time>2026-05-02T13:45:57Z</time></trkpt><trkpt lat="44.60084582113324" lon="7.3160165932386905"><ele>1398.8</ele><time>2026-05-02T13:45:59Z</time></trkpt><trkpt lat="44.60090092223252" lon="7.316119104673168"><ele>1396.0</ele><time>2026-05-02T13:46:01Z</time></trkpt><trkpt lat="44.60095698009625" lon="7.316219124114871"><ele>1396.0</ele><time>2026-05-02T13:46:03Z</time></trkpt><trkpt lat="44.601005066080816" lon="7.316330798912478"><ele>1396.0</ele><time>2026-05-02T13:46:05Z</time></trkpt><trkpt lat="44.60103140109655" lon="7.316442986468615"><ele>1396.0</ele><time>2026-05-02T13:46:07Z</time></trkpt><trkpt lat="44.60106701102706" lon="7.316561077614873"><ele>1396.0</ele><time>2026-05-02T13:46:09Z</time></trkpt><trkpt lat="44.6010647784789" lon="7.316703528196796"><ele>1396.0</ele><time>2026-05-02T13:46:11Z</time></trkpt><trkpt lat="44.601123815108515" lon="7.316788715745265"><ele>1395.0</ele><time>2026-05-02T13:46:13Z</time></trkpt><trkpt lat="44.601198423777696" lon="7.316808616953862"><ele>1394.0</ele><time>2026-05-02T13:46:14Z</time></trkpt><trkpt lat="44.601290199933935" lon="7.31684727774492"><ele>1393.0</ele><time>2026-05-02T13:46:15Z</time></trkpt><trkpt lat="44.6013527963956" lon="7.316923992116295"><ele>1392.0</ele><time>2026-05-02T13:46:16Z</time></trkpt><trkpt lat="44.60139216182611" lon="7.317025515643086"><ele>1391.0</ele><time>2026-05-02T13:46:17Z</time></trkpt><trkpt lat="44.60143695253868" lon="7.3171042458835"><ele>1390.0</ele><time>2026-05-02T13:46:18Z</time></trkpt><trkpt lat="44.60148644673623" lon="7.3171729511613375"><ele>1390.75</ele><time>2026-05-02T13:46:19Z</time></trkpt><trkpt lat="44.60155929915769" lon="7.317259780853916"><ele>1391.5</ele><time>2026-05-02T13:46:20Z</time></trkpt><trkpt lat="44.60163813231463" lon="7.317402989688256"><ele>1392.25</ele><time>2026-05-02T13:46:21Z</time></trkpt><trkpt lat="44.60172621688445" lon="7.31755918010697"><ele>1393.0</ele><time>2026-05-02T13:46:22Z</time></trkpt><trkpt lat="44.60180796936614" lon="7.317747766803415"><ele>1393.0</ele><time>2026-05-02T13:46:23Z</time></trkpt><trkpt lat="44.60188584331491" lon="7.3179086881495135"><ele>1393.0</ele><time>2026-05-02T13:46:24Z</time></trkpt><trkpt lat="44.60192523870306" lon="7.318037294367271"><ele>1393.0</ele><time>2026-05-02T13:46:25Z</time></trkpt><trkpt lat="44.601954160711344" lon="7.318137479617895"><ele>1393.0</ele><time>2026-05-02T13:46:26Z</time></trkpt><trkpt lat="44.60199012277498" lon="7.318210183880297"><ele>1393.0</ele><time>2026-05-02T13:46:27Z</time></trkpt><trkpt lat="44.6019994797704" lon="7.318297979349427"><ele>1393.0</ele><time>2026-05-02T13:46:28Z</time></trkpt><trkpt lat="44.602024954204126" lon="7.318393935230335"><ele>1395.3333333333333</ele><time>2026-05-02T13:46:29Z</time></trkpt><trkpt lat="44.60204995534367" lon="7.318501331388392"><ele>1397.6666666666665</ele><time>2026-05-02T13:46:30Z</time></trkpt><trkpt lat="44.60206742722069" lon="7.318596441778827"><ele>1400.0</ele><time>2026-05-02T13:46:31Z</time></trkpt><trkpt lat="44.60208161139177" lon="7.318723319302978"><ele>1402.3333333333333</ele><time>2026-05-02T13:46:32Z</time></trkpt><trkpt lat="44.60208510378425" lon="7.318821049046572"><ele>1404.6666666666667</ele><time>2026-05-02T13:46:33Z</time></trkpt><trkpt lat="44.602084085562105" lon="7.3189168038041"><ele>1407.0</ele><time>2026-05-02T13:46:34Z</time></trkpt><trkpt lat="44.60208245552913" lon="7.319079863523075"><ele>1407.0</ele><time>2026-05-02T13:46:36Z</time></trkpt><trkpt lat="44.6020862784668" lon="7.319175756383686"><ele>1407.0</ele><time>2026-05-02T13:46:37Z</time></trkpt><trkpt lat="44.60209902458596" lon="7.319281482368826"><ele>1407.0</ele><time>2026-05-02T13:46:38Z</time></trkpt><trkpt lat="44.60211354157029" lon="7.319372317519988"><ele>1407.0</ele><time>2026-05-02T13:46:39Z</time></trkpt><trkpt lat="44.602135943776524" lon="7.319476311329365"><ele>1407.0</ele><time>2026-05-02T13:46:40Z</time></trkpt><trkpt lat="44.60216085904258" lon="7.319576222122463"><ele>1407.0</ele><time>2026-05-02T13:46:41Z</time></trkpt><trkpt lat="44.60218601537641" lon="7.319672508388047"><ele>1407.0</ele><time>2026-05-02T13:46:42Z</time></trkpt><trkpt lat="44.60220975801164" lon="7.3197633836426945"><ele>1404.6666666666667</ele><time>2026-05-02T13:46:43Z</time></trkpt><trkpt lat="44.60223824764668" lon="7.319857283525436"><ele>1402.3333333333333</ele><time>2026-05-02T13:46:44Z</time></trkpt><trkpt lat="44.60226736024179" lon="7.31993853698974"><ele>1400.0</ele><time>2026-05-02T13:46:45Z</time></trkpt><trkpt lat="44.60233696729004" lon="7.320086039476291"><ele>1397.6666666666665</ele><time>2026-05-02T13:46:47Z</time></trkpt><trkpt lat="44.602384230981556" lon="7.320166346067024"><ele>1395.3333333333333</ele><time>2026-05-02T13:46:48Z</time></trkpt><trkpt lat="44.60243528506404" lon="7.320248807827566"><ele>1393.0</ele><time>2026-05-02T13:46:49Z</time></trkpt><trkpt lat="44.60247794445819" lon="7.320317381267907"><ele>1393.0</ele><time>2026-05-02T13:46:50Z</time></trkpt><trkpt lat="44.60256775323382" lon="7.3204663452504075"><ele>1393.0</ele><time>2026-05-02T13:46:52Z</time></trkpt><trkpt lat="44.602618824193605" lon="7.320547630555082"><ele>1393.0</ele><time>2026-05-02T13:46:54Z</time></trkpt><trkpt lat="44.602667289144584" lon="7.320702788929938"><ele>1393.0</ele><time>2026-05-02T13:46:56Z</time></trkpt><trkpt lat="44.60268577283922" lon="7.320879283795662"><ele>1389.8333333333333</ele><time>2026-05-02T13:46:58Z</time></trkpt><trkpt lat="44.60267835550481" lon="7.3210597512363735"><ele>1386.6666666666665</ele><time>2026-05-02T13:47:00Z</time></trkpt><trkpt lat="44.60265711814587" lon="7.321154803070382"><ele>1383.5</ele><time>2026-05-02T13:47:01Z</time></trkpt><trkpt lat="44.60264415070635" lon="7.321263929106136"><ele>1380.3333333333333</ele><time>2026-05-02T13:47:02Z</time></trkpt><trkpt lat="44.60263090585496" lon="7.321380317005753"><ele>1377.1666666666667</ele><time>2026-05-02T13:47:03Z</time></trkpt><trkpt lat="44.60261852339646" lon="7.321492596275085"><ele>1374.0</ele><time>2026-05-02T13:47:04Z</time></trkpt><trkpt lat="44.60260144221776" lon="7.321647481511351"><ele>1373.0</ele><time>2026-05-02T13:47:05Z</time></trkpt><trkpt lat="44.602586471043146" lon="7.321830233246488"><ele>1372.0</ele><time>2026-05-02T13:47:06Z</time></trkpt><trkpt lat="44.60258010119434" lon="7.321977258237249"><ele>1371.0</ele><time>2026-05-02T13:47:07Z</time></trkpt><trkpt lat="44.60256981853125" lon="7.322105976217655"><ele>1370.0</ele><time>2026-05-02T13:47:08Z</time></trkpt><trkpt lat="44.602547922219934" lon="7.3222427365758245"><ele>1369.0</ele><time>2026-05-02T13:47:09Z</time></trkpt><trkpt lat="44.60250816218977" lon="7.322406620990238"><ele>1371.75</ele><time>2026-05-02T13:47:10Z</time></trkpt><trkpt lat="44.60246418877457" lon="7.322568293660239"><ele>1374.5</ele><time>2026-05-02T13:47:11Z</time></trkpt><trkpt lat="44.6024188482861" lon="7.322728357735218"><ele>1377.25</ele><time>2026-05-02T13:47:12Z</time></trkpt><trkpt lat="44.60236975000753" lon="7.322895667342836"><ele>1380.0</ele><time>2026-05-02T13:47:13Z</time></trkpt><trkpt lat="44.602327629243746" lon="7.323045257074704"><ele>1381.8</ele><time>2026-05-02T13:47:14Z</time></trkpt><trkpt lat="44.60230084317675" lon="7.323191944397047"><ele>1383.6</ele><time>2026-05-02T13:47:15Z</time></trkpt><trkpt lat="44.6022515887398" lon="7.323343117187411"><ele>1385.4</ele><time>2026-05-02T13:47:16Z</time></trkpt><trkpt lat="44.602209866842614" lon="7.323482291435621"><ele>1387.2</ele><time>2026-05-02T13:47:17Z</time></trkpt><trkpt lat="44.60217978635096" lon="7.323635433313302"><ele>1389.0</ele><time>2026-05-02T13:47:18Z</time></trkpt><trkpt lat="44.60215108134981" lon="7.3237652685711865"><ele>1389.0</ele><time>2026-05-02T13:47:19Z</time></trkpt><trkpt lat="44.602116923744674" lon="7.323876942317473"><ele>1389.0</ele><time>2026-05-02T13:47:20Z</time></trkpt><trkpt lat="44.60208340889491" lon="7.32408120349423"><ele>1389.0</ele><time>2026-05-02T13:47:22Z</time></trkpt><trkpt lat="44.60209349441951" lon="7.324222249379458"><ele>1389.0</ele><time>2026-05-02T13:47:23Z</time></trkpt><trkpt lat="44.60208020326457" lon="7.324316382833731"><ele>1389.0</ele><time>2026-05-02T13:47:24Z</time></trkpt><trkpt lat="44.60203738311978" lon="7.324444495751612"><ele>1386.3333333333333</ele><time>2026-05-02T13:47:26Z</time></trkpt><trkpt lat="44.60198945895185" lon="7.324530445371465"><ele>1383.6666666666667</ele><time>2026-05-02T13:47:27Z</time></trkpt><trkpt lat="44.60193624442085" lon="7.324630100249484"><ele>1381.0</ele><time>2026-05-02T13:47:28Z</time></trkpt><trkpt lat="44.601916614506116" lon="7.324732713578351"><ele>1378.3333333333335</ele><time>2026-05-02T13:47:29Z</time></trkpt><trkpt lat="44.60192191492199" lon="7.32483089369023"><ele>1375.6666666666667</ele><time>2026-05-02T13:47:30Z</time></trkpt><trkpt lat="44.601982568126814" lon="7.324920803510205"><ele>1373.0</ele><time>2026-05-02T13:47:31Z</time></trkpt><trkpt lat="44.6020327592577" lon="7.325043936418336"><ele>1373.0</ele><time>2026-05-02T13:47:33Z</time></trkpt><trkpt lat="44.602071108856315" lon="7.325162274447222"><ele>1373.0</ele><time>2026-05-02T13:47:35Z</time></trkpt><trkpt lat="44.60210172110964" lon="7.32529052306256"><ele>1373.0</ele><time>2026-05-02T13:47:37Z</time></trkpt><trkpt lat="44.60211923683428" lon="7.325419499094796"><ele>1373.0</ele><time>2026-05-02T13:47:39Z</time></trkpt><trkpt lat="44.60212027916823" lon="7.3255777141813345"><ele>1373.0</ele><time>2026-05-02T13:47:41Z</time></trkpt><trkpt lat="44.60194833416934" lon="7.3257232775135055"><ele>1370.0</ele><time>2026-05-02T13:47:43Z</time></trkpt><trkpt lat="44.6018647633695" lon="7.325817786914314"><ele>1367.0</ele><time>2026-05-02T13:47:44Z</time></trkpt><trkpt lat="44.601798147471776" lon="7.325897457857359"><ele>1364.0</ele><time>2026-05-02T13:47:45Z</time></trkpt><trkpt lat="44.60174686212001" lon="7.325984853954523"><ele>1361.0</ele><time>2026-05-02T13:47:46Z</time></trkpt><trkpt lat="44.60174170555196" lon="7.326143627428754"><ele>1358.0</ele><time>2026-05-02T13:47:47Z</time></trkpt><trkpt lat="44.601693296355805" lon="7.326279475355342"><ele>1358.0</ele><time>2026-05-02T13:47:48Z</time></trkpt><trkpt lat="44.60163943758303" lon="7.326379661176344"><ele>1358.0</ele><time>2026-05-02T13:47:49Z</time></trkpt><trkpt lat="44.60156632916883" lon="7.326477296853194"><ele>1358.0</ele><time>2026-05-02T13:47:50Z</time></trkpt><trkpt lat="44.601479685288304" lon="7.326610789728367"><ele>1358.0</ele><time>2026-05-02T13:47:51Z</time></trkpt><trkpt lat="44.601397256424455" lon="7.326734622697395"><ele>1358.0</ele><time>2026-05-02T13:47:52Z</time></trkpt><trkpt lat="44.601336908083006" lon="7.326886533185834"><ele>1358.5</ele><time>2026-05-02T13:47:53Z</time></trkpt><trkpt lat="44.601276088480255" lon="7.327041259909043"><ele>1359.0</ele><time>2026-05-02T13:47:54Z</time></trkpt><trkpt lat="44.60121792690238" lon="7.327188684043494"><ele>1359.5</ele><time>2026-05-02T13:47:55Z</time></trkpt><trkpt lat="44.601125305519936" lon="7.327298815554127"><ele>1360.0</ele><time>2026-05-02T13:47:56Z</time></trkpt><trkpt lat="44.60105662846965" lon="7.327453957026775"><ele>1360.0</ele><time>2026-05-02T13:47:57Z</time></trkpt><trkpt lat="44.60097730571809" lon="7.327577406064747"><ele>1360.0</ele><time>2026-05-02T13:47:58Z</time></trkpt><trkpt lat="44.60091832215447" lon="7.32771048946368"><ele>1360.0</ele><time>2026-05-02T13:47:59Z</time></trkpt><trkpt lat="44.60086496360649" lon="7.327845755411357"><ele>1360.0</ele><time>2026-05-02T13:48:00Z</time></trkpt><trkpt lat="44.600830536413696" lon="7.327987417204152"><ele>1360.0</ele><time>2026-05-02T13:48:01Z</time></trkpt><trkpt lat="44.60083636766886" lon="7.328091900836614"><ele>1360.75</ele><time>2026-05-02T13:48:02Z</time></trkpt><trkpt lat="44.60088260354389" lon="7.3282538193883955"><ele>1361.5</ele><time>2026-05-02T13:48:04Z</time></trkpt><trkpt lat="44.600960427057004" lon="7.328368441753153"><ele>1362.25</ele><time>2026-05-02T13:48:05Z</time></trkpt><trkpt lat="44.601026834542274" lon="7.328495831988163"><ele>1363.0</ele><time>2026-05-02T13:48:06Z</time></trkpt><trkpt lat="44.601089773908114" lon="7.328617879798923"><ele>1363.0</ele><time>2026-05-02T13:48:07Z</time></trkpt><trkpt lat="44.601127729981165" lon="7.328747771711905"><ele>1363.0</ele><time>2026-05-02T13:48:08Z</time></trkpt><trkpt lat="44.60113155572968" lon="7.328836875930184"><ele>1363.0</ele><time>2026-05-02T13:48:09Z</time></trkpt><trkpt lat="44.601073779779504" lon="7.328942773969649"><ele>1363.0</ele><time>2026-05-02T13:48:10Z</time></trkpt><trkpt lat="44.60102663560243" lon="7.329052690034482"><ele>1363.0</ele><time>2026-05-02T13:48:11Z</time></trkpt><trkpt lat="44.60097919873881" lon="7.329182342252824"><ele>1364.2</ele><time>2026-05-02T13:48:12Z</time></trkpt><trkpt lat="44.600925445576785" lon="7.329330138424623"><ele>1365.4</ele><time>2026-05-02T13:48:13Z</time></trkpt><trkpt lat="44.60084898162867" lon="7.329454719095156"><ele>1366.6000000000001</ele><time>2026-05-02T13:48:14Z</time></trkpt><trkpt lat="44.600756167889784" lon="7.329553009530212"><ele>1367.8000000000002</ele><time>2026-05-02T13:48:15Z</time></trkpt><trkpt lat="44.60068310617238" lon="7.329643026021156"><ele>1369.0</ele><time>2026-05-02T13:48:16Z</time></trkpt><trkpt lat="44.600640704499526" lon="7.329710776718709"><ele>1371.4</ele><time>2026-05-02T13:48:17Z</time></trkpt><trkpt lat="44.60061890094169" lon="7.329798197187897"><ele>1373.8000000000002</ele><time>2026-05-02T13:48:18Z</time></trkpt><trkpt lat="44.60061107341574" lon="7.329929526751749"><ele>1376.1999999999998</ele><time>2026-05-02T13:48:19Z</time></trkpt><trkpt lat="44.60059612356308" lon="7.330074066661308"><ele>1378.6</ele><time>2026-05-02T13:48:20Z</time></trkpt><trkpt lat="44.600520218875936" lon="7.330177352179873"><ele>1381.0</ele><time>2026-05-02T13:48:21Z</time></trkpt><trkpt lat="44.60045819793462" lon="7.330314498876296"><ele>1381.0</ele><time>2026-05-02T13:48:22Z</time></trkpt><trkpt lat="44.60038151970703" lon="7.330460727447765"><ele>1381.0</ele><time>2026-05-02T13:48:23Z</time></trkpt><trkpt lat="44.60029918852734" lon="7.330557085464322"><ele>1381.0</ele><time>2026-05-02T13:48:24Z</time></trkpt><trkpt lat="44.60022311915641" lon="7.330647878042436"><ele>1381.0</ele><time>2026-05-02T13:48:25Z</time></trkpt><trkpt lat="44.60012322420405" lon="7.330759711644421"><ele>1380.0</ele><time>2026-05-02T13:48:26Z</time></trkpt><trkpt lat="44.60005517727614" lon="7.330880064227387"><ele>1379.0</ele><time>2026-05-02T13:48:27Z</time></trkpt><trkpt lat="44.59998701548511" lon="7.330994414948207"><ele>1378.0</ele><time>2026-05-02T13:48:28Z</time></trkpt><trkpt lat="44.59992853639582" lon="7.331113422303505"><ele>1377.0</ele><time>2026-05-02T13:48:29Z</time></trkpt><trkpt lat="44.599883483672684" lon="7.331250396740167"><ele>1376.0</ele><time>2026-05-02T13:48:30Z</time></trkpt><trkpt lat="44.59984048879238" lon="7.331372950101502"><ele>1378.8</ele><time>2026-05-02T13:48:30.999Z</time></trkpt><trkpt lat="44.59981417647059" lon="7.331498158870463"><ele>1381.6</ele><time>2026-05-02T13:48:31.999Z</time></trkpt><trkpt lat="44.59982636721766" lon="7.331641296520332"><ele>1384.4</ele><time>2026-05-02T13:48:32.999Z</time></trkpt><trkpt lat="44.59985149445606" lon="7.331795796533021"><ele>1387.2</ele><time>2026-05-02T13:48:33.999Z</time></trkpt><trkpt lat="44.59986427726756" lon="7.331978519500354"><ele>1390.0</ele><time>2026-05-02T13:48:34.999Z</time></trkpt><trkpt lat="44.59987560526938" lon="7.332127000821351"><ele>1390.2</ele><time>2026-05-02T13:48:35.999Z</time></trkpt><trkpt lat="44.599884393789694" lon="7.332261329938677"><ele>1390.4</ele><time>2026-05-02T13:48:36.999Z</time></trkpt><trkpt lat="44.599875370605034" lon="7.332373110812566"><ele>1390.6</ele><time>2026-05-02T13:48:37.999Z</time></trkpt><trkpt lat="44.59982730196906" lon="7.332486460763892"><ele>1390.8</ele><time>2026-05-02T13:48:38.999Z</time></trkpt><trkpt lat="44.59974834154761" lon="7.33260076991227"><ele>1391.0</ele><time>2026-05-02T13:48:40Z</time></trkpt><trkpt lat="44.5996730440971" lon="7.332701240560772"><ele>1391.0</ele><time>2026-05-02T13:48:41Z</time></trkpt><trkpt lat="44.59963554809776" lon="7.332792159357803"><ele>1391.0</ele><time>2026-05-02T13:48:42Z</time></trkpt><trkpt lat="44.59960591750483" lon="7.332874721776092"><ele>1391.0</ele><time>2026-05-02T13:48:43Z</time></trkpt><trkpt lat="44.599560198343376" lon="7.332967386336372"><ele>1391.0</ele><time>2026-05-02T13:48:44Z</time></trkpt><trkpt lat="44.599476074681064" lon="7.333012602980101"><ele>1391.0</ele><time>2026-05-02T13:48:45Z</time></trkpt><trkpt lat="44.59938280230283" lon="7.333084435051435"><ele>1391.0</ele><time>2026-05-02T13:48:46Z</time></trkpt><trkpt lat="44.59928389036395" lon="7.333143021464155"><ele>1387.6666666666667</ele><time>2026-05-02T13:48:47Z</time></trkpt><trkpt lat="44.599220709234295" lon="7.333206252627356"><ele>1384.3333333333335</ele><time>2026-05-02T13:48:48Z</time></trkpt><trkpt lat="44.59916029068547" lon="7.333311154953095"><ele>1381.0</ele><time>2026-05-02T13:48:49Z</time></trkpt><trkpt lat="44.599109061199236" lon="7.3334410997670885"><ele>1377.6666666666667</ele><time>2026-05-02T13:48:50Z</time></trkpt><trkpt lat="44.599059068992155" lon="7.333531056565765"><ele>1374.3333333333333</ele><time>2026-05-02T13:48:51Z</time></trkpt><trkpt lat="44.5990181032535" lon="7.333629426855393"><ele>1371.0</ele><time>2026-05-02T13:48:52Z</time></trkpt><trkpt lat="44.59897432690259" lon="7.333737324968818"><ele>1371.0</ele><time>2026-05-02T13:48:53Z</time></trkpt><trkpt lat="44.5989321828197" lon="7.333833182311695"><ele>1371.0</ele><time>2026-05-02T13:48:54Z</time></trkpt><trkpt lat="44.59887713782318" lon="7.333923161282304"><ele>1371.0</ele><time>2026-05-02T13:48:55Z</time></trkpt><trkpt lat="44.59882854752421" lon="7.334001298236475"><ele>1371.0</ele><time>2026-05-02T13:48:56Z</time></trkpt><trkpt lat="44.59876917224319" lon="7.334082129855942"><ele>1371.0</ele><time>2026-05-02T13:48:57Z</time></trkpt><trkpt lat="44.5987187976612" lon="7.334162142537669"><ele>1371.0</ele><time>2026-05-02T13:48:58Z</time></trkpt><trkpt lat="44.59865465702474" lon="7.3342563430026075"><ele>1370.0</ele><time>2026-05-02T13:48:59Z</time></trkpt><trkpt lat="44.59856045119012" lon="7.334350145752761"><ele>1369.0</ele><time>2026-05-02T13:49:00Z</time></trkpt><trkpt lat="44.59844972792174" lon="7.334472078440565"><ele>1368.0</ele><time>2026-05-02T13:49:01Z</time></trkpt><trkpt lat="44.59835183494345" lon="7.334595684963991"><ele>1367.0</ele><time>2026-05-02T13:49:02Z</time></trkpt><trkpt lat="44.59828232338656" lon="7.334715254684954"><ele>1366.5</ele><time>2026-05-02T13:49:03Z</time></trkpt><trkpt lat="44.59821158394429" lon="7.3347775609837935"><ele>1366.0</ele><time>2026-05-02T13:49:04Z</time></trkpt><trkpt lat="44.59814460425234" lon="7.334845711263267"><ele>1365.5</ele><time>2026-05-02T13:49:05Z</time></trkpt><trkpt lat="44.59807451395404" lon="7.334899610871636"><ele>1365.0</ele><time>2026-05-02T13:49:06Z</time></trkpt><trkpt lat="44.5980107424721" lon="7.334924655885412"><ele>1364.5</ele><time>2026-05-02T13:49:07Z</time></trkpt><trkpt lat="44.59792022307572" lon="7.334965884534272"><ele>1364.0</ele><time>2026-05-02T13:49:08Z</time></trkpt><trkpt lat="44.59780324836093" lon="7.3350535279108575"><ele>1364.0</ele><time>2026-05-02T13:49:09Z</time></trkpt><trkpt lat="44.59768344855295" lon="7.335093637005739"><ele>1364.0</ele><time>2026-05-02T13:49:10Z</time></trkpt><trkpt lat="44.597573102169996" lon="7.33515632956813"><ele>1364.0</ele><time>2026-05-02T13:49:11Z</time></trkpt><trkpt lat="44.59748802247405" lon="7.335227632042833"><ele>1364.0</ele><time>2026-05-02T13:49:12Z</time></trkpt><trkpt lat="44.597411019000404" lon="7.33526698945704"><ele>1364.0</ele><time>2026-05-02T13:49:13Z</time></trkpt><trkpt lat="44.597344876491704" lon="7.335304965143596"><ele>1364.0</ele><time>2026-05-02T13:49:14Z</time></trkpt><trkpt lat="44.597295374843156" lon="7.335376270285663"><ele>1364.0</ele><time>2026-05-02T13:49:15Z</time></trkpt><trkpt lat="44.597231800740225" lon="7.335460031390718"><ele>1364.0</ele><time>2026-05-02T13:49:16Z</time></trkpt><trkpt lat="44.59715948193222" lon="7.335556972313549"><ele>1364.0</ele><time>2026-05-02T13:49:17Z</time></trkpt><trkpt lat="44.59707158891343" lon="7.335658336107468"><ele>1364.0</ele><time>2026-05-02T13:49:18Z</time></trkpt><trkpt lat="44.59696594747379" lon="7.335746517105782"><ele>1363.3333333333335</ele><time>2026-05-02T13:49:19Z</time></trkpt><trkpt lat="44.59686548949589" lon="7.335780096179114"><ele>1362.6666666666667</ele><time>2026-05-02T13:49:20Z</time></trkpt><trkpt lat="44.596815196016706" lon="7.335841534483751"><ele>1362.0</ele><time>2026-05-02T13:49:21Z</time></trkpt><trkpt lat="44.59675096379011" lon="7.335864795080361"><ele>1361.3333333333333</ele><time>2026-05-02T13:49:22Z</time></trkpt><trkpt lat="44.59669216941153" lon="7.335931433648993"><ele>1360.6666666666665</ele><time>2026-05-02T13:49:23Z</time></trkpt><trkpt lat="44.5966202093092" lon="7.336012993487734"><ele>1360.0</ele><time>2026-05-02T13:49:24Z</time></trkpt><trkpt lat="44.596523495133425" lon="7.336080225985117"><ele>1360.0</ele><time>2026-05-02T13:49:25Z</time></trkpt><trkpt lat="44.59643939768734" lon="7.336124142092199"><ele>1360.0</ele><time>2026-05-02T13:49:26Z</time></trkpt><trkpt lat="44.59634033031669" lon="7.336107143446621"><ele>1360.0</ele><time>2026-05-02T13:49:27Z</time></trkpt><trkpt lat="44.59627072540371" lon="7.336135866433468"><ele>1360.0</ele><time>2026-05-02T13:49:28Z</time></trkpt><trkpt lat="44.596136071840995" lon="7.336227018890904"><ele>1360.0</ele><time>2026-05-02T13:49:29Z</time></trkpt><trkpt lat="44.59606117409571" lon="7.336394631630888"><ele>1358.0</ele><time>2026-05-02T13:49:30Z</time></trkpt><trkpt lat="44.59601896557076" lon="7.336603574024807"><ele>1356.0</ele><time>2026-05-02T13:49:32Z</time></trkpt><trkpt lat="44.595950483522884" lon="7.336631551956119"><ele>1354.0</ele><time>2026-05-02T13:49:35Z</time></trkpt><trkpt lat="44.59582714587265" lon="7.336744277206115"><ele>1352.0</ele><time>2026-05-02T13:49:37Z</time></trkpt><trkpt lat="44.59578521269882" lon="7.33681751706855"><ele>1350.0</ele><time>2026-05-02T13:49:40Z</time></trkpt><trkpt lat="44.595761492596786" lon="7.3370310276834605"><ele>1350.0</ele><time>2026-05-02T13:49:42Z</time></trkpt><trkpt lat="44.59572097151133" lon="7.337195376047901"><ele>1350.0</ele><time>2026-05-02T13:49:43Z</time></trkpt><trkpt lat="44.59570312091295" lon="7.337360032559255"><ele>1350.0</ele><time>2026-05-02T13:49:44Z</time></trkpt><trkpt lat="44.595691515376565" lon="7.337495218888977"><ele>1350.0</ele><time>2026-05-02T13:49:45Z</time></trkpt><trkpt lat="44.595669429312494" lon="7.33758182392837"><ele>1350.0</ele><time>2026-05-02T13:49:46Z</time></trkpt><trkpt lat="44.59616628210869" lon="7.337982469069356"><ele>1358.2</ele><time>2026-05-02T13:49:48Z</time></trkpt><trkpt lat="44.59618003356257" lon="7.338146440837818"><ele>1366.4</ele><time>2026-05-02T13:49:49Z</time></trkpt><trkpt lat="44.596200781869165" lon="7.338295141241736"><ele>1374.6</ele><time>2026-05-02T13:49:50Z</time></trkpt><trkpt lat="44.59621891080698" lon="7.338426611064202"><ele>1382.8</ele><time>2026-05-02T13:49:51Z</time></trkpt><trkpt lat="44.59620190810868" lon="7.338550713248696"><ele>1391.0</ele><time>2026-05-02T13:49:52Z</time></trkpt><trkpt lat="44.59618075144899" lon="7.33866323751644"><ele>1391.0</ele><time>2026-05-02T13:49:53Z</time></trkpt><trkpt lat="44.59617689740302" lon="7.338769138829851"><ele>1391.0</ele><time>2026-05-02T13:49:54Z</time></trkpt><trkpt lat="44.59620643978009" lon="7.338875043476159"><ele>1391.0</ele><time>2026-05-02T13:49:55Z</time></trkpt><trkpt lat="44.59624743021988" lon="7.33899335846544"><ele>1391.0</ele><time>2026-05-02T13:49:56Z</time></trkpt><trkpt lat="44.59629201888443" lon="7.33911060846087"><ele>1391.0</ele><time>2026-05-02T13:49:57Z</time></trkpt><trkpt lat="44.59632953163621" lon="7.3392012713877355"><ele>1391.0</ele><time>2026-05-02T13:49:58Z</time></trkpt><trkpt lat="44.596358606247364" lon="7.3393785999838626"><ele>1389.5</ele><time>2026-05-02T13:50:00Z</time></trkpt><trkpt lat="44.59634585442251" lon="7.339529125592275"><ele>1388.0</ele><time>2026-05-02T13:50:02Z</time></trkpt><trkpt lat="44.59635818919549" lon="7.339620411446776"><ele>1386.5</ele><time>2026-05-02T13:50:03Z</time></trkpt><trkpt lat="44.59636359689668" lon="7.339716044085574"><ele>1385.0</ele><time>2026-05-02T13:50:04Z</time></trkpt><trkpt lat="44.596375233104176" lon="7.339810136414875"><ele>1383.5</ele><time>2026-05-02T13:50:05Z</time></trkpt><trkpt lat="44.596406411169674" lon="7.339902338538471"><ele>1382.0</ele><time>2026-05-02T13:50:06Z</time></trkpt><trkpt lat="44.59644769040581" lon="7.340004901718488"><ele>1380.0</ele><time>2026-05-02T13:50:07Z</time></trkpt><trkpt lat="44.596464834034656" lon="7.340109836672259"><ele>1378.0</ele><time>2026-05-02T13:50:08Z</time></trkpt><trkpt lat="44.59644167886568" lon="7.34024165379834"><ele>1376.0</ele><time>2026-05-02T13:50:09Z</time></trkpt><trkpt lat="44.596385677678285" lon="7.340395636633309"><ele>1374.0</ele><time>2026-05-02T13:50:10Z</time></trkpt><trkpt lat="44.59633851569659" lon="7.340543360420504"><ele>1372.0</ele><time>2026-05-02T13:50:11Z</time></trkpt><trkpt lat="44.596303126429895" lon="7.340688981606735"><ele>1371.8</ele><time>2026-05-02T13:50:12Z</time></trkpt><trkpt lat="44.59629400560474" lon="7.340833481470161"><ele>1371.6</ele><time>2026-05-02T13:50:13Z</time></trkpt><trkpt lat="44.59629319150951" lon="7.3409805900615135"><ele>1371.3999999999999</ele><time>2026-05-02T13:50:14Z</time></trkpt><trkpt lat="44.5962677451661" lon="7.3411200519036495"><ele>1371.1999999999998</ele><time>2026-05-02T13:50:15Z</time></trkpt><trkpt lat="44.596202708885144" lon="7.341267382689815"><ele>1371.0</ele><time>2026-05-02T13:50:16Z</time></trkpt><trkpt lat="44.59613240721969" lon="7.3414064273078266"><ele>1366.4</ele><time>2026-05-02T13:50:17Z</time></trkpt><trkpt lat="44.59606086269229" lon="7.341559858206443"><ele>1361.8</ele><time>2026-05-02T13:50:18Z</time></trkpt><trkpt lat="44.596006783295444" lon="7.341684048033718"><ele>1357.2</ele><time>2026-05-02T13:50:19Z</time></trkpt><trkpt lat="44.59594167959197" lon="7.341792990193446"><ele>1352.6000000000001</ele><time>2026-05-02T13:50:20Z</time></trkpt><trkpt lat="44.595874964113996" lon="7.341887371380024"><ele>1348.0</ele><time>2026-05-02T13:50:21Z</time></trkpt><trkpt lat="44.59584151858456" lon="7.341967034095433"><ele>1348.0</ele><time>2026-05-02T13:50:22Z</time></trkpt><trkpt lat="44.59584918707755" lon="7.342063274360505"><ele>1348.0</ele><time>2026-05-02T13:50:23Z</time></trkpt><trkpt lat="44.59588851367186" lon="7.342207580217052"><ele>1348.0</ele><time>2026-05-02T13:50:24Z</time></trkpt><trkpt lat="44.5959237824739" lon="7.342373198706798"><ele>1348.0</ele><time>2026-05-02T13:50:25Z</time></trkpt><trkpt lat="44.59593265301991" lon="7.342546828440632"><ele>1348.0</ele><time>2026-05-02T13:50:26Z</time></trkpt><trkpt lat="44.59591632774598" lon="7.3427116067479465"><ele>1348.5</ele><time>2026-05-02T13:50:27Z</time></trkpt><trkpt lat="44.595897729118946" lon="7.342894984683918"><ele>1349.0</ele><time>2026-05-02T13:50:28Z</time></trkpt><trkpt lat="44.59587543869559" lon="7.343075760737221"><ele>1349.5</ele><time>2026-05-02T13:50:29Z</time></trkpt><trkpt lat="44.595852979931124" lon="7.343240652313666"><ele>1350.0</ele><time>2026-05-02T13:50:30Z</time></trkpt><trkpt lat="44.595831534173584" lon="7.343391478693435"><ele>1350.0</ele><time>2026-05-02T13:50:31Z</time></trkpt><trkpt lat="44.595829878068415" lon="7.343505501778731"><ele>1350.0</ele><time>2026-05-02T13:50:31.999Z</time></trkpt><trkpt lat="44.59582081951783" lon="7.34362364540449"><ele>1350.0</ele><time>2026-05-02T13:50:32.999Z</time></trkpt><trkpt lat="44.595809225128" lon="7.343725634211476"><ele>1350.0</ele><time>2026-05-02T13:50:33.999Z</time></trkpt><trkpt lat="44.595792584634005" lon="7.343841406060376"><ele>1350.0</ele><time>2026-05-02T13:50:34.999Z</time></trkpt><trkpt lat="44.595772335547565" lon="7.343995723166924"><ele>1350.0</ele><time>2026-05-02T13:50:35.999Z</time></trkpt><trkpt lat="44.59575069771782" lon="7.344136032305575"><ele>1350.6</ele><time>2026-05-02T13:50:36.999Z</time></trkpt><trkpt lat="44.59570147313283" lon="7.344261181303489"><ele>1351.2</ele><time>2026-05-02T13:50:37.999Z</time></trkpt><trkpt lat="44.595660089318635" lon="7.344402763632207"><ele>1351.8000000000002</ele><time>2026-05-02T13:50:38.999Z</time></trkpt><trkpt lat="44.59562688197802" lon="7.3445171796717075"><ele>1352.4</ele><time>2026-05-02T13:50:39.999Z</time></trkpt><trkpt lat="44.59557849982203" lon="7.344631616262669"><ele>1353.0</ele><time>2026-05-02T13:50:40.999Z</time></trkpt><trkpt lat="44.59550944425844" lon="7.344722686595643"><ele>1354.6000000000001</ele><time>2026-05-02T13:50:41.999Z</time></trkpt><trkpt lat="44.595421649782615" lon="7.344807171562408"><ele>1356.2</ele><time>2026-05-02T13:50:42.999Z</time></trkpt><trkpt lat="44.595327783390424" lon="7.344886983141694"><ele>1357.8</ele><time>2026-05-02T13:50:43.999Z</time></trkpt><trkpt lat="44.59522957250976" lon="7.344942148939096"><ele>1359.4</ele><time>2026-05-02T13:50:45Z</time></trkpt><trkpt lat="44.59514789828427" lon="7.344954768555425"><ele>1361.0</ele><time>2026-05-02T13:50:46Z</time></trkpt><trkpt lat="44.595076728425695" lon="7.344994296204569"><ele>1356.8333333333335</ele><time>2026-05-02T13:50:48Z</time></trkpt><trkpt lat="44.59506856098686" lon="7.345145622256"><ele>1352.6666666666667</ele><time>2026-05-02T13:50:50Z</time></trkpt><trkpt lat="44.59503336968529" lon="7.345227736739903"><ele>1348.5</ele><time>2026-05-02T13:50:51Z</time></trkpt><trkpt lat="44.594981779564634" lon="7.345304879063829"><ele>1344.3333333333333</ele><time>2026-05-02T13:50:52Z</time></trkpt><trkpt lat="44.59493568749129" lon="7.345369561799591"><ele>1340.1666666666665</ele><time>2026-05-02T13:50:53Z</time></trkpt><trkpt lat="44.59488871216317" lon="7.345432272153245"><ele>1336.0</ele><time>2026-05-02T13:50:54Z</time></trkpt><trkpt lat="44.59486163560624" lon="7.345528740096461"><ele>1336.0</ele><time>2026-05-02T13:50:55Z</time></trkpt><trkpt lat="44.59483073479567" lon="7.34563435993058"><ele>1336.0</ele><time>2026-05-02T13:50:56Z</time></trkpt><trkpt lat="44.594806580873914" lon="7.345725313203106"><ele>1336.0</ele><time>2026-05-02T13:50:57Z</time></trkpt><trkpt lat="44.59477780948159" lon="7.34581404205728"><ele>1336.0</ele><time>2026-05-02T13:50:58Z</time></trkpt><trkpt lat="44.59475012107119" lon="7.345907829305795"><ele>1336.0</ele><time>2026-05-02T13:50:59Z</time></trkpt><trkpt lat="44.594754619971724" lon="7.346004832371567"><ele>1336.0</ele><time>2026-05-02T13:51:00Z</time></trkpt><trkpt lat="44.59478307037333" lon="7.34611383282051"><ele>1336.0</ele><time>2026-05-02T13:51:01Z</time></trkpt><trkpt lat="44.594856026467106" lon="7.346276459791785"><ele>1336.0</ele><time>2026-05-02T13:51:03Z</time></trkpt><trkpt lat="44.5949018307691" lon="7.34636737062262"><ele>1336.0</ele><time>2026-05-02T13:51:04Z</time></trkpt><trkpt lat="44.59493039708971" lon="7.346465422774538"><ele>1336.0</ele><time>2026-05-02T13:51:05Z</time></trkpt><trkpt lat="44.59494279566882" lon="7.346586849752039"><ele>1336.0</ele><time>2026-05-02T13:51:06Z</time></trkpt><trkpt lat="44.59493626976568" lon="7.346743840458342"><ele>1336.0</ele><time>2026-05-02T13:51:07Z</time></trkpt><trkpt lat="44.594900891930834" lon="7.34690758101691"><ele>1335.1999999999998</ele><time>2026-05-02T13:51:08Z</time></trkpt><trkpt lat="44.594901356366385" lon="7.3470751458943635"><ele>1334.3999999999999</ele><time>2026-05-02T13:51:09Z</time></trkpt><trkpt lat="44.594911087559026" lon="7.347240391463242"><ele>1333.6</ele><time>2026-05-02T13:51:10Z</time></trkpt><trkpt lat="44.59491047387133" lon="7.347384928043705"><ele>1332.8</ele><time>2026-05-02T13:51:11Z</time></trkpt><trkpt lat="44.59489282158178" lon="7.347493465162393"><ele>1332.0</ele><time>2026-05-02T13:51:12Z</time></trkpt><trkpt lat="44.594860230791774" lon="7.347630342124576"><ele>1331.0</ele><time>2026-05-02T13:51:13Z</time></trkpt><trkpt lat="44.594835233078655" lon="7.347790575838071"><ele>1330.0</ele><time>2026-05-02T13:51:14Z</time></trkpt><trkpt lat="44.59482212537781" lon="7.347929417964525"><ele>1329.0</ele><time>2026-05-02T13:51:15Z</time></trkpt><trkpt lat="44.59480480146628" lon="7.348061449314895"><ele>1328.0</ele><time>2026-05-02T13:51:16Z</time></trkpt><trkpt lat="44.594800112199614" lon="7.348170670079568"><ele>1327.0</ele><time>2026-05-02T13:51:17Z</time></trkpt><trkpt lat="44.59479596626326" lon="7.348290124346317"><ele>1326.8333333333333</ele><time>2026-05-02T13:51:18Z</time></trkpt><trkpt lat="44.59478332229259" lon="7.3484023166233365"><ele>1326.6666666666665</ele><time>2026-05-02T13:51:19Z</time></trkpt><trkpt lat="44.594771866904466" lon="7.34852747953778"><ele>1326.5</ele><time>2026-05-02T13:51:21Z</time></trkpt><trkpt lat="44.594755377274126" lon="7.348618121511629"><ele>1326.3333333333333</ele><time>2026-05-02T13:51:34Z</time></trkpt><trkpt lat="44.59483077748251" lon="7.348618370838402"><ele>1326.1666666666667</ele><time>2026-05-02T13:51:48Z</time></trkpt><trkpt lat="44.59488928007588" lon="7.34869684630782"><ele>1326.0</ele><time>2026-05-02T13:51:50Z</time></trkpt><trkpt lat="44.594938272832906" lon="7.348771499390232"><ele>1326.0</ele><time>2026-05-02T13:51:52Z</time></trkpt><trkpt lat="44.594982729207324" lon="7.3488682057759975"><ele>1326.0</ele><time>2026-05-02T13:51:54Z</time></trkpt><trkpt lat="44.59503630325704" lon="7.348986823536022"><ele>1326.0</ele><time>2026-05-02T13:51:56Z</time></trkpt><trkpt lat="44.595087272394785" lon="7.349107425728136"><ele>1326.0</ele><time>2026-05-02T13:51:58Z</time></trkpt><trkpt lat="44.59513765196163" lon="7.34921903016824"><ele>1326.0</ele><time>2026-05-02T13:52:00Z</time></trkpt><trkpt lat="44.595215716420604" lon="7.349303665876477"><ele>1326.1666666666667</ele><time>2026-05-02T13:52:02Z</time></trkpt><trkpt lat="44.59531146361496" lon="7.349351597690069"><ele>1326.3333333333333</ele><time>2026-05-02T13:52:04Z</time></trkpt><trkpt lat="44.59540524871922" lon="7.349344263284924"><ele>1326.5</ele><time>2026-05-02T13:52:06Z</time></trkpt><trkpt lat="44.59548443049163" lon="7.3492710644601535"><ele>1326.6666666666665</ele><time>2026-05-02T13:52:08Z</time></trkpt><trkpt lat="44.59554120857494" lon="7.349208976315888"><ele>1326.8333333333333</ele><time>2026-05-02T13:52:10Z</time></trkpt><trkpt lat="44.59557334758746" lon="7.349126141835127"><ele>1327.0</ele><time>2026-05-02T13:52:12Z</time></trkpt><trkpt lat="44.5955922321099" lon="7.349039023482915"><ele>1327.0</ele><time>2026-05-02T13:52:14Z</time></trkpt><trkpt lat="44.595601083347674" lon="7.348916789720685"><ele>1327.0</ele><time>2026-05-02T13:52:17Z</time></trkpt><trkpt lat="44.59561854774552" lon="7.3488084067682475"><ele>1327.0</ele><time>2026-05-02T13:52:20Z</time></trkpt><trkpt lat="44.595661099444534" lon="7.348702794160003"><ele>1327.0</ele><time>2026-05-02T13:52:22Z</time></trkpt><trkpt lat="44.59576037310946" lon="7.3486067980296905"><ele>1327.0</ele><time>2026-05-02T13:52:24Z</time></trkpt><trkpt lat="44.59588249703674" lon="7.348568179291766"><ele>1330.1999999999998</ele><time>2026-05-02T13:52:25Z</time></trkpt><trkpt lat="44.595975949977905" lon="7.348507975440454"><ele>1333.4</ele><time>2026-05-02T13:52:26Z</time></trkpt><trkpt lat="44.59602919277023" lon="7.3484498160106"><ele>1336.6</ele><time>2026-05-02T13:52:26.999Z</time></trkpt><trkpt lat="44.596147088223724" lon="7.348386172195627"><ele>1339.8000000000002</ele><time>2026-05-02T13:52:28.999Z</time></trkpt><trkpt lat="44.5962115157298" lon="7.348367698908233"><ele>1343.0</ele><time>2026-05-02T13:52:29.999Z</time></trkpt><trkpt lat="44.596291663093" lon="7.348317999347664"><ele>1343.0</ele><time>2026-05-02T13:52:30.999Z</time></trkpt><trkpt lat="44.59635624145351" lon="7.348278310364149"><ele>1343.0</ele><time>2026-05-02T13:52:31.999Z</time></trkpt><trkpt lat="44.59643905606169" lon="7.348253387524747"><ele>1343.0</ele><time>2026-05-02T13:52:32.999Z</time></trkpt><trkpt lat="44.59652591582624" lon="7.348279122382404"><ele>1343.0</ele><time>2026-05-02T13:52:33.999Z</time></trkpt><trkpt lat="44.59660744986165" lon="7.348284987940535"><ele>1343.0</ele><time>2026-05-02T13:52:34.999Z</time></trkpt><trkpt lat="44.59667910751496" lon="7.348273060635937"><ele>1343.0</ele><time>2026-05-02T13:52:35.999Z</time></trkpt><trkpt lat="44.59674605738595" lon="7.348264337296534"><ele>1343.0</ele><time>2026-05-02T13:52:36.999Z</time></trkpt><trkpt lat="44.59681726170375" lon="7.348278094049347"><ele>1343.0</ele><time>2026-05-02T13:52:39.999Z</time></trkpt><trkpt lat="44.5968896180755" lon="7.348301281984858"><ele>1343.0</ele><time>2026-05-02T13:52:45.999Z</time></trkpt><trkpt lat="44.59696247912521" lon="7.348328909635304"><ele>1343.0</ele><time>2026-05-02T13:52:47.999Z</time></trkpt><trkpt lat="44.59705399778681" lon="7.3483239633004676"><ele>1343.0</ele><time>2026-05-02T13:52:51Z</time></trkpt><trkpt lat="44.597145535223255" lon="7.348295795847627"><ele>1343.0</ele><time>2026-05-02T13:52:55Z</time></trkpt><trkpt lat="44.59724253729997" lon="7.34828323717057"><ele>1344.6666666666667</ele><time>2026-05-02T13:53:02Z</time></trkpt><trkpt lat="44.5973261899069" lon="7.348354270833889"><ele>1346.3333333333335</ele><time>2026-05-02T13:53:05Z</time></trkpt><trkpt lat="44.59735227319307" lon="7.3484415043106655"><ele>1348.0</ele><time>2026-05-02T13:53:07Z</time></trkpt><trkpt lat="44.59741846107765" lon="7.348506928234991"><ele>1349.6666666666667</ele><time>2026-05-02T13:53:10Z</time></trkpt><trkpt lat="44.59747676256618" lon="7.3486115166908785"><ele>1351.3333333333333</ele><time>2026-05-02T13:53:12Z</time></trkpt><trkpt lat="44.59755039703482" lon="7.348684449387858"><ele>1353.0</ele><time>2026-05-02T13:53:14Z</time></trkpt><trkpt lat="44.59764452696688" lon="7.348693165818266"><ele>1353.0</ele><time>2026-05-02T13:53:16Z</time></trkpt><trkpt lat="44.5977199223796" lon="7.34871941290381"><ele>1353.0</ele><time>2026-05-02T13:53:18Z</time></trkpt><trkpt lat="44.597801501099646" lon="7.348678157119226"><ele>1353.0</ele><time>2026-05-02T13:53:20Z</time></trkpt><trkpt lat="44.597877903688754" lon="7.348638421781718"><ele>1353.0</ele><time>2026-05-02T13:53:22Z</time></trkpt><trkpt lat="44.597952787849586" lon="7.34861739326247"><ele>1353.0</ele><time>2026-05-02T13:53:25Z</time></trkpt><trkpt lat="44.5980331875854" lon="7.348596504308994"><ele>1353.0</ele><time>2026-05-02T13:53:28Z</time></trkpt><trkpt lat="44.59811480708506" lon="7.348567148504365"><ele>1353.0</ele><time>2026-05-02T13:53:37Z</time></trkpt><trkpt lat="44.59804808768619" lon="7.3485683417921415"><ele>1353.0</ele><time>2026-05-02T13:53:42Z</time></trkpt><trkpt lat="44.597975316679396" lon="7.348621801268011"><ele>1353.0</ele><time>2026-05-02T13:53:44Z</time></trkpt><trkpt lat="44.59788630277491" lon="7.348640368949397"><ele>1353.0</ele><time>2026-05-02T13:53:47Z</time></trkpt><trkpt lat="44.597822176120694" lon="7.348663542703496"><ele>1353.0</ele><time>2026-05-02T13:53:59Z</time></trkpt><trkpt lat="44.59788275637581" lon="7.348620475637224"><ele>1353.0</ele><time>2026-05-02T13:54:35.999Z</time></trkpt><trkpt lat="44.597873614771274" lon="7.348528224320642"><ele>1353.0</ele><time>2026-05-02T13:54:38.999Z</time></trkpt><trkpt lat="44.59786351058187" lon="7.348434511359812"><ele>1353.0</ele><time>2026-05-02T13:54:40.999Z</time></trkpt><trkpt lat="44.5978304514971" lon="7.34834262832898"><ele>1353.0</ele><time>2026-05-02T13:54:42.999Z</time></trkpt><trkpt lat="44.597804154387724" lon="7.348238612968033"><ele>1353.0</ele><time>2026-05-02T13:54:45.999Z</time></trkpt><trkpt lat="44.59779537090609" lon="7.348126451196254"><ele>1353.0</ele><time>2026-05-02T13:54:48.999Z</time></trkpt><trkpt lat="44.59774484308946" lon="7.348055421310442"><ele>1353.0</ele><time>2026-05-02T13:54:51.999Z</time></trkpt><trkpt lat="44.59771241687539" lon="7.347977422876307"><ele>1353.0</ele><time>2026-05-02T13:54:54.999Z</time></trkpt><trkpt lat="44.597664603534554" lon="7.347885496967489"><ele>1353.0</ele><time>2026-05-02T13:54:58Z</time></trkpt><trkpt lat="44.597606998973355" lon="7.34783501528766"><ele>1353.8333333333333</ele><time>2026-05-02T13:55:02Z</time></trkpt><trkpt lat="44.597520667714385" lon="7.347851313821602"><ele>1354.6666666666667</ele><time>2026-05-02T13:55:05Z</time></trkpt><trkpt lat="44.59745946079917" lon="7.347805848292478"><ele>1355.5</ele><time>2026-05-02T13:55:07Z</time></trkpt><trkpt lat="44.5973978842007" lon="7.3477288857363625"><ele>1356.3333333333335</ele><time>2026-05-02T13:55:09Z</time></trkpt><trkpt lat="44.597316452967306" lon="7.34770549229965"><ele>1357.1666666666667</ele><time>2026-05-02T13:55:11Z</time></trkpt><trkpt lat="44.597232526594624" lon="7.347647995814585"><ele>1358.0</ele><time>2026-05-02T13:55:13Z</time></trkpt><trkpt lat="44.59715037808769" lon="7.34761454891632"><ele>1358.0</ele><time>2026-05-02T13:55:15Z</time></trkpt><trkpt lat="44.597093674488676" lon="7.347558013318646"><ele>1358.0</ele><time>2026-05-02T13:55:17Z</time></trkpt><trkpt lat="44.59705510076025" lon="7.347463726214387"><ele>1358.0</ele><time>2026-05-02T13:55:19Z</time></trkpt><trkpt lat="44.597015377779655" lon="7.347382490594836"><ele>1358.0</ele><time>2026-05-02T13:55:28Z</time></trkpt><trkpt lat="44.597036506728436" lon="7.347468192377157"><ele>1358.0</ele><time>2026-05-02T13:57:46Z</time></trkpt><trkpt lat="44.597065419443645" lon="7.347550380689782"><ele>1358.0</ele><time>2026-05-02T13:57:57Z</time></trkpt><trkpt lat="44.59713293668785" lon="7.347615653113913"><ele>1358.0</ele><time>2026-05-02T13:58:01Z</time></trkpt><trkpt lat="44.59719357966365" lon="7.3476472030084174"><ele>1358.0</ele><time>2026-05-02T13:58:04Z</time></trkpt><trkpt lat="44.59726415035683" lon="7.347665159646662"><ele>1358.0</ele><time>2026-05-02T13:58:08Z</time></trkpt><trkpt lat="44.59732646568253" lon="7.347698926482451"><ele>1358.0</ele><time>2026-05-02T13:58:11Z</time></trkpt><trkpt lat="44.59739002940577" lon="7.347744650316929"><ele>1358.0</ele><time>2026-05-02T13:58:14Z</time></trkpt><trkpt lat="44.597455043804935" lon="7.347740102650372"><ele>1358.0</ele><time>2026-05-02T13:58:18Z</time></trkpt><trkpt lat="44.597523980806976" lon="7.34774230436911"><ele>1358.0</ele><time>2026-05-02T13:58:34.999Z</time></trkpt><trkpt lat="44.597602540594934" lon="7.347753037619721"><ele>1358.0</ele><time>2026-05-02T13:58:37.999Z</time></trkpt><trkpt lat="44.59767488894013" lon="7.347857876166913"><ele>1358.0</ele><time>2026-05-02T13:58:39.999Z</time></trkpt><trkpt lat="44.597702387826686" lon="7.3479657638661795"><ele>1358.0</ele><time>2026-05-02T13:58:42.999Z</time></trkpt><trkpt lat="44.597735791135584" lon="7.3480425694570926"><ele>1358.0</ele><time>2026-05-02T13:58:45.999Z</time></trkpt><trkpt lat="44.59775632099623" lon="7.348134805971509"><ele>1358.0</ele><time>2026-05-02T13:58:47.999Z</time></trkpt><trkpt lat="44.597787649509506" lon="7.348212968485295"><ele>1358.0</ele><time>2026-05-02T13:58:49.999Z</time></trkpt><trkpt lat="44.597851539857416" lon="7.3482946474469655"><ele>1358.0</ele><time>2026-05-02T13:58:52.999Z</time></trkpt><trkpt lat="44.597862144233126" lon="7.348384110364642"><ele>1358.0</ele><time>2026-05-02T13:58:54.999Z</time></trkpt><trkpt lat="44.59786750289114" lon="7.34847718715499"><ele>1357.1666666666667</ele><time>2026-05-02T13:58:57.999Z</time></trkpt><trkpt lat="44.59780519165367" lon="7.348523366733592"><ele>1356.3333333333335</ele><time>2026-05-02T13:59:00.999Z</time></trkpt><trkpt lat="44.597743328220695" lon="7.348554002758227"><ele>1355.5</ele><time>2026-05-02T13:59:04.999Z</time></trkpt><trkpt lat="44.59765088194937" lon="7.348578760760829"><ele>1354.6666666666667</ele><time>2026-05-02T13:59:09Z</time></trkpt><trkpt lat="44.597548646897096" lon="7.348589354945404"><ele>1353.8333333333333</ele><time>2026-05-02T13:59:11Z</time></trkpt><trkpt lat="44.597462323913796" lon="7.348560304984829"><ele>1353.0</ele><time>2026-05-02T13:59:14Z</time></trkpt><trkpt lat="44.597403961954384" lon="7.348524981433271"><ele>1353.0</ele><time>2026-05-02T13:59:16Z</time></trkpt><trkpt lat="44.59739137705122" lon="7.348420129675726"><ele>1353.0</ele><time>2026-05-02T13:59:18Z</time></trkpt><trkpt lat="44.597368981103195" lon="7.348323860067436"><ele>1353.0</ele><time>2026-05-02T13:59:20Z</time></trkpt><trkpt lat="44.59731415271025" lon="7.348262559699411"><ele>1353.0</ele><time>2026-05-02T13:59:24Z</time></trkpt><trkpt lat="44.597235750826975" lon="7.348279521143825"><ele>1353.0</ele><time>2026-05-02T13:59:26Z</time></trkpt><trkpt lat="44.59715030642117" lon="7.348313354411579"><ele>1353.0</ele><time>2026-05-02T13:59:29Z</time></trkpt><trkpt lat="44.59708920555458" lon="7.348340147144945"><ele>1353.0</ele><time>2026-05-02T13:59:31Z</time></trkpt><trkpt lat="44.59701337853921" lon="7.348328510996938"><ele>1353.0</ele><time>2026-05-02T13:59:33Z</time></trkpt><trkpt lat="44.596945730879476" lon="7.348287865557427"><ele>1353.0</ele><time>2026-05-02T13:59:35Z</time></trkpt><trkpt lat="44.596855104558024" lon="7.348243760363953"><ele>1353.0</ele><time>2026-05-02T13:59:41Z</time></trkpt><trkpt lat="44.596719541593494" lon="7.348211497440788"><ele>1353.0</ele><time>2026-05-02T13:59:43Z</time></trkpt><trkpt lat="44.5966132316459" lon="7.348197778796461"><ele>1351.5</ele><time>2026-05-02T13:59:45Z</time></trkpt><trkpt lat="44.59649574174641" lon="7.348184363491424"><ele>1350.0</ele><time>2026-05-02T13:59:47Z</time></trkpt><trkpt lat="44.59641408520677" lon="7.348223980862494"><ele>1348.5</ele><time>2026-05-02T13:59:48Z</time></trkpt><trkpt lat="44.596348730737475" lon="7.348254230155053"><ele>1347.0</ele><time>2026-05-02T13:59:49Z</time></trkpt><trkpt lat="44.596268721663265" lon="7.348264950348125"><ele>1345.5</ele><time>2026-05-02T13:59:50Z</time></trkpt><trkpt lat="44.59619357739882" lon="7.348284666554151"><ele>1344.0</ele><time>2026-05-02T13:59:51Z</time></trkpt><trkpt lat="44.596108583165" lon="7.348315110341252"><ele>1344.0</ele><time>2026-05-02T13:59:52Z</time></trkpt><trkpt lat="44.59601680606765" lon="7.34836423380342"><ele>1344.0</ele><time>2026-05-02T13:59:53Z</time></trkpt><trkpt lat="44.59593408993212" lon="7.348395825082934"><ele>1344.0</ele><time>2026-05-02T13:59:54Z</time></trkpt><trkpt lat="44.59585447923766" lon="7.348437175368648"><ele>1344.0</ele><time>2026-05-02T13:59:55Z</time></trkpt><trkpt lat="44.5957885611313" lon="7.3484751046057735"><ele>1344.0</ele><time>2026-05-02T13:59:56Z</time></trkpt><trkpt lat="44.595734235589084" lon="7.348519890696417"><ele>1344.0</ele><time>2026-05-02T13:59:57Z</time></trkpt><trkpt lat="44.59567350401453" lon="7.348590229566142"><ele>1344.0</ele><time>2026-05-02T14:00:00Z</time></trkpt><trkpt lat="44.59562365433762" lon="7.348705845003812"><ele>1344.0</ele><time>2026-05-02T14:00:03Z</time></trkpt><trkpt lat="44.5955983240221" lon="7.348812479984851"><ele>1344.0</ele><time>2026-05-02T14:00:05Z</time></trkpt><trkpt lat="44.595599231487746" lon="7.348939923252116"><ele>1344.0</ele><time>2026-05-02T14:00:07Z</time></trkpt><trkpt lat="44.595568608244996" lon="7.34906862887397"><ele>1344.0</ele><time>2026-05-02T14:00:09Z</time></trkpt><trkpt lat="44.595534875923434" lon="7.349201763401974"><ele>1341.1666666666667</ele><time>2026-05-02T14:00:11Z</time></trkpt><trkpt lat="44.595490945134095" lon="7.3492942325172095"><ele>1338.3333333333333</ele><time>2026-05-02T14:00:13Z</time></trkpt><trkpt lat="44.59541956732503" lon="7.349358112748275"><ele>1335.5</ele><time>2026-05-02T14:00:15Z</time></trkpt><trkpt lat="44.595341016482585" lon="7.3493686963970175"><ele>1332.6666666666665</ele><time>2026-05-02T14:00:17Z</time></trkpt><trkpt lat="44.595266140418495" lon="7.34931312369057"><ele>1329.8333333333333</ele><time>2026-05-02T14:00:19Z</time></trkpt><trkpt lat="44.59519748376745" lon="7.349219274834508"><ele>1327.0</ele><time>2026-05-02T14:00:21Z</time></trkpt><trkpt lat="44.59514735999888" lon="7.349125070043387"><ele>1326.857142857143</ele><time>2026-05-02T14:00:23Z</time></trkpt><trkpt lat="44.595081617251125" lon="7.3490097429044825"><ele>1326.7142857142858</ele><time>2026-05-02T14:00:25Z</time></trkpt><trkpt lat="44.59504561048441" lon="7.348921744031517"><ele>1326.5714285714284</ele><time>2026-05-02T14:00:26Z</time></trkpt><trkpt lat="44.59501308085057" lon="7.348842943231486"><ele>1326.4285714285716</ele><time>2026-05-02T14:00:27Z</time></trkpt><trkpt lat="44.59496848747009" lon="7.348768911375286"><ele>1326.2857142857142</ele><time>2026-05-02T14:00:28Z</time></trkpt><trkpt lat="44.59492021849931" lon="7.348700781592976"><ele>1326.142857142857</ele><time>2026-05-02T14:00:29Z</time></trkpt><trkpt lat="44.594869971513745" lon="7.348642429277087"><ele>1326.0</ele><time>2026-05-02T14:00:29.999Z</time></trkpt><trkpt lat="44.59479540771667" lon="7.348633494548156"><ele>1326.0</ele><time>2026-05-02T14:00:31.999Z</time></trkpt><trkpt lat="44.59474269996784" lon="7.348820075400538"><ele>1326.0</ele><time>2026-05-02T14:00:33.999Z</time></trkpt><trkpt lat="44.59470903959208" lon="7.348968482841136"><ele>1326.0</ele><time>2026-05-02T14:00:34.999Z</time></trkpt><trkpt lat="44.594686607823334" lon="7.349057527136996"><ele>1326.0</ele><time>2026-05-02T14:00:35.999Z</time></trkpt><trkpt lat="44.59463632360685" lon="7.349213140307951"><ele>1326.0</ele><time>2026-05-02T14:00:37.999Z</time></trkpt><trkpt lat="44.594593804303095" lon="7.349288231608118"><ele>1324.8333333333333</ele><time>2026-05-02T14:00:38.999Z</time></trkpt><trkpt lat="44.59454838654284" lon="7.3493498082333115"><ele>1323.6666666666667</ele><time>2026-05-02T14:00:39.999Z</time></trkpt><trkpt lat="44.59449670573522" lon="7.3494015733835205"><ele>1322.5</ele><time>2026-05-02T14:00:40.999Z</time></trkpt><trkpt lat="44.594409899933616" lon="7.349486056488785"><ele>1321.3333333333335</ele><time>2026-05-02T14:00:42.999Z</time></trkpt><trkpt lat="44.59434197499471" lon="7.349609725725805"><ele>1320.1666666666667</ele><time>2026-05-02T14:00:44.999Z</time></trkpt><trkpt lat="44.59429322330239" lon="7.34967597764848"><ele>1319.0</ele><time>2026-05-02T14:00:45.999Z</time></trkpt><trkpt lat="44.59423546563842" lon="7.349804311685481"><ele>1316.3333333333335</ele><time>2026-05-02T14:00:47.999Z</time></trkpt><trkpt lat="44.594257363958064" lon="7.3499005847547485"><ele>1313.6666666666667</ele><time>2026-05-02T14:00:54.999Z</time></trkpt><trkpt lat="44.59429336339119" lon="7.3499851868175226"><ele>1311.0</ele><time>2026-05-02T14:00:58.999Z</time></trkpt><trkpt lat="44.594368882873546" lon="7.350014019588498"><ele>1308.3333333333333</ele><time>2026-05-02T14:01:00.999Z</time></trkpt><trkpt lat="44.594437492986145" lon="7.350021270589626"><ele>1305.6666666666665</ele><time>2026-05-02T14:01:01.999Z</time></trkpt><trkpt lat="44.59452651786989" lon="7.350070850164888"><ele>1303.0</ele><time>2026-05-02T14:01:02.999Z</time></trkpt><trkpt lat="44.59458701059837" lon="7.350104638100771"><ele>1303.0</ele><time>2026-05-02T14:01:03.999Z</time></trkpt><trkpt lat="44.594660385536514" lon="7.3501452641004015"><ele>1303.0</ele><time>2026-05-02T14:01:05.999Z</time></trkpt><trkpt lat="44.594756485362915" lon="7.350173050008746"><ele>1303.0</ele><time>2026-05-02T14:01:06.999Z</time></trkpt><trkpt lat="44.59483138400821" lon="7.350228407192272"><ele>1303.0</ele><time>2026-05-02T14:01:07.999Z</time></trkpt><trkpt lat="44.59492327828809" lon="7.350296662365447"><ele>1303.0</ele><time>2026-05-02T14:01:08.999Z</time></trkpt><trkpt lat="44.59499806966128" lon="7.350362824837673"><ele>1303.0</ele><time>2026-05-02T14:01:09.999Z</time></trkpt><trkpt lat="44.59505943984583" lon="7.350422695913091"><ele>1303.0</ele><time>2026-05-02T14:01:10.999Z</time></trkpt><trkpt lat="44.59512635524434" lon="7.350539662569883"><ele>1303.0</ele><time>2026-05-02T14:01:11.999Z</time></trkpt><trkpt lat="44.59518505681479" lon="7.350624763101668"><ele>1303.0</ele><time>2026-05-02T14:01:12.999Z</time></trkpt><trkpt lat="44.59524016054281" lon="7.350732602239163"><ele>1303.0</ele><time>2026-05-02T14:01:13.999Z</time></trkpt><trkpt lat="44.59528903811618" lon="7.350820506418783"><ele>1303.0</ele><time>2026-05-02T14:01:15Z</time></trkpt><trkpt lat="44.59536263160289" lon="7.350983380236407"><ele>1299.0</ele><time>2026-05-02T14:01:17Z</time></trkpt><trkpt lat="44.59540493922096" lon="7.351084200970164"><ele>1295.0</ele><time>2026-05-02T14:01:18Z</time></trkpt><trkpt lat="44.59550984582966" lon="7.351230318549393"><ele>1291.0</ele><time>2026-05-02T14:01:20Z</time></trkpt><trkpt lat="44.5955723170409" lon="7.351290589460664"><ele>1287.0</ele><time>2026-05-02T14:01:21Z</time></trkpt><trkpt lat="44.595629241276214" lon="7.351372561491467"><ele>1283.0</ele><time>2026-05-02T14:01:22Z</time></trkpt><trkpt lat="44.59568678425844" lon="7.351460002358438"><ele>1279.6666666666667</ele><time>2026-05-02T14:01:23Z</time></trkpt><trkpt lat="44.59574218066878" lon="7.351534175807801"><ele>1276.3333333333335</ele><time>2026-05-02T14:01:24Z</time></trkpt><trkpt lat="44.59581802650863" lon="7.3516617689120345"><ele>1273.0</ele><time>2026-05-02T14:01:26Z</time></trkpt><trkpt lat="44.595864235278015" lon="7.35172434611959"><ele>1269.6666666666667</ele><time>2026-05-02T14:01:28Z</time></trkpt><trkpt lat="44.595953364060804" lon="7.351676977232162"><ele>1266.3333333333333</ele><time>2026-05-02T14:01:30Z</time></trkpt><trkpt lat="44.59599299400306" lon="7.351594173578721"><ele>1263.0</ele><time>2026-05-02T14:01:32Z</time></trkpt><trkpt lat="44.59604554552252" lon="7.3515419910961715"><ele>1263.0</ele><time>2026-05-02T14:01:34Z</time></trkpt><trkpt lat="44.59610377088968" lon="7.3514434877921815"><ele>1263.0</ele><time>2026-05-02T14:01:35Z</time></trkpt><trkpt lat="44.59619333181576" lon="7.351320177801355"><ele>1263.0</ele><time>2026-05-02T14:01:36Z</time></trkpt><trkpt lat="44.59629360953986" lon="7.351206941115267"><ele>1263.0</ele><time>2026-05-02T14:01:37Z</time></trkpt><trkpt lat="44.596399870284564" lon="7.351098499067561"><ele>1262.6</ele><time>2026-05-02T14:01:38Z</time></trkpt><trkpt lat="44.596498723637154" lon="7.350977397124859"><ele>1262.1999999999998</ele><time>2026-05-02T14:01:39Z</time></trkpt><trkpt lat="44.59655729063563" lon="7.350868831731498"><ele>1261.8</ele><time>2026-05-02T14:01:40Z</time></trkpt><trkpt lat="44.59660993004846" lon="7.350788465691768"><ele>1261.3999999999999</ele><time>2026-05-02T14:01:41Z</time></trkpt><trkpt lat="44.59666639400276" lon="7.350719172769626"><ele>1261.0</ele><time>2026-05-02T14:01:42Z</time></trkpt><trkpt lat="44.59673369250756" lon="7.350620975357963"><ele>1261.0</ele><time>2026-05-02T14:01:44Z</time></trkpt><trkpt lat="44.596822656356764" lon="7.350654690430645"><ele>1261.0</ele><time>2026-05-02T14:01:46Z</time></trkpt><trkpt lat="44.5969002758671" lon="7.350692634350717"><ele>1261.0</ele><time>2026-05-02T14:01:47Z</time></trkpt><trkpt lat="44.59704326902011" lon="7.350730157760562"><ele>1261.0</ele><time>2026-05-02T14:01:48Z</time></trkpt><trkpt lat="44.597116065608404" lon="7.350734432026627"><ele>1261.0</ele><time>2026-05-02T14:01:49Z</time></trkpt><trkpt lat="44.597209716880194" lon="7.350728817349331"><ele>1260.0</ele><time>2026-05-02T14:01:50Z</time></trkpt><trkpt lat="44.59730130211737" lon="7.35074263221902"><ele>1259.0</ele><time>2026-05-02T14:01:51Z</time></trkpt><trkpt lat="44.59738477245112" lon="7.350795350800815"><ele>1258.0</ele><time>2026-05-02T14:01:52Z</time></trkpt><trkpt lat="44.597483326619994" lon="7.350835888592609"><ele>1257.0</ele><time>2026-05-02T14:01:53Z</time></trkpt><trkpt lat="44.597560312409556" lon="7.350901814360122"><ele>1256.0</ele><time>2026-05-02T14:01:54Z</time></trkpt><trkpt lat="44.59763039049667" lon="7.350941091498611"><ele>1256.0</ele><time>2026-05-02T14:01:55Z</time></trkpt><trkpt lat="44.59768527032575" lon="7.351043330918631"><ele>1256.0</ele><time>2026-05-02T14:01:56Z</time></trkpt><trkpt lat="44.59775915179329" lon="7.35111125869625"><ele>1256.0</ele><time>2026-05-02T14:01:57Z</time></trkpt><trkpt lat="44.597829103367054" lon="7.351167463889408"><ele>1256.0</ele><time>2026-05-02T14:01:58Z</time></trkpt><trkpt lat="44.597896762607235" lon="7.351204064567832"><ele>1256.0</ele><time>2026-05-02T14:01:59Z</time></trkpt><trkpt lat="44.597964559474036" lon="7.351240656530375"><ele>1256.0</ele><time>2026-05-02T14:02:00Z</time></trkpt><trkpt lat="44.59804056191743" lon="7.351268228746145"><ele>1256.6666666666667</ele><time>2026-05-02T14:02:01Z</time></trkpt><trkpt lat="44.598118137487745" lon="7.351302368722592"><ele>1257.3333333333335</ele><time>2026-05-02T14:02:02Z</time></trkpt><trkpt lat="44.59817967470312" lon="7.351341680509687"><ele>1258.0</ele><time>2026-05-02T14:02:03Z</time></trkpt><trkpt lat="44.59825742977841" lon="7.3513746878949044"><ele>1258.6666666666667</ele><time>2026-05-02T14:02:04Z</time></trkpt><trkpt lat="44.59833014304609" lon="7.351444480969056"><ele>1259.3333333333333</ele><time>2026-05-02T14:02:05Z</time></trkpt><trkpt lat="44.598394953993775" lon="7.351492735914438"><ele>1260.0</ele><time>2026-05-02T14:02:06Z</time></trkpt><trkpt lat="44.598461195152524" lon="7.35156449532278"><ele>1255.3333333333333</ele><time>2026-05-02T14:02:07Z</time></trkpt><trkpt lat="44.598519097936226" lon="7.351630768026774"><ele>1250.6666666666667</ele><time>2026-05-02T14:02:08Z</time></trkpt><trkpt lat="44.59857472476715" lon="7.351673027438944"><ele>1246.0</ele><time>2026-05-02T14:02:09Z</time></trkpt><trkpt lat="44.59861825754286" lon="7.351745819326328"><ele>1241.3333333333335</ele><time>2026-05-02T14:02:10Z</time></trkpt><trkpt lat="44.59868535233385" lon="7.351863223264235"><ele>1236.6666666666667</ele><time>2026-05-02T14:02:12Z</time></trkpt><trkpt lat="44.59875336490871" lon="7.351977057741693"><ele>1232.0</ele><time>2026-05-02T14:02:14Z</time></trkpt><trkpt lat="44.598730991687354" lon="7.352094109846729"><ele>1231.6</ele><time>2026-05-02T14:02:16Z</time></trkpt><trkpt lat="44.59862452698582" lon="7.35206031229824"><ele>1231.2</ele><time>2026-05-02T14:02:18Z</time></trkpt><trkpt lat="44.598517544037506" lon="7.351989096600886"><ele>1230.8</ele><time>2026-05-02T14:02:20Z</time></trkpt><trkpt lat="44.59840464382585" lon="7.351917995318201"><ele>1230.4</ele><time>2026-05-02T14:02:22Z</time></trkpt><trkpt lat="44.59831547719462" lon="7.3519071059237575"><ele>1230.0</ele><time>2026-05-02T14:02:24Z</time></trkpt><trkpt lat="44.59823625086055" lon="7.3519233414763985"><ele>1230.0</ele><time>2026-05-02T14:02:26Z</time></trkpt><trkpt lat="44.598149072042425" lon="7.3519075874846065"><ele>1230.0</ele><time>2026-05-02T14:02:27.999Z</time></trkpt><trkpt lat="44.59804701698547" lon="7.351903679622642"><ele>1230.0</ele><time>2026-05-02T14:02:29.999Z</time></trkpt><trkpt lat="44.597859392964935" lon="7.351933955313267"><ele>1230.0</ele><time>2026-05-02T14:02:32.999Z</time></trkpt><trkpt lat="44.597785904285864" lon="7.351949731178593"><ele>1227.4</ele><time>2026-05-02T14:02:33.999Z</time></trkpt><trkpt lat="44.59768983027662" lon="7.351980502507842"><ele>1224.8</ele><time>2026-05-02T14:02:34.999Z</time></trkpt><trkpt lat="44.597614545396894" lon="7.3520161444225"><ele>1222.2</ele><time>2026-05-02T14:02:35.999Z</time></trkpt><trkpt lat="44.5975152609675" lon="7.35203213379987"><ele>1219.6</ele><time>2026-05-02T14:02:37.999Z</time></trkpt><trkpt lat="44.597379998760005" lon="7.351972064614054"><ele>1217.0</ele><time>2026-05-02T14:02:39.999Z</time></trkpt><trkpt lat="44.59729904773875" lon="7.351951953973396"><ele>1217.0</ele><time>2026-05-02T14:02:40.999Z</time></trkpt><trkpt lat="44.59723093636209" lon="7.3519471994290395"><ele>1217.0</ele><time>2026-05-02T14:02:41.999Z</time></trkpt><trkpt lat="44.597182217949474" lon="7.352013253893199"><ele>1217.0</ele><time>2026-05-02T14:02:43.999Z</time></trkpt><trkpt lat="44.59716011611579" lon="7.352120147448052"><ele>1217.0</ele><time>2026-05-02T14:02:44.999Z</time></trkpt><trkpt lat="44.59714522699006" lon="7.35224679288762"><ele>1217.0</ele><time>2026-05-02T14:02:45.999Z</time></trkpt><trkpt lat="44.597123232065755" lon="7.352365945759443"><ele>1217.0</ele><time>2026-05-02T14:02:46.999Z</time></trkpt><trkpt lat="44.597097455929294" lon="7.35248843849709"><ele>1217.4</ele><time>2026-05-02T14:02:47.999Z</time></trkpt><trkpt lat="44.597068660463115" lon="7.35260112895636"><ele>1217.8000000000002</ele><time>2026-05-02T14:02:48.999Z</time></trkpt><trkpt lat="44.59703157245507" lon="7.352707891749214"><ele>1218.2</ele><time>2026-05-02T14:02:49.999Z</time></trkpt><trkpt lat="44.59701769815215" lon="7.352910751488553"><ele>1218.6000000000001</ele><time>2026-05-02T14:02:51.999Z</time></trkpt><trkpt lat="44.59699588316895" lon="7.353023508441322"><ele>1219.0</ele><time>2026-05-02T14:02:52.999Z</time></trkpt><trkpt lat="44.5969760925493" lon="7.353116877705344"><ele>1216.0</ele><time>2026-05-02T14:02:53.999Z</time></trkpt><trkpt lat="44.59695531834504" lon="7.353224133036045"><ele>1213.0</ele><time>2026-05-02T14:02:54.999Z</time></trkpt><trkpt lat="44.596933094543104" lon="7.35333774205573"><ele>1210.0</ele><time>2026-05-02T14:02:55.999Z</time></trkpt><trkpt lat="44.59690038513013" lon="7.35342119500976"><ele>1207.0</ele><time>2026-05-02T14:02:56.999Z</time></trkpt><trkpt lat="44.59687722010841" lon="7.353522031201538"><ele>1204.0</ele><time>2026-05-02T14:02:57.999Z</time></trkpt><trkpt lat="44.59687173726567" lon="7.353653557110182"><ele>1201.0</ele><time>2026-05-02T14:02:58.999Z</time></trkpt><trkpt lat="44.59686302766154" lon="7.353842781229893"><ele>1198.8</ele><time>2026-05-02T14:02:59.999Z</time></trkpt><trkpt lat="44.596856810846425" lon="7.354012458311579"><ele>1196.6</ele><time>2026-05-02T14:03:00.999Z</time></trkpt><trkpt lat="44.596841411838824" lon="7.354149702388072"><ele>1194.4</ele><time>2026-05-02T14:03:01.999Z</time></trkpt><trkpt lat="44.596808897003946" lon="7.35424554229009"><ele>1192.2</ele><time>2026-05-02T14:03:02.999Z</time></trkpt><trkpt lat="44.596766716774795" lon="7.354360483000174"><ele>1190.0</ele><time>2026-05-02T14:03:03.999Z</time></trkpt><trkpt lat="44.5967154951957" lon="7.35450839046372"><ele>1190.0</ele><time>2026-05-02T14:03:04.999Z</time></trkpt><trkpt lat="44.59667805374703" lon="7.354617721218933"><ele>1190.0</ele><time>2026-05-02T14:03:05.999Z</time></trkpt><trkpt lat="44.59664969496921" lon="7.354741395603085"><ele>1190.0</ele><time>2026-05-02T14:03:06.999Z</time></trkpt><trkpt lat="44.596629815791964" lon="7.354865480442232"><ele>1190.0</ele><time>2026-05-02T14:03:07.999Z</time></trkpt><trkpt lat="44.59665149484794" lon="7.354973753743658"><ele>1190.0</ele><time>2026-05-02T14:03:08.999Z</time></trkpt><trkpt lat="44.596635107127845" lon="7.355089726901105"><ele>1190.0</ele><time>2026-05-02T14:03:09.999Z</time></trkpt><trkpt lat="44.596633453027714" lon="7.355184246649465"><ele>1188.3333333333335</ele><time>2026-05-02T14:03:10.999Z</time></trkpt><trkpt lat="44.59665505551982" lon="7.3552824955527525"><ele>1186.6666666666667</ele><time>2026-05-02T14:03:11.999Z</time></trkpt><trkpt lat="44.59669041317645" lon="7.355356046406206"><ele>1185.0</ele><time>2026-05-02T14:03:12.999Z</time></trkpt><trkpt lat="44.59673381300502" lon="7.3554423871504"><ele>1183.3333333333333</ele><time>2026-05-02T14:03:13.999Z</time></trkpt><trkpt lat="44.59678038964157" lon="7.355536767776017"><ele>1181.6666666666665</ele><time>2026-05-02T14:03:14.999Z</time></trkpt><trkpt lat="44.596810767503335" lon="7.355616409562758"><ele>1180.0</ele><time>2026-05-02T14:03:15.999Z</time></trkpt><trkpt lat="44.59681633264885" lon="7.35577040806971"><ele>1177.2</ele><time>2026-05-02T14:03:17.999Z</time></trkpt><trkpt lat="44.59682605374646" lon="7.3558894686761755"><ele>1174.4</ele><time>2026-05-02T14:03:19.999Z</time></trkpt><trkpt lat="44.59676550187511" lon="7.356032117179811"><ele>1171.6</ele><time>2026-05-02T14:03:22Z</time></trkpt><trkpt lat="44.59673422478788" lon="7.356113694958529"><ele>1168.8</ele><time>2026-05-02T14:03:23Z</time></trkpt><trkpt lat="44.59667835531032" lon="7.356233567353529"><ele>1166.0</ele><time>2026-05-02T14:03:25Z</time></trkpt><trkpt lat="44.59656885250968" lon="7.356334885680373"><ele>1164.8333333333335</ele><time>2026-05-02T14:03:27Z</time></trkpt><trkpt lat="44.596512981210985" lon="7.356401262283622"><ele>1163.6666666666667</ele><time>2026-05-02T14:03:28Z</time></trkpt><trkpt lat="44.596453992003276" lon="7.356479774333981"><ele>1162.5</ele><time>2026-05-02T14:03:29Z</time></trkpt><trkpt lat="44.59638484576968" lon="7.356564701570997"><ele>1161.3333333333333</ele><time>2026-05-02T14:03:30Z</time></trkpt><trkpt lat="44.59635051870043" lon="7.3566806298191985"><ele>1160.1666666666665</ele><time>2026-05-02T14:03:31Z</time></trkpt><trkpt lat="44.59631959794805" lon="7.356784523427212"><ele>1159.0</ele><time>2026-05-02T14:03:32Z</time></trkpt><trkpt lat="44.59624970229012" lon="7.356880399323743"><ele>1159.0</ele><time>2026-05-02T14:03:33Z</time></trkpt><trkpt lat="44.59617585386913" lon="7.356966258486295"><ele>1159.0</ele><time>2026-05-02T14:03:34Z</time></trkpt><trkpt lat="44.59612516500828" lon="7.357034972183818"><ele>1159.0</ele><time>2026-05-02T14:03:35Z</time></trkpt><trkpt lat="44.59609079793342" lon="7.357133374982858"><ele>1159.0</ele><time>2026-05-02T14:03:36Z</time></trkpt><trkpt lat="44.59607105899896" lon="7.357249102808414"><ele>1159.0</ele><time>2026-05-02T14:03:37Z</time></trkpt><trkpt lat="44.596041238091985" lon="7.357357211028643"><ele>1159.0</ele><time>2026-05-02T14:03:38Z</time></trkpt><trkpt lat="44.5960354878694" lon="7.357451001269766"><ele>1156.8333333333333</ele><time>2026-05-02T14:03:39Z</time></trkpt><trkpt lat="44.59599868957868" lon="7.35753557517336"><ele>1154.6666666666665</ele><time>2026-05-02T14:03:40Z</time></trkpt><trkpt lat="44.59592656497547" lon="7.357614739484846"><ele>1152.5</ele><time>2026-05-02T14:03:41Z</time></trkpt><trkpt lat="44.59586142223733" lon="7.357686168325567"><ele>1150.3333333333333</ele><time>2026-05-02T14:03:42Z</time></trkpt><trkpt lat="44.595820745415914" lon="7.357755910312615"><ele>1148.1666666666667</ele><time>2026-05-02T14:03:43Z</time></trkpt><trkpt lat="44.59580100319331" lon="7.357855627943959"><ele>1146.0</ele><time>2026-05-02T14:03:44Z</time></trkpt><trkpt lat="44.595775759305596" lon="7.357960734319464"><ele>1146.0</ele><time>2026-05-02T14:03:45Z</time></trkpt><trkpt lat="44.59573697001378" lon="7.358068065904363"><ele>1146.0</ele><time>2026-05-02T14:03:46Z</time></trkpt><trkpt lat="44.595710507100414" lon="7.358158887696792"><ele>1146.0</ele><time>2026-05-02T14:03:47Z</time></trkpt><trkpt lat="44.59571533307524" lon="7.358333947716203"><ele>1146.0</ele><time>2026-05-02T14:03:49Z</time></trkpt><trkpt lat="44.59574377191915" lon="7.358428740538555"><ele>1146.0</ele><time>2026-05-02T14:03:50Z</time></trkpt><trkpt lat="44.59577290060184" lon="7.358532729465199"><ele>1146.0</ele><time>2026-05-02T14:03:51Z</time></trkpt><trkpt lat="44.59579125581504" lon="7.358641642371116"><ele>1146.0</ele><time>2026-05-02T14:03:52Z</time></trkpt><trkpt lat="44.59579094670847" lon="7.358739689292908"><ele>1146.0</ele><time>2026-05-02T14:03:53Z</time></trkpt><trkpt lat="44.59578353628446" lon="7.358837316092467"><ele>1146.0</ele><time>2026-05-02T14:03:54Z</time></trkpt><trkpt lat="44.59574983483275" lon="7.358940209457562"><ele>1146.0</ele><time>2026-05-02T14:03:55Z</time></trkpt><trkpt lat="44.595711701694356" lon="7.359020013125301"><ele>1146.0</ele><time>2026-05-02T14:03:56Z</time></trkpt><trkpt lat="44.59567992192102" lon="7.3591134023732545"><ele>1146.0</ele><time>2026-05-02T14:03:57Z</time></trkpt><trkpt lat="44.59565621931596" lon="7.359205968492878"><ele>1146.0</ele><time>2026-05-02T14:03:58Z</time></trkpt><trkpt lat="44.59562585232492" lon="7.359300219554117"><ele>1144.5</ele><time>2026-05-02T14:03:59Z</time></trkpt><trkpt lat="44.595604171902885" lon="7.3593921678967655"><ele>1143.0</ele><time>2026-05-02T14:04:00Z</time></trkpt><trkpt lat="44.59557678110533" lon="7.359483089267357"><ele>1141.5</ele><time>2026-05-02T14:04:01Z</time></trkpt><trkpt lat="44.595554775853294" lon="7.359569837481064"><ele>1140.0</ele><time>2026-05-02T14:04:02Z</time></trkpt><trkpt lat="44.59553053912801" lon="7.359683482886517"><ele>1138.5</ele><time>2026-05-02T14:04:03Z</time></trkpt><trkpt lat="44.595465617453705" lon="7.359859716698685"><ele>1137.0</ele><time>2026-05-02T14:04:05Z</time></trkpt><trkpt lat="44.59540970090907" lon="7.359974094708111"><ele>1135.2857142857142</ele><time>2026-05-02T14:04:06Z</time></trkpt><trkpt lat="44.595362878182094" lon="7.360069460366939"><ele>1133.5714285714284</ele><time>2026-05-02T14:04:07Z</time></trkpt><trkpt lat="44.59532872636452" lon="7.360156707726227"><ele>1131.857142857143</ele><time>2026-05-02T14:04:08Z</time></trkpt><trkpt lat="44.595298730751026" lon="7.360242895870887"><ele>1130.142857142857</ele><time>2026-05-02T14:04:09Z</time></trkpt><trkpt lat="44.59526752008083" lon="7.360324410051985"><ele>1128.4285714285716</ele><time>2026-05-02T14:04:10Z</time></trkpt><trkpt lat="44.595223503652605" lon="7.3604038962454235"><ele>1126.7142857142858</ele><time>2026-05-02T14:04:11Z</time></trkpt><trkpt lat="44.595189532768806" lon="7.360486821492844"><ele>1125.0</ele><time>2026-05-02T14:04:12Z</time></trkpt><trkpt lat="44.59514906320012" lon="7.360557174141968"><ele>1122.0</ele><time>2026-05-02T14:04:13Z</time></trkpt><trkpt lat="44.59505630973177" lon="7.360658929831652"><ele>1119.0</ele><time>2026-05-02T14:04:15Z</time></trkpt><trkpt lat="44.59496293994821" lon="7.360726125523848"><ele>1116.0</ele><time>2026-05-02T14:04:17Z</time></trkpt><trkpt lat="44.594893315622244" lon="7.360697064979699"><ele>1113.0</ele><time>2026-05-02T14:04:19Z</time></trkpt><trkpt lat="44.59485595071396" lon="7.360611141760061"><ele>1110.0</ele><time>2026-05-02T14:04:21Z</time></trkpt><trkpt lat="44.59486612715626" lon="7.360471378913789"><ele>1110.0</ele><time>2026-05-02T14:04:23Z</time></trkpt><trkpt lat="44.594900628295555" lon="7.360313054560055"><ele>1110.0</ele><time>2026-05-02T14:04:25Z</time></trkpt><trkpt lat="44.594946823536866" lon="7.360160334343779"><ele>1110.0</ele><time>2026-05-02T14:04:26.999Z</time></trkpt><trkpt lat="44.59503047885748" lon="7.3600597806072425"><ele>1110.0</ele><time>2026-05-02T14:04:28.999Z</time></trkpt><trkpt lat="44.59503785858751" lon="7.35995350848094"><ele>1110.0</ele><time>2026-05-02T14:04:30.999Z</time></trkpt><trkpt lat="44.59492055155511" lon="7.359957741090149"><ele>1110.0</ele><time>2026-05-02T14:04:32.999Z</time></trkpt><trkpt lat="44.59486943745828" lon="7.360026430975819"><ele>1110.0</ele><time>2026-05-02T14:04:33.999Z</time></trkpt><trkpt lat="44.59482385326673" lon="7.360095290478625"><ele>1110.0</ele><time>2026-05-02T14:04:34.999Z</time></trkpt><trkpt lat="44.594712740982835" lon="7.360174884217357"><ele>1110.0</ele><time>2026-05-02T14:04:36.999Z</time></trkpt><trkpt lat="44.59464837041561" lon="7.360217015914437"><ele>1110.0</ele><time>2026-05-02T14:04:37.999Z</time></trkpt><trkpt lat="44.59459264165298" lon="7.360267070293189"><ele>1110.0</ele><time>2026-05-02T14:04:38.999Z</time></trkpt><trkpt lat="44.594518260269524" lon="7.360369759611131"><ele>1104.3333333333333</ele><time>2026-05-02T14:04:40.999Z</time></trkpt><trkpt lat="44.59447731257147" lon="7.360511381491777"><ele>1098.6666666666667</ele><time>2026-05-02T14:04:42.999Z</time></trkpt><trkpt lat="44.5944446690765" lon="7.360610573572814"><ele>1093.0</ele><time>2026-05-02T14:04:43.999Z</time></trkpt><trkpt lat="44.594411408871096" lon="7.360701051278566"><ele>1087.3333333333335</ele><time>2026-05-02T14:04:44.999Z</time></trkpt><trkpt lat="44.594384474523565" lon="7.360790609021019"><ele>1081.6666666666667</ele><time>2026-05-02T14:04:45.999Z</time></trkpt><trkpt lat="44.59434546720789" lon="7.360874894498526"><ele>1076.0</ele><time>2026-05-02T14:04:46.999Z</time></trkpt><trkpt lat="44.59432203179735" lon="7.3609756918022295"><ele>1076.0</ele><time>2026-05-02T14:04:47.999Z</time></trkpt><trkpt lat="44.59431201846666" lon="7.361101112336965"><ele>1076.0</ele><time>2026-05-02T14:04:48.999Z</time></trkpt><trkpt lat="44.594300385550376" lon="7.3612319848415915"><ele>1076.0</ele><time>2026-05-02T14:04:49.999Z</time></trkpt><trkpt lat="44.5942911720846" lon="7.361334674967223"><ele>1076.0</ele><time>2026-05-02T14:04:50.999Z</time></trkpt><trkpt lat="44.59429026237463" lon="7.361428226156282"><ele>1076.0</ele><time>2026-05-02T14:04:51.999Z</time></trkpt><trkpt lat="44.59430437918829" lon="7.361514566636234"><ele>1076.0</ele><time>2026-05-02T14:04:52.999Z</time></trkpt><trkpt lat="44.59434074814072" lon="7.361608757196708"><ele>1076.0</ele><time>2026-05-02T14:04:53.999Z</time></trkpt><trkpt lat="44.5943896253117" lon="7.36167926144704"><ele>1076.0</ele><time>2026-05-02T14:04:54.999Z</time></trkpt><trkpt lat="44.594451875730044" lon="7.361734001452659"><ele>1076.0</ele><time>2026-05-02T14:04:55.999Z</time></trkpt><trkpt lat="44.59449992029291" lon="7.36180591586413"><ele>1076.0</ele><time>2026-05-02T14:04:56.999Z</time></trkpt><trkpt lat="44.594549846056175" lon="7.361868321670186"><ele>1076.0</ele><time>2026-05-02T14:04:57.999Z</time></trkpt><trkpt lat="44.59458169967426" lon="7.36200534424384"><ele>1076.0</ele><time>2026-05-02T14:04:59.999Z</time></trkpt><trkpt lat="44.59453529486849" lon="7.362105560452382"><ele>1074.8</ele><time>2026-05-02T14:05:01.999Z</time></trkpt><trkpt lat="44.594578459116676" lon="7.362187568297544"><ele>1073.6</ele><time>2026-05-02T14:05:11.999Z</time></trkpt><trkpt lat="44.59466082934276" lon="7.362124516039691"><ele>1072.4</ele><time>2026-05-02T14:05:13.999Z</time></trkpt><trkpt lat="44.594719371235755" lon="7.362028338201943"><ele>1071.2</ele><time>2026-05-02T14:05:14.999Z</time></trkpt><trkpt lat="44.59479747176163" lon="7.361931700629966"><ele>1070.0</ele><time>2026-05-02T14:05:15.999Z</time></trkpt><trkpt lat="44.59486113669436" lon="7.3618367609538335"><ele>1070.0</ele><time>2026-05-02T14:05:16.999Z</time></trkpt><trkpt lat="44.594930029946916" lon="7.361730132922349"><ele>1070.0</ele><time>2026-05-02T14:05:17.999Z</time></trkpt><trkpt lat="44.59499478586652" lon="7.361651642267406"><ele>1070.0</ele><time>2026-05-02T14:05:18.999Z</time></trkpt><trkpt lat="44.59508723419737" lon="7.361584358847315"><ele>1070.0</ele><time>2026-05-02T14:05:20.999Z</time></trkpt><trkpt lat="44.595158539506535" lon="7.361595772682682"><ele>1070.0</ele><time>2026-05-02T14:05:21.999Z</time></trkpt><trkpt lat="44.5952436847953" lon="7.36162672422308"><ele>1065.6</ele><time>2026-05-02T14:05:22.999Z</time></trkpt><trkpt lat="44.59536323823571" lon="7.361633818819853"><ele>1061.2</ele><time>2026-05-02T14:05:24.999Z</time></trkpt><trkpt lat="44.59547767324204" lon="7.361651617686964"><ele>1056.8</ele><time>2026-05-02T14:05:27Z</time></trkpt><trkpt lat="44.59555438191622" lon="7.361694396302358"><ele>1052.4</ele><time>2026-05-02T14:05:28Z</time></trkpt><trkpt lat="44.595654949211884" lon="7.361650606788148"><ele>1048.0</ele><time>2026-05-02T14:05:30Z</time></trkpt><trkpt lat="44.59576461438688" lon="7.3616012360863445"><ele>1048.0</ele><time>2026-05-02T14:05:32Z</time></trkpt><trkpt lat="44.595886423876365" lon="7.3615911455522705"><ele>1048.0</ele><time>2026-05-02T14:05:34Z</time></trkpt><trkpt lat="44.59599997436339" lon="7.361603484949122"><ele>1048.0</ele><time>2026-05-02T14:05:36Z</time></trkpt><trkpt lat="44.596062338536605" lon="7.3615846631842174"><ele>1048.0</ele><time>2026-05-02T14:05:37Z</time></trkpt><trkpt lat="44.5961341185881" lon="7.361602843404556"><ele>1048.0</ele><time>2026-05-02T14:05:38Z</time></trkpt><trkpt lat="44.59626333449885" lon="7.361575722939591"><ele>1045.2</ele><time>2026-05-02T14:05:40Z</time></trkpt><trkpt lat="44.59640160575175" lon="7.361584469730314"><ele>1042.4</ele><time>2026-05-02T14:05:42Z</time></trkpt><trkpt lat="44.59648181748374" lon="7.361584700050986"><ele>1039.6000000000001</ele><time>2026-05-02T14:05:43Z</time></trkpt><trkpt lat="44.596554846993754" lon="7.361532613545582"><ele>1036.8</ele><time>2026-05-02T14:05:44Z</time></trkpt><trkpt lat="44.59663463876607" lon="7.361473844763285"><ele>1034.0</ele><time>2026-05-02T14:05:45Z</time></trkpt><trkpt lat="44.596710803352316" lon="7.361382021549228"><ele>1036.0</ele><time>2026-05-02T14:05:46Z</time></trkpt><trkpt lat="44.596778991357645" lon="7.361292449061527"><ele>1038.0</ele><time>2026-05-02T14:05:47Z</time></trkpt><trkpt lat="44.59684194377628" lon="7.361194821412334"><ele>1040.0</ele><time>2026-05-02T14:05:48Z</time></trkpt><trkpt lat="44.59689882648097" lon="7.361076791245192"><ele>1042.0</ele><time>2026-05-02T14:05:49Z</time></trkpt><trkpt lat="44.59698438785962" lon="7.360960508908785"><ele>1044.0</ele><time>2026-05-02T14:05:50Z</time></trkpt><trkpt lat="44.59705304164501" lon="7.360826940247531"><ele>1044.0</ele><time>2026-05-02T14:05:51Z</time></trkpt><trkpt lat="44.597123537383794" lon="7.360733804978451"><ele>1044.0</ele><time>2026-05-02T14:05:52Z</time></trkpt><trkpt lat="44.597184206902334" lon="7.360673968739121"><ele>1044.0</ele><time>2026-05-02T14:05:53Z</time></trkpt><trkpt lat="44.597241533184196" lon="7.3606193838775456"><ele>1044.0</ele><time>2026-05-02T14:05:54Z</time></trkpt><trkpt lat="44.59732583511366" lon="7.360597639394665"><ele>1044.0</ele><time>2026-05-02T14:05:55Z</time></trkpt><trkpt lat="44.59740315571902" lon="7.360591714232655"><ele>1044.0</ele><time>2026-05-02T14:05:56Z</time></trkpt><trkpt lat="44.59747787052467" lon="7.36059848908884"><ele>1044.0</ele><time>2026-05-02T14:05:57Z</time></trkpt><trkpt lat="44.597542371999786" lon="7.3606469877885665"><ele>1044.0</ele><time>2026-05-02T14:05:58Z</time></trkpt><trkpt lat="44.59761157218933" lon="7.360715867760663"><ele>1044.0</ele><time>2026-05-02T14:05:59Z</time></trkpt><trkpt lat="44.597691894499945" lon="7.360722270933892"><ele>1044.0</ele><time>2026-05-02T14:06:00Z</time></trkpt><trkpt lat="44.59777874032884" lon="7.360720923741256"><ele>1044.0</ele><time>2026-05-02T14:06:01Z</time></trkpt><trkpt lat="44.59791783580734" lon="7.360698201653807"><ele>1045.0</ele><time>2026-05-02T14:06:02Z</time></trkpt><trkpt lat="44.59801648611682" lon="7.360672067746365"><ele>1046.0</ele><time>2026-05-02T14:06:03Z</time></trkpt><trkpt lat="44.598096224266314" lon="7.36066344927427"><ele>1047.0</ele><time>2026-05-02T14:06:04Z</time></trkpt><trkpt lat="44.59819293934748" lon="7.360791277668962"><ele>1048.0</ele><time>2026-05-02T14:06:06Z</time></trkpt><trkpt lat="44.59824161457777" lon="7.360897279713375"><ele>1049.0</ele><time>2026-05-02T14:06:07Z</time></trkpt><trkpt lat="44.59830916885437" lon="7.360970881758849"><ele>1049.0</ele><time>2026-05-02T14:06:08Z</time></trkpt><trkpt lat="44.598411924538354" lon="7.36098734437613"><ele>1049.0</ele><time>2026-05-02T14:06:09Z</time></trkpt><trkpt lat="44.59847940385221" lon="7.361052037940349"><ele>1049.0</ele><time>2026-05-02T14:06:10Z</time></trkpt><trkpt lat="44.59858030286609" lon="7.361084291950831"><ele>1049.0</ele><time>2026-05-02T14:06:11Z</time></trkpt><trkpt lat="44.598677184661824" lon="7.3611251507694435"><ele>1049.0</ele><time>2026-05-02T14:06:12Z</time></trkpt><trkpt lat="44.598775958886485" lon="7.3611224460674745"><ele>1047.0</ele><time>2026-05-02T14:06:13Z</time></trkpt><trkpt lat="44.59884722294653" lon="7.361106635883782"><ele>1045.0</ele><time>2026-05-02T14:06:14Z</time></trkpt><trkpt lat="44.59897888376511" lon="7.361121108097476"><ele>1043.0</ele><time>2026-05-02T14:06:16Z</time></trkpt><trkpt lat="44.599047911410764" lon="7.3611913652918695"><ele>1041.0</ele><time>2026-05-02T14:06:17Z</time></trkpt><trkpt lat="44.59908836930123" lon="7.3612669322278474"><ele>1039.0</ele><time>2026-05-02T14:06:18Z</time></trkpt><trkpt lat="44.59912816065008" lon="7.36137824364036"><ele>1037.0</ele><time>2026-05-02T14:06:20Z</time></trkpt><trkpt lat="44.59918521528209" lon="7.361422510960937"><ele>1037.0</ele><time>2026-05-02T14:06:22Z</time></trkpt><trkpt lat="44.599293761802805" lon="7.361500548855363"><ele>1037.0</ele><time>2026-05-02T14:06:24Z</time></trkpt><trkpt lat="44.5993743075902" lon="7.361609260058743"><ele>1037.0</ele><time>2026-05-02T14:06:25Z</time></trkpt><trkpt lat="44.59944677332389" lon="7.361722087150712"><ele>1037.0</ele><time>2026-05-02T14:06:26Z</time></trkpt><trkpt lat="44.59951383871846" lon="7.361839738987289"><ele>1037.0</ele><time>2026-05-02T14:06:27Z</time></trkpt><trkpt lat="44.59959849899057" lon="7.3619233172825"><ele>1042.0</ele><time>2026-05-02T14:06:27.999Z</time></trkpt><trkpt lat="44.59970624951419" lon="7.362013263890875"><ele>1047.0</ele><time>2026-05-02T14:06:28.999Z</time></trkpt><trkpt lat="44.599812140839745" lon="7.362097870224499"><ele>1052.0</ele><time>2026-05-02T14:06:29.999Z</time></trkpt><trkpt lat="44.599912230828586" lon="7.362131181570904"><ele>1057.0</ele><time>2026-05-02T14:06:30.999Z</time></trkpt><trkpt lat="44.600001194814396" lon="7.362180659296783"><ele>1062.0</ele><time>2026-05-02T14:06:31.999Z</time></trkpt><trkpt lat="44.60006955525364" lon="7.362175028931406"><ele>1062.0</ele><time>2026-05-02T14:06:32.999Z</time></trkpt><trkpt lat="44.600132904884916" lon="7.36218151316597"><ele>1062.0</ele><time>2026-05-02T14:06:33.999Z</time></trkpt><trkpt lat="44.60021931819883" lon="7.36235684489203"><ele>1062.0</ele><time>2026-05-02T14:06:35.999Z</time></trkpt><trkpt lat="44.60031262813761" lon="7.362414777553619"><ele>1062.0</ele><time>2026-05-02T14:06:36.999Z</time></trkpt><trkpt lat="44.60040156009895" lon="7.362431988867209"><ele>1062.0</ele><time>2026-05-02T14:06:37.999Z</time></trkpt><trkpt lat="44.60047749245926" lon="7.362434475063881"><ele>1057.8</ele><time>2026-05-02T14:06:38.999Z</time></trkpt><trkpt lat="44.6005382966133" lon="7.3624668250439465"><ele>1053.6</ele><time>2026-05-02T14:06:39.999Z</time></trkpt><trkpt lat="44.60061408367862" lon="7.362571280157647"><ele>1049.3999999999999</ele><time>2026-05-02T14:06:41.999Z</time></trkpt><trkpt lat="44.60073449095858" lon="7.36250178323041"><ele>1045.2</ele><time>2026-05-02T14:06:43.999Z</time></trkpt><trkpt lat="44.60077905878981" lon="7.362379691419753"><ele>1041.0</ele><time>2026-05-02T14:06:44.999Z</time></trkpt><trkpt lat="44.60083595969707" lon="7.362261655136103"><ele>1042.8333333333333</ele><time>2026-05-02T14:06:45.999Z</time></trkpt><trkpt lat="44.60090954586171" lon="7.362173328189006"><ele>1044.6666666666667</ele><time>2026-05-02T14:06:46.999Z</time></trkpt><trkpt lat="44.60097552895061" lon="7.362098616013643"><ele>1046.5</ele><time>2026-05-02T14:06:47.999Z</time></trkpt><trkpt lat="44.601045674758424" lon="7.362038291236823"><ele>1048.3333333333335</ele><time>2026-05-02T14:06:48.999Z</time></trkpt><trkpt lat="44.60109971636423" lon="7.361981928803584"><ele>1050.1666666666667</ele><time>2026-05-02T14:06:49.999Z</time></trkpt><trkpt lat="44.60115340186367" lon="7.361932993495535"><ele>1052.0</ele><time>2026-05-02T14:06:50.999Z</time></trkpt><trkpt lat="44.601217184589615" lon="7.361829888964205"><ele>1044.6</ele><time>2026-05-02T14:06:52.999Z</time></trkpt><trkpt lat="44.60128189827547" lon="7.361744502814731"><ele>1037.2</ele><time>2026-05-02T14:06:54.999Z</time></trkpt><trkpt lat="44.601332811761395" lon="7.361623740452082"><ele>1029.8</ele><time>2026-05-02T14:06:56.999Z</time></trkpt><trkpt lat="44.601379460172105" lon="7.361504829368703"><ele>1022.4</ele><time>2026-05-02T14:06:58.999Z</time></trkpt><trkpt lat="44.60144398926131" lon="7.361377316888422"><ele>1015.0</ele><time>2026-05-02T14:07:00.999Z</time></trkpt><trkpt lat="44.601455042987745" lon="7.36124745206944"><ele>1014.4</ele><time>2026-05-02T14:07:02.999Z</time></trkpt><trkpt lat="44.60147889152523" lon="7.361088603083324"><ele>1013.8</ele><time>2026-05-02T14:07:04.999Z</time></trkpt><trkpt lat="44.601524187898114" lon="7.3609573921854725"><ele>1013.2</ele><time>2026-05-02T14:07:06.999Z</time></trkpt><trkpt lat="44.60156970220771" lon="7.360829401393808"><ele>1012.6</ele><time>2026-05-02T14:07:08.999Z</time></trkpt><trkpt lat="44.601623054954906" lon="7.360673770158983"><ele>1012.0</ele><time>2026-05-02T14:07:10.999Z</time></trkpt><trkpt lat="44.60168817328685" lon="7.3605355463305715"><ele>1012.0</ele><time>2026-05-02T14:07:12.999Z</time></trkpt><trkpt lat="44.601714787862065" lon="7.3603133996755865"><ele>1012.0</ele><time>2026-05-02T14:07:14.999Z</time></trkpt><trkpt lat="44.60171983283521" lon="7.360176518759918"><ele>1012.0</ele><time>2026-05-02T14:07:15.999Z</time></trkpt><trkpt lat="44.601724476786245" lon="7.360068529653171"><ele>1012.0</ele><time>2026-05-02T14:07:16.999Z</time></trkpt><trkpt lat="44.60173088889077" lon="7.359949827053371"><ele>1012.0</ele><time>2026-05-02T14:07:17.999Z</time></trkpt><trkpt lat="44.60174100509504" lon="7.3598360351031955"><ele>1012.0</ele><time>2026-05-02T14:07:18.999Z</time></trkpt><trkpt lat="44.60175759188436" lon="7.35973497798685"><ele>1012.0</ele><time>2026-05-02T14:07:19.999Z</time></trkpt><trkpt lat="44.6017844102283" lon="7.359563095573898"><ele>1012.0</ele><time>2026-05-02T14:07:21.999Z</time></trkpt><trkpt lat="44.60177836459639" lon="7.359457579480664"><ele>1012.0</ele><time>2026-05-02T14:07:22.999Z</time></trkpt><trkpt lat="44.60177412234168" lon="7.3593495869211285"><ele>1012.0</ele><time>2026-05-02T14:07:24.999Z</time></trkpt><trkpt lat="44.60183783378012" lon="7.359460689685744"><ele>1012.0</ele><time>2026-05-02T14:07:26.999Z</time></trkpt><trkpt lat="44.601877410908834" lon="7.359590271400318"><ele>1012.0</ele><time>2026-05-02T14:07:28.999Z</time></trkpt><trkpt lat="44.60189117806982" lon="7.359697285037236"><ele>1012.0</ele><time>2026-05-02T14:07:29.999Z</time></trkpt><trkpt lat="44.601923196758925" lon="7.35980358122842"><ele>1012.0</ele><time>2026-05-02T14:07:30.999Z</time></trkpt><trkpt lat="44.602008763106916" lon="7.359922908599986"><ele>1012.0</ele><time>2026-05-02T14:07:32Z</time></trkpt><trkpt lat="44.602053448242266" lon="7.360030574442406"><ele>1010.2857142857144</ele><time>2026-05-02T14:07:33Z</time></trkpt><trkpt lat="44.60208164612095" lon="7.360137875628485"><ele>1008.5714285714287</ele><time>2026-05-02T14:07:34Z</time></trkpt><trkpt lat="44.602127701478686" lon="7.360220695092507"><ele>1006.8571428571429</ele><time>2026-05-02T14:07:35Z</time></trkpt><trkpt lat="44.602166673460104" lon="7.3603036880552715"><ele>1005.1428571428572</ele><time>2026-05-02T14:07:36Z</time></trkpt><trkpt lat="44.60219435218086" lon="7.360404646651234"><ele>1003.4285714285716</ele><time>2026-05-02T14:07:37Z</time></trkpt><trkpt lat="44.60224110191996" lon="7.360476362578097"><ele>1001.7142857142857</ele><time>2026-05-02T14:07:38Z</time></trkpt><trkpt lat="44.602281563369495" lon="7.3605587661892224"><ele>1000.0</ele><time>2026-05-02T14:07:39Z</time></trkpt><trkpt lat="44.602311550470006" lon="7.3606452838042795"><ele>999.6666666666666</ele><time>2026-05-02T14:07:40Z</time></trkpt><trkpt lat="44.6023460641235" lon="7.3607303647589175"><ele>999.3333333333333</ele><time>2026-05-02T14:07:41Z</time></trkpt><trkpt lat="44.602373054706106" lon="7.360814390219534"><ele>999.0</ele><time>2026-05-02T14:07:42Z</time></trkpt><trkpt lat="44.60240074488253" lon="7.360924036611079"><ele>998.6666666666667</ele><time>2026-05-02T14:07:43Z</time></trkpt><trkpt lat="44.60243432120612" lon="7.361024724161752"><ele>998.3333333333334</ele><time>2026-05-02T14:07:44Z</time></trkpt><trkpt lat="44.60246413846889" lon="7.361138802497091"><ele>998.0</ele><time>2026-05-02T14:07:45Z</time></trkpt><trkpt lat="44.60250465592726" lon="7.361262201196264"><ele>996.5000000000001</ele><time>2026-05-02T14:07:46Z</time></trkpt><trkpt lat="44.60254972254426" lon="7.36136973517196"><ele>995.0</ele><time>2026-05-02T14:07:47Z</time></trkpt><trkpt lat="44.602598685827" lon="7.361478155836978"><ele>993.5</ele><time>2026-05-02T14:07:48Z</time></trkpt><trkpt lat="44.60264886030058" lon="7.36158386575214"><ele>992.0</ele><time>2026-05-02T14:07:49Z</time></trkpt><trkpt lat="44.60267786427413" lon="7.361701123207331"><ele>990.5000000000001</ele><time>2026-05-02T14:07:50Z</time></trkpt><trkpt lat="44.60269740285569" lon="7.361791828826958"><ele>989.0</ele><time>2026-05-02T14:07:51Z</time></trkpt><trkpt lat="44.60270496765572" lon="7.36194405531106"><ele>989.0</ele><time>2026-05-02T14:07:53Z</time></trkpt><trkpt lat="44.602673343485996" lon="7.362102016016056"><ele>989.0000000000001</ele><time>2026-05-02T14:07:55Z</time></trkpt><trkpt lat="44.602671815679805" lon="7.362265935882567"><ele>989.0000000000001</ele><time>2026-05-02T14:07:57Z</time></trkpt><trkpt lat="44.60269874090793" lon="7.362355728621762"><ele>989.0</ele><time>2026-05-02T14:07:58Z</time></trkpt><trkpt lat="44.602750130027346" lon="7.362459087323781"><ele>989.0</ele><time>2026-05-02T14:07:59Z</time></trkpt><trkpt lat="44.60278300462132" lon="7.362572995982003"><ele>989.6</ele><time>2026-05-02T14:08:00Z</time></trkpt><trkpt lat="44.602828735647655" lon="7.362671643881687"><ele>990.2</ele><time>2026-05-02T14:08:01Z</time></trkpt><trkpt lat="44.60288478683381" lon="7.362799733794734"><ele>990.8000000000001</ele><time>2026-05-02T14:08:02Z</time></trkpt><trkpt lat="44.60292699665378" lon="7.362933535041176"><ele>991.4000000000001</ele><time>2026-05-02T14:08:03Z</time></trkpt><trkpt lat="44.6029817310378" lon="7.363031523252308"><ele>992.0</ele><time>2026-05-02T14:08:04Z</time></trkpt><trkpt lat="44.603046534980855" lon="7.3631201577527685"><ele>986.8</ele><time>2026-05-02T14:08:05Z</time></trkpt><trkpt lat="44.60311074931993" lon="7.363208033714153"><ele>981.6</ele><time>2026-05-02T14:08:06Z</time></trkpt><trkpt lat="44.60317740178094" lon="7.3632874823463945"><ele>976.3999999999999</ele><time>2026-05-02T14:08:07Z</time></trkpt><trkpt lat="44.60324236041489" lon="7.363357019982833"><ele>971.1999999999999</ele><time>2026-05-02T14:08:08Z</time></trkpt><trkpt lat="44.60332946272626" lon="7.363446943758011"><ele>966.0</ele><time>2026-05-02T14:08:09Z</time></trkpt><trkpt lat="44.60341826833856" lon="7.363506214544108"><ele>966.0</ele><time>2026-05-02T14:08:10Z</time></trkpt><trkpt lat="44.60349551884426" lon="7.36357367775957"><ele>965.9999999999999</ele><time>2026-05-02T14:08:11Z</time></trkpt><trkpt lat="44.60357421048829" lon="7.3636270767660355"><ele>965.9999999999999</ele><time>2026-05-02T14:08:12Z</time></trkpt><trkpt lat="44.60364308573125" lon="7.363651829309053"><ele>966.0</ele><time>2026-05-02T14:08:13Z</time></trkpt><trkpt lat="44.603763396031525" lon="7.363736394661019"><ele>966.0</ele><time>2026-05-02T14:08:15Z</time></trkpt><trkpt lat="44.603828506719275" lon="7.363803215582652"><ele>964.0</ele><time>2026-05-02T14:08:16Z</time></trkpt><trkpt lat="44.60395546339894" lon="7.363907481883518"><ele>961.9999999999999</ele><time>2026-05-02T14:08:18Z</time></trkpt><trkpt lat="44.604013101711324" lon="7.363990777236312"><ele>959.9999999999999</ele><time>2026-05-02T14:08:19Z</time></trkpt><trkpt lat="44.604075300006464" lon="7.364078788607569"><ele>958.0</ele><time>2026-05-02T14:08:20Z</time></trkpt><trkpt lat="44.60413681681426" lon="7.364180093317923"><ele>956.0</ele><time>2026-05-02T14:08:21Z</time></trkpt><trkpt lat="44.60419665773574" lon="7.364269602001401"><ele>956.0</ele><time>2026-05-02T14:08:22Z</time></trkpt><trkpt lat="44.604266725138785" lon="7.364357866262894"><ele>955.9999999999999</ele><time>2026-05-02T14:08:23Z</time></trkpt><trkpt lat="44.60433575390259" lon="7.364462538098778"><ele>955.9999999999999</ele><time>2026-05-02T14:08:24Z</time></trkpt><trkpt lat="44.60440033227921" lon="7.364541298615984"><ele>956.0</ele><time>2026-05-02T14:08:25Z</time></trkpt><trkpt lat="44.604454115294466" lon="7.364604974865"><ele>956.0</ele><time>2026-05-02T14:08:25.999Z</time></trkpt><trkpt lat="44.60453534119647" lon="7.364749369035068"><ele>957.75</ele><time>2026-05-02T14:08:27.999Z</time></trkpt><trkpt lat="44.604573534609514" lon="7.364857188244825"><ele>959.5</ele><time>2026-05-02T14:08:28.999Z</time></trkpt><trkpt lat="44.604617473334116" lon="7.364976630250105"><ele>961.25</ele><time>2026-05-02T14:08:29.999Z</time></trkpt><trkpt lat="44.6046438172527" lon="7.36514052766484"><ele>963.0</ele><time>2026-05-02T14:08:30.999Z</time></trkpt><trkpt lat="44.60469308945781" lon="7.365341681574066"><ele>961.0</ele><time>2026-05-02T14:08:31.999Z</time></trkpt><trkpt lat="44.60467947906397" lon="7.365659200152353"><ele>959.0</ele><time>2026-05-02T14:08:32.999Z</time></trkpt><trkpt lat="44.60469552485192" lon="7.365827811243648"><ele>957.0</ele><time>2026-05-02T14:08:33.999Z</time></trkpt><trkpt lat="44.60468581444435" lon="7.365990388030845"><ele>957.0</ele><time>2026-05-02T14:08:34.999Z</time></trkpt><trkpt lat="44.60467205842047" lon="7.366172417198375"><ele>957.0</ele><time>2026-05-02T14:08:35.999Z</time></trkpt><trkpt lat="44.60465875678594" lon="7.3662975993297515"><ele>957.0</ele><time>2026-05-02T14:08:36.999Z</time></trkpt><trkpt lat="44.604644388037315" lon="7.366419595570407"><ele>957.0</ele><time>2026-05-02T14:08:37.999Z</time></trkpt><trkpt lat="44.60466989942474" lon="7.366554141408346"><ele>957.0</ele><time>2026-05-02T14:08:38.999Z</time></trkpt><trkpt lat="44.60471859470628" lon="7.366688845496864"><ele>956.4000000000001</ele><time>2026-05-02T14:08:39.999Z</time></trkpt><trkpt lat="44.60479581351214" lon="7.366852324982286"><ele>955.8000000000001</ele><time>2026-05-02T14:08:40.999Z</time></trkpt><trkpt lat="44.60484199822775" lon="7.366992922192862"><ele>955.2</ele><time>2026-05-02T14:08:41.999Z</time></trkpt><trkpt lat="44.60485711457868" lon="7.367100979466545"><ele>954.6</ele><time>2026-05-02T14:08:42.999Z</time></trkpt><trkpt lat="44.60487825732189" lon="7.367193191673522"><ele>954.0</ele><time>2026-05-02T14:08:43.999Z</time></trkpt><trkpt lat="44.60487061043434" lon="7.367360909481222"><ele>951.3333333333333</ele><time>2026-05-02T14:08:44.999Z</time></trkpt><trkpt lat="44.60486755784932" lon="7.3675590357950576"><ele>948.6666666666666</ele><time>2026-05-02T14:08:45.999Z</time></trkpt><trkpt lat="44.604882064635085" lon="7.367760948125421"><ele>946.0</ele><time>2026-05-02T14:08:46.999Z</time></trkpt><trkpt lat="44.60490733148405" lon="7.367989295144746"><ele>943.75</ele><time>2026-05-02T14:08:47.999Z</time></trkpt><trkpt lat="44.604912020143566" lon="7.3682294504527635"><ele>941.5</ele><time>2026-05-02T14:08:48.999Z</time></trkpt><trkpt lat="44.60493714311971" lon="7.368400442516825"><ele>939.25</ele><time>2026-05-02T14:08:49.999Z</time></trkpt><trkpt lat="44.60496535957852" lon="7.3685821831608065"><ele>937.0</ele><time>2026-05-02T14:08:50.999Z</time></trkpt><trkpt lat="44.604980041048435" lon="7.368772892440835"><ele>936.2</ele><time>2026-05-02T14:08:51.999Z</time></trkpt><trkpt lat="44.604989105439195" lon="7.368916810774973"><ele>935.4000000000001</ele><time>2026-05-02T14:08:52.999Z</time></trkpt><trkpt lat="44.60502208545295" lon="7.36904508126776"><ele>934.5999999999999</ele><time>2026-05-02T14:08:54.999Z</time></trkpt><trkpt lat="44.60507297675103" lon="7.369195592631978"><ele>933.8</ele><time>2026-05-02T14:08:56.999Z</time></trkpt><trkpt lat="44.6051237098863" lon="7.369327770340624"><ele>933.0</ele><time>2026-05-02T14:08:58.999Z</time></trkpt><trkpt lat="44.60514692323892" lon="7.369495765703345"><ele>933.0</ele><time>2026-05-02T14:09:00.999Z</time></trkpt><trkpt lat="44.60513759261441" lon="7.369640101089304"><ele>933.0</ele><time>2026-05-02T14:09:02.999Z</time></trkpt><trkpt lat="44.60509620303864" lon="7.369754077981735"><ele>933.0</ele><time>2026-05-02T14:09:04.999Z</time></trkpt><trkpt lat="44.60505508019996" lon="7.369890298017768"><ele>933.0</ele><time>2026-05-02T14:09:06.999Z</time></trkpt><trkpt lat="44.6050168943527" lon="7.369972135924359"><ele>933.0</ele><time>2026-05-02T14:09:07.999Z</time></trkpt><trkpt lat="44.60498290745435" lon="7.37006858356931"><ele>933.0</ele><time>2026-05-02T14:09:08.999Z</time></trkpt><trkpt lat="44.60497731338019" lon="7.370158357052916"><ele>931.8333333333334</ele><time>2026-05-02T14:09:09.999Z</time></trkpt><trkpt lat="44.604989826066955" lon="7.370270303387573"><ele>930.6666666666667</ele><time>2026-05-02T14:09:11.999Z</time></trkpt><trkpt lat="44.605019027573434" lon="7.370351123167882"><ele>929.5</ele><time>2026-05-02T14:09:14.999Z</time></trkpt><trkpt lat="44.60510399626824" lon="7.370403413267759"><ele>928.3333333333334</ele><time>2026-05-02T14:09:22.999Z</time></trkpt><trkpt lat="44.60516979167293" lon="7.370498680324962"><ele>927.1666666666667</ele><time>2026-05-02T14:09:23.999Z</time></trkpt><trkpt lat="44.60521409417155" lon="7.37057135078528"><ele>926.0</ele><time>2026-05-02T14:09:24.999Z</time></trkpt><trkpt lat="44.60527982309657" lon="7.370624651393943"><ele>929.5999999999999</ele><time>2026-05-02T14:09:26.999Z</time></trkpt><trkpt lat="44.60536081471208" lon="7.370765954833325"><ele>933.1999999999999</ele><time>2026-05-02T14:09:28.999Z</time></trkpt><trkpt lat="44.60536705947919" lon="7.370859530288097"><ele>936.8000000000001</ele><time>2026-05-02T14:09:29.999Z</time></trkpt><trkpt lat="44.60536770022555" lon="7.37094912762358"><ele>940.4000000000001</ele><time>2026-05-02T14:09:30.999Z</time></trkpt><trkpt lat="44.6053892679534" lon="7.371098200133678"><ele>944.0</ele><time>2026-05-02T14:09:31.999Z</time></trkpt><trkpt lat="44.60543073254916" lon="7.371214321824734"><ele>942.5</ele><time>2026-05-02T14:09:32.999Z</time></trkpt><trkpt lat="44.60547197821777" lon="7.371368772822319"><ele>941.0</ele><time>2026-05-02T14:09:33.999Z</time></trkpt><trkpt lat="44.605538299611766" lon="7.371564684264855"><ele>939.5</ele><time>2026-05-02T14:09:34.999Z</time></trkpt><trkpt lat="44.60558135789709" lon="7.3717551451088"><ele>938.0</ele><time>2026-05-02T14:09:35.999Z</time></trkpt><trkpt lat="44.60562571649313" lon="7.371941776247771"><ele>938.0</ele><time>2026-05-02T14:09:36.999Z</time></trkpt><trkpt lat="44.605651512915074" lon="7.372108175277379"><ele>938.0</ele><time>2026-05-02T14:09:38Z</time></trkpt><trkpt lat="44.605701079025486" lon="7.3722529599623146"><ele>938.0</ele><time>2026-05-02T14:09:39Z</time></trkpt><trkpt lat="44.605777210110574" lon="7.372395300628473"><ele>938.0</ele><time>2026-05-02T14:09:40Z</time></trkpt><trkpt lat="44.605843195697474" lon="7.372577019330144"><ele>936.5</ele><time>2026-05-02T14:09:41Z</time></trkpt><trkpt lat="44.60590745114801" lon="7.37275596174971"><ele>935.0</ele><time>2026-05-02T14:09:42Z</time></trkpt><trkpt lat="44.605976818839814" lon="7.372883160977188"><ele>933.5</ele><time>2026-05-02T14:09:43Z</time></trkpt><trkpt lat="44.606036990156355" lon="7.373025554609957"><ele>932.0</ele><time>2026-05-02T14:09:44Z</time></trkpt><trkpt lat="44.606080145244995" lon="7.373176653302834"><ele>930.0</ele><time>2026-05-02T14:09:45Z</time></trkpt><trkpt lat="44.60610893067804" lon="7.373347401790432"><ele>928.0</ele><time>2026-05-02T14:09:46Z</time></trkpt><trkpt lat="44.60613258026149" lon="7.3735184416832675"><ele>926.0</ele><time>2026-05-02T14:09:47Z</time></trkpt><trkpt lat="44.6061351094846" lon="7.373688863107689"><ele>924.0</ele><time>2026-05-02T14:09:48Z</time></trkpt><trkpt lat="44.60613704867222" lon="7.373843276232144"><ele>923.6</ele><time>2026-05-02T14:09:49Z</time></trkpt><trkpt lat="44.606155815976145" lon="7.373985380854148"><ele>923.2</ele><time>2026-05-02T14:09:50Z</time></trkpt><trkpt lat="44.60618180181773" lon="7.374135892840921"><ele>922.8000000000001</ele><time>2026-05-02T14:09:51Z</time></trkpt><trkpt lat="44.6062068508304" lon="7.3742808114779566"><ele>922.4000000000001</ele><time>2026-05-02T14:09:52Z</time></trkpt><trkpt lat="44.60624616954596" lon="7.3743990716915775"><ele>922.0</ele><time>2026-05-02T14:09:53Z</time></trkpt><trkpt lat="44.606286956484475" lon="7.374505690359062"><ele>923.8</ele><time>2026-05-02T14:09:54Z</time></trkpt><trkpt lat="44.6062853691929" lon="7.374620629385599"><ele>925.6</ele><time>2026-05-02T14:09:55Z</time></trkpt><trkpt lat="44.60628782254942" lon="7.374767896474987"><ele>927.3999999999999</ele><time>2026-05-02T14:09:56Z</time></trkpt><trkpt lat="44.60629374870927" lon="7.374931486147553"><ele>929.1999999999999</ele><time>2026-05-02T14:09:57Z</time></trkpt><trkpt lat="44.60629905833226" lon="7.375112723555486"><ele>931.0</ele><time>2026-05-02T14:09:58Z</time></trkpt><trkpt lat="44.606303298989715" lon="7.375272434201353"><ele>931.0</ele><time>2026-05-02T14:09:59Z</time></trkpt><trkpt lat="44.60630765683276" lon="7.37543386940525"><ele>930.9999999999999</ele><time>2026-05-02T14:10:00Z</time></trkpt><trkpt lat="44.60631254815101" lon="7.375575319395298"><ele>930.9999999999999</ele><time>2026-05-02T14:10:01Z</time></trkpt><trkpt lat="44.60632140380502" lon="7.3757300475779495"><ele>931.0</ele><time>2026-05-02T14:10:02Z</time></trkpt><trkpt lat="44.606334561498876" lon="7.375897669976093"><ele>931.0</ele><time>2026-05-02T14:10:03Z</time></trkpt><trkpt lat="44.6063432164305" lon="7.376059265481608"><ele>931.0</ele><time>2026-05-02T14:10:04Z</time></trkpt><trkpt lat="44.60633665436579" lon="7.376191488875441"><ele>930.9999999999999</ele><time>2026-05-02T14:10:05Z</time></trkpt><trkpt lat="44.60631743096257" lon="7.376296298674753"><ele>930.9999999999999</ele><time>2026-05-02T14:10:06Z</time></trkpt><trkpt lat="44.60626866771401" lon="7.376434593314062"><ele>931.0</ele><time>2026-05-02T14:10:08Z</time></trkpt><trkpt lat="44.6062356301366" lon="7.376509953548061"><ele>931.0</ele><time>2026-05-02T14:10:11Z</time></trkpt><trkpt lat="44.60637758013363" lon="7.376653222419131"><ele>931.8</ele><time>2026-05-02T14:10:13Z</time></trkpt><trkpt lat="44.606420294813056" lon="7.376744874734411"><ele>932.5999999999999</ele><time>2026-05-02T14:10:15Z</time></trkpt><trkpt lat="44.60642653486097" lon="7.37688448203592"><ele>933.4</ele><time>2026-05-02T14:10:17Z</time></trkpt><trkpt lat="44.606430636898324" lon="7.376977992439315"><ele>934.2</ele><time>2026-05-02T14:10:18Z</time></trkpt><trkpt lat="44.60643164466607" lon="7.377074305546624"><ele>935.0</ele><time>2026-05-02T14:10:19Z</time></trkpt><trkpt lat="44.60650037459897" lon="7.377251352949326"><ele>935.0000000000001</ele><time>2026-05-02T14:10:21Z</time></trkpt><trkpt lat="44.60652763574131" lon="7.37738149187449"><ele>935.0</ele><time>2026-05-02T14:10:22Z</time></trkpt><trkpt lat="44.60655548069527" lon="7.377482728448607"><ele>935.0</ele><time>2026-05-02T14:10:23Z</time></trkpt><trkpt lat="44.606582206942186" lon="7.377577720810971"><ele>935.0</ele><time>2026-05-02T14:10:24Z</time></trkpt><trkpt lat="44.60660954515043" lon="7.377686103212244"><ele>935.0000000000001</ele><time>2026-05-02T14:10:25Z</time></trkpt><trkpt lat="44.60663570656454" lon="7.377800444929402"><ele>935.0</ele><time>2026-05-02T14:10:26Z</time></trkpt><trkpt lat="44.606681180629195" lon="7.377903065559925"><ele>935.0000000000001</ele><time>2026-05-02T14:10:26.999Z</time></trkpt><trkpt lat="44.60672415567087" lon="7.378012097353198"><ele>935.0</ele><time>2026-05-02T14:10:27.999Z</time></trkpt><trkpt lat="44.60677871137093" lon="7.378107147516364"><ele>935.0</ele><time>2026-05-02T14:10:28.999Z</time></trkpt><trkpt lat="44.606832088203824" lon="7.3782119749353745"><ele>935.0</ele><time>2026-05-02T14:10:29.999Z</time></trkpt><trkpt lat="44.60686139766708" lon="7.378319705083893"><ele>935.0000000000001</ele><time>2026-05-02T14:10:30.999Z</time></trkpt><trkpt lat="44.60686175135092" lon="7.378434149851388"><ele>935.0</ele><time>2026-05-02T14:10:31.999Z</time></trkpt><trkpt lat="44.6068547569795" lon="7.378534062997848"><ele>936.5000000000001</ele><time>2026-05-02T14:10:32.999Z</time></trkpt><trkpt lat="44.60684559802989" lon="7.378635142579307"><ele>938.0</ele><time>2026-05-02T14:10:33.999Z</time></trkpt><trkpt lat="44.60687398006836" lon="7.378759018371809"><ele>939.5</ele><time>2026-05-02T14:10:35.999Z</time></trkpt><trkpt lat="44.60688102850269" lon="7.378927678504031"><ele>941.0</ele><time>2026-05-02T14:10:37.999Z</time></trkpt><trkpt lat="44.60687725644443" lon="7.37903750854356"><ele>942.5000000000001</ele><time>2026-05-02T14:10:38.999Z</time></trkpt><trkpt lat="44.60686968812" lon="7.379132617566159"><ele>944.0</ele><time>2026-05-02T14:10:39.999Z</time></trkpt><trkpt lat="44.60681496974945" lon="7.379236534743158"><ele>945.5000000000001</ele><time>2026-05-02T14:10:43.999Z</time></trkpt><trkpt lat="44.60677972899762" lon="7.379322551353072"><ele>947.0</ele><time>2026-05-02T14:10:45.999Z</time></trkpt><trkpt lat="44.60674135155609" lon="7.379436303022211"><ele>948.5</ele><time>2026-05-02T14:10:48.999Z</time></trkpt><trkpt lat="44.60671034960563" lon="7.379514939194861"><ele>950.0</ele><time>2026-05-02T14:10:50.999Z</time></trkpt><trkpt lat="44.606665520336705" lon="7.3796140034420485"><ele>951.5000000000001</ele><time>2026-05-02T14:10:52.999Z</time></trkpt><trkpt lat="44.606615987124826" lon="7.379709103500751"><ele>953.0</ele><time>2026-05-02T14:10:53.999Z</time></trkpt><trkpt lat="44.60656272821605" lon="7.379805799622042"><ele>953.6666666666667</ele><time>2026-05-02T14:10:54.999Z</time></trkpt><trkpt lat="44.60651873070876" lon="7.379870215002135"><ele>954.3333333333334</ele><time>2026-05-02T14:10:55.999Z</time></trkpt><trkpt lat="44.60648664924946" lon="7.37994983728808"><ele>955.0</ele><time>2026-05-02T14:10:59.999Z</time></trkpt><trkpt lat="44.606459636101306" lon="7.380078199489403"><ele>955.6666666666667</ele><time>2026-05-02T14:11:09.999Z</time></trkpt><trkpt lat="44.606450345652" lon="7.380171561082368"><ele>956.3333333333334</ele><time>2026-05-02T14:11:10.999Z</time></trkpt><trkpt lat="44.60642907994358" lon="7.380295150403935"><ele>957.0</ele><time>2026-05-02T14:11:12.999Z</time></trkpt><trkpt lat="44.60641683177814" lon="7.380484964663373"><ele>956.2</ele><time>2026-05-02T14:11:15.999Z</time></trkpt><trkpt lat="44.6063922505966" lon="7.380651669374023"><ele>955.4000000000001</ele><time>2026-05-02T14:11:17.999Z</time></trkpt><trkpt lat="44.606370268436564" lon="7.380786998572493"><ele>954.5999999999999</ele><time>2026-05-02T14:11:19.999Z</time></trkpt><trkpt lat="44.60636889818482" lon="7.380896466183257"><ele>953.8</ele><time>2026-05-02T14:11:22.999Z</time></trkpt><trkpt lat="44.60642009673067" lon="7.380963319547539"><ele>953.0</ele><time>2026-05-02T14:11:24.999Z</time></trkpt><trkpt lat="44.60644705040317" lon="7.381082277342164"><ele>953.0</ele><time>2026-05-02T14:11:26.999Z</time></trkpt><trkpt lat="44.606488749785164" lon="7.381160749862984"><ele>953.0</ele><time>2026-05-02T14:11:28.999Z</time></trkpt><trkpt lat="44.60651433352042" lon="7.381257347704652"><ele>953.0</ele><time>2026-05-02T14:11:30.999Z</time></trkpt><trkpt lat="44.60656629167388" lon="7.381355030502919"><ele>953.0</ele><time>2026-05-02T14:11:32.999Z</time></trkpt><trkpt lat="44.6065904797186" lon="7.381439015026725"><ele>953.0</ele><time>2026-05-02T14:11:34.999Z</time></trkpt><trkpt lat="44.606610167999634" lon="7.38155351724998"><ele>953.0</ele><time>2026-05-02T14:11:36.999Z</time></trkpt><trkpt lat="44.60662141084332" lon="7.381643655477537"><ele>953.0</ele><time>2026-05-02T14:11:38.999Z</time></trkpt><trkpt lat="44.60666943755496" lon="7.381746073076106"><ele>952.2</ele><time>2026-05-02T14:11:40.999Z</time></trkpt><trkpt lat="44.606700827909" lon="7.381826929549304"><ele>951.4</ele><time>2026-05-02T14:11:41.999Z</time></trkpt><trkpt lat="44.60675163286646" lon="7.381925961440401"><ele>950.6000000000001</ele><time>2026-05-02T14:11:44Z</time></trkpt><trkpt lat="44.60682394359006" lon="7.382048268049503"><ele>949.8000000000001</ele><time>2026-05-02T14:11:46Z</time></trkpt><trkpt lat="44.60691171782273" lon="7.382141013096194"><ele>949.0</ele><time>2026-05-02T14:11:48Z</time></trkpt><trkpt lat="44.60698001978658" lon="7.382253991327582"><ele>944.6</ele><time>2026-05-02T14:11:50Z</time></trkpt><trkpt lat="44.60703939629008" lon="7.38233693718612"><ele>940.2</ele><time>2026-05-02T14:11:52Z</time></trkpt><trkpt lat="44.60709497128416" lon="7.382471732436073"><ele>935.8000000000001</ele><time>2026-05-02T14:11:54Z</time></trkpt><trkpt lat="44.60714180243112" lon="7.382607514781266"><ele>931.4000000000001</ele><time>2026-05-02T14:11:56Z</time></trkpt><trkpt lat="44.60719472595597" lon="7.382734064355557"><ele>927.0</ele><time>2026-05-02T14:11:58Z</time></trkpt><trkpt lat="44.60729047640154" lon="7.382858745317061"><ele>927.0</ele><time>2026-05-02T14:12:00Z</time></trkpt><trkpt lat="44.60734742533057" lon="7.382939747511004"><ele>927.0</ele><time>2026-05-02T14:12:01Z</time></trkpt><trkpt lat="44.607426779102525" lon="7.3830155660083125"><ele>927.0</ele><time>2026-05-02T14:12:02Z</time></trkpt><trkpt lat="44.60748097530598" lon="7.38308485257429"><ele>927.0</ele><time>2026-05-02T14:12:03Z</time></trkpt><trkpt lat="44.607543769396855" lon="7.38316093172176"><ele>927.0</ele><time>2026-05-02T14:12:04Z</time></trkpt><trkpt lat="44.607606154696526" lon="7.3832322854003785"><ele>927.0</ele><time>2026-05-02T14:12:05Z</time></trkpt><trkpt lat="44.60766465926934" lon="7.383301130812849"><ele>927.2</ele><time>2026-05-02T14:12:06Z</time></trkpt><trkpt lat="44.6077343845146" lon="7.383433528117466"><ele>927.4000000000001</ele><time>2026-05-02T14:12:08Z</time></trkpt><trkpt lat="44.607769805294666" lon="7.383559522540321"><ele>927.5999999999999</ele><time>2026-05-02T14:12:12Z</time></trkpt><trkpt lat="44.60781153898316" lon="7.383687928483316"><ele>927.8</ele><time>2026-05-02T14:12:14Z</time></trkpt><trkpt lat="44.607833109724346" lon="7.383790196268786"><ele>928.0</ele><time>2026-05-02T14:12:15Z</time></trkpt><trkpt lat="44.60786425441195" lon="7.383921246913536"><ele>927.9999999999999</ele><time>2026-05-02T14:12:17Z</time></trkpt><trkpt lat="44.6079084362057" lon="7.384022401157895"><ele>928.0</ele><time>2026-05-02T14:12:19Z</time></trkpt><trkpt lat="44.607966944250244" lon="7.384108229148884"><ele>928.0</ele><time>2026-05-02T14:12:21Z</time></trkpt><trkpt lat="44.608008423710544" lon="7.384209677108281"><ele>928.0</ele><time>2026-05-02T14:12:25Z</time></trkpt><trkpt lat="44.608031562166644" lon="7.384301722524292"><ele>927.9999999999999</ele><time>2026-05-02T14:12:30.999Z</time></trkpt><trkpt lat="44.60807019242115" lon="7.384432780171137"><ele>928.0</ele><time>2026-05-02T14:12:33.999Z</time></trkpt><trkpt lat="44.608100625915874" lon="7.384512686334992"><ele>928.0</ele><time>2026-05-02T14:12:35.999Z</time></trkpt><trkpt lat="44.60815689237466" lon="7.3846189246308205"><ele>928.0</ele><time>2026-05-02T14:12:37.999Z</time></trkpt><trkpt lat="44.60821233483151" lon="7.384720637702623"><ele>928.0</ele><time>2026-05-02T14:12:40.999Z</time></trkpt><trkpt lat="44.6082324781835" lon="7.3848344495722635"><ele>928.0</ele><time>2026-05-02T14:12:42.999Z</time></trkpt><trkpt lat="44.60824573057333" lon="7.3849888377322"><ele>928.0</ele><time>2026-05-02T14:12:45.999Z</time></trkpt><trkpt lat="44.608283139449824" lon="7.3851002910724"><ele>928.3333333333333</ele><time>2026-05-02T14:12:47.999Z</time></trkpt><trkpt lat="44.60832347755822" lon="7.385191312618157"><ele>928.6666666666666</ele><time>2026-05-02T14:12:48.999Z</time></trkpt><trkpt lat="44.608352054748764" lon="7.385308839874947"><ele>929.0</ele><time>2026-05-02T14:12:50.999Z</time></trkpt><trkpt lat="44.60837984187955" lon="7.385420259190654"><ele>929.3333333333333</ele><time>2026-05-02T14:12:52.999Z</time></trkpt><trkpt lat="44.608403301834635" lon="7.385526414623777"><ele>929.6666666666666</ele><time>2026-05-02T14:12:53.999Z</time></trkpt><trkpt lat="44.608437013310926" lon="7.385602613601098"><ele>930.0</ele><time>2026-05-02T14:12:54.999Z</time></trkpt><trkpt lat="44.60846422802583" lon="7.385693581627211"><ele>928.5</ele><time>2026-05-02T14:12:55.999Z</time></trkpt><trkpt lat="44.60850260732319" lon="7.3857772075832635"><ele>927.0</ele><time>2026-05-02T14:12:56.999Z</time></trkpt><trkpt lat="44.60855396137259" lon="7.3858647096335055"><ele>925.5</ele><time>2026-05-02T14:12:57.999Z</time></trkpt><trkpt lat="44.60861409727861" lon="7.385924159285113"><ele>924.0</ele><time>2026-05-02T14:12:58.999Z</time></trkpt><trkpt lat="44.60867762441029" lon="7.385996332684777"><ele>922.5</ele><time>2026-05-02T14:12:59.999Z</time></trkpt><trkpt lat="44.608738001220225" lon="7.386123504569878"><ele>921.0</ele><time>2026-05-02T14:13:01.999Z</time></trkpt><trkpt lat="44.60877368643533" lon="7.386218393179191"><ele>920.0</ele><time>2026-05-02T14:13:03.999Z</time></trkpt><trkpt lat="44.608781017622036" lon="7.386324175519785"><ele>918.9999999999999</ele><time>2026-05-02T14:13:05.999Z</time></trkpt><trkpt lat="44.608825814054256" lon="7.386451904453571"><ele>917.9999999999999</ele><time>2026-05-02T14:13:07.999Z</time></trkpt><trkpt lat="44.60886893239243" lon="7.386574332283446"><ele>917.0</ele><time>2026-05-02T14:13:08.999Z</time></trkpt><trkpt lat="44.60893538782468" lon="7.386659800822158"><ele>916.0</ele><time>2026-05-02T14:13:09.999Z</time></trkpt><trkpt lat="44.6089727959789" lon="7.386779287832841"><ele>915.9999999999999</ele><time>2026-05-02T14:13:10.999Z</time></trkpt><trkpt lat="44.60899963510033" lon="7.386887930020409"><ele>916.0</ele><time>2026-05-02T14:13:11.999Z</time></trkpt><trkpt lat="44.60904825698788" lon="7.386974868797703"><ele>916.0</ele><time>2026-05-02T14:13:12.999Z</time></trkpt><trkpt lat="44.609141101686525" lon="7.387110837629251"><ele>916.0</ele><time>2026-05-02T14:13:14.999Z</time></trkpt><trkpt lat="44.609194042204216" lon="7.387166127390578"><ele>915.9999999999999</ele><time>2026-05-02T14:13:15.999Z</time></trkpt><trkpt lat="44.60923298940396" lon="7.387240276840739"><ele>916.0</ele><time>2026-05-02T14:13:16.999Z</time></trkpt><trkpt lat="44.609280731365345" lon="7.387313938505915"><ele>917.5999999999999</ele><time>2026-05-02T14:13:17.999Z</time></trkpt><trkpt lat="44.60934547937796" lon="7.387379089532985"><ele>919.1999999999999</ele><time>2026-05-02T14:13:18.999Z</time></trkpt><trkpt lat="44.60942583264093" lon="7.387464017480372"><ele>920.8000000000001</ele><time>2026-05-02T14:13:19.999Z</time></trkpt><trkpt lat="44.609469847781476" lon="7.387530077685181"><ele>922.4000000000001</ele><time>2026-05-02T14:13:20.999Z</time></trkpt><trkpt lat="44.60953736898432" lon="7.387652654374817"><ele>924.0</ele><time>2026-05-02T14:13:22.999Z</time></trkpt><trkpt lat="44.60958018906602" lon="7.387777831844042"><ele>927.0</ele><time>2026-05-02T14:13:24.999Z</time></trkpt><trkpt lat="44.60962433121654" lon="7.38789881718542"><ele>927.0</ele><time>2026-05-02T14:13:26.999Z</time></trkpt><trkpt lat="44.60963997966329" lon="7.387987562831158"><ele>927.0</ele><time>2026-05-02T14:13:30.999Z</time></trkpt></trkseg><trkseg><trkpt lat="44.608802537328096" lon="7.3864510049659655"><ele>916.8333333333333</ele><time>2026-05-02T15:20:01Z</time></trkpt><trkpt lat="44.608777057896326" lon="7.38632310297988"><ele>917.6666666666666</ele><time>2026-05-02T15:20:03Z</time></trkpt><trkpt lat="44.608733056335744" lon="7.3862378788025325"><ele>918.5</ele><time>2026-05-02T15:20:06Z</time></trkpt><trkpt lat="44.608653751137396" lon="7.386146310774374"><ele>919.3333333333333</ele><time>2026-05-02T15:20:08Z</time></trkpt><trkpt lat="44.60859721520236" lon="7.38610523771666"><ele>920.1666666666666</ele><time>2026-05-02T15:20:09Z</time></trkpt><trkpt lat="44.608544739542914" lon="7.3860502202958145"><ele>921.0</ele><time>2026-05-02T15:20:10Z</time></trkpt><trkpt lat="44.608476893170156" lon="7.385971730101073"><ele>921.0</ele><time>2026-05-02T15:20:11Z</time></trkpt><trkpt lat="44.60841923778363" lon="7.385861846803233"><ele>921.0</ele><time>2026-05-02T15:20:13Z</time></trkpt><trkpt lat="44.60840412258848" lon="7.385769457983967"><ele>921.0</ele><time>2026-05-02T15:20:15Z</time></trkpt><trkpt lat="44.608394951219076" lon="7.385680554015036"><ele>921.0</ele><time>2026-05-02T15:20:16Z</time></trkpt><trkpt lat="44.60836164115013" lon="7.385572265539121"><ele>921.0</ele><time>2026-05-02T15:20:17Z</time></trkpt><trkpt lat="44.60831705510886" lon="7.385448713578777"><ele>921.0</ele><time>2026-05-02T15:20:18Z</time></trkpt><trkpt lat="44.6082942271324" lon="7.385304211143851"><ele>922.8</ele><time>2026-05-02T15:20:19Z</time></trkpt><trkpt lat="44.60828620768162" lon="7.385191483001407"><ele>924.5999999999999</ele><time>2026-05-02T15:20:20Z</time></trkpt><trkpt lat="44.608241420394904" lon="7.385057590634263"><ele>926.4</ele><time>2026-05-02T15:20:22Z</time></trkpt><trkpt lat="44.60823024035301" lon="7.384920223433709"><ele>928.2</ele><time>2026-05-02T15:20:25Z</time></trkpt><trkpt lat="44.60820740733635" lon="7.384773986431646"><ele>930.0</ele><time>2026-05-02T15:20:27Z</time></trkpt><trkpt lat="44.60815144487857" lon="7.384682415736755"><ele>929.6</ele><time>2026-05-02T15:20:29Z</time></trkpt><trkpt lat="44.60808453155004" lon="7.384551995542011"><ele>929.2</ele><time>2026-05-02T15:20:31Z</time></trkpt><trkpt lat="44.608052548121975" lon="7.384437347115268"><ele>928.8</ele><time>2026-05-02T15:20:33Z</time></trkpt><trkpt lat="44.608028701779574" lon="7.384348330296898"><ele>928.4</ele><time>2026-05-02T15:20:37Z</time></trkpt><trkpt lat="44.6079639336963" lon="7.384269036627989"><ele>928.0</ele><time>2026-05-02T15:20:40Z</time></trkpt><trkpt lat="44.60789880040794" lon="7.384139853136504"><ele>928.0</ele><time>2026-05-02T15:20:43Z</time></trkpt><trkpt lat="44.60785977707148" lon="7.383937906572731"><ele>928.0</ele><time>2026-05-02T15:20:45Z</time></trkpt><trkpt lat="44.60782053710464" lon="7.383797550149005"><ele>928.0</ele><time>2026-05-02T15:20:46Z</time></trkpt><trkpt lat="44.60778484624889" lon="7.383643922727746"><ele>928.0</ele><time>2026-05-02T15:20:47Z</time></trkpt><trkpt lat="44.60776250736906" lon="7.383540731656428"><ele>928.0</ele><time>2026-05-02T15:20:48Z</time></trkpt><trkpt lat="44.607727186539094" lon="7.383427313222577"><ele>927.8</ele><time>2026-05-02T15:20:50Z</time></trkpt><trkpt lat="44.607675960898014" lon="7.383295635491633"><ele>927.5999999999999</ele><time>2026-05-02T15:20:52Z</time></trkpt><trkpt lat="44.607618212852294" lon="7.3832103214949685"><ele>927.4000000000001</ele><time>2026-05-02T15:20:53Z</time></trkpt><trkpt lat="44.60755097095605" lon="7.383139760849731"><ele>927.2</ele><time>2026-05-02T15:20:54Z</time></trkpt><trkpt lat="44.60748613427706" lon="7.383055325999987"><ele>927.0</ele><time>2026-05-02T15:20:55Z</time></trkpt><trkpt lat="44.60741260139033" lon="7.382991210824505"><ele>927.0</ele><time>2026-05-02T15:20:56Z</time></trkpt><trkpt lat="44.60733655061347" lon="7.3829195468607995"><ele>927.0</ele><time>2026-05-02T15:20:57Z</time></trkpt><trkpt lat="44.607262341210976" lon="7.38284408944425"><ele>927.0</ele><time>2026-05-02T15:20:58Z</time></trkpt><trkpt lat="44.60721340853353" lon="7.3827720775137315"><ele>927.0</ele><time>2026-05-02T15:20:59Z</time></trkpt><trkpt lat="44.60716977010284" lon="7.382676437260162"><ele>927.0</ele><time>2026-05-02T15:21:00Z</time></trkpt><trkpt lat="44.607142912038526" lon="7.382576407213856"><ele>927.0</ele><time>2026-05-02T15:21:01Z</time></trkpt><trkpt lat="44.607109456576765" lon="7.3824715616705205"><ele>927.0</ele><time>2026-05-02T15:21:02Z</time></trkpt><trkpt lat="44.607062885353876" lon="7.382329938593655"><ele>927.0</ele><time>2026-05-02T15:21:04Z</time></trkpt><trkpt lat="44.607002831790915" lon="7.382244661914751"><ele>927.0</ele><time>2026-05-02T15:21:05Z</time></trkpt><trkpt lat="44.60692463301896" lon="7.382163962885749"><ele>927.0</ele><time>2026-05-02T15:21:06Z</time></trkpt><trkpt lat="44.60685118514085" lon="7.38205635193493"><ele>927.0</ele><time>2026-05-02T15:21:07Z</time></trkpt><trkpt lat="44.60678151354815" lon="7.381960500918816"><ele>930.6666666666666</ele><time>2026-05-02T15:21:08Z</time></trkpt><trkpt lat="44.6067307955382" lon="7.381890243304163"><ele>934.3333333333333</ele><time>2026-05-02T15:21:09Z</time></trkpt><trkpt lat="44.606674406385395" lon="7.381826809632349"><ele>938.0</ele><time>2026-05-02T15:21:10Z</time></trkpt><trkpt lat="44.606635842206316" lon="7.381708860297753"><ele>941.6666666666666</ele><time>2026-05-02T15:21:12Z</time></trkpt><trkpt lat="44.60658399165594" lon="7.381575482814095"><ele>945.3333333333333</ele><time>2026-05-02T15:21:14Z</time></trkpt><trkpt lat="44.606535274784726" lon="7.381451801355704"><ele>949.0</ele><time>2026-05-02T15:21:16Z</time></trkpt><trkpt lat="44.606516114232804" lon="7.381360653155207"><ele>949.6666666666666</ele><time>2026-05-02T15:21:17Z</time></trkpt><trkpt lat="44.60647854552541" lon="7.3812666825141795"><ele>950.3333333333333</ele><time>2026-05-02T15:21:18Z</time></trkpt><trkpt lat="44.60644599309865" lon="7.381157845529647"><ele>951.0</ele><time>2026-05-02T15:21:19Z</time></trkpt><trkpt lat="44.606417999483966" lon="7.381062957700322"><ele>951.6666666666667</ele><time>2026-05-02T15:21:20Z</time></trkpt><trkpt lat="44.606380795209134" lon="7.380989023505422"><ele>952.3333333333334</ele><time>2026-05-02T15:21:21Z</time></trkpt><trkpt lat="44.60631959137962" lon="7.380888522074207"><ele>953.0</ele><time>2026-05-02T15:21:23Z</time></trkpt><trkpt lat="44.60632785213076" lon="7.380767168683102"><ele>953.0</ele><time>2026-05-02T15:21:25Z</time></trkpt><trkpt lat="44.60634318966311" lon="7.380586585349117"><ele>953.0</ele><time>2026-05-02T15:21:27Z</time></trkpt><trkpt lat="44.60636486953492" lon="7.380469713618004"><ele>953.0</ele><time>2026-05-02T15:21:28Z</time></trkpt><trkpt lat="44.606372607690346" lon="7.380362682626967"><ele>953.0</ele><time>2026-05-02T15:21:29Z</time></trkpt><trkpt lat="44.60637165723505" lon="7.380177611764559"><ele>953.0</ele><time>2026-05-02T15:21:31Z</time></trkpt><trkpt lat="44.60637406292937" lon="7.380087505866994"><ele>953.0</ele><time>2026-05-02T15:21:32Z</time></trkpt><trkpt lat="44.60639131050111" lon="7.379939901842121"><ele>953.0</ele><time>2026-05-02T15:21:34Z</time></trkpt><trkpt lat="44.606451401795645" lon="7.379838854579313"><ele>953.0</ele><time>2026-05-02T15:21:37Z</time></trkpt><trkpt lat="44.60650488240038" lon="7.37977711887062"><ele>953.0</ele><time>2026-05-02T15:21:40Z</time></trkpt><trkpt lat="44.60656939478144" lon="7.379678869498266"><ele>953.0</ele><time>2026-05-02T15:21:53Z</time></trkpt><trkpt lat="44.60663282425956" lon="7.3795678811566985"><ele>953.0000000000001</ele><time>2026-05-02T15:21:56Z</time></trkpt><trkpt lat="44.60668965816867" lon="7.379480145378701"><ele>953.0</ele><time>2026-05-02T15:21:58Z</time></trkpt><trkpt lat="44.60672743856462" lon="7.379408856772738"><ele>953.0</ele><time>2026-05-02T15:22:00Z</time></trkpt><trkpt lat="44.60678505362608" lon="7.379269583570601"><ele>953.0</ele><time>2026-05-02T15:22:03Z</time></trkpt><trkpt lat="44.60683545669981" lon="7.379151112500609"><ele>953.0000000000001</ele><time>2026-05-02T15:22:06Z</time></trkpt><trkpt lat="44.60683720816678" lon="7.379062680740632"><ele>953.0</ele><time>2026-05-02T15:22:07Z</time></trkpt><trkpt lat="44.60683642782448" lon="7.378944356013615"><ele>951.7142857142858</ele><time>2026-05-02T15:22:08Z</time></trkpt><trkpt lat="44.60684789381695" lon="7.378832936878812"><ele>950.4285714285713</ele><time>2026-05-02T15:22:09Z</time></trkpt><trkpt lat="44.60684739101345" lon="7.3787435578114735"><ele>949.1428571428571</ele><time>2026-05-02T15:22:10Z</time></trkpt><trkpt lat="44.60683311664861" lon="7.378656184912723"><ele>947.8571428571429</ele><time>2026-05-02T15:22:12Z</time></trkpt><trkpt lat="44.606825673048874" lon="7.378533443824422"><ele>946.5714285714287</ele><time>2026-05-02T15:22:15Z</time></trkpt><trkpt lat="44.606821365312726" lon="7.378438571799441"><ele>945.2857142857142</ele><time>2026-05-02T15:22:16Z</time></trkpt><trkpt lat="44.606811339317005" lon="7.378331586011291"><ele>944.0</ele><time>2026-05-02T15:22:17Z</time></trkpt><trkpt lat="44.60679074113324" lon="7.378162883208787"><ele>944.0000000000001</ele><time>2026-05-02T15:22:19Z</time></trkpt><trkpt lat="44.606754223302346" lon="7.378049720672052"><ele>944.0</ele><time>2026-05-02T15:22:20Z</time></trkpt><trkpt lat="44.60669604807988" lon="7.377967450653684"><ele>944.0</ele><time>2026-05-02T15:22:21Z</time></trkpt><trkpt lat="44.60666915054721" lon="7.377871450285259"><ele>944.0</ele><time>2026-05-02T15:22:22Z</time></trkpt><trkpt lat="44.60663771372431" lon="7.377769408914654"><ele>944.0000000000001</ele><time>2026-05-02T15:22:23Z</time></trkpt><trkpt lat="44.606576222491704" lon="7.377624133448935"><ele>944.0</ele><time>2026-05-02T15:22:25Z</time></trkpt><trkpt lat="44.60654349099334" lon="7.377532303369839"><ele>942.6666666666667</ele><time>2026-05-02T15:22:27Z</time></trkpt><trkpt lat="44.60649032704482" lon="7.377437116149835"><ele>941.3333333333334</ele><time>2026-05-02T15:22:29Z</time></trkpt><trkpt lat="44.606475829948494" lon="7.3773388071127695"><ele>940.0</ele><time>2026-05-02T15:22:30Z</time></trkpt><trkpt lat="44.606438543335614" lon="7.377205757134404"><ele>938.6666666666667</ele><time>2026-05-02T15:22:32Z</time></trkpt><trkpt lat="44.606400072187284" lon="7.3770518519378765"><ele>937.3333333333334</ele><time>2026-05-02T15:22:34Z</time></trkpt><trkpt lat="44.60638454386764" lon="7.376956863591829"><ele>936.0</ele><time>2026-05-02T15:22:35Z</time></trkpt><trkpt lat="44.606379486534436" lon="7.376863309530307"><ele>936.0</ele><time>2026-05-02T15:22:36Z</time></trkpt><trkpt lat="44.60638749772929" lon="7.376713978380325"><ele>936.0</ele><time>2026-05-02T15:22:38Z</time></trkpt><trkpt lat="44.60639344060534" lon="7.376598347599121"><ele>936.0</ele><time>2026-05-02T15:22:40Z</time></trkpt><trkpt lat="44.606353261518834" lon="7.37646945183334"><ele>936.0</ele><time>2026-05-02T15:22:42Z</time></trkpt><trkpt lat="44.6063297203443" lon="7.376384593654573"><ele>936.0</ele><time>2026-05-02T15:22:44Z</time></trkpt><trkpt lat="44.60635395214025" lon="7.376292367664984"><ele>936.0</ele><time>2026-05-02T15:22:47Z</time></trkpt><trkpt lat="44.60641528483677" lon="7.376131910390523"><ele>935.1666666666666</ele><time>2026-05-02T15:22:49Z</time></trkpt><trkpt lat="44.60638624093095" lon="7.376025572464656"><ele>934.3333333333333</ele><time>2026-05-02T15:22:50Z</time></trkpt><trkpt lat="44.60638284405523" lon="7.375922789797839"><ele>933.5</ele><time>2026-05-02T15:22:51Z</time></trkpt><trkpt lat="44.60636851313918" lon="7.3757968625992145"><ele>932.6666666666666</ele><time>2026-05-02T15:22:52Z</time></trkpt><trkpt lat="44.60635745686715" lon="7.375658108745759"><ele>931.8333333333333</ele><time>2026-05-02T15:22:53Z</time></trkpt><trkpt lat="44.60635172692124" lon="7.37551135392062"><ele>931.0</ele><time>2026-05-02T15:22:54Z</time></trkpt><trkpt lat="44.606347175546794" lon="7.375355144599157"><ele>931.0</ele><time>2026-05-02T15:22:54.999Z</time></trkpt><trkpt lat="44.60634892978292" lon="7.375165376705943"><ele>931.0</ele><time>2026-05-02T15:22:55.999Z</time></trkpt><trkpt lat="44.60633241191087" lon="7.374971817490673"><ele>931.0</ele><time>2026-05-02T15:22:56.999Z</time></trkpt><trkpt lat="44.606318285788475" lon="7.374771258687282"><ele>931.0</ele><time>2026-05-02T15:22:57.999Z</time></trkpt><trkpt lat="44.60630615215343" lon="7.374586728740168"><ele>932.0</ele><time>2026-05-02T15:22:58.999Z</time></trkpt><trkpt lat="44.60629443171699" lon="7.374425371729311"><ele>932.9999999999999</ele><time>2026-05-02T15:22:59.999Z</time></trkpt><trkpt lat="44.60626849550181" lon="7.374279113219178"><ele>933.9999999999999</ele><time>2026-05-02T15:23:00.999Z</time></trkpt><trkpt lat="44.606182899575415" lon="7.3741641380733585"><ele>935.0</ele><time>2026-05-02T15:23:01.999Z</time></trkpt><trkpt lat="44.60611846317109" lon="7.374058186878449"><ele>936.0</ele><time>2026-05-02T15:23:02.999Z</time></trkpt><trkpt lat="44.60605933684731" lon="7.373975162160524"><ele>932.0</ele><time>2026-05-02T15:23:03.999Z</time></trkpt><trkpt lat="44.60599548702782" lon="7.373885504697247"><ele>928.0</ele><time>2026-05-02T15:23:04.999Z</time></trkpt><trkpt lat="44.60593399484079" lon="7.373788674677369"><ele>924.0</ele><time>2026-05-02T15:23:05.999Z</time></trkpt><trkpt lat="44.606082774176635" lon="7.373384124648234"><ele>924.0</ele><time>2026-05-02T15:23:06.999Z</time></trkpt><trkpt lat="44.6060588042984" lon="7.373199852828062"><ele>924.0000000000001</ele><time>2026-05-02T15:23:07.999Z</time></trkpt><trkpt lat="44.60602643998305" lon="7.373047998972283"><ele>924.0000000000001</ele><time>2026-05-02T15:23:08.999Z</time></trkpt><trkpt lat="44.605992143861236" lon="7.37293489520087"><ele>924.0</ele><time>2026-05-02T15:23:09.999Z</time></trkpt><trkpt lat="44.60595309090478" lon="7.372812788581143"><ele>924.0</ele><time>2026-05-02T15:23:10.999Z</time></trkpt><trkpt lat="44.60590540396673" lon="7.3726791064187145"><ele>926.0</ele><time>2026-05-02T15:23:11.999Z</time></trkpt><trkpt lat="44.60585792015774" lon="7.372532285042497"><ele>928.0</ele><time>2026-05-02T15:23:12.999Z</time></trkpt><trkpt lat="44.605779096512556" lon="7.372376129808518"><ele>930.0</ele><time>2026-05-02T15:23:13.999Z</time></trkpt><trkpt lat="44.60569572256929" lon="7.372235703660938"><ele>932.0</ele><time>2026-05-02T15:23:14.999Z</time></trkpt><trkpt lat="44.60564029971803" lon="7.372085944844237"><ele>933.2</ele><time>2026-05-02T15:23:15.999Z</time></trkpt><trkpt lat="44.60559206373642" lon="7.371942702230731"><ele>934.4000000000001</ele><time>2026-05-02T15:23:16.999Z</time></trkpt><trkpt lat="44.60555379928952" lon="7.371803662299462"><ele>935.5999999999999</ele><time>2026-05-02T15:23:17.999Z</time></trkpt><trkpt lat="44.605521531060916" lon="7.371682568760855"><ele>936.8</ele><time>2026-05-02T15:23:18.999Z</time></trkpt><trkpt lat="44.605499862695964" lon="7.371592241049214"><ele>938.0</ele><time>2026-05-02T15:23:19.999Z</time></trkpt><trkpt lat="44.60547677921257" lon="7.371486474608202"><ele>938.0000000000001</ele><time>2026-05-02T15:23:20.999Z</time></trkpt><trkpt lat="44.60546563048951" lon="7.371387181594266"><ele>938.0</ele><time>2026-05-02T15:23:21.999Z</time></trkpt><trkpt lat="44.605441845756104" lon="7.371274578851043"><ele>938.0</ele><time>2026-05-02T15:23:23.999Z</time></trkpt><trkpt lat="44.60540575217996" lon="7.371184957851"><ele>938.0</ele><time>2026-05-02T15:23:24.999Z</time></trkpt><trkpt lat="44.60536395986626" lon="7.371104636517369"><ele>938.0000000000001</ele><time>2026-05-02T15:23:25.999Z</time></trkpt><trkpt lat="44.605337287031055" lon="7.371006196450727"><ele>938.0</ele><time>2026-05-02T15:23:26.999Z</time></trkpt><trkpt lat="44.60535045695532" lon="7.370849379302749"><ele>939.2</ele><time>2026-05-02T15:23:29Z</time></trkpt><trkpt lat="44.60538211267081" lon="7.370755463159734"><ele>940.4</ele><time>2026-05-02T15:23:30Z</time></trkpt><trkpt lat="44.605314031869355" lon="7.37062797241954"><ele>941.6000000000001</ele><time>2026-05-02T15:23:32Z</time></trkpt><trkpt lat="44.60521521145635" lon="7.3705491290969825"><ele>942.8000000000001</ele><time>2026-05-02T15:23:33Z</time></trkpt><trkpt lat="44.60513085686815" lon="7.3705040687419405"><ele>944.0</ele><time>2026-05-02T15:23:34Z</time></trkpt><trkpt lat="44.60507620102957" lon="7.370431083683516"><ele>939.5</ele><time>2026-05-02T15:23:35Z</time></trkpt><trkpt lat="44.60502113511892" lon="7.370362689406565"><ele>935.0</ele><time>2026-05-02T15:23:36Z</time></trkpt><trkpt lat="44.604984051486525" lon="7.370270124339654"><ele>930.5</ele><time>2026-05-02T15:23:37Z</time></trkpt><trkpt lat="44.60499345935863" lon="7.370023183222895"><ele>926.0</ele><time>2026-05-02T15:23:39Z</time></trkpt><trkpt lat="44.605042897317595" lon="7.369828004883188"><ele>927.4</ele><time>2026-05-02T15:23:40Z</time></trkpt><trkpt lat="44.60510486567639" lon="7.369648652131167"><ele>928.8</ele><time>2026-05-02T15:23:41Z</time></trkpt><trkpt lat="44.60513971423657" lon="7.369557114296766"><ele>930.1999999999999</ele><time>2026-05-02T15:23:42Z</time></trkpt><trkpt lat="44.60513494585242" lon="7.369447135197218"><ele>931.5999999999999</ele><time>2026-05-02T15:23:43Z</time></trkpt><trkpt lat="44.605096396578325" lon="7.369281896395673"><ele>933.0</ele><time>2026-05-02T15:23:44Z</time></trkpt><trkpt lat="44.60505768780038" lon="7.369144435917999"><ele>933.0</ele><time>2026-05-02T15:23:45Z</time></trkpt><trkpt lat="44.60497874491561" lon="7.36902133085293"><ele>933.0</ele><time>2026-05-02T15:23:46Z</time></trkpt><trkpt lat="44.60493148639268" lon="7.368903422267201"><ele>933.0</ele><time>2026-05-02T15:23:47Z</time></trkpt><trkpt lat="44.60491235396143" lon="7.368785444070093"><ele>933.0</ele><time>2026-05-02T15:23:48Z</time></trkpt><trkpt lat="44.604893034573074" lon="7.368661009504893"><ele>933.0</ele><time>2026-05-02T15:23:49Z</time></trkpt><trkpt lat="44.60486574712581" lon="7.368526413000219"><ele>933.8</ele><time>2026-05-02T15:23:50Z</time></trkpt><trkpt lat="44.6048404377601" lon="7.368382955928654"><ele>934.5999999999999</ele><time>2026-05-02T15:23:51Z</time></trkpt><trkpt lat="44.60482541993157" lon="7.368224518563704"><ele>935.4000000000001</ele><time>2026-05-02T15:23:52Z</time></trkpt><trkpt lat="44.604822835087504" lon="7.368085374168252"><ele>936.2</ele><time>2026-05-02T15:23:53Z</time></trkpt><trkpt lat="44.604799298292974" lon="7.36791994984761"><ele>937.0</ele><time>2026-05-02T15:23:54Z</time></trkpt><trkpt lat="44.60478075135511" lon="7.367774214450752"><ele>938.8</ele><time>2026-05-02T15:23:55Z</time></trkpt><trkpt lat="44.604760617737654" lon="7.3676118746431305"><ele>940.6</ele><time>2026-05-02T15:23:56Z</time></trkpt><trkpt lat="44.60475211069321" lon="7.367481075796162"><ele>942.3999999999999</ele><time>2026-05-02T15:23:57Z</time></trkpt><trkpt lat="44.60474855597556" lon="7.367348233906554"><ele>944.1999999999999</ele><time>2026-05-02T15:23:58Z</time></trkpt><trkpt lat="44.604740663011306" lon="7.367200484103726"><ele>946.0</ele><time>2026-05-02T15:23:59Z</time></trkpt><trkpt lat="44.60474261026114" lon="7.367045193976669"><ele>947.5999999999999</ele><time>2026-05-02T15:24:00Z</time></trkpt><trkpt lat="44.604747324769555" lon="7.366914109327508"><ele>949.1999999999999</ele><time>2026-05-02T15:24:01Z</time></trkpt><trkpt lat="44.6047265052162" lon="7.366774100714574"><ele>950.8000000000001</ele><time>2026-05-02T15:24:02Z</time></trkpt><trkpt lat="44.60467714804919" lon="7.366624008734582"><ele>952.4000000000001</ele><time>2026-05-02T15:24:03Z</time></trkpt><trkpt lat="44.60463545153044" lon="7.366469020497901"><ele>954.0</ele><time>2026-05-02T15:24:04Z</time></trkpt><trkpt lat="44.60460657549184" lon="7.36634143868484"><ele>954.5</ele><time>2026-05-02T15:24:05Z</time></trkpt><trkpt lat="44.604594078933516" lon="7.366240391280316"><ele>955.0</ele><time>2026-05-02T15:24:06Z</time></trkpt><trkpt lat="44.60457707415811" lon="7.366100000338927"><ele>955.5</ele><time>2026-05-02T15:24:08Z</time></trkpt><trkpt lat="44.60458080796684" lon="7.365999558659754"><ele>956.0</ele><time>2026-05-02T15:24:09Z</time></trkpt><trkpt lat="44.60459445639893" lon="7.365867336598497"><ele>956.5</ele><time>2026-05-02T15:24:10Z</time></trkpt><trkpt lat="44.604596903162594" lon="7.365760616785791"><ele>957.0</ele><time>2026-05-02T15:24:11Z</time></trkpt><trkpt lat="44.60456161239133" lon="7.365588235596388"><ele>958.5</ele><time>2026-05-02T15:24:12Z</time></trkpt><trkpt lat="44.60454322318894" lon="7.365395681315048"><ele>960.0</ele><time>2026-05-02T15:24:13Z</time></trkpt><trkpt lat="44.60451215131665" lon="7.36517920817211"><ele>961.5</ele><time>2026-05-02T15:24:14Z</time></trkpt><trkpt lat="44.60450337880932" lon="7.36499362942473"><ele>963.0</ele><time>2026-05-02T15:24:15Z</time></trkpt><trkpt lat="44.60450555967667" lon="7.364860318678509"><ele>961.5999999999999</ele><time>2026-05-02T15:24:16Z</time></trkpt><trkpt lat="44.604488456723836" lon="7.364746167514868"><ele>960.1999999999999</ele><time>2026-05-02T15:24:17Z</time></trkpt><trkpt lat="44.6044254917308" lon="7.3646251401183065"><ele>958.8</ele><time>2026-05-02T15:24:18Z</time></trkpt><trkpt lat="44.60434756935323" lon="7.364508018906837"><ele>957.4</ele><time>2026-05-02T15:24:19Z</time></trkpt><trkpt lat="44.60423454943832" lon="7.364401217332471"><ele>956.0</ele><time>2026-05-02T15:24:20Z</time></trkpt><trkpt lat="44.604152801479515" lon="7.364262563000868"><ele>956.0</ele><time>2026-05-02T15:24:21Z</time></trkpt><trkpt lat="44.60405490095055" lon="7.364134553721811"><ele>956.0</ele><time>2026-05-02T15:24:22Z</time></trkpt><trkpt lat="44.603966448236086" lon="7.364020591626613"><ele>956.0</ele><time>2026-05-02T15:24:23Z</time></trkpt><trkpt lat="44.60389658458945" lon="7.363910679406644"><ele>956.0</ele><time>2026-05-02T15:24:24Z</time></trkpt><trkpt lat="44.60381177409736" lon="7.363831313171886"><ele>957.6666666666667</ele><time>2026-05-02T15:24:25Z</time></trkpt><trkpt lat="44.60374635198088" lon="7.363743114671818"><ele>959.3333333333334</ele><time>2026-05-02T15:24:26Z</time></trkpt><trkpt lat="44.60368698036341" lon="7.363660743025655"><ele>961.0</ele><time>2026-05-02T15:24:27Z</time></trkpt><trkpt lat="44.60363624251488" lon="7.363599616891397"><ele>962.6666666666667</ele><time>2026-05-02T15:24:28Z</time></trkpt><trkpt lat="44.60357271951197" lon="7.363547797704134"><ele>964.3333333333334</ele><time>2026-05-02T15:24:29Z</time></trkpt><trkpt lat="44.6034785541024" lon="7.363520274133489"><ele>966.0</ele><time>2026-05-02T15:24:30Z</time></trkpt><trkpt lat="44.603377861139016" lon="7.363474008474022"><ele>966.0</ele><time>2026-05-02T15:24:31Z</time></trkpt><trkpt lat="44.60326827085316" lon="7.363414406354831"><ele>966.0</ele><time>2026-05-02T15:24:32Z</time></trkpt><trkpt lat="44.60315868931479" lon="7.363306767688836"><ele>966.0</ele><time>2026-05-02T15:24:33Z</time></trkpt><trkpt lat="44.603065381182795" lon="7.363225820164341"><ele>966.0</ele><time>2026-05-02T15:24:34Z</time></trkpt><trkpt lat="44.602997029212354" lon="7.363134516421672"><ele>969.0</ele><time>2026-05-02T15:24:35Z</time></trkpt><trkpt lat="44.6029266726079" lon="7.363028753911535"><ele>972.0</ele><time>2026-05-02T15:24:36Z</time></trkpt><trkpt lat="44.602861372486146" lon="7.362900170683051"><ele>975.0</ele><time>2026-05-02T15:24:37Z</time></trkpt><trkpt lat="44.60280354837577" lon="7.362754671681983"><ele>978.0</ele><time>2026-05-02T15:24:38Z</time></trkpt><trkpt lat="44.60275154867058" lon="7.362607680916061"><ele>978.0</ele><time>2026-05-02T15:24:39Z</time></trkpt><trkpt lat="44.60270384337087" lon="7.362467464833534"><ele>978.0</ele><time>2026-05-02T15:24:40Z</time></trkpt><trkpt lat="44.60266652782371" lon="7.362330719213416"><ele>978.0</ele><time>2026-05-02T15:24:41Z</time></trkpt><trkpt lat="44.6026482884589" lon="7.362221217949926"><ele>978.0</ele><time>2026-05-02T15:24:42Z</time></trkpt><trkpt lat="44.60263805304153" lon="7.362123025700222"><ele>978.0</ele><time>2026-05-02T15:24:43Z</time></trkpt><trkpt lat="44.6026505336782" lon="7.3620298448016"><ele>978.0</ele><time>2026-05-02T15:24:44Z</time></trkpt><trkpt lat="44.60265926297892" lon="7.361938721922761"><ele>980.2</ele><time>2026-05-02T15:24:45Z</time></trkpt><trkpt lat="44.60266866671813" lon="7.361834516550504"><ele>982.4</ele><time>2026-05-02T15:24:46Z</time></trkpt><trkpt lat="44.60265972595567" lon="7.361713246302699"><ele>984.6000000000001</ele><time>2026-05-02T15:24:47Z</time></trkpt><trkpt lat="44.60265114453999" lon="7.361587390025541"><ele>986.8000000000001</ele><time>2026-05-02T15:24:48Z</time></trkpt><trkpt lat="44.60262039977328" lon="7.361450229847727"><ele>989.0</ele><time>2026-05-02T15:24:49Z</time></trkpt><trkpt lat="44.60256438247059" lon="7.36133123310809"><ele>990.5000000000001</ele><time>2026-05-02T15:24:50Z</time></trkpt><trkpt lat="44.6025046725925" lon="7.361210991164344"><ele>992.0</ele><time>2026-05-02T15:24:51Z</time></trkpt><trkpt lat="44.60245512526235" lon="7.361105454878856"><ele>993.5</ele><time>2026-05-02T15:24:52Z</time></trkpt><trkpt lat="44.60241574888655" lon="7.361007690220711"><ele>995.0</ele><time>2026-05-02T15:24:53Z</time></trkpt><trkpt lat="44.60238555362545" lon="7.360920079958143"><ele>996.5000000000001</ele><time>2026-05-02T15:24:54Z</time></trkpt><trkpt lat="44.602351614092406" lon="7.360808403523307"><ele>998.0</ele><time>2026-05-02T15:24:55Z</time></trkpt><trkpt lat="44.60230770651577" lon="7.3607140174629855"><ele>998.0</ele><time>2026-05-02T15:24:56Z</time></trkpt><trkpt lat="44.602253321009606" lon="7.360602895543519"><ele>998.0</ele><time>2026-05-02T15:24:57Z</time></trkpt><trkpt lat="44.602202966724164" lon="7.360478964390961"><ele>998.0</ele><time>2026-05-02T15:24:58Z</time></trkpt><trkpt lat="44.602148596825174" lon="7.360359737677599"><ele>998.0</ele><time>2026-05-02T15:24:59Z</time></trkpt><trkpt lat="44.60208724989545" lon="7.360255322634909"><ele>998.0</ele><time>2026-05-02T15:24:59.999Z</time></trkpt><trkpt lat="44.60202376972391" lon="7.360152613120389"><ele>999.4</ele><time>2026-05-02T15:25:00.999Z</time></trkpt><trkpt lat="44.60195991651775" lon="7.360056885212218"><ele>1000.8</ele><time>2026-05-02T15:25:01.999Z</time></trkpt><trkpt lat="44.60190262764346" lon="7.35994004430504"><ele>1002.2</ele><time>2026-05-02T15:25:02.999Z</time></trkpt><trkpt lat="44.601853225005804" lon="7.359832026155672"><ele>1003.6</ele><time>2026-05-02T15:25:03.999Z</time></trkpt><trkpt lat="44.601796322664676" lon="7.359724204066427"><ele>1005.0</ele><time>2026-05-02T15:25:04.999Z</time></trkpt><trkpt lat="44.60177054624119" lon="7.359623770577902"><ele>1005.0</ele><time>2026-05-02T15:25:05.999Z</time></trkpt><trkpt lat="44.60175788380843" lon="7.359520440830101"><ele>1005.0</ele><time>2026-05-02T15:25:06.999Z</time></trkpt><trkpt lat="44.60173653807186" lon="7.359394007909255"><ele>1005.0</ele><time>2026-05-02T15:25:08.999Z</time></trkpt><trkpt lat="44.60172922833761" lon="7.359504478364022"><ele>1005.0</ele><time>2026-05-02T15:25:10.999Z</time></trkpt><trkpt lat="44.601749942772656" lon="7.35960801019153"><ele>1005.0</ele><time>2026-05-02T15:25:11.999Z</time></trkpt><trkpt lat="44.60177577625868" lon="7.35969325074537"><ele>1005.0</ele><time>2026-05-02T15:25:12.999Z</time></trkpt><trkpt lat="44.60178438830809" lon="7.359787639928161"><ele>1006.1666666666666</ele><time>2026-05-02T15:25:13.999Z</time></trkpt><trkpt lat="44.601785067985396" lon="7.359883607801002"><ele>1007.3333333333333</ele><time>2026-05-02T15:25:14.999Z</time></trkpt><trkpt lat="44.60175672105947" lon="7.359985834829724"><ele>1008.5</ele><time>2026-05-02T15:25:15.999Z</time></trkpt><trkpt lat="44.601745824073184" lon="7.3601012058968625"><ele>1009.6666666666666</ele><time>2026-05-02T15:25:16.999Z</time></trkpt><trkpt lat="44.60172103202613" lon="7.360218468473254"><ele>1010.8333333333333</ele><time>2026-05-02T15:25:17.999Z</time></trkpt><trkpt lat="44.6017171837642" lon="7.360359475505306"><ele>1012.0</ele><time>2026-05-02T15:25:18.999Z</time></trkpt><trkpt lat="44.60172803732924" lon="7.360493765237076"><ele>1012.0</ele><time>2026-05-02T15:25:19.999Z</time></trkpt><trkpt lat="44.60172304088718" lon="7.360625170726298"><ele>1012.0</ele><time>2026-05-02T15:25:20.999Z</time></trkpt><trkpt lat="44.60170110374355" lon="7.360715837772487"><ele>1012.0</ele><time>2026-05-02T15:25:21.999Z</time></trkpt><trkpt lat="44.60162935113238" lon="7.360806890708658"><ele>1012.0</ele><time>2026-05-02T15:25:23.999Z</time></trkpt><trkpt lat="44.60158858211956" lon="7.360950039219063"><ele>1012.0</ele><time>2026-05-02T15:25:25.999Z</time></trkpt><trkpt lat="44.60155201565658" lon="7.3610847092186455"><ele>1012.0</ele><time>2026-05-02T15:25:27.999Z</time></trkpt><trkpt lat="44.601501151837475" lon="7.36124769518298"><ele>1012.0</ele><time>2026-05-02T15:25:30.999Z</time></trkpt><trkpt lat="44.6014792222654" lon="7.3613606255163955"><ele>1012.0</ele><time>2026-05-02T15:25:31.999Z</time></trkpt><trkpt lat="44.6014470307429" lon="7.3615000428243285"><ele>1012.0</ele><time>2026-05-02T15:25:33.999Z</time></trkpt><trkpt lat="44.601387903503635" lon="7.361632873987601"><ele>1012.0</ele><time>2026-05-02T15:25:36Z</time></trkpt><trkpt lat="44.601325704380876" lon="7.36177029814973"><ele>1012.4999999999999</ele><time>2026-05-02T15:25:38Z</time></trkpt><trkpt lat="44.601287935539396" lon="7.361844956264925"><ele>1013.0</ele><time>2026-05-02T15:25:39Z</time></trkpt><trkpt lat="44.601208435607305" lon="7.361958444433299"><ele>1013.5</ele><time>2026-05-02T15:25:41Z</time></trkpt><trkpt lat="44.601158791001524" lon="7.362025234643043"><ele>1014.0</ele><time>2026-05-02T15:25:42Z</time></trkpt><trkpt lat="44.60110691306272" lon="7.362097603756178"><ele>1014.4999999999999</ele><time>2026-05-02T15:25:43Z</time></trkpt><trkpt lat="44.6010255620589" lon="7.362165454656294"><ele>1015.0</ele><time>2026-05-02T15:25:44Z</time></trkpt><trkpt lat="44.60092535081138" lon="7.36225204956357"><ele>1020.2</ele><time>2026-05-02T15:25:45Z</time></trkpt><trkpt lat="44.60082854223358" lon="7.362361598170313"><ele>1025.4</ele><time>2026-05-02T15:25:46Z</time></trkpt><trkpt lat="44.60075496958067" lon="7.3624659244608495"><ele>1030.6</ele><time>2026-05-02T15:25:47Z</time></trkpt><trkpt lat="44.60069556222903" lon="7.3625532425904625"><ele>1035.8</ele><time>2026-05-02T15:25:48Z</time></trkpt><trkpt lat="44.60062916954314" lon="7.362650930581076"><ele>1041.0</ele><time>2026-05-02T15:25:50Z</time></trkpt><trkpt lat="44.60052223015141" lon="7.362584139932536"><ele>1041.0</ele><time>2026-05-02T15:25:52Z</time></trkpt><trkpt lat="44.600452226958105" lon="7.362539623327511"><ele>1041.0</ele><time>2026-05-02T15:25:53Z</time></trkpt><trkpt lat="44.60035481497693" lon="7.362494416896267"><ele>1041.0</ele><time>2026-05-02T15:25:54Z</time></trkpt><trkpt lat="44.60026637886085" lon="7.362448275431377"><ele>1041.0</ele><time>2026-05-02T15:25:55Z</time></trkpt><trkpt lat="44.600205926823456" lon="7.362372433347442"><ele>1041.0</ele><time>2026-05-02T15:25:56Z</time></trkpt><trkpt lat="44.60013197413089" lon="7.362298907649571"><ele>1041.0</ele><time>2026-05-02T15:25:57Z</time></trkpt><trkpt lat="44.600047769415085" lon="7.362259982401644"><ele>1040.3333333333333</ele><time>2026-05-02T15:25:58Z</time></trkpt><trkpt lat="44.59997440392962" lon="7.362239198666443"><ele>1039.6666666666667</ele><time>2026-05-02T15:25:59Z</time></trkpt><trkpt lat="44.599873925950895" lon="7.362244642599515"><ele>1039.0</ele><time>2026-05-02T15:26:01Z</time></trkpt><trkpt lat="44.59982017994167" lon="7.362178124140194"><ele>1038.3333333333335</ele><time>2026-05-02T15:26:02Z</time></trkpt><trkpt lat="44.59975254794706" lon="7.3620781375683055"><ele>1037.6666666666667</ele><time>2026-05-02T15:26:03Z</time></trkpt><trkpt lat="44.599681288542655" lon="7.361998691425151"><ele>1037.0</ele><time>2026-05-02T15:26:04Z</time></trkpt><trkpt lat="44.599589407193996" lon="7.361926727363014"><ele>1037.0</ele><time>2026-05-02T15:26:05Z</time></trkpt><trkpt lat="44.599488663876606" lon="7.361807810868726"><ele>1037.0</ele><time>2026-05-02T15:26:06Z</time></trkpt><trkpt lat="44.599370360273355" lon="7.361674666639664"><ele>1037.0</ele><time>2026-05-02T15:26:07Z</time></trkpt><trkpt lat="44.59926092448515" lon="7.361528346188852"><ele>1037.0</ele><time>2026-05-02T15:26:08Z</time></trkpt><trkpt lat="44.59918628955098" lon="7.36140908069298"><ele>1043.4</ele><time>2026-05-02T15:26:09Z</time></trkpt><trkpt lat="44.59910806041263" lon="7.361308846482122"><ele>1049.8000000000002</ele><time>2026-05-02T15:26:10Z</time></trkpt><trkpt lat="44.59904383019111" lon="7.361215226244884"><ele>1056.2</ele><time>2026-05-02T15:26:11Z</time></trkpt><trkpt lat="44.59894719697066" lon="7.36115936613324"><ele>1062.6000000000001</ele><time>2026-05-02T15:26:12Z</time></trkpt><trkpt lat="44.598823273579754" lon="7.3611167540758835"><ele>1069.0</ele><time>2026-05-02T15:26:13Z</time></trkpt><trkpt lat="44.5987127406416" lon="7.36111293899963"><ele>1065.6666666666665</ele><time>2026-05-02T15:26:14Z</time></trkpt><trkpt lat="44.59861988409626" lon="7.361117473780278"><ele>1062.3333333333333</ele><time>2026-05-02T15:26:15Z</time></trkpt><trkpt lat="44.598528145823295" lon="7.36108456514208"><ele>1059.0</ele><time>2026-05-02T15:26:16Z</time></trkpt><trkpt lat="44.598452187904606" lon="7.3610197630920355"><ele>1055.6666666666667</ele><time>2026-05-02T15:26:17Z</time></trkpt><trkpt lat="44.59837493185434" lon="7.360954232265438"><ele>1052.3333333333335</ele><time>2026-05-02T15:26:18Z</time></trkpt><trkpt lat="44.59831042339813" lon="7.36088271134971"><ele>1049.0</ele><time>2026-05-02T15:26:19Z</time></trkpt><trkpt lat="44.598251001958346" lon="7.360819562752927"><ele>1049.0</ele><time>2026-05-02T15:26:20Z</time></trkpt><trkpt lat="44.598169120958936" lon="7.3607008748158185"><ele>1049.0</ele><time>2026-05-02T15:26:22Z</time></trkpt><trkpt lat="44.59808621492139" lon="7.360663693791384"><ele>1049.0</ele><time>2026-05-02T15:26:24Z</time></trkpt><trkpt lat="44.59801414693359" lon="7.360674071906258"><ele>1049.0</ele><time>2026-05-02T15:26:25Z</time></trkpt><trkpt lat="44.59793331740001" lon="7.36068586851835"><ele>1049.0</ele><time>2026-05-02T15:26:26Z</time></trkpt><trkpt lat="44.597850001630235" lon="7.3606978404132795"><ele>1049.0</ele><time>2026-05-02T15:26:27Z</time></trkpt><trkpt lat="44.59775357895967" lon="7.360716964263651"><ele>1048.1666666666667</ele><time>2026-05-02T15:26:28Z</time></trkpt><trkpt lat="44.59770381751438" lon="7.360661764828569"><ele>1047.3333333333335</ele><time>2026-05-02T15:26:29Z</time></trkpt><trkpt lat="44.597647303071554" lon="7.360593554887802"><ele>1046.5</ele><time>2026-05-02T15:26:30Z</time></trkpt><trkpt lat="44.59755946542198" lon="7.360550179528966"><ele>1045.6666666666667</ele><time>2026-05-02T15:26:31Z</time></trkpt><trkpt lat="44.59746575972297" lon="7.3605638393897115"><ele>1044.8333333333333</ele><time>2026-05-02T15:26:32Z</time></trkpt><trkpt lat="44.59738291576944" lon="7.360576189913768"><ele>1044.0</ele><time>2026-05-02T15:26:33Z</time></trkpt><trkpt lat="44.59729280728206" lon="7.360625016211035"><ele>1044.0</ele><time>2026-05-02T15:26:34Z</time></trkpt><trkpt lat="44.59722905382274" lon="7.360701735880646"><ele>1044.0</ele><time>2026-05-02T15:26:35Z</time></trkpt><trkpt lat="44.597154621134585" lon="7.3608166286888785"><ele>1044.0</ele><time>2026-05-02T15:26:36Z</time></trkpt><trkpt lat="44.59705946003389" lon="7.360925658681598"><ele>1044.0</ele><time>2026-05-02T15:26:37Z</time></trkpt><trkpt lat="44.596980774353625" lon="7.361033048545192"><ele>1044.0</ele><time>2026-05-02T15:26:38Z</time></trkpt><trkpt lat="44.59691687209604" lon="7.361129146929251"><ele>1042.3333333333333</ele><time>2026-05-02T15:26:39Z</time></trkpt><trkpt lat="44.59686668918563" lon="7.361259475548494"><ele>1040.6666666666667</ele><time>2026-05-02T15:26:40Z</time></trkpt><trkpt lat="44.59682088652447" lon="7.361354296359026"><ele>1039.0</ele><time>2026-05-02T15:26:41Z</time></trkpt><trkpt lat="44.59677116812012" lon="7.361446661321268"><ele>1037.3333333333335</ele><time>2026-05-02T15:26:42Z</time></trkpt><trkpt lat="44.59669098526595" lon="7.361500939049544"><ele>1035.6666666666667</ele><time>2026-05-02T15:26:43Z</time></trkpt><trkpt lat="44.59661459504702" lon="7.3615534929518445"><ele>1034.0</ele><time>2026-05-02T15:26:44Z</time></trkpt><trkpt lat="44.59655477559489" lon="7.361610027109352"><ele>1034.0</ele><time>2026-05-02T15:26:45Z</time></trkpt><trkpt lat="44.5964525807903" lon="7.361683726923021"><ele>1034.0</ele><time>2026-05-02T15:26:47Z</time></trkpt><trkpt lat="44.59638970406331" lon="7.361677022512572"><ele>1034.0</ele><time>2026-05-02T15:26:47.999Z</time></trkpt><trkpt lat="44.59630671949525" lon="7.361632543039745"><ele>1034.0</ele><time>2026-05-02T15:26:48.999Z</time></trkpt><trkpt lat="44.59621528594349" lon="7.361581915058231"><ele>1034.0</ele><time>2026-05-02T15:26:49.999Z</time></trkpt><trkpt lat="44.59614939736158" lon="7.361540766867644"><ele>1034.0</ele><time>2026-05-02T15:26:50.999Z</time></trkpt><trkpt lat="44.596062705283046" lon="7.361532769507524"><ele>1036.8</ele><time>2026-05-02T15:26:51.999Z</time></trkpt><trkpt lat="44.5959662328477" lon="7.361578130494758"><ele>1039.6000000000001</ele><time>2026-05-02T15:26:52.999Z</time></trkpt><trkpt lat="44.5958934018038" lon="7.361659480610199"><ele>1042.4</ele><time>2026-05-02T15:26:53.999Z</time></trkpt><trkpt lat="44.59579374888774" lon="7.361651346943489"><ele>1045.2</ele><time>2026-05-02T15:26:55.999Z</time></trkpt><trkpt lat="44.59571041119853" lon="7.361588346482081"><ele>1048.0</ele><time>2026-05-02T15:26:57.999Z</time></trkpt><trkpt lat="44.59558553000186" lon="7.361605402424628"><ele>1048.0</ele><time>2026-05-02T15:26:59.999Z</time></trkpt><trkpt lat="44.595524846408004" lon="7.36164753103179"><ele>1048.0</ele><time>2026-05-02T15:27:00.999Z</time></trkpt><trkpt lat="44.59542602017074" lon="7.361658893477345"><ele>1048.0</ele><time>2026-05-02T15:27:02.999Z</time></trkpt><trkpt lat="44.59535947422555" lon="7.361629624408784"><ele>1048.0</ele><time>2026-05-02T15:27:03.999Z</time></trkpt><trkpt lat="44.59529458780844" lon="7.36163852904886"><ele>1048.0</ele><time>2026-05-02T15:27:04.999Z</time></trkpt><trkpt lat="44.595199202689855" lon="7.361683967828679"><ele>1048.0</ele><time>2026-05-02T15:27:06.999Z</time></trkpt><trkpt lat="44.595092746711565" lon="7.361666325493746"><ele>1055.3333333333333</ele><time>2026-05-02T15:27:08.999Z</time></trkpt><trkpt lat="44.59502990551629" lon="7.361643593537781"><ele>1062.6666666666667</ele><time>2026-05-02T15:27:10.999Z</time></trkpt><trkpt lat="44.59496103214892" lon="7.361735616756941"><ele>1070.0</ele><time>2026-05-02T15:27:13.999Z</time></trkpt><trkpt lat="44.594710780998156" lon="7.361979622203688"><ele>1070.0</ele><time>2026-05-02T15:27:15.999Z</time></trkpt><trkpt lat="44.59464993375835" lon="7.362117165017629"><ele>1070.0</ele><time>2026-05-02T15:27:16.999Z</time></trkpt><trkpt lat="44.594596914467374" lon="7.362207910359956"><ele>1070.0</ele><time>2026-05-02T15:27:17.999Z</time></trkpt><trkpt lat="44.594538761461884" lon="7.362254215608639"><ele>1070.0</ele><time>2026-05-02T15:27:18.999Z</time></trkpt><trkpt lat="44.594432292336016" lon="7.362218138344256"><ele>1070.0</ele><time>2026-05-02T15:27:20.999Z</time></trkpt><trkpt lat="44.5943582234003" lon="7.362113459490434"><ele>1071.2</ele><time>2026-05-02T15:27:22.999Z</time></trkpt><trkpt lat="44.594302800137044" lon="7.362070132879594"><ele>1072.4</ele><time>2026-05-02T15:27:23.999Z</time></trkpt><trkpt lat="44.59419401088072" lon="7.36201355365029"><ele>1073.6</ele><time>2026-05-02T15:27:25.999Z</time></trkpt><trkpt lat="44.59408678506744" lon="7.361919821454618"><ele>1074.8</ele><time>2026-05-02T15:27:27.999Z</time></trkpt><trkpt lat="44.59403094773944" lon="7.3618561375821026"><ele>1076.0</ele><time>2026-05-02T15:27:28.999Z</time></trkpt><trkpt lat="44.59397517746923" lon="7.361785815543976"><ele>1076.0</ele><time>2026-05-02T15:27:29.999Z</time></trkpt><trkpt lat="44.593908055469946" lon="7.361709689329196"><ele>1076.0</ele><time>2026-05-02T15:27:30.999Z</time></trkpt><trkpt lat="44.59384653429066" lon="7.361642025602789"><ele>1076.0</ele><time>2026-05-02T15:27:31.999Z</time></trkpt><trkpt lat="44.5938022018998" lon="7.361557872578978"><ele>1076.0</ele><time>2026-05-02T15:27:32.999Z</time></trkpt><trkpt lat="44.59376903386227" lon="7.361459206583871"><ele>1076.0</ele><time>2026-05-02T15:27:33.999Z</time></trkpt><trkpt lat="44.59374687039837" lon="7.361355779874636"><ele>1076.0</ele><time>2026-05-02T15:27:34.999Z</time></trkpt><trkpt lat="44.59374448883164" lon="7.3612314510541355"><ele>1076.0</ele><time>2026-05-02T15:27:35.999Z</time></trkpt><trkpt lat="44.59373503080493" lon="7.361133172558013"><ele>1076.0</ele><time>2026-05-02T15:27:36.999Z</time></trkpt><trkpt lat="44.59372850800909" lon="7.361037804865254"><ele>1076.0</ele><time>2026-05-02T15:27:37.999Z</time></trkpt><trkpt lat="44.59376466920801" lon="7.360964497706671"><ele>1076.0</ele><time>2026-05-02T15:27:38.999Z</time></trkpt><trkpt lat="44.593778767083215" lon="7.360856544631656"><ele>1076.0</ele><time>2026-05-02T15:27:39.999Z</time></trkpt><trkpt lat="44.59378830339077" lon="7.360758745285487"><ele>1076.0</ele><time>2026-05-02T15:27:41Z</time></trkpt><trkpt lat="44.593798418644916" lon="7.3606576397643755"><ele>1076.0</ele><time>2026-05-02T15:27:42Z</time></trkpt><trkpt lat="44.59380644580994" lon="7.360534882217377"><ele>1075.3999999999999</ele><time>2026-05-02T15:27:43Z</time></trkpt><trkpt lat="44.59380579748501" lon="7.360369815253826"><ele>1074.8</ele><time>2026-05-02T15:27:44Z</time></trkpt><trkpt lat="44.59379053423437" lon="7.360216502332446"><ele>1074.1999999999998</ele><time>2026-05-02T15:27:45Z</time></trkpt><trkpt lat="44.593788127840355" lon="7.360084480435758"><ele>1073.6</ele><time>2026-05-02T15:27:46Z</time></trkpt><trkpt lat="44.59378849572924" lon="7.359988179570379"><ele>1073.0</ele><time>2026-05-02T15:27:47Z</time></trkpt><trkpt lat="44.59379038294465" lon="7.359899066718523"><ele>1073.0</ele><time>2026-05-02T15:27:48Z</time></trkpt><trkpt lat="44.59371793690149" lon="7.359776367588611"><ele>1073.0</ele><time>2026-05-02T15:27:49Z</time></trkpt><trkpt lat="44.59374651593562" lon="7.359678303111748"><ele>1073.0</ele><time>2026-05-02T15:27:50Z</time></trkpt><trkpt lat="44.593778401870715" lon="7.359570206210073"><ele>1073.0</ele><time>2026-05-02T15:27:52Z</time></trkpt><trkpt lat="44.5939136126066" lon="7.359556813497176"><ele>1073.0</ele><time>2026-05-02T15:27:54Z</time></trkpt><trkpt lat="44.59397649697418" lon="7.359507894331542"><ele>1072.0</ele><time>2026-05-02T15:27:55Z</time></trkpt><trkpt lat="44.594046413059445" lon="7.359458881912829"><ele>1071.0</ele><time>2026-05-02T15:27:56Z</time></trkpt><trkpt lat="44.59412567397705" lon="7.359415828360708"><ele>1070.0</ele><time>2026-05-02T15:27:57Z</time></trkpt><trkpt lat="44.5942025513139" lon="7.359373502599439"><ele>1069.0</ele><time>2026-05-02T15:27:58Z</time></trkpt><trkpt lat="44.59424585345038" lon="7.359281000552258"><ele>1068.0</ele><time>2026-05-02T15:28:00Z</time></trkpt><trkpt lat="44.59423688522039" lon="7.3591858208786665"><ele>1067.0</ele><time>2026-05-02T15:28:01Z</time></trkpt><trkpt lat="44.594211606416955" lon="7.359084499160821"><ele>1067.0</ele><time>2026-05-02T15:28:02Z</time></trkpt><trkpt lat="44.594117955205164" lon="7.358984838277429"><ele>1067.0</ele><time>2026-05-02T15:28:03Z</time></trkpt><trkpt lat="44.59407525911622" lon="7.358852440984762"><ele>1067.0</ele><time>2026-05-02T15:28:04Z</time></trkpt><trkpt lat="44.594017625439" lon="7.358742504715255"><ele>1067.0</ele><time>2026-05-02T15:28:05Z</time></trkpt><trkpt lat="44.59393933116295" lon="7.358648537903414"><ele>1067.0</ele><time>2026-05-02T15:28:06Z</time></trkpt><trkpt lat="44.59386686315596" lon="7.358681543746485"><ele>1073.0</ele><time>2026-05-02T15:28:08Z</time></trkpt><trkpt lat="44.59391640397924" lon="7.35803187217192"><ele>1073.0</ele><time>2026-05-02T15:28:10Z</time></trkpt><trkpt lat="44.593863950406906" lon="7.357937323713907"><ele>1073.0</ele><time>2026-05-02T15:28:11Z</time></trkpt><trkpt lat="44.59384880053187" lon="7.3578254214473"><ele>1073.0</ele><time>2026-05-02T15:28:13Z</time></trkpt><trkpt lat="44.59385715695833" lon="7.357722129794223"><ele>1073.0</ele><time>2026-05-02T15:28:14Z</time></trkpt><trkpt lat="44.593866195331735" lon="7.357610680718316"><ele>1073.0</ele><time>2026-05-02T15:28:15Z</time></trkpt><trkpt lat="44.59387706940724" lon="7.357485307873698"><ele>1073.0</ele><time>2026-05-02T15:28:17Z</time></trkpt><trkpt lat="44.593901053353086" lon="7.357362619808269"><ele>1073.0</ele><time>2026-05-02T15:28:19Z</time></trkpt><trkpt lat="44.59440991390938" lon="7.357241020834422"><ele>1074.8333333333335</ele><time>2026-05-02T15:28:20Z</time></trkpt><trkpt lat="44.59444306813611" lon="7.35713353423922"><ele>1076.6666666666667</ele><time>2026-05-02T15:28:21Z</time></trkpt><trkpt lat="44.59448878303063" lon="7.357033576126738"><ele>1078.5</ele><time>2026-05-02T15:28:22Z</time></trkpt><trkpt lat="44.594520136793946" lon="7.356934418791057"><ele>1080.3333333333333</ele><time>2026-05-02T15:28:23Z</time></trkpt><trkpt lat="44.59454556963637" lon="7.356836422672614"><ele>1082.1666666666665</ele><time>2026-05-02T15:28:24Z</time></trkpt><trkpt lat="44.59457035886959" lon="7.356744984103254"><ele>1084.0</ele><time>2026-05-02T15:28:25Z</time></trkpt><trkpt lat="44.59452774775186" lon="7.356644044542811"><ele>1084.0</ele><time>2026-05-02T15:28:27Z</time></trkpt><trkpt lat="44.59440127012022" lon="7.35654289547357"><ele>1084.0</ele><time>2026-05-02T15:28:29Z</time></trkpt><trkpt lat="44.59434710026029" lon="7.3564665519148384"><ele>1084.0</ele><time>2026-05-02T15:28:30Z</time></trkpt><trkpt lat="44.59429479799907" lon="7.356371369380414"><ele>1084.0</ele><time>2026-05-02T15:28:31Z</time></trkpt><trkpt lat="44.59422924710449" lon="7.356278690812739"><ele>1084.0</ele><time>2026-05-02T15:28:32Z</time></trkpt><trkpt lat="44.594161384615944" lon="7.356189712585703"><ele>1089.6000000000001</ele><time>2026-05-02T15:28:33Z</time></trkpt><trkpt lat="44.59410896630317" lon="7.3561186097892355"><ele>1095.2</ele><time>2026-05-02T15:28:34Z</time></trkpt><trkpt lat="44.59404405529811" lon="7.356067391251639"><ele>1100.8000000000002</ele><time>2026-05-02T15:28:35Z</time></trkpt><trkpt lat="44.59395398661555" lon="7.356030135155126"><ele>1106.4</ele><time>2026-05-02T15:28:36Z</time></trkpt><trkpt lat="44.5938473540309" lon="7.356006971514058"><ele>1112.0</ele><time>2026-05-02T15:28:37Z</time></trkpt><trkpt lat="44.59373818376504" lon="7.355949940993599"><ele>1108.8</ele><time>2026-05-02T15:28:38Z</time></trkpt><trkpt lat="44.593637476851576" lon="7.355886853491208"><ele>1105.6</ele><time>2026-05-02T15:28:39Z</time></trkpt><trkpt lat="44.59354948195195" lon="7.355814021417124"><ele>1102.3999999999999</ele><time>2026-05-02T15:28:40Z</time></trkpt><trkpt lat="44.59348503347962" lon="7.355758815403657"><ele>1099.2</ele><time>2026-05-02T15:28:41Z</time></trkpt><trkpt lat="44.59337791879812" lon="7.355748629870693"><ele>1096.0</ele><time>2026-05-02T15:28:42Z</time></trkpt><trkpt lat="44.59328750039888" lon="7.355719862284569"><ele>1096.0</ele><time>2026-05-02T15:28:42.999Z</time></trkpt><trkpt lat="44.59322415578826" lon="7.355692898183699"><ele>1096.0</ele><time>2026-05-02T15:28:43.999Z</time></trkpt><trkpt lat="44.59314480596669" lon="7.355570448840981"><ele>1096.0</ele><time>2026-05-02T15:28:45.999Z</time></trkpt><trkpt lat="44.59310233113408" lon="7.355462819241235"><ele>1096.0</ele><time>2026-05-02T15:28:46.999Z</time></trkpt><trkpt lat="44.59306643836374" lon="7.355365033388108"><ele>1096.0</ele><time>2026-05-02T15:28:47.999Z</time></trkpt><trkpt lat="44.59305081870761" lon="7.355245891257613"><ele>1096.0</ele><time>2026-05-02T15:28:48.999Z</time></trkpt><trkpt lat="44.59301965486231" lon="7.355125273438512"><ele>1100.2</ele><time>2026-05-02T15:28:49.999Z</time></trkpt><trkpt lat="44.59300629767425" lon="7.3549866570120335"><ele>1104.3999999999999</ele><time>2026-05-02T15:28:50.999Z</time></trkpt><trkpt lat="44.59297458657526" lon="7.354842521982853"><ele>1108.6</ele><time>2026-05-02T15:28:51.999Z</time></trkpt><trkpt lat="44.59296350874358" lon="7.3547071236032915"><ele>1112.8</ele><time>2026-05-02T15:28:52.999Z</time></trkpt><trkpt lat="44.592950309908744" lon="7.354576243076971"><ele>1117.0</ele><time>2026-05-02T15:28:53.999Z</time></trkpt><trkpt lat="44.59294649565633" lon="7.354455864928752"><ele>1115.6666666666665</ele><time>2026-05-02T15:28:54.999Z</time></trkpt><trkpt lat="44.59290465592674" lon="7.354322043443881"><ele>1114.3333333333333</ele><time>2026-05-02T15:28:56.999Z</time></trkpt><trkpt lat="44.59283193031492" lon="7.354307944394682"><ele>1113.0</ele><time>2026-05-02T15:28:57.999Z</time></trkpt><trkpt lat="44.59275412031947" lon="7.354278853309752"><ele>1111.6666666666667</ele><time>2026-05-02T15:28:58.999Z</time></trkpt><trkpt lat="44.592706903216865" lon="7.354186903227812"><ele>1110.3333333333335</ele><time>2026-05-02T15:28:59.999Z</time></trkpt><trkpt lat="44.592690745567495" lon="7.354064728812278"><ele>1109.0</ele><time>2026-05-02T15:29:00.999Z</time></trkpt><trkpt lat="44.592668974790236" lon="7.353938282166524"><ele>1113.0</ele><time>2026-05-02T15:29:01.999Z</time></trkpt><trkpt lat="44.59261754387006" lon="7.35385042382219"><ele>1117.0</ele><time>2026-05-02T15:29:02.999Z</time></trkpt><trkpt lat="44.592552947258234" lon="7.3537923082805845"><ele>1121.0</ele><time>2026-05-02T15:29:03.999Z</time></trkpt><trkpt lat="44.59247938849978" lon="7.353722878074778"><ele>1125.0</ele><time>2026-05-02T15:29:04.999Z</time></trkpt><trkpt lat="44.59239716750439" lon="7.353658519302417"><ele>1129.0</ele><time>2026-05-02T15:29:05.999Z</time></trkpt><trkpt lat="44.59231440164539" lon="7.3536127517374466"><ele>1133.0</ele><time>2026-05-02T15:29:06.999Z</time></trkpt><trkpt lat="44.59222842486344" lon="7.353576940933129"><ele>1133.0</ele><time>2026-05-02T15:29:07.999Z</time></trkpt><trkpt lat="44.59215524679997" lon="7.353528338912875"><ele>1133.0</ele><time>2026-05-02T15:29:08.999Z</time></trkpt><trkpt lat="44.59208991257153" lon="7.353457757942255"><ele>1133.0</ele><time>2026-05-02T15:29:09.999Z</time></trkpt><trkpt lat="44.592031824207766" lon="7.353387664389548"><ele>1133.0</ele><time>2026-05-02T15:29:10.999Z</time></trkpt><trkpt lat="44.59198412872099" lon="7.353320922946285"><ele>1133.0</ele><time>2026-05-02T15:29:11.999Z</time></trkpt><trkpt lat="44.591920308920166" lon="7.353267144636698"><ele>1133.0</ele><time>2026-05-02T15:29:12.999Z</time></trkpt><trkpt lat="44.59184636874438" lon="7.3532119795521025"><ele>1131.5</ele><time>2026-05-02T15:29:13.999Z</time></trkpt><trkpt lat="44.591761374592984" lon="7.353197795200611"><ele>1130.0</ele><time>2026-05-02T15:29:14.999Z</time></trkpt><trkpt lat="44.59170557913622" lon="7.353150639077979"><ele>1128.5</ele><time>2026-05-02T15:29:15.999Z</time></trkpt><trkpt lat="44.59165753204236" lon="7.353055003600584"><ele>1127.0</ele><time>2026-05-02T15:29:16.999Z</time></trkpt><trkpt lat="44.59158900188284" lon="7.35297045988924"><ele>1125.5</ele><time>2026-05-02T15:29:17.999Z</time></trkpt><trkpt lat="44.59152420364404" lon="7.35288577570467"><ele>1124.0</ele><time>2026-05-02T15:29:18.999Z</time></trkpt><trkpt lat="44.59145737887892" lon="7.352831195147322"><ele>1130.0</ele><time>2026-05-02T15:29:19.999Z</time></trkpt><trkpt lat="44.59138279022094" lon="7.352792426086978"><ele>1136.0</ele><time>2026-05-02T15:29:20.999Z</time></trkpt><trkpt lat="44.59131289243689" lon="7.352725459604449"><ele>1142.0</ele><time>2026-05-02T15:29:21.999Z</time></trkpt><trkpt lat="44.59124137995125" lon="7.352648552710338"><ele>1148.0</ele><time>2026-05-02T15:29:22.999Z</time></trkpt><trkpt lat="44.59117022653223" lon="7.3525758451663"><ele>1154.0</ele><time>2026-05-02T15:29:23.999Z</time></trkpt><trkpt lat="44.59108255188496" lon="7.352515765459771"><ele>1160.0</ele><time>2026-05-02T15:29:24.999Z</time></trkpt><trkpt lat="44.59098933793447" lon="7.352472268031346"><ele>1160.0</ele><time>2026-05-02T15:29:25.999Z</time></trkpt><trkpt lat="44.590912061389695" lon="7.352439729607783"><ele>1160.0</ele><time>2026-05-02T15:29:26.999Z</time></trkpt><trkpt lat="44.59084381983849" lon="7.352438189946821"><ele>1160.0</ele><time>2026-05-02T15:29:27.999Z</time></trkpt><trkpt lat="44.59076815251172" lon="7.352423633214911"><ele>1160.0</ele><time>2026-05-02T15:29:28.999Z</time></trkpt><trkpt lat="44.59068376423146" lon="7.3524088434873045"><ele>1160.0</ele><time>2026-05-02T15:29:29.999Z</time></trkpt><trkpt lat="44.590595193366134" lon="7.3524136320804105"><ele>1160.0</ele><time>2026-05-02T15:29:30.999Z</time></trkpt><trkpt lat="44.59050147018968" lon="7.352423450800639"><ele>1160.0</ele><time>2026-05-02T15:29:31.999Z</time></trkpt><trkpt lat="44.59042000465171" lon="7.352441317985767"><ele>1160.0</ele><time>2026-05-02T15:29:32.999Z</time></trkpt><trkpt lat="44.590341302684" lon="7.352461419788163"><ele>1160.0</ele><time>2026-05-02T15:29:33.999Z</time></trkpt><trkpt lat="44.5902512509977" lon="7.352509121474489"><ele>1160.0</ele><time>2026-05-02T15:29:34.999Z</time></trkpt><trkpt lat="44.59015341831772" lon="7.3525279195806466"><ele>1160.0</ele><time>2026-05-02T15:29:35.999Z</time></trkpt><trkpt lat="44.59004750956263" lon="7.352523265958003"><ele>1162.5</ele><time>2026-05-02T15:29:36.999Z</time></trkpt><trkpt lat="44.58995146435027" lon="7.35251383188871"><ele>1165.0</ele><time>2026-05-02T15:29:37.999Z</time></trkpt><trkpt lat="44.589855783338486" lon="7.352524607985589"><ele>1167.5</ele><time>2026-05-02T15:29:38.999Z</time></trkpt><trkpt lat="44.58977785149304" lon="7.3525590842357635"><ele>1170.0</ele><time>2026-05-02T15:29:39.999Z</time></trkpt><trkpt lat="44.589706660835546" lon="7.352591054912668"><ele>1172.5</ele><time>2026-05-02T15:29:40.999Z</time></trkpt><trkpt lat="44.589649230762305" lon="7.352629613406568"><ele>1175.0</ele><time>2026-05-02T15:29:41.999Z</time></trkpt><trkpt lat="44.589591928297764" lon="7.35268888839822"><ele>1175.0</ele><time>2026-05-02T15:29:42.999Z</time></trkpt><trkpt lat="44.589529481381184" lon="7.352730405841749"><ele>1175.0</ele><time>2026-05-02T15:29:43.999Z</time></trkpt><trkpt lat="44.58946796459321" lon="7.352777698995459"><ele>1175.0</ele><time>2026-05-02T15:29:44.999Z</time></trkpt><trkpt lat="44.58939252569088" lon="7.3528201531922015"><ele>1175.0</ele><time>2026-05-02T15:29:45.999Z</time></trkpt><trkpt lat="44.589339903705124" lon="7.352875003449066"><ele>1175.0</ele><time>2026-05-02T15:29:47Z</time></trkpt><trkpt lat="44.58927477745659" lon="7.352935965180324"><ele>1175.0</ele><time>2026-05-02T15:29:48Z</time></trkpt><trkpt lat="44.589201459917554" lon="7.352997473277766"><ele>1175.6</ele><time>2026-05-02T15:29:49Z</time></trkpt><trkpt lat="44.58913134452409" lon="7.353068542803512"><ele>1176.2</ele><time>2026-05-02T15:29:50Z</time></trkpt><trkpt lat="44.589064959221766" lon="7.353139293256392"><ele>1176.8</ele><time>2026-05-02T15:29:51Z</time></trkpt><trkpt lat="44.58899024799027" lon="7.353227795789584"><ele>1177.4</ele><time>2026-05-02T15:29:52Z</time></trkpt><trkpt lat="44.58891884978656" lon="7.353317069324157"><ele>1178.0</ele><time>2026-05-02T15:29:53Z</time></trkpt><trkpt lat="44.588845587685874" lon="7.353405022782476"><ele>1178.0</ele><time>2026-05-02T15:29:54Z</time></trkpt><trkpt lat="44.5887650092583" lon="7.353473916512941"><ele>1178.0</ele><time>2026-05-02T15:29:55Z</time></trkpt><trkpt lat="44.58868143768786" lon="7.353494833210899"><ele>1178.0</ele><time>2026-05-02T15:29:56Z</time></trkpt><trkpt lat="44.588600860852175" lon="7.353526475914601"><ele>1178.0</ele><time>2026-05-02T15:29:57Z</time></trkpt><trkpt lat="44.58852059607573" lon="7.353532223870991"><ele>1178.0</ele><time>2026-05-02T15:29:59Z</time></trkpt><trkpt lat="44.58844506405951" lon="7.353464886750202"><ele>1178.0</ele><time>2026-05-02T15:30:01Z</time></trkpt><trkpt lat="44.588386373513345" lon="7.353403327060281"><ele>1180.5</ele><time>2026-05-02T15:30:02Z</time></trkpt><trkpt lat="44.588310379983334" lon="7.353294913782225"><ele>1183.0</ele><time>2026-05-02T15:30:03Z</time></trkpt><trkpt lat="44.58829101928736" lon="7.3531945818768465"><ele>1185.5</ele><time>2026-05-02T15:30:04Z</time></trkpt><trkpt lat="44.58831806387245" lon="7.35305688170769"><ele>1188.0</ele><time>2026-05-02T15:30:06Z</time></trkpt><trkpt lat="44.58836532740828" lon="7.352982136852887"><ele>1190.5</ele><time>2026-05-02T15:30:07Z</time></trkpt><trkpt lat="44.58842334092436" lon="7.352898689446119"><ele>1193.0</ele><time>2026-05-02T15:30:08Z</time></trkpt><trkpt lat="44.58848721852587" lon="7.352822569069764"><ele>1193.0</ele><time>2026-05-02T15:30:09Z</time></trkpt><trkpt lat="44.58855033629417" lon="7.352748418584338"><ele>1193.0</ele><time>2026-05-02T15:30:10Z</time></trkpt><trkpt lat="44.58861029882304" lon="7.352717874101608"><ele>1193.0</ele><time>2026-05-02T15:30:11Z</time></trkpt><trkpt lat="44.58873084263408" lon="7.352721626959658"><ele>1193.0</ele><time>2026-05-02T15:30:13Z</time></trkpt><trkpt lat="44.5888410789754" lon="7.352740173362828"><ele>1193.0</ele><time>2026-05-02T15:30:15Z</time></trkpt><trkpt lat="44.588929294272354" lon="7.352702895617934"><ele>1194.2</ele><time>2026-05-02T15:30:16Z</time></trkpt><trkpt lat="44.58899405681294" lon="7.352653186646265"><ele>1195.4</ele><time>2026-05-02T15:30:17Z</time></trkpt><trkpt lat="44.58902778477358" lon="7.352547491996253"><ele>1196.6000000000001</ele><time>2026-05-02T15:30:19Z</time></trkpt><trkpt lat="44.589117565101695" lon="7.352426208949741"><ele>1197.8</ele><time>2026-05-02T15:30:21Z</time></trkpt><trkpt lat="44.5891915258262" lon="7.352292737171048"><ele>1199.0</ele><time>2026-05-02T15:30:23Z</time></trkpt><trkpt lat="44.589231933412776" lon="7.352208664108846"><ele>1199.4</ele><time>2026-05-02T15:30:24Z</time></trkpt><trkpt lat="44.589286646606574" lon="7.35211198731198"><ele>1199.8000000000002</ele><time>2026-05-02T15:30:25Z</time></trkpt><trkpt lat="44.58933436236095" lon="7.352012215728369"><ele>1200.1999999999998</ele><time>2026-05-02T15:30:26Z</time></trkpt><trkpt lat="44.58936159381282" lon="7.351928600585239"><ele>1200.6</ele><time>2026-05-02T15:30:27Z</time></trkpt><trkpt lat="44.58944703993425" lon="7.351814663425921"><ele>1201.0</ele><time>2026-05-02T15:30:29Z</time></trkpt><trkpt lat="44.589528784564926" lon="7.3517401754227905"><ele>1202.3333333333333</ele><time>2026-05-02T15:30:30Z</time></trkpt><trkpt lat="44.58960119875775" lon="7.351676972282557"><ele>1203.6666666666665</ele><time>2026-05-02T15:30:31Z</time></trkpt><trkpt lat="44.58967939057727" lon="7.351616283351106"><ele>1205.0</ele><time>2026-05-02T15:30:32Z</time></trkpt><trkpt lat="44.5897607678128" lon="7.351563657907769"><ele>1206.3333333333333</ele><time>2026-05-02T15:30:33Z</time></trkpt><trkpt lat="44.58983927509787" lon="7.351520122361215"><ele>1207.6666666666667</ele><time>2026-05-02T15:30:34Z</time></trkpt><trkpt lat="44.58991610696275" lon="7.351429814763717"><ele>1209.0</ele><time>2026-05-02T15:30:35Z</time></trkpt><trkpt lat="44.58998437742689" lon="7.35133153065919"><ele>1211.3333333333333</ele><time>2026-05-02T15:30:35.999Z</time></trkpt><trkpt lat="44.59004237284378" lon="7.351234127907051"><ele>1213.6666666666667</ele><time>2026-05-02T15:30:36.999Z</time></trkpt><trkpt lat="44.59009943282744" lon="7.351155169437056"><ele>1216.0</ele><time>2026-05-02T15:30:37.999Z</time></trkpt><trkpt lat="44.590123414163266" lon="7.351065904772354"><ele>1218.3333333333335</ele><time>2026-05-02T15:30:38.999Z</time></trkpt><trkpt lat="44.590171214465734" lon="7.350978130626695"><ele>1220.6666666666667</ele><time>2026-05-02T15:30:40.999Z</time></trkpt><trkpt lat="44.590251047033064" lon="7.35088873817758"><ele>1223.0</ele><time>2026-05-02T15:30:42.999Z</time></trkpt><trkpt lat="44.59032109272247" lon="7.35083449360703"><ele>1226.2</ele><time>2026-05-02T15:30:44.999Z</time></trkpt><trkpt lat="44.590401392154746" lon="7.350840034692113"><ele>1229.4</ele><time>2026-05-02T15:30:47.999Z</time></trkpt><trkpt lat="44.59049260176081" lon="7.350825579435804"><ele>1232.6000000000001</ele><time>2026-05-02T15:30:48.999Z</time></trkpt><trkpt lat="44.59056078655606" lon="7.350795683712063"><ele>1235.8</ele><time>2026-05-02T15:30:49.999Z</time></trkpt><trkpt lat="44.590668819019356" lon="7.35073937126916"><ele>1239.0</ele><time>2026-05-02T15:30:51.999Z</time></trkpt><trkpt lat="44.590771220528296" lon="7.350675413047278"><ele>1239.0</ele><time>2026-05-02T15:30:53.999Z</time></trkpt><trkpt lat="44.59086258421778" lon="7.350579137367569"><ele>1239.0</ele><time>2026-05-02T15:30:55.999Z</time></trkpt><trkpt lat="44.59093476735448" lon="7.3504900736364815"><ele>1239.0</ele><time>2026-05-02T15:30:57.999Z</time></trkpt><trkpt lat="44.59102323187681" lon="7.350410871276714"><ele>1239.0</ele><time>2026-05-02T15:30:59.999Z</time></trkpt><trkpt lat="44.59110543692469" lon="7.350350912204732"><ele>1239.0</ele><time>2026-05-02T15:31:01.999Z</time></trkpt><trkpt lat="44.59119032197572" lon="7.350333801596151"><ele>1244.5</ele><time>2026-05-02T15:31:03.999Z</time></trkpt><trkpt lat="44.59128592229588" lon="7.350297339625374"><ele>1250.0</ele><time>2026-05-02T15:31:05.999Z</time></trkpt><trkpt lat="44.59133692480319" lon="7.35023795919085"><ele>1255.5</ele><time>2026-05-02T15:31:06.999Z</time></trkpt><trkpt lat="44.59137773073715" lon="7.350159802420111"><ele>1261.0</ele><time>2026-05-02T15:31:07.999Z</time></trkpt><trkpt lat="44.591433699176726" lon="7.350080962086155"><ele>1266.5</ele><time>2026-05-02T15:31:08.999Z</time></trkpt><trkpt lat="44.59153894701417" lon="7.350117691630277"><ele>1272.0</ele><time>2026-05-02T15:31:11.999Z</time></trkpt><trkpt lat="44.591604579332" lon="7.350119650858802"><ele>1272.0</ele><time>2026-05-02T15:31:12.999Z</time></trkpt><trkpt lat="44.591696780877754" lon="7.350095097855758"><ele>1272.0</ele><time>2026-05-02T15:31:13.999Z</time></trkpt><trkpt lat="44.59178736714988" lon="7.350069586388317"><ele>1272.0</ele><time>2026-05-02T15:31:14.999Z</time></trkpt><trkpt lat="44.591871110472034" lon="7.350063026604508"><ele>1272.0</ele><time>2026-05-02T15:31:15.999Z</time></trkpt><trkpt lat="44.591942779810545" lon="7.35006561096333"><ele>1272.0</ele><time>2026-05-02T15:31:16.999Z</time></trkpt><trkpt lat="44.59201817086476" lon="7.350037195791211"><ele>1272.0</ele><time>2026-05-02T15:31:17.999Z</time></trkpt><trkpt lat="44.59209235286825" lon="7.349991330386349"><ele>1272.8333333333333</ele><time>2026-05-02T15:31:18.999Z</time></trkpt><trkpt lat="44.592146759477444" lon="7.349942446901178"><ele>1273.6666666666667</ele><time>2026-05-02T15:31:19.999Z</time></trkpt><trkpt lat="44.59220396483138" lon="7.349882264980039"><ele>1274.5</ele><time>2026-05-02T15:31:21.999Z</time></trkpt><trkpt lat="44.592274847911" lon="7.349839091227796"><ele>1275.3333333333335</ele><time>2026-05-02T15:31:23.999Z</time></trkpt><trkpt lat="44.592409266747495" lon="7.349811849087316"><ele>1276.1666666666667</ele><time>2026-05-02T15:31:25.999Z</time></trkpt><trkpt lat="44.59249081733047" lon="7.34978514113456"><ele>1277.0</ele><time>2026-05-02T15:31:26.999Z</time></trkpt><trkpt lat="44.59256447035563" lon="7.3497706596804955"><ele>1277.0</ele><time>2026-05-02T15:31:27.999Z</time></trkpt><trkpt lat="44.59263519395616" lon="7.3497540237836025"><ele>1277.0</ele><time>2026-05-02T15:31:28.999Z</time></trkpt><trkpt lat="44.59271706655906" lon="7.349752152824741"><ele>1277.0</ele><time>2026-05-02T15:31:31.999Z</time></trkpt><trkpt lat="44.59285310865744" lon="7.349805080624004"><ele>1277.0</ele><time>2026-05-02T15:31:33.999Z</time></trkpt><trkpt lat="44.592948605537075" lon="7.34981493748426"><ele>1277.0</ele><time>2026-05-02T15:31:34.999Z</time></trkpt><trkpt lat="44.59302895290374" lon="7.3498456565711265"><ele>1278.6666666666667</ele><time>2026-05-02T15:31:35.999Z</time></trkpt><trkpt lat="44.59311303651386" lon="7.3498821436446935"><ele>1280.3333333333335</ele><time>2026-05-02T15:31:36.999Z</time></trkpt><trkpt lat="44.593198222940316" lon="7.349938744494244"><ele>1282.0</ele><time>2026-05-02T15:31:37.999Z</time></trkpt><trkpt lat="44.59327282198879" lon="7.350006266184899"><ele>1283.6666666666667</ele><time>2026-05-02T15:31:38.999Z</time></trkpt><trkpt lat="44.593353837282564" lon="7.350041318825965"><ele>1285.3333333333333</ele><time>2026-05-02T15:31:39.999Z</time></trkpt><trkpt lat="44.59343747049691" lon="7.350055882418644"><ele>1287.0</ele><time>2026-05-02T15:31:40.999Z</time></trkpt><trkpt lat="44.59350936248561" lon="7.35006829787151"><ele>1287.0</ele><time>2026-05-02T15:31:41.999Z</time></trkpt><trkpt lat="44.59357527135685" lon="7.35003786099596"><ele>1287.0</ele><time>2026-05-02T15:31:44.999Z</time></trkpt><trkpt lat="44.59364159265457" lon="7.350076236084459"><ele>1287.0</ele><time>2026-05-02T15:32:46.999Z</time></trkpt><trkpt lat="44.59371030089089" lon="7.350148720233572"><ele>1287.0</ele><time>2026-05-02T15:32:48.999Z</time></trkpt><trkpt lat="44.59377501926118" lon="7.350230462947767"><ele>1287.0</ele><time>2026-05-02T15:32:50.999Z</time></trkpt><trkpt lat="44.59383735420701" lon="7.350285274206202"><ele>1287.0</ele><time>2026-05-02T15:32:52.999Z</time></trkpt><trkpt lat="44.5939257880975" lon="7.3502358407839345"><ele>1288.8333333333333</ele><time>2026-05-02T15:32:54.999Z</time></trkpt><trkpt lat="44.59400912609047" lon="7.350232005047054"><ele>1290.6666666666667</ele><time>2026-05-02T15:32:56.999Z</time></trkpt><trkpt lat="44.59406878758715" lon="7.350189342646241"><ele>1292.5</ele><time>2026-05-02T15:33:05.999Z</time></trkpt><trkpt lat="44.59414173389057" lon="7.350097686069018"><ele>1294.3333333333335</ele><time>2026-05-02T15:33:10.999Z</time></trkpt><trkpt lat="44.5942187613135" lon="7.350022599222765"><ele>1296.1666666666667</ele><time>2026-05-02T15:33:12.999Z</time></trkpt><trkpt lat="44.59430864332357" lon="7.350004120998431"><ele>1298.0</ele><time>2026-05-02T15:33:14.999Z</time></trkpt><trkpt lat="44.59438322894267" lon="7.350043666506813"><ele>1298.0</ele><time>2026-05-02T15:33:15.999Z</time></trkpt><trkpt lat="44.59447705683721" lon="7.35007005252383"><ele>1298.0</ele><time>2026-05-02T15:33:16.999Z</time></trkpt><trkpt lat="44.59459049224037" lon="7.350110032902587"><ele>1298.0</ele><time>2026-05-02T15:33:17.999Z</time></trkpt><trkpt lat="44.5946965556417" lon="7.350146812013117"><ele>1298.0</ele><time>2026-05-02T15:33:18.999Z</time></trkpt><trkpt lat="44.59479565391045" lon="7.350169299723625"><ele>1298.0</ele><time>2026-05-02T15:33:19.999Z</time></trkpt><trkpt lat="44.594870338193694" lon="7.350185680905527"><ele>1298.8333333333335</ele><time>2026-05-02T15:33:20.999Z</time></trkpt><trkpt lat="44.59494828637496" lon="7.3502073647798145"><ele>1299.6666666666667</ele><time>2026-05-02T15:33:21.999Z</time></trkpt><trkpt lat="44.59501693796316" lon="7.350241146426172"><ele>1300.5</ele><time>2026-05-02T15:33:22.999Z</time></trkpt><trkpt lat="44.59508345903982" lon="7.350298000001336"><ele>1301.3333333333333</ele><time>2026-05-02T15:33:23.999Z</time></trkpt><trkpt lat="44.59515428989983" lon="7.350367285880814"><ele>1302.1666666666665</ele><time>2026-05-02T15:33:24.999Z</time></trkpt><trkpt lat="44.5952182418887" lon="7.350493174519747"><ele>1303.0</ele><time>2026-05-02T15:33:25.999Z</time></trkpt><trkpt lat="44.59528686142177" lon="7.350591838170467"><ele>1299.6666666666665</ele><time>2026-05-02T15:33:26.999Z</time></trkpt><trkpt lat="44.595351841299234" lon="7.350689449203409"><ele>1296.3333333333333</ele><time>2026-05-02T15:33:27.999Z</time></trkpt><trkpt lat="44.59540256044969" lon="7.35080122681883"><ele>1293.0</ele><time>2026-05-02T15:33:28.999Z</time></trkpt><trkpt lat="44.595440737386184" lon="7.350909631561101"><ele>1289.6666666666667</ele><time>2026-05-02T15:33:29.999Z</time></trkpt><trkpt lat="44.595481787577036" lon="7.350994488048853"><ele>1286.3333333333335</ele><time>2026-05-02T15:33:30.999Z</time></trkpt><trkpt lat="44.59551565964232" lon="7.3510961767809375"><ele>1283.0</ele><time>2026-05-02T15:33:31.999Z</time></trkpt><trkpt lat="44.59556545033222" lon="7.3512064286129375"><ele>1283.0</ele><time>2026-05-02T15:33:32.999Z</time></trkpt><trkpt lat="44.59562138418806" lon="7.351290273417611"><ele>1283.0</ele><time>2026-05-02T15:33:33.999Z</time></trkpt><trkpt lat="44.59566919199608" lon="7.351359170345914"><ele>1283.0</ele><time>2026-05-02T15:33:34.999Z</time></trkpt><trkpt lat="44.595718765280566" lon="7.3514322046684795"><ele>1283.0</ele><time>2026-05-02T15:33:35.999Z</time></trkpt><trkpt lat="44.59577582252613" lon="7.3515080709704215"><ele>1283.0</ele><time>2026-05-02T15:33:36.999Z</time></trkpt><trkpt lat="44.59581810928155" lon="7.3515939677063935"><ele>1283.0</ele><time>2026-05-02T15:33:37.999Z</time></trkpt><trkpt lat="44.59588780618185" lon="7.351707605609949"><ele>1279.6666666666667</ele><time>2026-05-02T15:33:39.999Z</time></trkpt><trkpt lat="44.595999227338496" lon="7.351680743851627"><ele>1276.3333333333335</ele><time>2026-05-02T15:33:41.999Z</time></trkpt><trkpt lat="44.59604769976966" lon="7.351619152112264"><ele>1273.0</ele><time>2026-05-02T15:33:42.999Z</time></trkpt><trkpt lat="44.59608990058209" lon="7.351527504499053"><ele>1269.6666666666667</ele><time>2026-05-02T15:33:43.999Z</time></trkpt><trkpt lat="44.59614717020375" lon="7.351455830692469"><ele>1266.3333333333333</ele><time>2026-05-02T15:33:44.999Z</time></trkpt><trkpt lat="44.59621689517889" lon="7.35137523447355"><ele>1263.0</ele><time>2026-05-02T15:33:45.999Z</time></trkpt><trkpt lat="44.5962743937072" lon="7.3512861581345055"><ele>1262.6</ele><time>2026-05-02T15:33:46.999Z</time></trkpt><trkpt lat="44.59632959516219" lon="7.351213159141038"><ele>1262.1999999999998</ele><time>2026-05-02T15:33:47.999Z</time></trkpt><trkpt lat="44.596389520112915" lon="7.351123087708166"><ele>1261.8</ele><time>2026-05-02T15:33:48.999Z</time></trkpt><trkpt lat="44.59646047064113" lon="7.351019556329352"><ele>1261.3999999999999</ele><time>2026-05-02T15:33:49.999Z</time></trkpt><trkpt lat="44.59654553930322" lon="7.350919808424494"><ele>1261.0</ele><time>2026-05-02T15:33:50.999Z</time></trkpt><trkpt lat="44.596613959518045" lon="7.350831489681107"><ele>1261.0</ele><time>2026-05-02T15:33:51.999Z</time></trkpt><trkpt lat="44.5966768746126" lon="7.3507563016319954"><ele>1261.0</ele><time>2026-05-02T15:33:52.999Z</time></trkpt><trkpt lat="44.596741839240956" lon="7.35070095895778"><ele>1261.0</ele><time>2026-05-02T15:33:53.999Z</time></trkpt><trkpt lat="44.596811687991156" lon="7.350597489844851"><ele>1261.0</ele><time>2026-05-02T15:33:55.999Z</time></trkpt><trkpt lat="44.59690140513058" lon="7.350607300440848"><ele>1261.0</ele><time>2026-05-02T15:33:57.999Z</time></trkpt><trkpt lat="44.596971055208805" lon="7.350648731921157"><ele>1261.0</ele><time>2026-05-02T15:33:59Z</time></trkpt><trkpt lat="44.59705523961083" lon="7.350672216091879"><ele>1260.1666666666665</ele><time>2026-05-02T15:34:00Z</time></trkpt><trkpt lat="44.59714641049384" lon="7.3506751925886125"><ele>1259.3333333333333</ele><time>2026-05-02T15:34:01Z</time></trkpt><trkpt lat="44.59722668380845" lon="7.350706121165703"><ele>1258.5</ele><time>2026-05-02T15:34:02Z</time></trkpt><trkpt lat="44.59731449065913" lon="7.350760883577492"><ele>1257.6666666666667</ele><time>2026-05-02T15:34:03Z</time></trkpt><trkpt lat="44.597386258986184" lon="7.350786759270477"><ele>1256.8333333333335</ele><time>2026-05-02T15:34:04Z</time></trkpt><trkpt lat="44.59747072352032" lon="7.350834818266769"><ele>1256.0</ele><time>2026-05-02T15:34:05Z</time></trkpt><trkpt lat="44.59756120670008" lon="7.350891650136862"><ele>1256.0</ele><time>2026-05-02T15:34:06Z</time></trkpt><trkpt lat="44.597635623451225" lon="7.35095748051285"><ele>1256.0</ele><time>2026-05-02T15:34:07Z</time></trkpt><trkpt lat="44.597707946526995" lon="7.350981123869187"><ele>1256.0</ele><time>2026-05-02T15:34:08Z</time></trkpt><trkpt lat="44.597783913189495" lon="7.351017944355928"><ele>1256.0</ele><time>2026-05-02T15:34:09Z</time></trkpt><trkpt lat="44.5978555763456" lon="7.351086531514967"><ele>1256.0</ele><time>2026-05-02T15:34:10Z</time></trkpt><trkpt lat="44.597934300922454" lon="7.35111842629005"><ele>1256.0</ele><time>2026-05-02T15:34:11Z</time></trkpt><trkpt lat="44.598004704784934" lon="7.351160017301767"><ele>1256.6666666666667</ele><time>2026-05-02T15:34:12Z</time></trkpt><trkpt lat="44.59807659144321" lon="7.3512394508076015"><ele>1257.3333333333335</ele><time>2026-05-02T15:34:13Z</time></trkpt><trkpt lat="44.59815297144159" lon="7.351295211996931"><ele>1258.0</ele><time>2026-05-02T15:34:14Z</time></trkpt><trkpt lat="44.5982320302009" lon="7.3513709614834895"><ele>1258.6666666666667</ele><time>2026-05-02T15:34:15Z</time></trkpt><trkpt lat="44.598297464983716" lon="7.351417128807927"><ele>1259.3333333333333</ele><time>2026-05-02T15:34:16Z</time></trkpt><trkpt lat="44.59836871308928" lon="7.3514778795240945"><ele>1260.0</ele><time>2026-05-02T15:34:17Z</time></trkpt><trkpt lat="44.59843943919767" lon="7.351526532763875"><ele>1254.4</ele><time>2026-05-02T15:34:18Z</time></trkpt><trkpt lat="44.59850554583373" lon="7.351585519528551"><ele>1248.8</ele><time>2026-05-02T15:34:19Z</time></trkpt><trkpt lat="44.59862206051994" lon="7.351665692388349"><ele>1243.2</ele><time>2026-05-02T15:34:21Z</time></trkpt><trkpt lat="44.59866517263252" lon="7.351730938378076"><ele>1237.6</ele><time>2026-05-02T15:34:22Z</time></trkpt><trkpt lat="44.59874590341098" lon="7.351849866670829"><ele>1232.0</ele><time>2026-05-02T15:34:24Z</time></trkpt><trkpt lat="44.59877949076861" lon="7.351968184074568"><ele>1232.0</ele><time>2026-05-02T15:34:26Z</time></trkpt><trkpt lat="44.59871089882579" lon="7.352069067963376"><ele>1232.0</ele><time>2026-05-02T15:34:28Z</time></trkpt><trkpt lat="44.598624249672206" lon="7.352036751623046"><ele>1232.0</ele><time>2026-05-02T15:34:30Z</time></trkpt><trkpt lat="44.598562844099554" lon="7.351988884879204"><ele>1232.0</ele><time>2026-05-02T15:34:31.999Z</time></trkpt><trkpt lat="44.59848237766272" lon="7.351931277999718"><ele>1232.0</ele><time>2026-05-02T15:34:33.999Z</time></trkpt><trkpt lat="44.59839854283123" lon="7.3519073192439555"><ele>1232.0</ele><time>2026-05-02T15:34:35.999Z</time></trkpt><trkpt lat="44.598272952063006" lon="7.351907558942163"><ele>1231.6</ele><time>2026-05-02T15:34:37.999Z</time></trkpt><trkpt lat="44.59820416813031" lon="7.351911287057475"><ele>1231.2</ele><time>2026-05-02T15:34:38.999Z</time></trkpt><trkpt lat="44.59811413289014" lon="7.351876445510677"><ele>1230.8</ele><time>2026-05-02T15:34:40.999Z</time></trkpt><trkpt lat="44.598007278120505" lon="7.351882310269091"><ele>1230.4</ele><time>2026-05-02T15:34:43.999Z</time></trkpt><trkpt lat="44.59787612651198" lon="7.351900311358244"><ele>1230.0</ele><time>2026-05-02T15:34:45.999Z</time></trkpt><trkpt lat="44.59775075617035" lon="7.351937194209218"><ele>1227.8333333333333</ele><time>2026-05-02T15:34:47.999Z</time></trkpt><trkpt lat="44.597684445634755" lon="7.351975626101586"><ele>1225.6666666666667</ele><time>2026-05-02T15:34:48.999Z</time></trkpt><trkpt lat="44.597599491850325" lon="7.351988443267294"><ele>1223.5</ele><time>2026-05-02T15:34:50.999Z</time></trkpt><trkpt lat="44.59753613891953" lon="7.351962851537242"><ele>1221.3333333333335</ele><time>2026-05-02T15:34:52.999Z</time></trkpt><trkpt lat="44.59747365019342" lon="7.351942623915117"><ele>1219.1666666666667</ele><time>2026-05-02T15:34:53.999Z</time></trkpt><trkpt lat="44.59739736034678" lon="7.351883002347776"><ele>1217.0</ele><time>2026-05-02T15:34:54.999Z</time></trkpt><trkpt lat="44.59731821547929" lon="7.35186218219728"><ele>1217.0</ele><time>2026-05-02T15:34:55.999Z</time></trkpt><trkpt lat="44.597228444567364" lon="7.351968573745939"><ele>1217.0</ele><time>2026-05-02T15:34:57.999Z</time></trkpt><trkpt lat="44.597210984262155" lon="7.352127629126151"><ele>1217.0</ele><time>2026-05-02T15:34:59.999Z</time></trkpt><trkpt lat="44.59720123806489" lon="7.352218335361744"><ele>1217.0</ele><time>2026-05-02T15:35:00.999Z</time></trkpt><trkpt lat="44.59717182034313" lon="7.352361459128391"><ele>1217.0</ele><time>2026-05-02T15:35:01.999Z</time></trkpt><trkpt lat="44.59712950523089" lon="7.352462753619619"><ele>1217.3333333333335</ele><time>2026-05-02T15:35:02.999Z</time></trkpt><trkpt lat="44.597097210282854" lon="7.352569794710035"><ele>1217.6666666666667</ele><time>2026-05-02T15:35:03.999Z</time></trkpt><trkpt lat="44.59704056498744" lon="7.352692811464609"><ele>1218.0</ele><time>2026-05-02T15:35:04.999Z</time></trkpt><trkpt lat="44.597012601812104" lon="7.352794247304647"><ele>1218.3333333333333</ele><time>2026-05-02T15:35:05.999Z</time></trkpt><trkpt lat="44.5969812407499" lon="7.3528951915269305"><ele>1218.6666666666665</ele><time>2026-05-02T15:35:06.999Z</time></trkpt><trkpt lat="44.596966054601886" lon="7.353024553692529"><ele>1219.0</ele><time>2026-05-02T15:35:07.999Z</time></trkpt><trkpt lat="44.59694539066384" lon="7.353122001551667"><ele>1215.4</ele><time>2026-05-02T15:35:08.999Z</time></trkpt><trkpt lat="44.59692201659658" lon="7.3532256277903"><ele>1211.8000000000002</ele><time>2026-05-02T15:35:09.999Z</time></trkpt><trkpt lat="44.59689435878085" lon="7.353336468338151"><ele>1208.1999999999998</ele><time>2026-05-02T15:35:10.999Z</time></trkpt><trkpt lat="44.59686207036255" lon="7.353461442028307"><ele>1204.6</ele><time>2026-05-02T15:35:11.999Z</time></trkpt><trkpt lat="44.59684424850981" lon="7.353587909607673"><ele>1201.0</ele><time>2026-05-02T15:35:12.999Z</time></trkpt><trkpt lat="44.59685167893127" lon="7.353759597621495"><ele>1198.8</ele><time>2026-05-02T15:35:13.999Z</time></trkpt><trkpt lat="44.59682977591641" lon="7.353918764405467"><ele>1196.6</ele><time>2026-05-02T15:35:14.999Z</time></trkpt><trkpt lat="44.5968179923794" lon="7.354067902596629"><ele>1194.4</ele><time>2026-05-02T15:35:15.999Z</time></trkpt><trkpt lat="44.59679301638954" lon="7.354193257380594"><ele>1192.2</ele><time>2026-05-02T15:35:16.999Z</time></trkpt><trkpt lat="44.59677039916933" lon="7.354331304000339"><ele>1190.0</ele><time>2026-05-02T15:35:17.999Z</time></trkpt><trkpt lat="44.59670387262717" lon="7.354437786090347"><ele>1190.0</ele><time>2026-05-02T15:35:18.999Z</time></trkpt><trkpt lat="44.596667009387545" lon="7.354531827197975"><ele>1190.0</ele><time>2026-05-02T15:35:19.999Z</time></trkpt><trkpt lat="44.59667010340127" lon="7.354681504246426"><ele>1190.0</ele><time>2026-05-02T15:35:20.999Z</time></trkpt><trkpt lat="44.596682245736034" lon="7.354813890349606"><ele>1190.0</ele><time>2026-05-02T15:35:21.999Z</time></trkpt><trkpt lat="44.596686921713236" lon="7.354937480441125"><ele>1190.0</ele><time>2026-05-02T15:35:22.999Z</time></trkpt><trkpt lat="44.596713404792325" lon="7.3550556080233465"><ele>1188.0</ele><time>2026-05-02T15:35:23.999Z</time></trkpt><trkpt lat="44.59673750585618" lon="7.355197108658462"><ele>1186.0</ele><time>2026-05-02T15:35:24.999Z</time></trkpt><trkpt lat="44.596776665714046" lon="7.355318915325294"><ele>1184.0</ele><time>2026-05-02T15:35:25.999Z</time></trkpt><trkpt lat="44.596809480135654" lon="7.355427067021213"><ele>1182.0</ele><time>2026-05-02T15:35:26.999Z</time></trkpt><trkpt lat="44.59685184666813" lon="7.355532723020043"><ele>1180.0</ele><time>2026-05-02T15:35:27.999Z</time></trkpt><trkpt lat="44.59688581399301" lon="7.355636090984026"><ele>1177.6666666666665</ele><time>2026-05-02T15:35:28.999Z</time></trkpt><trkpt lat="44.596895479045976" lon="7.355742329831131"><ele>1175.3333333333333</ele><time>2026-05-02T15:35:29.999Z</time></trkpt><trkpt lat="44.59687378359932" lon="7.355851504908629"><ele>1173.0</ele><time>2026-05-02T15:35:30.999Z</time></trkpt><trkpt lat="44.59684655911291" lon="7.355953135064358"><ele>1170.6666666666667</ele><time>2026-05-02T15:35:31.999Z</time></trkpt><trkpt lat="44.596813423750035" lon="7.3560290387769935"><ele>1168.3333333333335</ele><time>2026-05-02T15:35:32.999Z</time></trkpt><trkpt lat="44.596762653501926" lon="7.356131559671914"><ele>1166.0</ele><time>2026-05-02T15:35:33.999Z</time></trkpt><trkpt lat="44.59670703535562" lon="7.356200386413868"><ele>1166.0</ele><time>2026-05-02T15:35:34.999Z</time></trkpt><trkpt lat="44.59660856377357" lon="7.356303486576342"><ele>1166.0</ele><time>2026-05-02T15:35:36.999Z</time></trkpt><trkpt lat="44.59651037650048" lon="7.356425445690129"><ele>1166.0</ele><time>2026-05-02T15:35:38.999Z</time></trkpt><trkpt lat="44.596451721547595" lon="7.356515774876718"><ele>1166.0</ele><time>2026-05-02T15:35:39.999Z</time></trkpt><trkpt lat="44.59641180459255" lon="7.356622189687517"><ele>1166.0</ele><time>2026-05-02T15:35:40.999Z</time></trkpt><trkpt lat="44.59636937598224" lon="7.356715655725647"><ele>1164.8333333333335</ele><time>2026-05-02T15:35:41.999Z</time></trkpt><trkpt lat="44.59632618357962" lon="7.356797973728644"><ele>1163.6666666666667</ele><time>2026-05-02T15:35:42.999Z</time></trkpt><trkpt lat="44.596262156584665" lon="7.356879085245734"><ele>1162.5</ele><time>2026-05-02T15:35:43.999Z</time></trkpt><trkpt lat="44.59620035809335" lon="7.356961142293139"><ele>1161.3333333333333</ele><time>2026-05-02T15:35:44.999Z</time></trkpt><trkpt lat="44.596149716075054" lon="7.3570534739479925"><ele>1160.1666666666665</ele><time>2026-05-02T15:35:45.999Z</time></trkpt><trkpt lat="44.596114577853065" lon="7.357153452936456"><ele>1159.0</ele><time>2026-05-02T15:35:46.999Z</time></trkpt><trkpt lat="44.59608600827371" lon="7.357263518943714"><ele>1156.8333333333333</ele><time>2026-05-02T15:35:47.999Z</time></trkpt><trkpt lat="44.59606514006703" lon="7.357365566012417"><ele>1154.6666666666665</ele><time>2026-05-02T15:35:48.999Z</time></trkpt><trkpt lat="44.596042179427315" lon="7.35746669085057"><ele>1152.5</ele><time>2026-05-02T15:35:49.999Z</time></trkpt><trkpt lat="44.59601098692274" lon="7.35754957647841"><ele>1150.3333333333333</ele><time>2026-05-02T15:35:50.999Z</time></trkpt><trkpt lat="44.59594376468725" lon="7.357612787549823"><ele>1148.1666666666667</ele><time>2026-05-02T15:35:51.999Z</time></trkpt><trkpt lat="44.595866414860836" lon="7.357665326274493"><ele>1146.0</ele><time>2026-05-02T15:35:52.999Z</time></trkpt><trkpt lat="44.59582386920734" lon="7.357739616525007"><ele>1146.0</ele><time>2026-05-02T15:35:53.999Z</time></trkpt><trkpt lat="44.5957917271724" lon="7.357858502019847"><ele>1146.0</ele><time>2026-05-02T15:35:54.999Z</time></trkpt><trkpt lat="44.595764546625574" lon="7.357959558037502"><ele>1146.0</ele><time>2026-05-02T15:35:55.999Z</time></trkpt><trkpt lat="44.59573058668351" lon="7.358050628829058"><ele>1146.0</ele><time>2026-05-02T15:35:56.999Z</time></trkpt><trkpt lat="44.59569932039036" lon="7.358144367647473"><ele>1146.0</ele><time>2026-05-02T15:35:57.999Z</time></trkpt><trkpt lat="44.59568942743596" lon="7.358240394208787"><ele>1146.0</ele><time>2026-05-02T15:35:58.999Z</time></trkpt><trkpt lat="44.59570080406404" lon="7.358337279873571"><ele>1146.0</ele><time>2026-05-02T15:35:59.999Z</time></trkpt><trkpt lat="44.59573885259104" lon="7.358436779176184"><ele>1146.0</ele><time>2026-05-02T15:36:00.999Z</time></trkpt><trkpt lat="44.59576266109543" lon="7.358543575507698"><ele>1146.0</ele><time>2026-05-02T15:36:01.999Z</time></trkpt><trkpt lat="44.59577812219249" lon="7.358657230604456"><ele>1146.0</ele><time>2026-05-02T15:36:02.999Z</time></trkpt><trkpt lat="44.595789566486204" lon="7.358771973087307"><ele>1146.0</ele><time>2026-05-02T15:36:03.999Z</time></trkpt><trkpt lat="44.59579378748219" lon="7.358862749873422"><ele>1146.0</ele><time>2026-05-02T15:36:05Z</time></trkpt><trkpt lat="44.5957755486154" lon="7.358948434327547"><ele>1144.5</ele><time>2026-05-02T15:36:06Z</time></trkpt><trkpt lat="44.595724945618166" lon="7.359037422471367"><ele>1143.0</ele><time>2026-05-02T15:36:07Z</time></trkpt><trkpt lat="44.595690850360086" lon="7.359113054430322"><ele>1141.5</ele><time>2026-05-02T15:36:08Z</time></trkpt><trkpt lat="44.5956655327536" lon="7.359212213433008"><ele>1140.0</ele><time>2026-05-02T15:36:09Z</time></trkpt><trkpt lat="44.595616190388355" lon="7.359377147400763"><ele>1138.5</ele><time>2026-05-02T15:36:11Z</time></trkpt><trkpt lat="44.59559321174463" lon="7.359470606218931"><ele>1137.0</ele><time>2026-05-02T15:36:12Z</time></trkpt><trkpt lat="44.59557007656566" lon="7.359575919097786"><ele>1137.0</ele><time>2026-05-02T15:36:13Z</time></trkpt><trkpt lat="44.59553329195865" lon="7.35969467305813"><ele>1137.0</ele><time>2026-05-02T15:36:14Z</time></trkpt><trkpt lat="44.59547296135653" lon="7.359817411986583"><ele>1137.0</ele><time>2026-05-02T15:36:15Z</time></trkpt><trkpt lat="44.59541782389966" lon="7.359932112876131"><ele>1137.0</ele><time>2026-05-02T15:36:16Z</time></trkpt><trkpt lat="44.59537668059536" lon="7.360023068969611"><ele>1137.0</ele><time>2026-05-02T15:36:17Z</time></trkpt><trkpt lat="44.5953357622681" lon="7.360121564603311"><ele>1132.5</ele><time>2026-05-02T15:36:18Z</time></trkpt><trkpt lat="44.59528658361444" lon="7.360213561140494"><ele>1128.0</ele><time>2026-05-02T15:36:19Z</time></trkpt><trkpt lat="44.59523937260905" lon="7.360320603295202"><ele>1123.5</ele><time>2026-05-02T15:36:20Z</time></trkpt><trkpt lat="44.595197084845466" lon="7.360420553199951"><ele>1119.0</ele><time>2026-05-02T15:36:21Z</time></trkpt><trkpt lat="44.59515051293837" lon="7.360508796487133"><ele>1114.5</ele><time>2026-05-02T15:36:22Z</time></trkpt><trkpt lat="44.59510225070328" lon="7.360579769460053"><ele>1110.0</ele><time>2026-05-02T15:36:23Z</time></trkpt><trkpt lat="44.595052721332735" lon="7.360647290630625"><ele>1110.0000000000002</ele><time>2026-05-02T15:36:24Z</time></trkpt><trkpt lat="44.59500202943758" lon="7.360707959364996"><ele>1110.0</ele><time>2026-05-02T15:36:25Z</time></trkpt><trkpt lat="44.59493658897237" lon="7.360728631130579"><ele>1110.0</ele><time>2026-05-02T15:36:26Z</time></trkpt><trkpt lat="44.594854062007876" lon="7.360671715854168"><ele>1110.0</ele><time>2026-05-02T15:36:27.999Z</time></trkpt><trkpt lat="44.594836609849544" lon="7.360579907598723"><ele>1110.0</ele><time>2026-05-02T15:36:28.999Z</time></trkpt><trkpt lat="44.59484679237542" lon="7.360472723114165"><ele>1110.0000000000002</ele><time>2026-05-02T15:36:29.999Z</time></trkpt><trkpt lat="44.59487059550708" lon="7.360384282724714"><ele>1110.0</ele><time>2026-05-02T15:36:30.999Z</time></trkpt><trkpt lat="44.59490333712533" lon="7.36024013112365"><ele>1110.0</ele><time>2026-05-02T15:36:31.999Z</time></trkpt><trkpt lat="44.59494005557441" lon="7.360159314879573"><ele>1110.0</ele><time>2026-05-02T15:36:32.999Z</time></trkpt><trkpt lat="44.59499226967929" lon="7.360035533967307"><ele>1110.0</ele><time>2026-05-02T15:36:34.999Z</time></trkpt><trkpt lat="44.595012677086416" lon="7.359922318265493"><ele>1110.0</ele><time>2026-05-02T15:36:36.999Z</time></trkpt><trkpt lat="44.594941840128044" lon="7.359931120087055"><ele>1110.0</ele><time>2026-05-02T15:36:38.999Z</time></trkpt><trkpt lat="44.594865162502" lon="7.3600021811664895"><ele>1110.0</ele><time>2026-05-02T15:36:40.999Z</time></trkpt><trkpt lat="44.59476205530774" lon="7.360101383751285"><ele>1110.0</ele><time>2026-05-02T15:36:42.999Z</time></trkpt><trkpt lat="44.59467682147761" lon="7.360177264918321"><ele>1110.0</ele><time>2026-05-02T15:36:43.999Z</time></trkpt><trkpt lat="44.59460071496232" lon="7.360217372873977"><ele>1110.0</ele><time>2026-05-02T15:36:44.999Z</time></trkpt><trkpt lat="44.59453445443849" lon="7.360266452070816"><ele>1110.0</ele><time>2026-05-02T15:36:45.999Z</time></trkpt><trkpt lat="44.594485056286004" lon="7.360341347001832"><ele>1110.0</ele><time>2026-05-02T15:36:46.999Z</time></trkpt><trkpt lat="44.59445465553758" lon="7.360427530294494"><ele>1110.0</ele><time>2026-05-02T15:36:47.999Z</time></trkpt><trkpt lat="44.59441716770575" lon="7.360506863628591"><ele>1104.3333333333333</ele><time>2026-05-02T15:36:48.999Z</time></trkpt><trkpt lat="44.59438726049927" lon="7.36062180778131"><ele>1098.6666666666667</ele><time>2026-05-02T15:36:49.999Z</time></trkpt><trkpt lat="44.594358588340235" lon="7.360724669844475"><ele>1093.0</ele><time>2026-05-02T15:36:50.999Z</time></trkpt><trkpt lat="44.59432415736332" lon="7.360829760054464"><ele>1087.3333333333335</ele><time>2026-05-02T15:36:51.999Z</time></trkpt><trkpt lat="44.59428390427396" lon="7.360948608663634"><ele>1081.6666666666667</ele><time>2026-05-02T15:36:52.999Z</time></trkpt><trkpt lat="44.59426996739304" lon="7.361070019601298"><ele>1076.0</ele><time>2026-05-02T15:36:53.999Z</time></trkpt><trkpt lat="44.59426826775965" lon="7.361189457420269"><ele>1076.0</ele><time>2026-05-02T15:36:54.999Z</time></trkpt><trkpt lat="44.59425713168644" lon="7.3612958932617465"><ele>1076.0</ele><time>2026-05-02T15:36:55.999Z</time></trkpt><trkpt lat="44.59424583334256" lon="7.3614115330507826"><ele>1076.0</ele><time>2026-05-02T15:36:56.999Z</time></trkpt><trkpt lat="44.59426881034304" lon="7.361515824494904"><ele>1076.0</ele><time>2026-05-02T15:36:57.999Z</time></trkpt><trkpt lat="44.594302007241794" lon="7.361614031762004"><ele>1076.0</ele><time>2026-05-02T15:36:58.999Z</time></trkpt><trkpt lat="44.59436617203165" lon="7.361692673214433"><ele>1076.0</ele><time>2026-05-02T15:36:59.999Z</time></trkpt><trkpt lat="44.59441960199028" lon="7.361768211666658"><ele>1076.0</ele><time>2026-05-02T15:37:00.999Z</time></trkpt><trkpt lat="44.59449412513646" lon="7.361810311699095"><ele>1076.0</ele><time>2026-05-02T15:37:01.999Z</time></trkpt><trkpt lat="44.59454550884339" lon="7.361895948045493"><ele>1076.0</ele><time>2026-05-02T15:37:02.999Z</time></trkpt><trkpt lat="44.59457349886896" lon="7.36197982583379"><ele>1076.0</ele><time>2026-05-02T15:37:03.999Z</time></trkpt><trkpt lat="44.594547663347676" lon="7.362130545670646"><ele>1076.0</ele><time>2026-05-02T15:37:05.999Z</time></trkpt><trkpt lat="44.59465309669026" lon="7.362139313522864"><ele>1076.0</ele><time>2026-05-02T15:37:17Z</time></trkpt><trkpt lat="44.59470494199967" lon="7.362035580432531"><ele>1074.8</ele><time>2026-05-02T15:37:18Z</time></trkpt><trkpt lat="44.59475310207904" lon="7.36190716831532"><ele>1073.6</ele><time>2026-05-02T15:37:19Z</time></trkpt><trkpt lat="44.59479220979997" lon="7.361828113155974"><ele>1072.4</ele><time>2026-05-02T15:37:20Z</time></trkpt><trkpt lat="44.594892463564896" lon="7.361724697700209"><ele>1071.2</ele><time>2026-05-02T15:37:22Z</time></trkpt><trkpt lat="44.59496064920416" lon="7.361672418233102"><ele>1070.0</ele><time>2026-05-02T15:37:23Z</time></trkpt><trkpt lat="44.59503800172113" lon="7.3616336410086145"><ele>1070.0</ele><time>2026-05-02T15:37:24Z</time></trkpt><trkpt lat="44.59510800634646" lon="7.36162497920305"><ele>1070.0</ele><time>2026-05-02T15:37:25Z</time></trkpt><trkpt lat="44.595206036534165" lon="7.361587507427152"><ele>1070.0</ele><time>2026-05-02T15:37:26Z</time></trkpt><trkpt lat="44.59527955908175" lon="7.36156760270049"><ele>1070.0</ele><time>2026-05-02T15:37:27Z</time></trkpt><trkpt lat="44.59534445143426" lon="7.361549020034216"><ele>1070.0</ele><time>2026-05-02T15:37:28Z</time></trkpt><trkpt lat="44.595449999887585" lon="7.36150848663972"><ele>1070.0</ele><time>2026-05-02T15:37:30Z</time></trkpt><trkpt lat="44.59554288373465" lon="7.361597867532715"><ele>1064.5</ele><time>2026-05-02T15:37:32Z</time></trkpt><trkpt lat="44.59561714142407" lon="7.361552041308307"><ele>1059.0</ele><time>2026-05-02T15:37:34Z</time></trkpt><trkpt lat="44.59573905101488" lon="7.361498911974037"><ele>1053.5</ele><time>2026-05-02T15:37:36Z</time></trkpt><trkpt lat="44.59583466137019" lon="7.361567321383706"><ele>1048.0</ele><time>2026-05-02T15:37:38Z</time></trkpt><trkpt lat="44.595968870386145" lon="7.3615151579235585"><ele>1048.0</ele><time>2026-05-02T15:37:40Z</time></trkpt><trkpt lat="44.59604150134474" lon="7.361444055898324"><ele>1048.0</ele><time>2026-05-02T15:37:41Z</time></trkpt><trkpt lat="44.59620878267114" lon="7.3614729440386935"><ele>1048.0</ele><time>2026-05-02T15:37:43Z</time></trkpt><trkpt lat="44.596316298530205" lon="7.361516770274731"><ele>1048.0</ele><time>2026-05-02T15:37:44Z</time></trkpt><trkpt lat="44.59640232946932" lon="7.361553213599814"><ele>1045.2</ele><time>2026-05-02T15:37:45Z</time></trkpt><trkpt lat="44.59647340384174" lon="7.361529659860136"><ele>1042.4</ele><time>2026-05-02T15:37:46Z</time></trkpt><trkpt lat="44.59658832254805" lon="7.361473349411733"><ele>1039.6000000000001</ele><time>2026-05-02T15:37:48Z</time></trkpt><trkpt lat="44.59667515472672" lon="7.361424422918012"><ele>1036.8</ele><time>2026-05-02T15:37:49Z</time></trkpt><trkpt lat="44.5967715205168" lon="7.361360023765374"><ele>1034.0</ele><time>2026-05-02T15:37:50Z</time></trkpt><trkpt lat="44.5968379773947" lon="7.361261791793431"><ele>1036.5</ele><time>2026-05-02T15:37:51Z</time></trkpt><trkpt lat="44.59692183292399" lon="7.3611416883670335"><ele>1039.0</ele><time>2026-05-02T15:37:52Z</time></trkpt><trkpt lat="44.59700232356807" lon="7.360996275954098"><ele>1041.5</ele><time>2026-05-02T15:37:53Z</time></trkpt><trkpt lat="44.59708945235751" lon="7.360863742615616"><ele>1044.0</ele><time>2026-05-02T15:37:54Z</time></trkpt><trkpt lat="44.5971729363719" lon="7.360755060861599"><ele>1044.0</ele><time>2026-05-02T15:37:55Z</time></trkpt><trkpt lat="44.597243135114695" lon="7.3606659151792915"><ele>1044.0</ele><time>2026-05-02T15:37:56Z</time></trkpt><trkpt lat="44.597320628995476" lon="7.3605949245941416"><ele>1044.0</ele><time>2026-05-02T15:37:57Z</time></trkpt><trkpt lat="44.59739841853105" lon="7.360549432827904"><ele>1044.0</ele><time>2026-05-02T15:37:58Z</time></trkpt><trkpt lat="44.59747447287216" lon="7.360526641379425"><ele>1044.0</ele><time>2026-05-02T15:37:59Z</time></trkpt><trkpt lat="44.59756693949867" lon="7.360536181838497"><ele>1044.0</ele><time>2026-05-02T15:38:00Z</time></trkpt><trkpt lat="44.597642892040895" lon="7.360517878745711"><ele>1044.0</ele><time>2026-05-02T15:38:01Z</time></trkpt><trkpt lat="44.5977533986506" lon="7.360610363430153"><ele>1044.0</ele><time>2026-05-02T15:38:03Z</time></trkpt><trkpt lat="44.59789948381228" lon="7.360588415573687"><ele>1044.0</ele><time>2026-05-02T15:38:05Z</time></trkpt><trkpt lat="44.5979806812511" lon="7.360568949501622"><ele>1044.0</ele><time>2026-05-02T15:38:06Z</time></trkpt><trkpt lat="44.598058710674565" lon="7.3605512124597015"><ele>1044.0</ele><time>2026-05-02T15:38:08Z</time></trkpt><trkpt lat="44.59813201707874" lon="7.360599295076316"><ele>1044.8333333333333</ele><time>2026-05-02T15:38:09Z</time></trkpt><trkpt lat="44.598191493788434" lon="7.360631423060856"><ele>1045.6666666666667</ele><time>2026-05-02T15:38:10Z</time></trkpt><trkpt lat="44.59825285038101" lon="7.36070170558416"><ele>1046.5</ele><time>2026-05-02T15:38:11.001Z</time></trkpt><trkpt lat="44.59831091839357" lon="7.360776811914437"><ele>1047.3333333333335</ele><time>2026-05-02T15:38:12.001Z</time></trkpt><trkpt lat="44.598388737797464" lon="7.360874273991792"><ele>1048.1666666666667</ele><time>2026-05-02T15:38:13.001Z</time></trkpt><trkpt lat="44.59846608335725" lon="7.360945820556755"><ele>1049.0</ele><time>2026-05-02T15:38:14.001Z</time></trkpt><trkpt lat="44.59854344872151" lon="7.360986769721964"><ele>1049.0</ele><time>2026-05-02T15:38:15.001Z</time></trkpt><trkpt lat="44.598636052454665" lon="7.361010537672603"><ele>1049.0</ele><time>2026-05-02T15:38:16.001Z</time></trkpt><trkpt lat="44.598732324597776" lon="7.361045593852635"><ele>1049.0</ele><time>2026-05-02T15:38:17.001Z</time></trkpt><trkpt lat="44.598831631363254" lon="7.361060249955601"><ele>1049.0</ele><time>2026-05-02T15:38:18Z</time></trkpt><trkpt lat="44.59893630712734" lon="7.361064424194284"><ele>1049.0</ele><time>2026-05-02T15:38:19Z</time></trkpt><trkpt lat="44.5990375724341" lon="7.36108519160935"><ele>1046.0</ele><time>2026-05-02T15:38:20Z</time></trkpt><trkpt lat="44.599139783553994" lon="7.361207218834384"><ele>1043.0</ele><time>2026-05-02T15:38:21Z</time></trkpt><trkpt lat="44.59922296051738" lon="7.361312080146737"><ele>1040.0</ele><time>2026-05-02T15:38:22Z</time></trkpt><trkpt lat="44.599332280026694" lon="7.361450865013888"><ele>1037.0</ele><time>2026-05-02T15:38:23Z</time></trkpt><trkpt lat="44.59945329289104" lon="7.361586692293662"><ele>1045.3333333333335</ele><time>2026-05-02T15:38:24Z</time></trkpt><trkpt lat="44.59958198896882" lon="7.361760030351337"><ele>1053.6666666666667</ele><time>2026-05-02T15:38:25Z</time></trkpt><trkpt lat="44.59972769326299" lon="7.361932451830657"><ele>1062.0</ele><time>2026-05-02T15:38:26Z</time></trkpt><trkpt lat="44.599844770716686" lon="7.362088572904772"><ele>1062.0</ele><time>2026-05-02T15:38:27Z</time></trkpt><trkpt lat="44.59992930629632" lon="7.362197151401058"><ele>1062.0</ele><time>2026-05-02T15:38:28Z</time></trkpt><trkpt lat="44.59997686977844" lon="7.362271331570554"><ele>1062.0</ele><time>2026-05-02T15:38:29Z</time></trkpt><trkpt lat="44.600042304559835" lon="7.362269454725768"><ele>1062.0</ele><time>2026-05-02T15:38:30Z</time></trkpt><trkpt lat="44.600120796568206" lon="7.362260350973362"><ele>1062.0</ele><time>2026-05-02T15:38:31Z</time></trkpt><trkpt lat="44.600218725629475" lon="7.362274921824592"><ele>1062.0</ele><time>2026-05-02T15:38:32Z</time></trkpt><trkpt lat="44.60030144106598" lon="7.362340274555523"><ele>1058.5</ele><time>2026-05-02T15:38:33Z</time></trkpt><trkpt lat="44.600390561077084" lon="7.362400817715492"><ele>1055.0</ele><time>2026-05-02T15:38:34Z</time></trkpt><trkpt lat="44.60045317621743" lon="7.362421563484169"><ele>1051.5</ele><time>2026-05-02T15:38:35Z</time></trkpt><trkpt lat="44.600526328106" lon="7.362430061431792"><ele>1048.0</ele><time>2026-05-02T15:38:36Z</time></trkpt><trkpt lat="44.60059082727357" lon="7.362502724252629"><ele>1044.5</ele><time>2026-05-02T15:38:37Z</time></trkpt><trkpt lat="44.6006605702068" lon="7.36260444581722"><ele>1041.0</ele><time>2026-05-02T15:38:39Z</time></trkpt><trkpt lat="44.60074677152956" lon="7.36253277337533"><ele>1041.0</ele><time>2026-05-02T15:38:41Z</time></trkpt><trkpt lat="44.60079438152969" lon="7.3623920339641105"><ele>1041.0</ele><time>2026-05-02T15:38:42Z</time></trkpt><trkpt lat="44.60085512800745" lon="7.36227226514797"><ele>1041.0</ele><time>2026-05-02T15:38:43Z</time></trkpt><trkpt lat="44.600905664903365" lon="7.36217618592015"><ele>1041.0</ele><time>2026-05-02T15:38:44Z</time></trkpt><trkpt lat="44.600960244254246" lon="7.36211274505162"><ele>1041.0</ele><time>2026-05-02T15:38:45Z</time></trkpt><trkpt lat="44.60101780892245" lon="7.362058836470012"><ele>1041.0</ele><time>2026-05-02T15:38:46Z</time></trkpt><trkpt lat="44.601103035982064" lon="7.362013473001666"><ele>1042.8333333333333</ele><time>2026-05-02T15:38:47Z</time></trkpt><trkpt lat="44.60115470463037" lon="7.361952981634343"><ele>1044.6666666666667</ele><time>2026-05-02T15:38:48Z</time></trkpt><trkpt lat="44.60120792901462" lon="7.361869585911221"><ele>1046.5</ele><time>2026-05-02T15:38:50Z</time></trkpt><trkpt lat="44.60127013730634" lon="7.361798490605501"><ele>1048.3333333333335</ele><time>2026-05-02T15:38:52Z</time></trkpt><trkpt lat="44.60132623884264" lon="7.361684537860149"><ele>1050.1666666666667</ele><time>2026-05-02T15:38:54Z</time></trkpt><trkpt lat="44.60134448502678" lon="7.361570510372932"><ele>1052.0</ele><time>2026-05-02T15:38:56Z</time></trkpt><trkpt lat="44.60141522698282" lon="7.361461043964802"><ele>1044.6</ele><time>2026-05-02T15:38:58Z</time></trkpt><trkpt lat="44.6014514932241" lon="7.36138459580919"><ele>1037.2</ele><time>2026-05-02T15:38:59Z</time></trkpt><trkpt lat="44.60146552936999" lon="7.361238398182168"><ele>1029.8</ele><time>2026-05-02T15:39:01Z</time></trkpt><trkpt lat="44.60148500640599" lon="7.361103175050883"><ele>1022.4</ele><time>2026-05-02T15:39:03Z</time></trkpt><trkpt lat="44.601524913304914" lon="7.360968703830128"><ele>1015.0</ele><time>2026-05-02T15:39:05Z</time></trkpt><trkpt lat="44.60157794498381" lon="7.360822898317443"><ele>1014.4</ele><time>2026-05-02T15:39:07Z</time></trkpt><trkpt lat="44.601637530825954" lon="7.360701858900198"><ele>1013.8</ele><time>2026-05-02T15:39:09Z</time></trkpt><trkpt lat="44.6016735041417" lon="7.360579392619102"><ele>1013.2</ele><time>2026-05-02T15:39:11Z</time></trkpt><trkpt lat="44.601681396471" lon="7.360388378146382"><ele>1012.6</ele><time>2026-05-02T15:39:13Z</time></trkpt><trkpt lat="44.60167167646301" lon="7.360292896266077"><ele>1012.0</ele><time>2026-05-02T15:39:14Z</time></trkpt><trkpt lat="44.60167826821937" lon="7.360139514304819"><ele>1012.0</ele><time>2026-05-02T15:39:16Z</time></trkpt><trkpt lat="44.601701975037656" lon="7.360021452984825"><ele>1012.0</ele><time>2026-05-02T15:39:17Z</time></trkpt><trkpt lat="44.60172207857639" lon="7.359904591965994"><ele>1012.0</ele><time>2026-05-02T15:39:18Z</time></trkpt><trkpt lat="44.60175342700305" lon="7.359765091775266"><ele>1012.0</ele><time>2026-05-02T15:39:20Z</time></trkpt><trkpt lat="44.60173732595073" lon="7.359605484860872"><ele>1012.0</ele><time>2026-05-02T15:39:22Z</time></trkpt><trkpt lat="44.601750635216504" lon="7.359504850741011"><ele>1010.8333333333333</ele><time>2026-05-02T15:39:24Z</time></trkpt><trkpt lat="44.60179002008297" lon="7.359419794368409"><ele>1009.6666666666666</ele><time>2026-05-02T15:39:27Z</time></trkpt><trkpt lat="44.6017314148881" lon="7.35933621932169"><ele>1008.5</ele><time>2026-05-02T15:39:41Z</time></trkpt><trkpt lat="44.60170549788999" lon="7.359444531155982"><ele>1007.3333333333333</ele><time>2026-05-02T15:39:43Z</time></trkpt><trkpt lat="44.601767181367045" lon="7.359531786585275"><ele>1006.1666666666666</ele><time>2026-05-02T15:39:45Z</time></trkpt><trkpt lat="44.60180492534887" lon="7.359606467879066"><ele>1005.0</ele><time>2026-05-02T15:39:46Z</time></trkpt><trkpt lat="44.60184063116537" lon="7.3596829344801025"><ele>1004.1666666666666</ele><time>2026-05-02T15:39:47Z</time></trkpt><trkpt lat="44.60188305012384" lon="7.359774691514285"><ele>1003.3333333333333</ele><time>2026-05-02T15:39:48Z</time></trkpt><trkpt lat="44.60192889018545" lon="7.3598558459763375"><ele>1002.5</ele><time>2026-05-02T15:39:49Z</time></trkpt><trkpt lat="44.60197321456016" lon="7.35994444040751"><ele>1001.6666666666666</ele><time>2026-05-02T15:39:50Z</time></trkpt><trkpt lat="44.60201125068745" lon="7.360041165685055"><ele>1000.8333333333333</ele><time>2026-05-02T15:39:51Z</time></trkpt><trkpt lat="44.60204765514169" lon="7.360146965053072"><ele>1000.0</ele><time>2026-05-02T15:39:52Z</time></trkpt><trkpt lat="44.60209661179734" lon="7.360219628460602"><ele>999.9999999999999</ele><time>2026-05-02T15:39:53Z</time></trkpt><trkpt lat="44.60213833298912" lon="7.360294253140527"><ele>1000.0</ele><time>2026-05-02T15:39:54Z</time></trkpt><trkpt lat="44.602179867549715" lon="7.360383742148905"><ele>1000.0</ele><time>2026-05-02T15:39:55Z</time></trkpt><trkpt lat="44.602222606706285" lon="7.3604611058206055"><ele>1000.0</ele><time>2026-05-02T15:39:56Z</time></trkpt><trkpt lat="44.60226955609041" lon="7.360552799007662"><ele>999.9999999999999</ele><time>2026-05-02T15:39:57Z</time></trkpt><trkpt lat="44.60231319615284" lon="7.360654343100883"><ele>1000.0</ele><time>2026-05-02T15:39:58Z</time></trkpt><trkpt lat="44.602370415613784" lon="7.3607635516381125"><ele>999.6</ele><time>2026-05-02T15:39:59Z</time></trkpt><trkpt lat="44.60241083247535" lon="7.360895514499314"><ele>999.2</ele><time>2026-05-02T15:40:00Z</time></trkpt><trkpt lat="44.60245433382549" lon="7.361039504960332"><ele>998.8</ele><time>2026-05-02T15:40:01Z</time></trkpt><trkpt lat="44.602496439655376" lon="7.361183891755313"><ele>998.4</ele><time>2026-05-02T15:40:02Z</time></trkpt><trkpt lat="44.602546787213264" lon="7.36129542324787"><ele>998.0</ele><time>2026-05-02T15:40:03Z</time></trkpt><trkpt lat="44.60259915685133" lon="7.361421768947549"><ele>996.5000000000001</ele><time>2026-05-02T15:40:04Z</time></trkpt><trkpt lat="44.60265042415627" lon="7.361539099783082"><ele>995.0</ele><time>2026-05-02T15:40:05Z</time></trkpt><trkpt lat="44.60268765024539" lon="7.361660378995935"><ele>993.5</ele><time>2026-05-02T15:40:06Z</time></trkpt><trkpt lat="44.60270239454111" lon="7.361787717197773"><ele>992.0</ele><time>2026-05-02T15:40:07Z</time></trkpt><trkpt lat="44.602709162633964" lon="7.361907123871577"><ele>990.5000000000001</ele><time>2026-05-02T15:40:08Z</time></trkpt><trkpt lat="44.60269922213997" lon="7.361994935464541"><ele>989.0</ele><time>2026-05-02T15:40:09Z</time></trkpt><trkpt lat="44.60268560343193" lon="7.362111514896322"><ele>989.6</ele><time>2026-05-02T15:40:10Z</time></trkpt><trkpt lat="44.602700470049655" lon="7.3622687789535135"><ele>990.2</ele><time>2026-05-02T15:40:12Z</time></trkpt><trkpt lat="44.60274246796191" lon="7.362361208536039"><ele>990.8000000000001</ele><time>2026-05-02T15:40:13Z</time></trkpt><trkpt lat="44.60279092196653" lon="7.362459979882762"><ele>991.4000000000001</ele><time>2026-05-02T15:40:14Z</time></trkpt><trkpt lat="44.6028358827303" lon="7.362562244583811"><ele>992.0</ele><time>2026-05-02T15:40:15Z</time></trkpt><trkpt lat="44.602878267055225" lon="7.362692054261752"><ele>992.0</ele><time>2026-05-02T15:40:16Z</time></trkpt><trkpt lat="44.60293412105911" lon="7.362792605785631"><ele>992.0</ele><time>2026-05-02T15:40:17Z</time></trkpt><trkpt lat="44.602992157831146" lon="7.3629110239487705"><ele>992.0</ele><time>2026-05-02T15:40:18Z</time></trkpt><trkpt lat="44.60304501900643" lon="7.363022421708751"><ele>992.0</ele><time>2026-05-02T15:40:19Z</time></trkpt><trkpt lat="44.6031115230434" lon="7.363138679660559"><ele>992.0</ele><time>2026-05-02T15:40:20Z</time></trkpt><trkpt lat="44.60317189011455" lon="7.363253231574127"><ele>986.8</ele><time>2026-05-02T15:40:21Z</time></trkpt><trkpt lat="44.60324357240386" lon="7.363349638045429"><ele>981.6</ele><time>2026-05-02T15:40:22Z</time></trkpt><trkpt lat="44.60332378629711" lon="7.363391457449909"><ele>976.3999999999999</ele><time>2026-05-02T15:40:23Z</time></trkpt><trkpt lat="44.60340800488613" lon="7.363430893596447"><ele>971.1999999999999</ele><time>2026-05-02T15:40:24Z</time></trkpt><trkpt lat="44.60351116528545" lon="7.363465527910785"><ele>966.0</ele><time>2026-05-02T15:40:25Z</time></trkpt><trkpt lat="44.60359700762325" lon="7.363488315795144"><ele>964.0</ele><time>2026-05-02T15:40:26Z</time></trkpt><trkpt lat="44.60367185487354" lon="7.363537382712678"><ele>961.9999999999999</ele><time>2026-05-02T15:40:27Z</time></trkpt><trkpt lat="44.60375489356828" lon="7.363615403834065"><ele>959.9999999999999</ele><time>2026-05-02T15:40:28Z</time></trkpt><trkpt lat="44.60383772665243" lon="7.363702435242346"><ele>958.0</ele><time>2026-05-02T15:40:29Z</time></trkpt><trkpt lat="44.60391225945276" lon="7.3638172753014"><ele>956.0</ele><time>2026-05-02T15:40:30Z</time></trkpt><trkpt lat="44.60399454054548" lon="7.363926934650843"><ele>956.0</ele><time>2026-05-02T15:40:31Z</time></trkpt><trkpt lat="44.60407333301241" lon="7.364019631924502"><ele>956.0</ele><time>2026-05-02T15:40:32Z</time></trkpt><trkpt lat="44.604145368290894" lon="7.364175921011442"><ele>956.0</ele><time>2026-05-02T15:40:33Z</time></trkpt><trkpt lat="44.60421658093527" lon="7.364302177502874"><ele>956.0</ele><time>2026-05-02T15:40:34Z</time></trkpt><trkpt lat="44.60428703858696" lon="7.364431980739544"><ele>956.0</ele><time>2026-05-02T15:40:35Z</time></trkpt><trkpt lat="44.60436381600076" lon="7.364567545340428"><ele>956.0</ele><time>2026-05-02T15:40:36Z</time></trkpt><trkpt lat="44.604439085211204" lon="7.364680490063635"><ele>956.0</ele><time>2026-05-02T15:40:37Z</time></trkpt><trkpt lat="44.604500644190274" lon="7.364809766080813"><ele>956.0</ele><time>2026-05-02T15:40:38Z</time></trkpt><trkpt lat="44.60453369237094" lon="7.3649714590728035"><ele>956.25</ele><time>2026-05-02T15:40:39Z</time></trkpt><trkpt lat="44.604556398975895" lon="7.365119623793274"><ele>956.5</ele><time>2026-05-02T15:40:40Z</time></trkpt><trkpt lat="44.60458901641979" lon="7.3653216960318595"><ele>956.75</ele><time>2026-05-02T15:40:41Z</time></trkpt><trkpt lat="44.604615318361375" lon="7.365489610109105"><ele>957.0</ele><time>2026-05-02T15:40:42Z</time></trkpt><trkpt lat="44.60463129819636" lon="7.365675371738682"><ele>957.0</ele><time>2026-05-02T15:40:43Z</time></trkpt><trkpt lat="44.60465574599255" lon="7.365834449560394"><ele>957.0</ele><time>2026-05-02T15:40:44Z</time></trkpt><trkpt lat="44.60466235441473" lon="7.365996059429185"><ele>957.0</ele><time>2026-05-02T15:40:45Z</time></trkpt><trkpt lat="44.60465245069142" lon="7.3661844843116056"><ele>957.0</ele><time>2026-05-02T15:40:46Z</time></trkpt><trkpt lat="44.604658560910835" lon="7.366322113351192"><ele>956.4000000000001</ele><time>2026-05-02T15:40:47Z</time></trkpt><trkpt lat="44.60466664064466" lon="7.366443073063756"><ele>955.8000000000001</ele><time>2026-05-02T15:40:48Z</time></trkpt><trkpt lat="44.604690858700444" lon="7.366579364070537"><ele>955.2</ele><time>2026-05-02T15:40:49Z</time></trkpt><trkpt lat="44.60473253870862" lon="7.366715707870955"><ele>954.6</ele><time>2026-05-02T15:40:50Z</time></trkpt><trkpt lat="44.60479137306278" lon="7.366867072453198"><ele>954.0</ele><time>2026-05-02T15:40:51Z</time></trkpt><trkpt lat="44.60481966931411" lon="7.366997202139105"><ele>954.0</ele><time>2026-05-02T15:40:52Z</time></trkpt><trkpt lat="44.604864186142734" lon="7.36714451796051"><ele>954.0</ele><time>2026-05-02T15:40:53Z</time></trkpt><trkpt lat="44.60485435876644" lon="7.3672807393580015"><ele>954.0</ele><time>2026-05-02T15:40:54Z</time></trkpt><trkpt lat="44.60483733841369" lon="7.367422821754125"><ele>954.0</ele><time>2026-05-02T15:40:55Z</time></trkpt><trkpt lat="44.604823942693244" lon="7.367627318392616"><ele>952.4000000000001</ele><time>2026-05-02T15:40:56Z</time></trkpt><trkpt lat="44.60483021160603" lon="7.367806565575441"><ele>950.8000000000001</ele><time>2026-05-02T15:40:57Z</time></trkpt><trkpt lat="44.60482976116641" lon="7.3679162145162875"><ele>949.1999999999999</ele><time>2026-05-02T15:40:58Z</time></trkpt><trkpt lat="44.604857702120114" lon="7.368025202436428"><ele>947.5999999999999</ele><time>2026-05-02T15:40:59Z</time></trkpt><trkpt lat="44.60487668234177" lon="7.3681974472452785"><ele>946.0</ele><time>2026-05-02T15:41:00Z</time></trkpt><trkpt lat="44.604901601910576" lon="7.368331755735927"><ele>944.1999999999999</ele><time>2026-05-02T15:41:01Z</time></trkpt><trkpt lat="44.60491099194528" lon="7.3684899571339155"><ele>942.3999999999999</ele><time>2026-05-02T15:41:02Z</time></trkpt><trkpt lat="44.60492358971681" lon="7.368628387757919"><ele>940.6</ele><time>2026-05-02T15:41:03Z</time></trkpt><trkpt lat="44.60493987961104" lon="7.3687379942770495"><ele>938.8</ele><time>2026-05-02T15:41:04Z</time></trkpt><trkpt lat="44.6049592182189" lon="7.368838597968995"><ele>937.0</ele><time>2026-05-02T15:41:05Z</time></trkpt><trkpt lat="44.604977906178085" lon="7.368953724535959"><ele>936.2</ele><time>2026-05-02T15:41:06Z</time></trkpt><trkpt lat="44.605003037472805" lon="7.369093164893543"><ele>935.4000000000001</ele><time>2026-05-02T15:41:07Z</time></trkpt><trkpt lat="44.60506361539165" lon="7.3692233299065135"><ele>934.5999999999999</ele><time>2026-05-02T15:41:08Z</time></trkpt><trkpt lat="44.605126571684515" lon="7.369335463829814"><ele>933.8</ele><time>2026-05-02T15:41:09Z</time></trkpt><trkpt lat="44.605155262522224" lon="7.3694596562238255"><ele>933.0</ele><time>2026-05-02T15:41:10Z</time></trkpt><trkpt lat="44.60515909077725" lon="7.369588569256989"><ele>931.5999999999999</ele><time>2026-05-02T15:41:11Z</time></trkpt><trkpt lat="44.605123426801185" lon="7.369720403347067"><ele>930.1999999999999</ele><time>2026-05-02T15:41:12Z</time></trkpt><trkpt lat="44.60504556863193" lon="7.369841181382655"><ele>928.8</ele><time>2026-05-02T15:41:13Z</time></trkpt><trkpt lat="44.604978301351736" lon="7.369984824917711"><ele>927.4</ele><time>2026-05-02T15:41:14Z</time></trkpt><trkpt lat="44.60494815672345" lon="7.370112586789868"><ele>926.0</ele><time>2026-05-02T15:41:15Z</time></trkpt><trkpt lat="44.60495230900784" lon="7.37022740753963"><ele>926.0</ele><time>2026-05-02T15:41:16Z</time></trkpt><trkpt lat="44.60497252366923" lon="7.370324661694581"><ele>925.9999999999999</ele><time>2026-05-02T15:41:17Z</time></trkpt><trkpt lat="44.605039450682796" lon="7.370430684308376"><ele>925.9999999999999</ele><time>2026-05-02T15:41:18Z</time></trkpt><trkpt lat="44.605116133765584" lon="7.370520641505505"><ele>926.0</ele><time>2026-05-02T15:41:19Z</time></trkpt><trkpt lat="44.60519043970653" lon="7.370616076746508"><ele>926.0</ele><time>2026-05-02T15:41:20Z</time></trkpt><trkpt lat="44.605273604503516" lon="7.370661203991821"><ele>929.0000000000001</ele><time>2026-05-02T15:41:21Z</time></trkpt><trkpt lat="44.60533815272769" lon="7.370693112061831"><ele>932.0</ele><time>2026-05-02T15:41:22Z</time></trkpt><trkpt lat="44.605397356380166" lon="7.370757945656316"><ele>935.0</ele><time>2026-05-02T15:41:23Z</time></trkpt><trkpt lat="44.60544635030368" lon="7.370833059670157"><ele>938.0</ele><time>2026-05-02T15:41:24Z</time></trkpt><trkpt lat="44.60547967395659" lon="7.370939526489677"><ele>941.0000000000001</ele><time>2026-05-02T15:41:25Z</time></trkpt><trkpt lat="44.60551922079436" lon="7.371020510562878"><ele>944.0</ele><time>2026-05-02T15:41:26Z</time></trkpt><trkpt lat="44.605517481499305" lon="7.371148147991653"><ele>944.0</ele><time>2026-05-02T15:41:27Z</time></trkpt><trkpt lat="44.60553562032291" lon="7.371279883956405"><ele>944.0</ele><time>2026-05-02T15:41:28Z</time></trkpt><trkpt lat="44.60552624285008" lon="7.371419857490789"><ele>944.0</ele><time>2026-05-02T15:41:29Z</time></trkpt><trkpt lat="44.60554937403988" lon="7.371609862761974"><ele>944.0</ele><time>2026-05-02T15:41:30Z</time></trkpt><trkpt lat="44.60560728923178" lon="7.3717961345287915"><ele>942.5</ele><time>2026-05-02T15:41:31Z</time></trkpt><trkpt lat="44.60567305739445" lon="7.372020676191217"><ele>941.0</ele><time>2026-05-02T15:41:32Z</time></trkpt><trkpt lat="44.60573008426186" lon="7.372170459965096"><ele>939.5</ele><time>2026-05-02T15:41:33Z</time></trkpt><trkpt lat="44.60579952493259" lon="7.372344347700322"><ele>938.0</ele><time>2026-05-02T15:41:34Z</time></trkpt><trkpt lat="44.605885095466554" lon="7.37253845429325"><ele>936.5</ele><time>2026-05-02T15:41:35Z</time></trkpt><trkpt lat="44.60594509900096" lon="7.372733186784621"><ele>935.0</ele><time>2026-05-02T15:41:36Z</time></trkpt><trkpt lat="44.60598619198271" lon="7.372918097819006"><ele>933.5</ele><time>2026-05-02T15:41:37Z</time></trkpt><trkpt lat="44.606027308099506" lon="7.3730875323753695"><ele>932.0</ele><time>2026-05-02T15:41:38Z</time></trkpt><trkpt lat="44.606069860660206" lon="7.373265576340187"><ele>930.0</ele><time>2026-05-02T15:41:39Z</time></trkpt><trkpt lat="44.60611344489892" lon="7.373440989391461"><ele>928.0</ele><time>2026-05-02T15:41:40Z</time></trkpt><trkpt lat="44.60613479467239" lon="7.373625946264369"><ele>926.0</ele><time>2026-05-02T15:41:41Z</time></trkpt><trkpt lat="44.60612982852773" lon="7.373807340729361"><ele>924.0</ele><time>2026-05-02T15:41:42Z</time></trkpt><trkpt lat="44.60612939899182" lon="7.373969241976029"><ele>923.5</ele><time>2026-05-02T15:41:43Z</time></trkpt><trkpt lat="44.60615836509971" lon="7.37412045244892"><ele>923.0</ele><time>2026-05-02T15:41:44Z</time></trkpt><trkpt lat="44.60620067567302" lon="7.37425862628746"><ele>922.5</ele><time>2026-05-02T15:41:45Z</time></trkpt><trkpt lat="44.60625494646164" lon="7.374397601099043"><ele>922.0</ele><time>2026-05-02T15:41:46Z</time></trkpt><trkpt lat="44.60630914196482" lon="7.374546842440932"><ele>924.25</ele><time>2026-05-02T15:41:47Z</time></trkpt><trkpt lat="44.60634389215443" lon="7.374706397023359"><ele>926.5</ele><time>2026-05-02T15:41:48Z</time></trkpt><trkpt lat="44.60635991867687" lon="7.374903602751842"><ele>928.75</ele><time>2026-05-02T15:41:49Z</time></trkpt><trkpt lat="44.60629902877602" lon="7.375111605194415"><ele>931.0</ele><time>2026-05-02T15:41:50Z</time></trkpt><trkpt lat="44.60630433230121" lon="7.375310712947305"><ele>931.0</ele><time>2026-05-02T15:41:51Z</time></trkpt><trkpt lat="44.606309618047" lon="7.375500273588736"><ele>931.0</ele><time>2026-05-02T15:41:52Z</time></trkpt><trkpt lat="44.60631749826864" lon="7.375680292939366"><ele>931.0</ele><time>2026-05-02T15:41:53Z</time></trkpt><trkpt lat="44.60633176211439" lon="7.375862007165068"><ele>931.0</ele><time>2026-05-02T15:41:54Z</time></trkpt><trkpt lat="44.606342933645614" lon="7.376039922268355"><ele>931.0</ele><time>2026-05-02T15:41:55Z</time></trkpt><trkpt lat="44.60633666528055" lon="7.376191348631201"><ele>930.9999999999999</ele><time>2026-05-02T15:41:56Z</time></trkpt><trkpt lat="44.6063129230454" lon="7.3763161691192005"><ele>930.9999999999999</ele><time>2026-05-02T15:41:57Z</time></trkpt><trkpt lat="44.60628049857007" lon="7.376429384643519"><ele>931.0</ele><time>2026-05-02T15:41:58Z</time></trkpt><trkpt lat="44.60623361426987" lon="7.3765145518539486"><ele>931.0</ele><time>2026-05-02T15:41:59Z</time></trkpt><trkpt lat="44.60609676541718" lon="7.376515746768098"><ele>928.8</ele><time>2026-05-02T15:42:01Z</time></trkpt><trkpt lat="44.606002549230624" lon="7.376517351912746"><ele>926.5999999999999</ele><time>2026-05-02T15:42:02Z</time></trkpt><trkpt lat="44.60587543613185" lon="7.376527696793711"><ele>924.4</ele><time>2026-05-02T15:42:03Z</time></trkpt><trkpt lat="44.605759335938124" lon="7.376535091745877"><ele>922.2</ele><time>2026-05-02T15:42:04Z</time></trkpt><trkpt lat="44.60566329617412" lon="7.376545469720391"><ele>920.0</ele><time>2026-05-02T15:42:05Z</time></trkpt><trkpt lat="44.60557853902944" lon="7.376579905299759"><ele>920.0</ele><time>2026-05-02T15:42:06Z</time></trkpt><trkpt lat="44.60552186821047" lon="7.376645823627433"><ele>920.0</ele><time>2026-05-02T15:42:07Z</time></trkpt><trkpt lat="44.60549405445195" lon="7.376739933265471"><ele>920.0</ele><time>2026-05-02T15:42:08Z</time></trkpt><trkpt lat="44.60551386723232" lon="7.376866235359648"><ele>920.0</ele><time>2026-05-02T15:42:09Z</time></trkpt><trkpt lat="44.605524963415505" lon="7.377059883192736"><ele>920.0</ele><time>2026-05-02T15:42:11Z</time></trkpt><trkpt lat="44.60553461141011" lon="7.377268858039344"><ele>920.0</ele><time>2026-05-02T15:42:13Z</time></trkpt><trkpt lat="44.60559447402492" lon="7.377411016844776"><ele>920.0</ele><time>2026-05-02T15:42:15Z</time></trkpt><trkpt lat="44.605630735019815" lon="7.377579571753241"><ele>920.0</ele><time>2026-05-02T15:42:16Z</time></trkpt><trkpt lat="44.605643043042726" lon="7.3777004292692485"><ele>920.0</ele><time>2026-05-02T15:42:17Z</time></trkpt><trkpt lat="44.60560440942154" lon="7.377839173642149"><ele>920.0</ele><time>2026-05-02T15:42:18Z</time></trkpt><trkpt lat="44.60548994883064" lon="7.377995859728285"><ele>921.2</ele><time>2026-05-02T15:42:19Z</time></trkpt><trkpt lat="44.6053740598898" lon="7.378087427883513"><ele>922.4</ele><time>2026-05-02T15:42:20Z</time></trkpt><trkpt lat="44.605289950169286" lon="7.3781476750052395"><ele>923.5999999999999</ele><time>2026-05-02T15:42:21Z</time></trkpt><trkpt lat="44.60523157357205" lon="7.378193906134442"><ele>924.8</ele><time>2026-05-02T15:42:22Z</time></trkpt><trkpt lat="44.605167457528765" lon="7.378237603593581"><ele>926.0</ele><time>2026-05-02T15:42:23Z</time></trkpt><trkpt lat="44.60505944107439" lon="7.378339270542677"><ele>922.5</ele><time>2026-05-02T15:42:24Z</time></trkpt><trkpt lat="44.60499898891139" lon="7.378471203972974"><ele>919.0</ele><time>2026-05-02T15:42:25Z</time></trkpt><trkpt lat="44.60501240853164" lon="7.378718946675933"><ele>915.5</ele><time>2026-05-02T15:42:26Z</time></trkpt><trkpt lat="44.60502412362118" lon="7.37887240225846"><ele>912.0</ele><time>2026-05-02T15:42:27Z</time></trkpt><trkpt lat="44.605008601847544" lon="7.379009443961563"><ele>912.0</ele><time>2026-05-02T15:42:28Z</time></trkpt><trkpt lat="44.60492518413877" lon="7.379137674859011"><ele>912.0</ele><time>2026-05-02T15:42:30Z</time></trkpt><trkpt lat="44.60482172660753" lon="7.379174736053442"><ele>912.0</ele><time>2026-05-02T15:42:31Z</time></trkpt><trkpt lat="44.60471996785399" lon="7.379230013123124"><ele>912.0</ele><time>2026-05-02T15:42:32Z</time></trkpt><trkpt lat="44.60463632831517" lon="7.379239996985637"><ele>912.0</ele><time>2026-05-02T15:42:33Z</time></trkpt><trkpt lat="44.60449596079497" lon="7.379371779543546"><ele>909.2</ele><time>2026-05-02T15:42:35Z</time></trkpt><trkpt lat="44.60443552499381" lon="7.379459849892305"><ele>906.4000000000001</ele><time>2026-05-02T15:42:36Z</time></trkpt><trkpt lat="44.60441219480652" lon="7.379604556906014"><ele>903.5999999999999</ele><time>2026-05-02T15:42:37Z</time></trkpt><trkpt lat="44.6043967721364" lon="7.379715565410696"><ele>900.8</ele><time>2026-05-02T15:42:38Z</time></trkpt><trkpt lat="44.60439675146645" lon="7.379832984823109"><ele>898.0</ele><time>2026-05-02T15:42:39Z</time></trkpt><trkpt lat="44.604429565150845" lon="7.380024658850176"><ele>898.0</ele><time>2026-05-02T15:42:40Z</time></trkpt><trkpt lat="44.604458882993384" lon="7.380155824862986"><ele>898.0</ele><time>2026-05-02T15:42:41Z</time></trkpt><trkpt lat="44.604438769174635" lon="7.380353343896629"><ele>898.0</ele><time>2026-05-02T15:42:43Z</time></trkpt><trkpt lat="44.60439491643943" lon="7.38046444948255"><ele>898.0</ele><time>2026-05-02T15:42:44Z</time></trkpt><trkpt lat="44.60425906564182" lon="7.380588483390352"><ele>898.4</ele><time>2026-05-02T15:42:45Z</time></trkpt><trkpt lat="44.604211342010736" lon="7.38074358526112"><ele>898.8</ele><time>2026-05-02T15:42:46Z</time></trkpt><trkpt lat="44.604231999153264" lon="7.380921842424297"><ele>899.2</ele><time>2026-05-02T15:42:47Z</time></trkpt><trkpt lat="44.60422463426937" lon="7.381046975759027"><ele>899.6</ele><time>2026-05-02T15:42:48Z</time></trkpt><trkpt lat="44.604219452720585" lon="7.381179965256815"><ele>900.0</ele><time>2026-05-02T15:42:49Z</time></trkpt><trkpt lat="44.60421163298047" lon="7.3813244897980965"><ele>900.3333333333334</ele><time>2026-05-02T15:42:50Z</time></trkpt><trkpt lat="44.604199644393006" lon="7.3814490557199"><ele>900.6666666666667</ele><time>2026-05-02T15:42:51Z</time></trkpt><trkpt lat="44.604169054464485" lon="7.381566677695165"><ele>901.0</ele><time>2026-05-02T15:42:52Z</time></trkpt><trkpt lat="44.60418152424058" lon="7.381653800659851"><ele>901.3333333333334</ele><time>2026-05-02T15:42:53Z</time></trkpt><trkpt lat="44.6041414677457" lon="7.3817508971609405"><ele>901.6666666666667</ele><time>2026-05-02T15:42:54Z</time></trkpt><trkpt lat="44.60409759978811" lon="7.381835184782471"><ele>902.0</ele><time>2026-05-02T15:42:55Z</time></trkpt><trkpt lat="44.6040229711273" lon="7.381930599701692"><ele>902.0000000000001</ele><time>2026-05-02T15:42:56Z</time></trkpt><trkpt lat="44.60392841976704" lon="7.381939188941948"><ele>902.0</ele><time>2026-05-02T15:42:57Z</time></trkpt><trkpt lat="44.60383037323135" lon="7.3819552261452035"><ele>902.0</ele><time>2026-05-02T15:42:58Z</time></trkpt><trkpt lat="44.60377983170841" lon="7.382012342452541"><ele>902.0</ele><time>2026-05-02T15:42:59Z</time></trkpt><trkpt lat="44.60375514784565" lon="7.382103082888342"><ele>902.0000000000001</ele><time>2026-05-02T15:43:00Z</time></trkpt><trkpt lat="44.60370146939541" lon="7.382177442174742"><ele>902.0</ele><time>2026-05-02T15:43:01Z</time></trkpt><trkpt lat="44.60370452513775" lon="7.382310266227234"><ele>902.1666666666667</ele><time>2026-05-02T15:43:03Z</time></trkpt><trkpt lat="44.603709275663185" lon="7.382436381074798"><ele>902.3333333333334</ele><time>2026-05-02T15:43:04Z</time></trkpt><trkpt lat="44.60377199667232" lon="7.382541117603458"><ele>902.5</ele><time>2026-05-02T15:43:05Z</time></trkpt><trkpt lat="44.60380875172536" lon="7.382630546670247"><ele>902.6666666666667</ele><time>2026-05-02T15:43:06Z</time></trkpt><trkpt lat="44.60384388134093" lon="7.382704878906309"><ele>902.8333333333334</ele><time>2026-05-02T15:43:07Z</time></trkpt><trkpt lat="44.60389437075393" lon="7.382815564698677"><ele>903.0</ele><time>2026-05-02T15:43:08Z</time></trkpt><trkpt lat="44.60393617819767" lon="7.382931345861912"><ele>899.5</ele><time>2026-05-02T15:43:09Z</time></trkpt><trkpt lat="44.60395913159094" lon="7.383032624443341"><ele>896.0</ele><time>2026-05-02T15:43:11Z</time></trkpt><trkpt lat="44.6039665435951" lon="7.38313017375161"><ele>892.5</ele><time>2026-05-02T15:43:18Z</time></trkpt><trkpt lat="44.60409719702613" lon="7.383204266216499"><ele>889.0</ele><time>2026-05-02T15:43:21Z</time></trkpt><trkpt lat="44.60401167729314" lon="7.383484384790348"><ele>889.0</ele><time>2026-05-02T15:43:23Z</time></trkpt><trkpt lat="44.60406587218228" lon="7.383582682982575"><ele>889.0000000000001</ele><time>2026-05-02T15:43:24Z</time></trkpt><trkpt lat="44.604136547928945" lon="7.383663955719841"><ele>889.0000000000001</ele><time>2026-05-02T15:43:25Z</time></trkpt><trkpt lat="44.604294085112436" lon="7.383721130116853"><ele>889.0</ele><time>2026-05-02T15:43:27Z</time></trkpt><trkpt lat="44.60437360372199" lon="7.383710022193608"><ele>889.0</ele><time>2026-05-02T15:43:28Z</time></trkpt><trkpt lat="44.604439460849676" lon="7.383692475442203"><ele>890.6</ele><time>2026-05-02T15:43:29Z</time></trkpt><trkpt lat="44.60452464124179" lon="7.383673364953322"><ele>892.2</ele><time>2026-05-02T15:43:30Z</time></trkpt><trkpt lat="44.60460943741656" lon="7.383656536375427"><ele>893.8000000000001</ele><time>2026-05-02T15:43:31Z</time></trkpt><trkpt lat="44.60468775634944" lon="7.383631261480263"><ele>895.4000000000001</ele><time>2026-05-02T15:43:32Z</time></trkpt><trkpt lat="44.60476379026501" lon="7.383607212454318"><ele>897.0</ele><time>2026-05-02T15:43:33Z</time></trkpt><trkpt lat="44.60488748065952" lon="7.383591201815104"><ele>897.0</ele><time>2026-05-02T15:43:35Z</time></trkpt><trkpt lat="44.60498692521292" lon="7.383703044083229"><ele>897.0</ele><time>2026-05-02T15:43:37Z</time></trkpt><trkpt lat="44.605088535238174" lon="7.383826657725477"><ele>897.0</ele><time>2026-05-02T15:43:38Z</time></trkpt><trkpt lat="44.60518479464449" lon="7.383941637977193"><ele>897.0</ele><time>2026-05-02T15:43:39Z</time></trkpt><trkpt lat="44.60527414277125" lon="7.384053811663644"><ele>895.2</ele><time>2026-05-02T15:43:40Z</time></trkpt><trkpt lat="44.60534066996003" lon="7.384150709981072"><ele>893.4000000000001</ele><time>2026-05-02T15:43:41Z</time></trkpt><trkpt lat="44.60542112442127" lon="7.3843024442557565"><ele>891.5999999999999</ele><time>2026-05-02T15:43:43Z</time></trkpt><trkpt lat="44.605452047690896" lon="7.384394165166583"><ele>889.8</ele><time>2026-05-02T15:43:44Z</time></trkpt><trkpt lat="44.605486202295424" lon="7.384512605815461"><ele>888.0</ele><time>2026-05-02T15:43:45Z</time></trkpt><trkpt lat="44.605521360225794" lon="7.384626383213169"><ele>884.5999999999999</ele><time>2026-05-02T15:43:46Z</time></trkpt><trkpt lat="44.60555827372855" lon="7.384818286911201"><ele>881.1999999999999</ele><time>2026-05-02T15:43:48Z</time></trkpt><trkpt lat="44.605589615421785" lon="7.384942202432548"><ele>877.8</ele><time>2026-05-02T15:43:49Z</time></trkpt><trkpt lat="44.60564146913269" lon="7.385078711305394"><ele>874.4</ele><time>2026-05-02T15:43:50Z</time></trkpt><trkpt lat="44.60565109190013" lon="7.385188212871373"><ele>871.0</ele><time>2026-05-02T15:43:51Z</time></trkpt><trkpt lat="44.605684986245535" lon="7.385312392824592"><ele>871.0</ele><time>2026-05-02T15:43:52Z</time></trkpt><trkpt lat="44.60573768356631" lon="7.385424124726648"><ele>870.9999999999999</ele><time>2026-05-02T15:43:53Z</time></trkpt><trkpt lat="44.60575285846794" lon="7.385515563398456"><ele>870.9999999999999</ele><time>2026-05-02T15:43:54Z</time></trkpt><trkpt lat="44.60584886116151" lon="7.385637150233882"><ele>871.0</ele><time>2026-05-02T15:43:56Z</time></trkpt><trkpt lat="44.60594272962243" lon="7.38576546905202"><ele>871.0</ele><time>2026-05-02T15:43:57Z</time></trkpt><trkpt lat="44.60600836327996" lon="7.385854698045435"><ele>871.9999999999999</ele><time>2026-05-02T15:43:58Z</time></trkpt><trkpt lat="44.60607112602346" lon="7.385939372975521"><ele>873.0</ele><time>2026-05-02T15:43:59Z</time></trkpt><trkpt lat="44.606128455412524" lon="7.3860174026983465"><ele>874.0</ele><time>2026-05-02T15:44:00Z</time></trkpt><trkpt lat="44.6061803684453" lon="7.386091709049136"><ele>875.0</ele><time>2026-05-02T15:44:01Z</time></trkpt><trkpt lat="44.60624211670054" lon="7.386188144646402"><ele>875.9999999999999</ele><time>2026-05-02T15:44:02Z</time></trkpt><trkpt lat="44.60630110483908" lon="7.38629549690779"><ele>877.0</ele><time>2026-05-02T15:44:03Z</time></trkpt><trkpt lat="44.60634540136773" lon="7.386394479631548"><ele>873.2</ele><time>2026-05-02T15:44:04Z</time></trkpt><trkpt lat="44.60639233746182" lon="7.386517864844109"><ele>869.4000000000001</ele><time>2026-05-02T15:44:05Z</time></trkpt><trkpt lat="44.60644567028022" lon="7.3866313830835715"><ele>865.5999999999999</ele><time>2026-05-02T15:44:06Z</time></trkpt><trkpt lat="44.606483325229874" lon="7.386783379182072"><ele>861.8</ele><time>2026-05-02T15:44:07Z</time></trkpt><trkpt lat="44.60650642410788" lon="7.3869353972008"><ele>858.0</ele><time>2026-05-02T15:44:08Z</time></trkpt><trkpt lat="44.606504404762326" lon="7.387104160651694"><ele>855.5</ele><time>2026-05-02T15:44:09Z</time></trkpt><trkpt lat="44.60653378611637" lon="7.387278588523128"><ele>853.0</ele><time>2026-05-02T15:44:10Z</time></trkpt><trkpt lat="44.6065994564221" lon="7.387421874358437"><ele>850.5</ele><time>2026-05-02T15:44:11Z</time></trkpt><trkpt lat="44.60663251411959" lon="7.387594151997321"><ele>848.0</ele><time>2026-05-02T15:44:12Z</time></trkpt><trkpt lat="44.606644851214504" lon="7.387770345676927"><ele>848.0</ele><time>2026-05-02T15:44:13Z</time></trkpt><trkpt lat="44.606671604077384" lon="7.38794939437405"><ele>848.0</ele><time>2026-05-02T15:44:14Z</time></trkpt><trkpt lat="44.60671158275098" lon="7.388132063901019"><ele>848.0</ele><time>2026-05-02T15:44:15Z</time></trkpt><trkpt lat="44.606750606847534" lon="7.388301539986745"><ele>848.0</ele><time>2026-05-02T15:44:16Z</time></trkpt><trkpt lat="44.60679172018665" lon="7.388438021861105"><ele>846.5000000000001</ele><time>2026-05-02T15:44:17Z</time></trkpt><trkpt lat="44.606823808396214" lon="7.388539195203897"><ele>845.0</ele><time>2026-05-02T15:44:18Z</time></trkpt><trkpt lat="44.606877894723965" lon="7.388622049515209"><ele>843.5</ele><time>2026-05-02T15:44:19Z</time></trkpt><trkpt lat="44.60694833020639" lon="7.388669343630733"><ele>842.0</ele><time>2026-05-02T15:44:20Z</time></trkpt><trkpt lat="44.607035468663724" lon="7.388661364813834"><ele>840.5000000000001</ele><time>2026-05-02T15:44:21Z</time></trkpt><trkpt lat="44.60712502074641" lon="7.388685809051136"><ele>839.0</ele><time>2026-05-02T15:44:21.999Z</time></trkpt><trkpt lat="44.607177458341795" lon="7.388750321621204"><ele>836.5</ele><time>2026-05-02T15:44:22.999Z</time></trkpt><trkpt lat="44.607235812235025" lon="7.3889240901002635"><ele>834.0</ele><time>2026-05-02T15:44:24.999Z</time></trkpt><trkpt lat="44.607103328374194" lon="7.388954447791259"><ele>831.5</ele><time>2026-05-02T15:44:25.999Z</time></trkpt><trkpt lat="44.607051371080004" lon="7.3890074655704545"><ele>829.0</ele><time>2026-05-02T15:44:26.999Z</time></trkpt><trkpt lat="44.60693161442081" lon="7.389136826019044"><ele>829.0</ele><time>2026-05-02T15:44:29Z</time></trkpt><trkpt lat="44.60685730937241" lon="7.389280679174975"><ele>829.0</ele><time>2026-05-02T15:44:30Z</time></trkpt><trkpt lat="44.60689607704104" lon="7.389424949541468"><ele>829.0</ele><time>2026-05-02T15:44:31Z</time></trkpt><trkpt lat="44.6068345796531" lon="7.3895075583879075"><ele>829.0</ele><time>2026-05-02T15:44:33Z</time></trkpt><trkpt lat="44.60692692787248" lon="7.389677999666037"><ele>832.9999999999999</ele><time>2026-05-02T15:44:35Z</time></trkpt><trkpt lat="44.606995066596" lon="7.389697710775766"><ele>837.0</ele><time>2026-05-02T15:44:36Z</time></trkpt><trkpt lat="44.60706294671224" lon="7.389722492709763"><ele>841.0</ele><time>2026-05-02T15:44:37Z</time></trkpt><trkpt lat="44.607142677059294" lon="7.389751313069909"><ele>845.0</ele><time>2026-05-02T15:44:38Z</time></trkpt><trkpt lat="44.60722777309321" lon="7.389784745553518"><ele>848.9999999999999</ele><time>2026-05-02T15:44:39Z</time></trkpt><trkpt lat="44.60732340104293" lon="7.389826115735849"><ele>853.0</ele><time>2026-05-02T15:44:40Z</time></trkpt><trkpt lat="44.607405901275825" lon="7.389861806669442"><ele>853.0</ele><time>2026-05-02T15:44:41Z</time></trkpt><trkpt lat="44.60748706586777" lon="7.389914726718794"><ele>853.0</ele><time>2026-05-02T15:44:42Z</time></trkpt><trkpt lat="44.6075620615124" lon="7.390059610765805"><ele>853.0</ele><time>2026-05-02T15:44:44Z</time></trkpt><trkpt lat="44.60758406427743" lon="7.390180809457426"><ele>853.0</ele><time>2026-05-02T15:44:45Z</time></trkpt><trkpt lat="44.607617361161566" lon="7.390317303734475"><ele>853.0</ele><time>2026-05-02T15:44:46Z</time></trkpt><trkpt lat="44.60766167818527" lon="7.390453923894968"><ele>854.3333333333333</ele><time>2026-05-02T15:44:47Z</time></trkpt><trkpt lat="44.60770708219744" lon="7.390549097789815"><ele>855.6666666666666</ele><time>2026-05-02T15:44:48Z</time></trkpt><trkpt lat="44.607763925274156" lon="7.390597613413197"><ele>857.0</ele><time>2026-05-02T15:44:49Z</time></trkpt><trkpt lat="44.60786053695776" lon="7.390603040430596"><ele>858.3333333333333</ele><time>2026-05-02T15:44:50Z</time></trkpt><trkpt lat="44.60792716873299" lon="7.390527123021408"><ele>859.6666666666666</ele><time>2026-05-02T15:44:51Z</time></trkpt><trkpt lat="44.60802476520266" lon="7.390528488957073"><ele>861.0</ele><time>2026-05-02T15:44:53Z</time></trkpt><trkpt lat="44.608087915698405" lon="7.390557181949322"><ele>861.0</ele><time>2026-05-02T15:44:54Z</time></trkpt><trkpt lat="44.608150047294956" lon="7.390606207033353"><ele>861.0</ele><time>2026-05-02T15:44:55Z</time></trkpt><trkpt lat="44.60821947573818" lon="7.390687492949307"><ele>861.0</ele><time>2026-05-02T15:44:56Z</time></trkpt><trkpt lat="44.60826975548698" lon="7.390779019231877"><ele>861.0</ele><time>2026-05-02T15:44:57Z</time></trkpt><trkpt lat="44.60833226709828" lon="7.3908650517948"><ele>861.0</ele><time>2026-05-02T15:44:58Z</time></trkpt><trkpt lat="44.608402857547006" lon="7.390931438943396"><ele>861.0</ele><time>2026-05-02T15:44:59Z</time></trkpt><trkpt lat="44.608473804749494" lon="7.39095553146491"><ele>861.0</ele><time>2026-05-02T15:45:00Z</time></trkpt><trkpt lat="44.60854475406394" lon="7.390986717992125"><ele>861.0</ele><time>2026-05-02T15:45:01Z</time></trkpt><trkpt lat="44.6086039055486" lon="7.390851047325098"><ele>861.0</ele><time>2026-05-02T15:45:02Z</time></trkpt><trkpt lat="44.60866828347567" lon="7.390858801948832"><ele>861.0</ele><time>2026-05-02T15:45:03Z</time></trkpt><trkpt lat="44.608787832621445" lon="7.3908561813971865"><ele>861.0</ele><time>2026-05-02T15:45:05Z</time></trkpt><trkpt lat="44.60885527413425" lon="7.3908833274784165"><ele>861.0</ele><time>2026-05-02T15:45:06Z</time></trkpt><trkpt lat="44.60895698241" lon="7.390912243150435"><ele>862.6666666666666</ele><time>2026-05-02T15:45:08Z</time></trkpt><trkpt lat="44.6090296402978" lon="7.39094374241803"><ele>864.3333333333333</ele><time>2026-05-02T15:45:09Z</time></trkpt><trkpt lat="44.60910797054446" lon="7.390956542731068"><ele>866.0</ele><time>2026-05-02T15:45:10Z</time></trkpt><trkpt lat="44.609180606211254" lon="7.390959804823643"><ele>867.6666666666666</ele><time>2026-05-02T15:45:11Z</time></trkpt><trkpt lat="44.609272810268166" lon="7.390950528677722"><ele>869.3333333333333</ele><time>2026-05-02T15:45:12Z</time></trkpt><trkpt lat="44.609375924282986" lon="7.390940299864934"><ele>871.0</ele><time>2026-05-02T15:45:13Z</time></trkpt><trkpt lat="44.609458608156345" lon="7.390932097704735"><ele>871.4999999999999</ele><time>2026-05-02T15:45:14Z</time></trkpt><trkpt lat="44.60953175554983" lon="7.390927899775379"><ele>872.0</ele><time>2026-05-02T15:45:15Z</time></trkpt><trkpt lat="44.6096112666637" lon="7.390928366365993"><ele>872.5</ele><time>2026-05-02T15:45:16Z</time></trkpt><trkpt lat="44.6097083619985" lon="7.390958133245123"><ele>873.0</ele><time>2026-05-02T15:45:17Z</time></trkpt><trkpt lat="44.60979102839226" lon="7.3910100243605985"><ele>873.4999999999999</ele><time>2026-05-02T15:45:18Z</time></trkpt><trkpt lat="44.609856943478555" lon="7.391059281207842"><ele>874.0</ele><time>2026-05-02T15:45:19Z</time></trkpt><trkpt lat="44.60996594536831" lon="7.391090347491877"><ele>874.0</ele><time>2026-05-02T15:45:20Z</time></trkpt><trkpt lat="44.610034655381384" lon="7.391100015425597"><ele>874.0000000000001</ele><time>2026-05-02T15:45:21Z</time></trkpt><trkpt lat="44.61008819251943" lon="7.391154285930823"><ele>874.0000000000001</ele><time>2026-05-02T15:45:22Z</time></trkpt><trkpt lat="44.61017474872224" lon="7.391280039335861"><ele>874.0</ele><time>2026-05-02T15:45:24Z</time></trkpt><trkpt lat="44.61025825827388" lon="7.391411090044614"><ele>874.0</ele><time>2026-05-02T15:45:26Z</time></trkpt><trkpt lat="44.61031374929989" lon="7.391502195973868"><ele>871.9999999999999</ele><time>2026-05-02T15:45:27Z</time></trkpt><trkpt lat="44.610362119414994" lon="7.391591437778794"><ele>870.0</ele><time>2026-05-02T15:45:28Z</time></trkpt><trkpt lat="44.61043313196363" lon="7.391736572460059"><ele>868.0</ele><time>2026-05-02T15:45:30Z</time></trkpt><trkpt lat="44.61048905023126" lon="7.391812424832906"><ele>866.0</ele><time>2026-05-02T15:45:31Z</time></trkpt><trkpt lat="44.61051806468972" lon="7.391905398609311"><ele>863.9999999999999</ele><time>2026-05-02T15:45:32Z</time></trkpt><trkpt lat="44.61057301131076" lon="7.392011780485915"><ele>862.0</ele><time>2026-05-02T15:45:34Z</time></trkpt><trkpt lat="44.61061517481683" lon="7.392093413017346"><ele>858.8333333333333</ele><time>2026-05-02T15:45:35Z</time></trkpt><trkpt lat="44.610657828970005" lon="7.392176531282975"><ele>855.6666666666666</ele><time>2026-05-02T15:45:36Z</time></trkpt><trkpt lat="44.61070125587742" lon="7.392262475865647"><ele>852.5</ele><time>2026-05-02T15:45:37Z</time></trkpt><trkpt lat="44.6107482366872" lon="7.392355326632659"><ele>849.3333333333333</ele><time>2026-05-02T15:45:38Z</time></trkpt><trkpt lat="44.61079215096761" lon="7.392440062518681"><ele>846.1666666666666</ele><time>2026-05-02T15:45:39Z</time></trkpt><trkpt lat="44.61084180656844" lon="7.392535875420924"><ele>843.0</ele><time>2026-05-02T15:45:40Z</time></trkpt><trkpt lat="44.610922548644865" lon="7.392704440464789"><ele>843.0</ele><time>2026-05-02T15:45:42Z</time></trkpt><trkpt lat="44.61097653010152" lon="7.39285016787543"><ele>843.0</ele><time>2026-05-02T15:45:44Z</time></trkpt><trkpt lat="44.611010533491964" lon="7.392969212312111"><ele>843.0</ele><time>2026-05-02T15:45:45Z</time></trkpt><trkpt lat="44.6110354746565" lon="7.393068810826054"><ele>843.0</ele><time>2026-05-02T15:45:46Z</time></trkpt><trkpt lat="44.61109349716055" lon="7.393277481052391"><ele>843.0</ele><time>2026-05-02T15:45:48Z</time></trkpt><trkpt lat="44.6111161530429" lon="7.393426202208034"><ele>839.5999999999999</ele><time>2026-05-02T15:45:49Z</time></trkpt><trkpt lat="44.611139295426945" lon="7.393559805968061"><ele>836.1999999999999</ele><time>2026-05-02T15:45:50Z</time></trkpt><trkpt lat="44.61117548746581" lon="7.393688545941834"><ele>832.8</ele><time>2026-05-02T15:45:51Z</time></trkpt><trkpt lat="44.61121189110544" lon="7.393821570187071"><ele>829.4</ele><time>2026-05-02T15:45:52Z</time></trkpt><trkpt lat="44.61123069433242" lon="7.393992365253695"><ele>826.0</ele><time>2026-05-02T15:45:53Z</time></trkpt><trkpt lat="44.61126197966736" lon="7.394146880949597"><ele>826.0</ele><time>2026-05-02T15:45:54Z</time></trkpt><trkpt lat="44.6112993554055" lon="7.394325837537922"><ele>826.0</ele><time>2026-05-02T15:45:55Z</time></trkpt><trkpt lat="44.611340896364" lon="7.39450434575854"><ele>826.0</ele><time>2026-05-02T15:45:56Z</time></trkpt><trkpt lat="44.6113634799315" lon="7.394686771875712"><ele>826.0</ele><time>2026-05-02T15:45:57Z</time></trkpt><trkpt lat="44.61138263808497" lon="7.394840102728066"><ele>826.9999999999999</ele><time>2026-05-02T15:45:58Z</time></trkpt><trkpt lat="44.611412311125065" lon="7.394971519873384"><ele>828.0</ele><time>2026-05-02T15:45:59Z</time></trkpt><trkpt lat="44.61144071300864" lon="7.3950747908676115"><ele>829.0</ele><time>2026-05-02T15:46:00Z</time></trkpt><trkpt lat="44.61147158174613" lon="7.395171828871341"><ele>830.0</ele><time>2026-05-02T15:46:01Z</time></trkpt><trkpt lat="44.611477484208784" lon="7.39528108540128"><ele>830.9999999999999</ele><time>2026-05-02T15:46:02Z</time></trkpt><trkpt lat="44.611457619917736" lon="7.39538379700751"><ele>832.0</ele><time>2026-05-02T15:46:03Z</time></trkpt><trkpt lat="44.61144292907474" lon="7.395476446713845"><ele>831.8</ele><time>2026-05-02T15:46:04Z</time></trkpt><trkpt lat="44.61146684958131" lon="7.395595536177992"><ele>831.6</ele><time>2026-05-02T15:46:05Z</time></trkpt><trkpt lat="44.6115508483519" lon="7.3956840428039525"><ele>831.4</ele><time>2026-05-02T15:46:06Z</time></trkpt><trkpt lat="44.61161984488876" lon="7.395751955425694"><ele>831.1999999999999</ele><time>2026-05-02T15:46:07Z</time></trkpt><trkpt lat="44.61176874130738" lon="7.395704370108782"><ele>831.0</ele><time>2026-05-02T15:46:08Z</time></trkpt><trkpt lat="44.611860577814106" lon="7.39573836839142"><ele>831.0</ele><time>2026-05-02T15:46:09Z</time></trkpt><trkpt lat="44.61197304370287" lon="7.3957971146149815"><ele>831.0</ele><time>2026-05-02T15:46:11Z</time></trkpt><trkpt lat="44.61201759288108" lon="7.395924584697596"><ele>831.0</ele><time>2026-05-02T15:46:13Z</time></trkpt><trkpt lat="44.61194614115753" lon="7.395969461168049"><ele>831.0</ele><time>2026-05-02T15:46:15Z</time></trkpt><trkpt lat="44.61184819958376" lon="7.396054806285745"><ele>831.0</ele><time>2026-05-02T15:46:17Z</time></trkpt><trkpt lat="44.611787171224314" lon="7.396115180575437"><ele>831.0</ele><time>2026-05-02T15:46:18Z</time></trkpt><trkpt lat="44.611719651937264" lon="7.39606409152334"><ele>831.0</ele><time>2026-05-02T15:46:19Z</time></trkpt><trkpt lat="44.611630085216" lon="7.396070352833396"><ele>831.0</ele><time>2026-05-02T15:46:20Z</time></trkpt><trkpt lat="44.61154671665086" lon="7.396068751454461"><ele>831.0</ele><time>2026-05-02T15:46:21Z</time></trkpt><trkpt lat="44.611471414963916" lon="7.396129520392331"><ele>831.0</ele><time>2026-05-02T15:46:21.999Z</time></trkpt><trkpt lat="44.61147303374597" lon="7.3962929028661515"><ele>829.5</ele><time>2026-05-02T15:46:22.999Z</time></trkpt><trkpt lat="44.61156519304639" lon="7.396382997675768"><ele>828.0</ele><time>2026-05-02T15:46:23.999Z</time></trkpt><trkpt lat="44.61162605828918" lon="7.396474030089173"><ele>826.5</ele><time>2026-05-02T15:46:24.999Z</time></trkpt><trkpt lat="44.61166357188074" lon="7.396545185530546"><ele>825.0</ele><time>2026-05-02T15:46:25.999Z</time></trkpt><trkpt lat="44.611705685106465" lon="7.396657230914784"><ele>823.5</ele><time>2026-05-02T15:46:26.999Z</time></trkpt><trkpt lat="44.61174693911254" lon="7.39677639645427"><ele>822.0</ele><time>2026-05-02T15:46:27.999Z</time></trkpt><trkpt lat="44.611791413108165" lon="7.396913863415577"><ele>822.0</ele><time>2026-05-02T15:46:28.999Z</time></trkpt><trkpt lat="44.61184181616652" lon="7.3970717226229885"><ele>822.0</ele><time>2026-05-02T15:46:29.999Z</time></trkpt><trkpt lat="44.61188368089113" lon="7.397212374423903"><ele>822.0</ele><time>2026-05-02T15:46:30.999Z</time></trkpt><trkpt lat="44.6119088234944" lon="7.39730594201776"><ele>822.0</ele><time>2026-05-02T15:46:31.999Z</time></trkpt><trkpt lat="44.61194454458843" lon="7.3974090492952875"><ele>822.0</ele><time>2026-05-02T15:46:32.999Z</time></trkpt><trkpt lat="44.6119924575282" lon="7.397490871256108"><ele>819.0</ele><time>2026-05-02T15:46:33.999Z</time></trkpt><trkpt lat="44.61204498964371" lon="7.39754565855855"><ele>816.0</ele><time>2026-05-02T15:46:35Z</time></trkpt><trkpt lat="44.61211636683727" lon="7.397571527241139"><ele>813.0</ele><time>2026-05-02T15:46:36Z</time></trkpt><trkpt lat="44.612187642454636" lon="7.397518501555227"><ele>810.0</ele><time>2026-05-02T15:46:37Z</time></trkpt><trkpt lat="44.61224378516827" lon="7.397457170809069"><ele>807.0</ele><time>2026-05-02T15:46:38Z</time></trkpt><trkpt lat="44.61230933257525" lon="7.397362610345563"><ele>804.0</ele><time>2026-05-02T15:46:39Z</time></trkpt><trkpt lat="44.61239345260175" lon="7.397288105704142"><ele>804.0</ele><time>2026-05-02T15:46:40Z</time></trkpt><trkpt lat="44.61246828411815" lon="7.397240373019052"><ele>804.0</ele><time>2026-05-02T15:46:41Z</time></trkpt><trkpt lat="44.61253481567349" lon="7.397212818995298"><ele>804.0</ele><time>2026-05-02T15:46:42Z</time></trkpt><trkpt lat="44.61260111873902" lon="7.397309427308361"><ele>804.0</ele><time>2026-05-02T15:46:43Z</time></trkpt><trkpt lat="44.612683004705374" lon="7.397357618059638"><ele>804.0</ele><time>2026-05-02T15:46:44Z</time></trkpt><trkpt lat="44.61275665678004" lon="7.3974104333213555"><ele>804.0</ele><time>2026-05-02T15:46:45Z</time></trkpt><trkpt lat="44.612839762351435" lon="7.39749216206911"><ele>803.0</ele><time>2026-05-02T15:46:46Z</time></trkpt><trkpt lat="44.612912404030894" lon="7.397561871503916"><ele>802.0</ele><time>2026-05-02T15:46:47Z</time></trkpt><trkpt lat="44.612994240020164" lon="7.3976213549654535"><ele>801.0</ele><time>2026-05-02T15:46:48Z</time></trkpt><trkpt lat="44.61308071462266" lon="7.397660845449778"><ele>800.0</ele><time>2026-05-02T15:46:49Z</time></trkpt><trkpt lat="44.61317102691633" lon="7.39765174590492"><ele>799.0</ele><time>2026-05-02T15:46:50Z</time></trkpt><trkpt lat="44.61333024611713" lon="7.397634131554026"><ele>799.0</ele><time>2026-05-02T15:46:52Z</time></trkpt><trkpt lat="44.61342364056031" lon="7.397654267639675"><ele>799.0</ele><time>2026-05-02T15:46:53Z</time></trkpt><trkpt lat="44.61352959151532" lon="7.397661085771802"><ele>799.0</ele><time>2026-05-02T15:46:54Z</time></trkpt><trkpt lat="44.613629268530644" lon="7.39770131732441"><ele>799.0</ele><time>2026-05-02T15:46:55Z</time></trkpt><trkpt lat="44.61371958185674" lon="7.397749342260367"><ele>799.0</ele><time>2026-05-02T15:46:56Z</time></trkpt><trkpt lat="44.61378375126691" lon="7.397804368228121"><ele>798.9999999999999</ele><time>2026-05-02T15:46:57Z</time></trkpt><trkpt lat="44.613804315891535" lon="7.397889803828721"><ele>799.0</ele><time>2026-05-02T15:46:59Z</time></trkpt><trkpt lat="44.6136618627866" lon="7.39792393398759"><ele>799.0</ele><time>2026-05-02T15:47:01Z</time></trkpt><trkpt lat="44.61358894376734" lon="7.397956548034505"><ele>799.0</ele><time>2026-05-02T15:47:02Z</time></trkpt><trkpt lat="44.61352538798346" lon="7.397984706755122"><ele>798.9999999999999</ele><time>2026-05-02T15:47:03Z</time></trkpt><trkpt lat="44.613457553430365" lon="7.398069181031969"><ele>799.0</ele><time>2026-05-02T15:47:05Z</time></trkpt><trkpt lat="44.61347673301835" lon="7.398219923728848"><ele>792.6666666666666</ele><time>2026-05-02T15:47:07Z</time></trkpt><trkpt lat="44.61355514668597" lon="7.39829241138405"><ele>786.3333333333333</ele><time>2026-05-02T15:47:12Z</time></trkpt><trkpt lat="44.61355221375704" lon="7.398668096206601"><ele>780.0</ele><time>2026-05-02T15:47:18Z</time></trkpt><trkpt lat="44.6129410618017" lon="7.398807940141498"><ele>780.0</ele><time>2026-05-02T15:47:25Z</time></trkpt><trkpt lat="44.61285926072882" lon="7.3988327241876695"><ele>780.0</ele><time>2026-05-02T15:47:26Z</time></trkpt><trkpt lat="44.61273089951396" lon="7.398845403346482"><ele>780.0</ele><time>2026-05-02T15:47:28Z</time></trkpt><trkpt lat="44.6126045640861" lon="7.398843631027621"><ele>780.0</ele><time>2026-05-02T15:47:30Z</time></trkpt><trkpt lat="44.6125346451362" lon="7.3988345661350445"><ele>780.0</ele><time>2026-05-02T15:47:31Z</time></trkpt><trkpt lat="44.61246501759947" lon="7.398835912369181"><ele>775.8</ele><time>2026-05-02T15:47:32Z</time></trkpt><trkpt lat="44.612379263152654" lon="7.398854597249933"><ele>771.6</ele><time>2026-05-02T15:47:34Z</time></trkpt><trkpt lat="44.61229103442561" lon="7.398873138256854"><ele>767.4000000000001</ele><time>2026-05-02T15:47:37Z</time></trkpt><trkpt lat="44.6123796332775" lon="7.398987717478698"><ele>763.2</ele><time>2026-05-02T15:47:43Z</time></trkpt><trkpt lat="44.612508156184184" lon="7.399017451993988"><ele>759.0</ele><time>2026-05-02T15:47:44Z</time></trkpt><trkpt lat="44.612598499472114" lon="7.399120795919795"><ele>759.0</ele><time>2026-05-02T15:47:45Z</time></trkpt><trkpt lat="44.61264964974751" lon="7.399222584669552"><ele>759.0</ele><time>2026-05-02T15:47:46Z</time></trkpt><trkpt lat="44.612713573091774" lon="7.399241762727081"><ele>759.0</ele><time>2026-05-02T15:47:48Z</time></trkpt><trkpt lat="44.61280365567695" lon="7.399237987188808"><ele>759.0</ele><time>2026-05-02T15:47:50Z</time></trkpt><trkpt lat="44.61287031027917" lon="7.399191975363936"><ele>759.0</ele><time>2026-05-02T15:47:51Z</time></trkpt><trkpt lat="44.61297060863107" lon="7.399157733344928"><ele>759.0</ele><time>2026-05-02T15:47:52Z</time></trkpt><trkpt lat="44.61308894110364" lon="7.399128474671365"><ele>758.0</ele><time>2026-05-02T15:47:53Z</time></trkpt><trkpt lat="44.6132320432765" lon="7.39908501455659"><ele>757.0</ele><time>2026-05-02T15:47:54Z</time></trkpt><trkpt lat="44.613375731270466" lon="7.399049690260794"><ele>756.0</ele><time>2026-05-02T15:47:55Z</time></trkpt><trkpt lat="44.61349008947166" lon="7.399071529259952"><ele>755.0</ele><time>2026-05-02T15:47:56Z</time></trkpt><trkpt lat="44.61361721442572" lon="7.39907966504158"><ele>754.25</ele><time>2026-05-02T15:47:57Z</time></trkpt><trkpt lat="44.613731140611186" lon="7.399116242414053"><ele>753.5</ele><time>2026-05-02T15:47:58Z</time></trkpt><trkpt lat="44.61383631066093" lon="7.399202444430193"><ele>752.75</ele><time>2026-05-02T15:47:59Z</time></trkpt><trkpt lat="44.61394477197775" lon="7.399239229884657"><ele>752.0</ele><time>2026-05-02T15:48:00Z</time></trkpt><trkpt lat="44.61401819833299" lon="7.399350118235678"><ele>752.0</ele><time>2026-05-02T15:48:02Z</time></trkpt><trkpt lat="44.614118105942495" lon="7.399337013461683"><ele>752.0</ele><time>2026-05-02T15:48:04Z</time></trkpt><trkpt lat="44.61419115017923" lon="7.399247461761552"><ele>752.0</ele><time>2026-05-02T15:48:05Z</time></trkpt><trkpt lat="44.6142855034405" lon="7.399055262444157"><ele>752.0</ele><time>2026-05-02T15:48:06Z</time></trkpt><trkpt lat="44.61439852385957" lon="7.398915499411494"><ele>755.0</ele><time>2026-05-02T15:48:07Z</time></trkpt><trkpt lat="44.614465197668245" lon="7.398833142292257"><ele>758.0</ele><time>2026-05-02T15:48:08Z</time></trkpt><trkpt lat="44.61455138730822" lon="7.398740654605601"><ele>761.0</ele><time>2026-05-02T15:48:09Z</time></trkpt><trkpt lat="44.61462675474185" lon="7.398740380086128"><ele>764.0</ele><time>2026-05-02T15:48:10Z</time></trkpt><trkpt lat="44.61470165767766" lon="7.398741217385173"><ele>767.0000000000001</ele><time>2026-05-02T15:48:11Z</time></trkpt><trkpt lat="44.61476098658001" lon="7.398776473676802"><ele>770.0</ele><time>2026-05-02T15:48:13Z</time></trkpt><trkpt lat="44.61482726329664" lon="7.398896325685945"><ele>764.2857142857143</ele><time>2026-05-02T15:48:15Z</time></trkpt><trkpt lat="44.61488713660955" lon="7.399022034608675"><ele>758.5714285714286</ele><time>2026-05-02T15:48:17Z</time></trkpt><trkpt lat="44.61494326059813" lon="7.399073918434275"><ele>752.8571428571429</ele><time>2026-05-02T15:48:18Z</time></trkpt><trkpt lat="44.615006539140914" lon="7.399091552819526"><ele>747.1428571428571</ele><time>2026-05-02T15:48:19Z</time></trkpt><trkpt lat="44.615070160084215" lon="7.3990852627811465"><ele>741.4285714285714</ele><time>2026-05-02T15:48:20Z</time></trkpt><trkpt lat="44.61513952398421" lon="7.39910873460958"><ele>735.7142857142858</ele><time>2026-05-02T15:48:22Z</time></trkpt><trkpt lat="44.61520008897094" lon="7.399142316831976"><ele>730.0</ele><time>2026-05-02T15:48:22.999Z</time></trkpt><trkpt lat="44.6152772061056" lon="7.399170930437737"><ele>730.0</ele><time>2026-05-02T15:48:23.999Z</time></trkpt><trkpt lat="44.61527896709611" lon="7.399273110439485"><ele>730.0</ele><time>2026-05-02T15:48:25.999Z</time></trkpt><trkpt lat="44.615241331740584" lon="7.399391914247252"><ele>730.0</ele><time>2026-05-02T15:48:27.999Z</time></trkpt><trkpt lat="44.615172539506894" lon="7.399439224746027"><ele>730.0</ele><time>2026-05-02T15:48:28.999Z</time></trkpt><trkpt lat="44.61509421605074" lon="7.399429572100624"><ele>730.0</ele><time>2026-05-02T15:48:29.999Z</time></trkpt><trkpt lat="44.61497705452513" lon="7.399405933482006"><ele>730.0</ele><time>2026-05-02T15:48:31.999Z</time></trkpt><trkpt lat="44.61498186912128" lon="7.399513975232382"><ele>730.0</ele><time>2026-05-02T15:48:34.999Z</time></trkpt><trkpt lat="44.61503823478788" lon="7.399612198234778"><ele>730.0</ele><time>2026-05-02T15:48:35.999Z</time></trkpt><trkpt lat="44.615093292320005" lon="7.3996806892781954"><ele>730.0</ele><time>2026-05-02T15:48:36.999Z</time></trkpt><trkpt lat="44.615152690928184" lon="7.399776488485487"><ele>730.0</ele><time>2026-05-02T15:48:37.999Z</time></trkpt><trkpt lat="44.61521554011313" lon="7.399869067706478"><ele>730.0</ele><time>2026-05-02T15:48:38.999Z</time></trkpt><trkpt lat="44.61527090275135" lon="7.39996691755808"><ele>730.0</ele><time>2026-05-02T15:48:40Z</time></trkpt><trkpt lat="44.61530904522692" lon="7.400049599819497"><ele>728.0</ele><time>2026-05-02T15:48:41Z</time></trkpt><trkpt lat="44.61536241389118" lon="7.400147014090675"><ele>726.0</ele><time>2026-05-02T15:48:42Z</time></trkpt><trkpt lat="44.61540140874466" lon="7.400221587042036"><ele>724.0</ele><time>2026-05-02T15:48:43Z</time></trkpt><trkpt lat="44.61546264200077" lon="7.400286511826496"><ele>722.0</ele><time>2026-05-02T15:48:44Z</time></trkpt><trkpt lat="44.61544413896385" lon="7.400384129702906"><ele>720.0</ele><time>2026-05-02T15:48:46Z</time></trkpt><trkpt lat="44.61529059459868" lon="7.4004114292265015"><ele>720.0</ele><time>2026-05-02T15:48:48Z</time></trkpt><trkpt lat="44.61520639798629" lon="7.400390456945804"><ele>720.0</ele><time>2026-05-02T15:48:49Z</time></trkpt><trkpt lat="44.615116382528534" lon="7.400373606370212"><ele>720.0</ele><time>2026-05-02T15:48:50Z</time></trkpt><trkpt lat="44.61505320666382" lon="7.40037744219821"><ele>720.0</ele><time>2026-05-02T15:48:51Z</time></trkpt><trkpt lat="44.614962584192085" lon="7.400436838099799"><ele>720.0</ele><time>2026-05-02T15:48:53Z</time></trkpt><trkpt lat="44.614895684303235" lon="7.400467829312534"><ele>720.0</ele><time>2026-05-02T15:48:54Z</time></trkpt><trkpt lat="44.61486802935449" lon="7.400606303804863"><ele>717.8333333333334</ele><time>2026-05-02T15:48:56Z</time></trkpt><trkpt lat="44.61481142527313" lon="7.40066577817422"><ele>715.6666666666666</ele><time>2026-05-02T15:48:57Z</time></trkpt><trkpt lat="44.61473402059524" lon="7.400822564920706"><ele>713.5</ele><time>2026-05-02T15:48:59Z</time></trkpt><trkpt lat="44.61468259161198" lon="7.400896991477318"><ele>711.3333333333333</ele><time>2026-05-02T15:49:00Z</time></trkpt><trkpt lat="44.61462207354577" lon="7.400937367485207"><ele>709.1666666666666</ele><time>2026-05-02T15:49:01Z</time></trkpt><trkpt lat="44.61457024039384" lon="7.400989219675326"><ele>707.0</ele><time>2026-05-02T15:49:02Z</time></trkpt><trkpt lat="44.614510867591704" lon="7.401049640645893"><ele>705.2</ele><time>2026-05-02T15:49:03Z</time></trkpt><trkpt lat="44.61442801713374" lon="7.401118201217729"><ele>703.4000000000001</ele><time>2026-05-02T15:49:04Z</time></trkpt><trkpt lat="44.614386453173644" lon="7.401185781031084"><ele>701.5999999999999</ele><time>2026-05-02T15:49:06Z</time></trkpt><trkpt lat="44.61450017798321" lon="7.401381146210606"><ele>699.8</ele><time>2026-05-02T15:49:10Z</time></trkpt><trkpt lat="44.61456921921611" lon="7.401491330870686"><ele>698.0</ele><time>2026-05-02T15:49:11Z</time></trkpt><trkpt lat="44.61464850718406" lon="7.401559926618656"><ele>696.25</ele><time>2026-05-02T15:49:12Z</time></trkpt><trkpt lat="44.61475824752779" lon="7.401565496672631"><ele>694.5</ele><time>2026-05-02T15:49:13Z</time></trkpt><trkpt lat="44.614900158390554" lon="7.401612347853246"><ele>692.75</ele><time>2026-05-02T15:49:14Z</time></trkpt><trkpt lat="44.61505018454191" lon="7.4016532972627695"><ele>691.0</ele><time>2026-05-02T15:49:15Z</time></trkpt><trkpt lat="44.61514287110445" lon="7.401682935993789"><ele>691.0</ele><time>2026-05-02T15:49:16Z</time></trkpt><trkpt lat="44.61528516756034" lon="7.401753996151832"><ele>691.0</ele><time>2026-05-02T15:49:18Z</time></trkpt><trkpt lat="44.615383488320916" lon="7.401813007148053"><ele>691.0</ele><time>2026-05-02T15:49:19Z</time></trkpt><trkpt lat="44.61550174625445" lon="7.401857828670643"><ele>691.0</ele><time>2026-05-02T15:49:20Z</time></trkpt><trkpt lat="44.61561686154801" lon="7.401935205630648"><ele>691.1999999999999</ele><time>2026-05-02T15:49:21Z</time></trkpt><trkpt lat="44.615703297211354" lon="7.401996006474248"><ele>691.4</ele><time>2026-05-02T15:49:22Z</time></trkpt><trkpt lat="44.615798012893684" lon="7.402069587787246"><ele>691.6</ele><time>2026-05-02T15:49:23Z</time></trkpt><trkpt lat="44.615862030390005" lon="7.402185639396232"><ele>691.8</ele><time>2026-05-02T15:49:24Z</time></trkpt><trkpt lat="44.6158889615304" lon="7.402359509176578"><ele>692.0</ele><time>2026-05-02T15:49:25Z</time></trkpt><trkpt lat="44.61590492854434" lon="7.402524411189378"><ele>690.2</ele><time>2026-05-02T15:49:26Z</time></trkpt><trkpt lat="44.615925189727626" lon="7.402639833751646"><ele>688.4000000000001</ele><time>2026-05-02T15:49:27Z</time></trkpt><trkpt lat="44.61597973062289" lon="7.402791096499083"><ele>686.5999999999999</ele><time>2026-05-02T15:49:29Z</time></trkpt><trkpt lat="44.61602276452737" lon="7.402896814410427"><ele>684.8</ele><time>2026-05-02T15:49:30Z</time></trkpt><trkpt lat="44.61607484357603" lon="7.4030056979824"><ele>683.0</ele><time>2026-05-02T15:49:31Z</time></trkpt><trkpt lat="44.61613697982208" lon="7.4031102598665335"><ele>681.2</ele><time>2026-05-02T15:49:32Z</time></trkpt><trkpt lat="44.61620048067484" lon="7.403211975692986"><ele>679.4</ele><time>2026-05-02T15:49:33Z</time></trkpt><trkpt lat="44.616240328567756" lon="7.403315736271251"><ele>677.6</ele><time>2026-05-02T15:49:34Z</time></trkpt><trkpt lat="44.61628471314088" lon="7.40339176360043"><ele>675.8000000000001</ele><time>2026-05-02T15:49:35Z</time></trkpt><trkpt lat="44.61631851985256" lon="7.403519803699"><ele>674.0</ele><time>2026-05-02T15:49:36Z</time></trkpt><trkpt lat="44.61633210492872" lon="7.403663460513146"><ele>675.4000000000001</ele><time>2026-05-02T15:49:37Z</time></trkpt><trkpt lat="44.616338681343805" lon="7.403830482339588"><ele>676.8</ele><time>2026-05-02T15:49:38Z</time></trkpt><trkpt lat="44.61633915681456" lon="7.403983955850863"><ele>678.2</ele><time>2026-05-02T15:49:39Z</time></trkpt><trkpt lat="44.61634954142308" lon="7.4041234576729815"><ele>679.5999999999999</ele><time>2026-05-02T15:49:40Z</time></trkpt><trkpt lat="44.61636824702086" lon="7.404237214266781"><ele>681.0</ele><time>2026-05-02T15:49:41Z</time></trkpt><trkpt lat="44.61639316944471" lon="7.40436465495328"><ele>681.0</ele><time>2026-05-02T15:49:42Z</time></trkpt><trkpt lat="44.61639989582161" lon="7.40451173935699"><ele>681.0</ele><time>2026-05-02T15:49:43Z</time></trkpt><trkpt lat="44.616386307308424" lon="7.404677535140103"><ele>681.0</ele><time>2026-05-02T15:49:44Z</time></trkpt><trkpt lat="44.61636267242324" lon="7.404813599452088"><ele>681.0</ele><time>2026-05-02T15:49:45Z</time></trkpt><trkpt lat="44.6163504675865" lon="7.404961062217223"><ele>681.0</ele><time>2026-05-02T15:49:46Z</time></trkpt><trkpt lat="44.61636730195205" lon="7.405106728819253"><ele>680.8</ele><time>2026-05-02T15:49:47Z</time></trkpt><trkpt lat="44.61638052303414" lon="7.405264554805025"><ele>680.5999999999999</ele><time>2026-05-02T15:49:48Z</time></trkpt><trkpt lat="44.61642206539619" lon="7.405362795775288"><ele>680.4</ele><time>2026-05-02T15:49:49Z</time></trkpt><trkpt lat="44.61647273359163" lon="7.405458979010059"><ele>680.2</ele><time>2026-05-02T15:49:50Z</time></trkpt><trkpt lat="44.616536724978" lon="7.4055416483774446"><ele>680.0</ele><time>2026-05-02T15:49:51Z</time></trkpt><trkpt lat="44.61659366900922" lon="7.4056571279510495"><ele>680.0</ele><time>2026-05-02T15:49:52Z</time></trkpt><trkpt lat="44.61665880440642" lon="7.405779618044123"><ele>680.0</ele><time>2026-05-02T15:49:53Z</time></trkpt><trkpt lat="44.616729616300205" lon="7.405906713338751"><ele>680.0</ele><time>2026-05-02T15:49:54Z</time></trkpt><trkpt lat="44.6168341080449" lon="7.40601081136203"><ele>680.0</ele><time>2026-05-02T15:49:55Z</time></trkpt><trkpt lat="44.616938935884" lon="7.406145713761778"><ele>677.75</ele><time>2026-05-02T15:49:56Z</time></trkpt><trkpt lat="44.61705773805964" lon="7.40626723023134"><ele>675.5</ele><time>2026-05-02T15:49:57Z</time></trkpt><trkpt lat="44.61716055970555" lon="7.406387090985902"><ele>673.25</ele><time>2026-05-02T15:49:58Z</time></trkpt><trkpt lat="44.6172335851535" lon="7.406507185629439"><ele>671.0</ele><time>2026-05-02T15:49:59Z</time></trkpt><trkpt lat="44.617300541802074" lon="7.40660669115836"><ele>671.0</ele><time>2026-05-02T15:50:00Z</time></trkpt><trkpt lat="44.61735139445942" lon="7.406684866797882"><ele>671.0</ele><time>2026-05-02T15:50:01Z</time></trkpt><trkpt lat="44.61738751847508" lon="7.4067783861476695"><ele>671.0</ele><time>2026-05-02T15:50:02Z</time></trkpt><trkpt lat="44.61741436853747" lon="7.406906787258734"><ele>671.0</ele><time>2026-05-02T15:50:03Z</time></trkpt><trkpt lat="44.61743325508655" lon="7.4070233824202125"><ele>671.0</ele><time>2026-05-02T15:50:04Z</time></trkpt><trkpt lat="44.61746004431341" lon="7.407146733189105"><ele>671.0</ele><time>2026-05-02T15:50:05Z</time></trkpt><trkpt lat="44.617498295275475" lon="7.4072548310261865"><ele>670.2857142857142</ele><time>2026-05-02T15:50:06Z</time></trkpt><trkpt lat="44.61754193569735" lon="7.407339578398549"><ele>669.5714285714287</ele><time>2026-05-02T15:50:07Z</time></trkpt><trkpt lat="44.61757920827124" lon="7.407417495433656"><ele>668.8571428571429</ele><time>2026-05-02T15:50:08Z</time></trkpt><trkpt lat="44.617620671966385" lon="7.407489753306822"><ele>668.1428571428571</ele><time>2026-05-02T15:50:09Z</time></trkpt><trkpt lat="44.617674095499076" lon="7.407569913300109"><ele>667.4285714285713</ele><time>2026-05-02T15:50:10Z</time></trkpt><trkpt lat="44.617739032271906" lon="7.407627586593301"><ele>666.7142857142858</ele><time>2026-05-02T15:50:11Z</time></trkpt><trkpt lat="44.61779236200013" lon="7.407705168526315"><ele>666.0</ele><time>2026-05-02T15:50:12Z</time></trkpt><trkpt lat="44.61785599144167" lon="7.407757293650507"><ele>665.8</ele><time>2026-05-02T15:50:13Z</time></trkpt><trkpt lat="44.61793085979098" lon="7.407805088303033"><ele>665.5999999999999</ele><time>2026-05-02T15:50:14Z</time></trkpt><trkpt lat="44.618026791127505" lon="7.407923916221647"><ele>665.4</ele><time>2026-05-02T15:50:16Z</time></trkpt><trkpt lat="44.61807053612842" lon="7.408048022030207"><ele>665.2</ele><time>2026-05-02T15:50:17Z</time></trkpt><trkpt lat="44.61811885241746" lon="7.408178265779596"><ele>665.0</ele><time>2026-05-02T15:50:18Z</time></trkpt><trkpt lat="44.61814270566255" lon="7.408325030306084"><ele>665.0</ele><time>2026-05-02T15:50:19Z</time></trkpt><trkpt lat="44.61815926192159" lon="7.4084739363466605"><ele>665.0</ele><time>2026-05-02T15:50:20Z</time></trkpt><trkpt lat="44.61816818099772" lon="7.408595029403752"><ele>665.0</ele><time>2026-05-02T15:50:20.999Z</time></trkpt><trkpt lat="44.61816919648939" lon="7.4087165451958485"><ele>665.0</ele><time>2026-05-02T15:50:21.999Z</time></trkpt><trkpt lat="44.61817287627783" lon="7.408851062713893"><ele>665.0</ele><time>2026-05-02T15:50:22.999Z</time></trkpt><trkpt lat="44.61818216493773" lon="7.408962345774512"><ele>663.1666666666666</ele><time>2026-05-02T15:50:23.999Z</time></trkpt><trkpt lat="44.61818569672008" lon="7.409078151419667"><ele>661.3333333333333</ele><time>2026-05-02T15:50:24.999Z</time></trkpt><trkpt lat="44.61820896660938" lon="7.409205948437141"><ele>659.5</ele><time>2026-05-02T15:50:25.999Z</time></trkpt><trkpt lat="44.618257845196545" lon="7.409327548931"><ele>657.6666666666666</ele><time>2026-05-02T15:50:26.999Z</time></trkpt><trkpt lat="44.61830142805871" lon="7.409431397782339"><ele>655.8333333333334</ele><time>2026-05-02T15:50:27.999Z</time></trkpt><trkpt lat="44.618350356620546" lon="7.409528743330203"><ele>654.0</ele><time>2026-05-02T15:50:28.999Z</time></trkpt><trkpt lat="44.618389975124515" lon="7.40963599954172"><ele>653.6</ele><time>2026-05-02T15:50:29.999Z</time></trkpt><trkpt lat="44.61840716907793" lon="7.409758848178344"><ele>653.2</ele><time>2026-05-02T15:50:30.999Z</time></trkpt><trkpt lat="44.61841653657354" lon="7.409865196419221"><ele>652.8000000000001</ele><time>2026-05-02T15:50:31.999Z</time></trkpt><trkpt lat="44.61840903588591" lon="7.4100122576082805"><ele>652.4000000000001</ele><time>2026-05-02T15:50:32.999Z</time></trkpt><trkpt lat="44.61839140053281" lon="7.410173295453614"><ele>652.0</ele><time>2026-05-02T15:50:33.999Z</time></trkpt><trkpt lat="44.618377556215954" lon="7.410303912058745"><ele>652.0</ele><time>2026-05-02T15:50:34.999Z</time></trkpt><trkpt lat="44.61837112853695" lon="7.410417371608013"><ele>652.0</ele><time>2026-05-02T15:50:35.999Z</time></trkpt><trkpt lat="44.618356314301" lon="7.410530684586926"><ele>652.0</ele><time>2026-05-02T15:50:36.999Z</time></trkpt><trkpt lat="44.61835888789345" lon="7.410648217378035"><ele>652.0</ele><time>2026-05-02T15:50:37.999Z</time></trkpt><trkpt lat="44.61836798026818" lon="7.4107637285614665"><ele>652.0</ele><time>2026-05-02T15:50:38.999Z</time></trkpt><trkpt lat="44.618382755839484" lon="7.410886448972383"><ele>652.0</ele><time>2026-05-02T15:50:39.999Z</time></trkpt><trkpt lat="44.6184107388826" lon="7.411071379885945"><ele>651.8333333333334</ele><time>2026-05-02T15:50:41.999Z</time></trkpt><trkpt lat="44.61846568715157" lon="7.41116220284328"><ele>651.6666666666667</ele><time>2026-05-02T15:50:42.999Z</time></trkpt><trkpt lat="44.61853704948436" lon="7.411240582358969"><ele>651.5</ele><time>2026-05-02T15:50:43.999Z</time></trkpt><trkpt lat="44.618628844526356" lon="7.411322027814061"><ele>651.3333333333334</ele><time>2026-05-02T15:50:44.999Z</time></trkpt><trkpt lat="44.61869207902549" lon="7.411407697822847"><ele>651.1666666666666</ele><time>2026-05-02T15:50:46Z</time></trkpt><trkpt lat="44.618738408393696" lon="7.411484572635301"><ele>651.0</ele><time>2026-05-02T15:50:47Z</time></trkpt><trkpt lat="44.618799303040085" lon="7.411569424376242"><ele>648.8333333333334</ele><time>2026-05-02T15:50:48Z</time></trkpt><trkpt lat="44.61887748099817" lon="7.411635797943339"><ele>646.6666666666666</ele><time>2026-05-02T15:50:49Z</time></trkpt><trkpt lat="44.61895392269691" lon="7.411719797020906"><ele>644.5</ele><time>2026-05-02T15:50:50Z</time></trkpt><trkpt lat="44.6190121998794" lon="7.411815058983546"><ele>642.3333333333333</ele><time>2026-05-02T15:50:51Z</time></trkpt><trkpt lat="44.61906938848247" lon="7.411892919625595"><ele>640.1666666666666</ele><time>2026-05-02T15:50:52Z</time></trkpt><trkpt lat="44.619107364273496" lon="7.41198206125519"><ele>638.0</ele><time>2026-05-02T15:50:53Z</time></trkpt><trkpt lat="44.61909786098487" lon="7.4120840162044646"><ele>637.1666666666666</ele><time>2026-05-02T15:50:54Z</time></trkpt><trkpt lat="44.61908681841313" lon="7.412221414169681"><ele>636.3333333333333</ele><time>2026-05-02T15:50:55Z</time></trkpt><trkpt lat="44.6191031417281" lon="7.412368443060645"><ele>635.5</ele><time>2026-05-02T15:50:56Z</time></trkpt><trkpt lat="44.619112473646304" lon="7.412502170565476"><ele>634.6666666666666</ele><time>2026-05-02T15:50:57Z</time></trkpt><trkpt lat="44.61913012523038" lon="7.412602175164981"><ele>633.8333333333334</ele><time>2026-05-02T15:50:58Z</time></trkpt><trkpt lat="44.61915384017051" lon="7.412695774461554"><ele>633.0</ele><time>2026-05-02T15:50:59Z</time></trkpt><trkpt lat="44.61918581749429" lon="7.412789261262289"><ele>633.0</ele><time>2026-05-02T15:51:00Z</time></trkpt><trkpt lat="44.61917365969834" lon="7.412941756189683"><ele>633.0</ele><time>2026-05-02T15:51:02Z</time></trkpt><trkpt lat="44.61921014551632" lon="7.413081275614399"><ele>633.0</ele><time>2026-05-02T15:51:04Z</time></trkpt><trkpt lat="44.619312155939205" lon="7.413119816515831"><ele>633.0</ele><time>2026-05-02T15:51:06Z</time></trkpt><trkpt lat="44.619390825767226" lon="7.41310339728258"><ele>633.0</ele><time>2026-05-02T15:51:07Z</time></trkpt><trkpt lat="44.6194706566925" lon="7.413101922821288"><ele>632.0</ele><time>2026-05-02T15:51:08Z</time></trkpt><trkpt lat="44.61953944302196" lon="7.413103071043913"><ele>631.0</ele><time>2026-05-02T15:51:09Z</time></trkpt><trkpt lat="44.61960826431999" lon="7.413095421601895"><ele>630.0</ele><time>2026-05-02T15:51:10Z</time></trkpt><trkpt lat="44.61969797318891" lon="7.413144129664719"><ele>629.0</ele><time>2026-05-02T15:51:11Z</time></trkpt><trkpt lat="44.61975285492177" lon="7.413224553816454"><ele>628.0</ele><time>2026-05-02T15:51:12Z</time></trkpt><trkpt lat="44.6198294046633" lon="7.413306032751866"><ele>627.0</ele><time>2026-05-02T15:51:13Z</time></trkpt><trkpt lat="44.6199152114619" lon="7.413382332521534"><ele>627.0</ele><time>2026-05-02T15:51:14Z</time></trkpt><trkpt lat="44.620003650208304" lon="7.413475382543611"><ele>627.0</ele><time>2026-05-02T15:51:15Z</time></trkpt><trkpt lat="44.62009584536864" lon="7.413570381306265"><ele>627.0</ele><time>2026-05-02T15:51:16Z</time></trkpt><trkpt lat="44.62017268932775" lon="7.413663405351214"><ele>627.0</ele><time>2026-05-02T15:51:17Z</time></trkpt><trkpt lat="44.620279423207705" lon="7.413751281852209"><ele>623.75</ele><time>2026-05-02T15:51:18Z</time></trkpt><trkpt lat="44.62036865021553" lon="7.413855832106235"><ele>620.5</ele><time>2026-05-02T15:51:19Z</time></trkpt><trkpt lat="44.62045575094744" lon="7.413971381436144"><ele>617.25</ele><time>2026-05-02T15:51:20Z</time></trkpt><trkpt lat="44.62053887301851" lon="7.414086482432721"><ele>614.0</ele><time>2026-05-02T15:51:21Z</time></trkpt><trkpt lat="44.62063092928727" lon="7.414203711928012"><ele>614.0</ele><time>2026-05-02T15:51:22Z</time></trkpt><trkpt lat="44.62074052887384" lon="7.41429577122505"><ele>614.0</ele><time>2026-05-02T15:51:23Z</time></trkpt><trkpt lat="44.62083602898504" lon="7.4143804222184535"><ele>614.0</ele><time>2026-05-02T15:51:24Z</time></trkpt><trkpt lat="44.6209204088148" lon="7.414462443636948"><ele>614.0</ele><time>2026-05-02T15:51:25Z</time></trkpt><trkpt lat="44.62099212486701" lon="7.414528015698458"><ele>614.0</ele><time>2026-05-02T15:51:26Z</time></trkpt><trkpt lat="44.621071369599505" lon="7.414599379993693"><ele>613.5</ele><time>2026-05-02T15:51:27Z</time></trkpt><trkpt lat="44.621123951354754" lon="7.414660348635446"><ele>613.0</ele><time>2026-05-02T15:51:28Z</time></trkpt><trkpt lat="44.62118355217271" lon="7.414734050846207"><ele>612.5</ele><time>2026-05-02T15:51:29Z</time></trkpt><trkpt lat="44.62123666608605" lon="7.414808227999207"><ele>612.0</ele><time>2026-05-02T15:51:30Z</time></trkpt><trkpt lat="44.621345818151134" lon="7.414902897862993"><ele>611.5</ele><time>2026-05-02T15:51:32Z</time></trkpt><trkpt lat="44.62141219524645" lon="7.414942528288481"><ele>611.0</ele><time>2026-05-02T15:51:33Z</time></trkpt><trkpt lat="44.62148954822794" lon="7.414986475796054"><ele>609.5</ele><time>2026-05-02T15:51:34Z</time></trkpt><trkpt lat="44.621550467259624" lon="7.415064698404067"><ele>608.0</ele><time>2026-05-02T15:51:35Z</time></trkpt><trkpt lat="44.621596335434134" lon="7.415133905889033"><ele>606.5</ele><time>2026-05-02T15:51:36Z</time></trkpt><trkpt lat="44.62165803291774" lon="7.415205224340345"><ele>605.0</ele><time>2026-05-02T15:51:38Z</time></trkpt><trkpt lat="44.62171537291209" lon="7.415282899709364"><ele>603.5</ele><time>2026-05-02T15:51:41Z</time></trkpt><trkpt lat="44.6217813503408" lon="7.415367158635125"><ele>602.0</ele><time>2026-05-02T15:51:43Z</time></trkpt><trkpt lat="44.621847982500526" lon="7.415495871757024"><ele>601.0</ele><time>2026-05-02T15:51:45Z</time></trkpt><trkpt lat="44.6219257033951" lon="7.415651452258515"><ele>600.0</ele><time>2026-05-02T15:51:47Z</time></trkpt><trkpt lat="44.62197339876055" lon="7.415755556911852"><ele>599.0</ele><time>2026-05-02T15:51:48Z</time></trkpt><trkpt lat="44.622020267911346" lon="7.415823321512096"><ele>598.0</ele><time>2026-05-02T15:51:49Z</time></trkpt><trkpt lat="44.62206703840166" lon="7.4158909435026565"><ele>597.0</ele><time>2026-05-02T15:51:50Z</time></trkpt><trkpt lat="44.62211811533304" lon="7.415964791850076"><ele>596.0</ele><time>2026-05-02T15:51:51Z</time></trkpt><trkpt lat="44.62217046182827" lon="7.416035113756694"><ele>596.1666666666666</ele><time>2026-05-02T15:51:52Z</time></trkpt><trkpt lat="44.622216983058266" lon="7.416110564787466"><ele>596.3333333333333</ele><time>2026-05-02T15:51:53Z</time></trkpt><trkpt lat="44.62227843946449" lon="7.416180283787765"><ele>596.5</ele><time>2026-05-02T15:51:54Z</time></trkpt><trkpt lat="44.62232963976469" lon="7.416285972824008"><ele>596.6666666666666</ele><time>2026-05-02T15:51:55Z</time></trkpt><trkpt lat="44.62239489352978" lon="7.416391411374848"><ele>596.8333333333334</ele><time>2026-05-02T15:51:56Z</time></trkpt><trkpt lat="44.62244634228446" lon="7.416479650450991"><ele>597.0</ele><time>2026-05-02T15:51:57Z</time></trkpt><trkpt lat="44.622500301743344" lon="7.416578498002485"><ele>597.0</ele><time>2026-05-02T15:51:58Z</time></trkpt><trkpt lat="44.62254996025652" lon="7.41669974121919"><ele>597.0</ele><time>2026-05-02T15:51:59Z</time></trkpt><trkpt lat="44.622590546751006" lon="7.416831442638815"><ele>597.0</ele><time>2026-05-02T15:52:00Z</time></trkpt><trkpt lat="44.622625346761055" lon="7.416974516112592"><ele>597.0</ele><time>2026-05-02T15:52:01Z</time></trkpt><trkpt lat="44.622656248397384" lon="7.4171158938094"><ele>597.0</ele><time>2026-05-02T15:52:02Z</time></trkpt><trkpt lat="44.622685863179726" lon="7.41725138402457"><ele>595.4</ele><time>2026-05-02T15:52:03Z</time></trkpt><trkpt lat="44.62271639707298" lon="7.417384723638302"><ele>593.8000000000001</ele><time>2026-05-02T15:52:04Z</time></trkpt><trkpt lat="44.62274313655536" lon="7.417488370961516"><ele>592.2</ele><time>2026-05-02T15:52:05Z</time></trkpt><trkpt lat="44.62278230491195" lon="7.417604210742615"><ele>590.6</ele><time>2026-05-02T15:52:06Z</time></trkpt><trkpt lat="44.62282085760324" lon="7.417703825173527"><ele>589.0</ele><time>2026-05-02T15:52:07Z</time></trkpt><trkpt lat="44.622884238178706" lon="7.4178246353143145"><ele>589.0</ele><time>2026-05-02T15:52:08Z</time></trkpt><trkpt lat="44.62297331190131" lon="7.417915530366486"><ele>589.0</ele><time>2026-05-02T15:52:09Z</time></trkpt><trkpt lat="44.623008001351835" lon="7.418028096491613"><ele>589.0</ele><time>2026-05-02T15:52:10Z</time></trkpt><trkpt lat="44.62305649653839" lon="7.418204347174452"><ele>589.0</ele><time>2026-05-02T15:52:12Z</time></trkpt><trkpt lat="44.623085269611614" lon="7.4183653269266205"><ele>590.0</ele><time>2026-05-02T15:52:13Z</time></trkpt><trkpt lat="44.62310941293327" lon="7.41857531991844"><ele>591.0</ele><time>2026-05-02T15:52:14Z</time></trkpt><trkpt lat="44.62312223376648" lon="7.418790862303955"><ele>592.0</ele><time>2026-05-02T15:52:15Z</time></trkpt><trkpt lat="44.62312950584979" lon="7.419010556076435"><ele>592.75</ele><time>2026-05-02T15:52:16Z</time></trkpt><trkpt lat="44.62312704249377" lon="7.419216563859435"><ele>593.5</ele><time>2026-05-02T15:52:17Z</time></trkpt><trkpt lat="44.62311467989777" lon="7.419399316740502"><ele>594.25</ele><time>2026-05-02T15:52:18Z</time></trkpt><trkpt lat="44.623102041122166" lon="7.419547417599692"><ele>595.0</ele><time>2026-05-02T15:52:19Z</time></trkpt><trkpt lat="44.62308947074354" lon="7.419676592325518"><ele>596.2</ele><time>2026-05-02T15:52:20Z</time></trkpt><trkpt lat="44.62307638692733" lon="7.419801750703235"><ele>597.4</ele><time>2026-05-02T15:52:21Z</time></trkpt><trkpt lat="44.62306181230372" lon="7.419941169928085"><ele>598.6</ele><time>2026-05-02T15:52:22Z</time></trkpt><trkpt lat="44.623053936195234" lon="7.4200291676583126"><ele>599.8</ele><time>2026-05-02T15:52:23Z</time></trkpt><trkpt lat="44.62304134371033" lon="7.420122624163703"><ele>601.0</ele><time>2026-05-02T15:52:27Z</time></trkpt><trkpt lat="44.623041199998156" lon="7.420400548034992"><ele>601.4285714285714</ele><time>2026-05-02T15:52:43.999Z</time></trkpt><trkpt lat="44.62301024536352" lon="7.420527205872007"><ele>601.8571428571429</ele><time>2026-05-02T15:52:44.999Z</time></trkpt><trkpt lat="44.62299285058745" lon="7.4206306017618795"><ele>602.2857142857143</ele><time>2026-05-02T15:52:45.999Z</time></trkpt><trkpt lat="44.62299030438965" lon="7.420730693691295"><ele>602.7142857142858</ele><time>2026-05-02T15:52:46.999Z</time></trkpt><trkpt lat="44.62299328114132" lon="7.420833833902148"><ele>603.1428571428571</ele><time>2026-05-02T15:52:47.999Z</time></trkpt><trkpt lat="44.623013893790535" lon="7.420919899668441"><ele>603.5714285714287</ele><time>2026-05-02T15:52:48.999Z</time></trkpt><trkpt lat="44.62303031777142" lon="7.421007879639154"><ele>604.0</ele><time>2026-05-02T15:52:50.999Z</time></trkpt><trkpt lat="44.623075168556134" lon="7.421121637534562"><ele>604.0</ele><time>2026-05-02T15:53:25Z</time></trkpt><trkpt lat="44.623121569709795" lon="7.421216217123244"><ele>604.0</ele><time>2026-05-02T15:53:27Z</time></trkpt><trkpt lat="44.62320268645717" lon="7.421320836804437"><ele>604.0</ele><time>2026-05-02T15:53:29Z</time></trkpt><trkpt lat="44.62326234325229" lon="7.421405433873513"><ele>604.0</ele><time>2026-05-02T15:53:31Z</time></trkpt><trkpt lat="44.62335762338528" lon="7.42142141060696"><ele>604.0</ele><time>2026-05-02T15:53:33Z</time></trkpt><trkpt lat="44.62344163191985" lon="7.421490056428252"><ele>602.5</ele><time>2026-05-02T15:53:35Z</time></trkpt><trkpt lat="44.62354243027879" lon="7.421601952336411"><ele>601.0</ele><time>2026-05-02T15:53:37Z</time></trkpt><trkpt lat="44.62358371812826" lon="7.421669794718391"><ele>599.5</ele><time>2026-05-02T15:53:38Z</time></trkpt><trkpt lat="44.62361338795291" lon="7.421770176873853"><ele>598.0</ele><time>2026-05-02T15:53:39Z</time></trkpt><trkpt lat="44.62365561642735" lon="7.421848354837894"><ele>596.5</ele><time>2026-05-02T15:53:40Z</time></trkpt><trkpt lat="44.62371283498924" lon="7.42197690371649"><ele>595.0</ele><time>2026-05-02T15:53:42Z</time></trkpt><trkpt lat="44.62377356882939" lon="7.422055885242693"><ele>595.0</ele><time>2026-05-02T15:53:43Z</time></trkpt><trkpt lat="44.6238301417885" lon="7.42210282334373"><ele>595.0</ele><time>2026-05-02T15:53:44Z</time></trkpt><trkpt lat="44.62389243553335" lon="7.42212830709517"><ele>595.0</ele><time>2026-05-02T15:53:45Z</time></trkpt><trkpt lat="44.62396896046989" lon="7.422124123003365"><ele>595.0</ele><time>2026-05-02T15:53:46Z</time></trkpt><trkpt lat="44.62407801668317" lon="7.422100233780892"><ele>595.0</ele><time>2026-05-02T15:53:48Z</time></trkpt><trkpt lat="44.62415153087834" lon="7.422068598898683"><ele>595.0</ele><time>2026-05-02T15:53:49Z</time></trkpt><trkpt lat="44.62424430786697" lon="7.42202588553683"><ele>595.0</ele><time>2026-05-02T15:53:50Z</time></trkpt><trkpt lat="44.62433222932391" lon="7.421985407610716"><ele>595.0</ele><time>2026-05-02T15:53:51Z</time></trkpt><trkpt lat="44.624407617002355" lon="7.421951774254008"><ele>595.0</ele><time>2026-05-02T15:53:52Z</time></trkpt><trkpt lat="44.624485935184154" lon="7.421919723214488"><ele>595.0</ele><time>2026-05-02T15:53:53Z</time></trkpt><trkpt lat="44.624548448505436" lon="7.421894840144073"><ele>595.0</ele><time>2026-05-02T15:53:54Z</time></trkpt><trkpt lat="44.62462089429341" lon="7.42186172729442"><ele>595.0</ele><time>2026-05-02T15:53:55Z</time></trkpt><trkpt lat="44.62471011016025" lon="7.421820949336376"><ele>590.5</ele><time>2026-05-02T15:53:56Z</time></trkpt><trkpt lat="44.62479223756907" lon="7.42179507170359"><ele>586.0</ele><time>2026-05-02T15:53:57Z</time></trkpt><trkpt lat="44.6248604274693" lon="7.421780935694147"><ele>581.5</ele><time>2026-05-02T15:53:58Z</time></trkpt><trkpt lat="44.62494152151081" lon="7.421794796153525"><ele>577.0</ele><time>2026-05-02T15:53:59Z</time></trkpt><trkpt lat="44.625007358346814" lon="7.421800998919309"><ele>572.5</ele><time>2026-05-02T15:54:00Z</time></trkpt><trkpt lat="44.62512075936582" lon="7.42188012107172"><ele>568.0</ele><time>2026-05-02T15:54:02Z</time></trkpt><trkpt lat="44.62521770492295" lon="7.421979428082531"><ele>568.0</ele><time>2026-05-02T15:54:04Z</time></trkpt><trkpt lat="44.62527204720461" lon="7.4220356683099755"><ele>568.0</ele><time>2026-05-02T15:54:05Z</time></trkpt><trkpt lat="44.62535521552975" lon="7.42218604575987"><ele>568.0</ele><time>2026-05-02T15:54:07Z</time></trkpt><trkpt lat="44.62537730899124" lon="7.422296966390277"><ele>568.0</ele><time>2026-05-02T15:54:08Z</time></trkpt><trkpt lat="44.62539484442524" lon="7.422391919615423"><ele>568.0</ele><time>2026-05-02T15:54:09Z</time></trkpt><trkpt lat="44.625423191132164" lon="7.422485573135622"><ele>568.0</ele><time>2026-05-02T15:54:10Z</time></trkpt><trkpt lat="44.62546951709687" lon="7.4225986862288185"><ele>568.3333333333334</ele><time>2026-05-02T15:54:11Z</time></trkpt><trkpt lat="44.62550207372208" lon="7.422712132114959"><ele>568.6666666666667</ele><time>2026-05-02T15:54:12Z</time></trkpt><trkpt lat="44.62554790097249" lon="7.422816175079524"><ele>569.0</ele><time>2026-05-02T15:54:13Z</time></trkpt><trkpt lat="44.62558197659197" lon="7.422919003804999"><ele>569.3333333333334</ele><time>2026-05-02T15:54:14Z</time></trkpt><trkpt lat="44.62560591759681" lon="7.4230193545792345"><ele>569.6666666666666</ele><time>2026-05-02T15:54:15Z</time></trkpt><trkpt lat="44.625625459677224" lon="7.4231181189131235"><ele>570.0</ele><time>2026-05-02T15:54:16Z</time></trkpt><trkpt lat="44.625647089892176" lon="7.423227573239933"><ele>569.3333333333334</ele><time>2026-05-02T15:54:17Z</time></trkpt><trkpt lat="44.625670496274765" lon="7.423345987545123"><ele>568.6666666666666</ele><time>2026-05-02T15:54:18Z</time></trkpt><trkpt lat="44.62569553576338" lon="7.423472663840828"><ele>568.0</ele><time>2026-05-02T15:54:19Z</time></trkpt><trkpt lat="44.6257168913936" lon="7.4235839096974265"><ele>567.3333333333333</ele><time>2026-05-02T15:54:20Z</time></trkpt><trkpt lat="44.62575723346216" lon="7.423729112385529"><ele>566.6666666666666</ele><time>2026-05-02T15:54:22Z</time></trkpt><trkpt lat="44.62580107341316" lon="7.423806373696302"><ele>566.0</ele><time>2026-05-02T15:54:22.999Z</time></trkpt><trkpt lat="44.625865800622" lon="7.423881931821005"><ele>562.75</ele><time>2026-05-02T15:54:23.999Z</time></trkpt><trkpt lat="44.62599395734488" lon="7.423967382943747"><ele>559.5</ele><time>2026-05-02T15:54:25.999Z</time></trkpt><trkpt lat="44.62612452702126" lon="7.4238741206622745"><ele>556.25</ele><time>2026-05-02T15:54:27.999Z</time></trkpt><trkpt lat="44.62618542635103" lon="7.423809298615075"><ele>553.0</ele><time>2026-05-02T15:54:28.999Z</time></trkpt><trkpt lat="44.62629098676665" lon="7.423769582964988"><ele>553.0</ele><time>2026-05-02T15:54:29.999Z</time></trkpt><trkpt lat="44.626367466908945" lon="7.423730120446212"><ele>553.0</ele><time>2026-05-02T15:54:30.999Z</time></trkpt><trkpt lat="44.62642836484637" lon="7.423689431565839"><ele>553.0</ele><time>2026-05-02T15:54:31.999Z</time></trkpt><trkpt lat="44.62650090096142" lon="7.423690411460159"><ele>553.0</ele><time>2026-05-02T15:54:32.999Z</time></trkpt><trkpt lat="44.62663054084654" lon="7.423663137006724"><ele>553.0</ele><time>2026-05-02T15:54:34.999Z</time></trkpt><trkpt lat="44.62683634958625" lon="7.423910190189406"><ele>551.1999999999999</ele><time>2026-05-02T15:54:37.999Z</time></trkpt><trkpt lat="44.6268811226681" lon="7.424000921145434"><ele>549.4</ele><time>2026-05-02T15:54:38.999Z</time></trkpt><trkpt lat="44.626928445458304" lon="7.424092407991786"><ele>547.5999999999999</ele><time>2026-05-02T15:54:39.999Z</time></trkpt><trkpt lat="44.62699177670581" lon="7.424230094447902"><ele>545.8</ele><time>2026-05-02T15:54:40.999Z</time></trkpt><trkpt lat="44.62702660321236" lon="7.424379769474577"><ele>544.0</ele><time>2026-05-02T15:54:41.999Z</time></trkpt><trkpt lat="44.62705056029091" lon="7.424566603495756"><ele>545.25</ele><time>2026-05-02T15:54:42.999Z</time></trkpt><trkpt lat="44.62708190668762" lon="7.424779970914619"><ele>546.5</ele><time>2026-05-02T15:54:43.999Z</time></trkpt><trkpt lat="44.62711923515963" lon="7.4249903924300105"><ele>547.75</ele><time>2026-05-02T15:54:44.999Z</time></trkpt><trkpt lat="44.627151330082754" lon="7.425171312217817"><ele>549.0</ele><time>2026-05-02T15:54:45.999Z</time></trkpt><trkpt lat="44.62719081479186" lon="7.4253847313644235"><ele>550.2</ele><time>2026-05-02T15:54:46.999Z</time></trkpt><trkpt lat="44.627220417113584" lon="7.425543253685859"><ele>551.4</ele><time>2026-05-02T15:54:47.999Z</time></trkpt><trkpt lat="44.62723126348947" lon="7.425681984654806"><ele>552.6</ele><time>2026-05-02T15:54:48.999Z</time></trkpt><trkpt lat="44.627274242422324" lon="7.425804154223956"><ele>553.8</ele><time>2026-05-02T15:54:49.999Z</time></trkpt><trkpt lat="44.627295195966376" lon="7.42591848331296"><ele>555.0</ele><time>2026-05-02T15:54:50.999Z</time></trkpt><trkpt lat="44.627319604224745" lon="7.426046647339068"><ele>555.0</ele><time>2026-05-02T15:54:51.999Z</time></trkpt><trkpt lat="44.62733106276337" lon="7.426177124096788"><ele>555.0</ele><time>2026-05-02T15:54:52.999Z</time></trkpt><trkpt lat="44.62733328784681" lon="7.426312534907574"><ele>555.0</ele><time>2026-05-02T15:54:53.999Z</time></trkpt><trkpt lat="44.62731834405964" lon="7.426466826157897"><ele>555.0</ele><time>2026-05-02T15:54:54.999Z</time></trkpt><trkpt lat="44.6273029359561" lon="7.426605286851982"><ele>555.0</ele><time>2026-05-02T15:54:55.999Z</time></trkpt><trkpt lat="44.62729503668712" lon="7.426732342509704"><ele>553.8333333333334</ele><time>2026-05-02T15:54:56.999Z</time></trkpt><trkpt lat="44.62728635897858" lon="7.426848428631375"><ele>552.6666666666666</ele><time>2026-05-02T15:54:58Z</time></trkpt><trkpt lat="44.627288805390776" lon="7.426977340873905"><ele>551.5</ele><time>2026-05-02T15:54:59Z</time></trkpt><trkpt lat="44.62731320862858" lon="7.427096135369752"><ele>550.3333333333333</ele><time>2026-05-02T15:55:00Z</time></trkpt><trkpt lat="44.62733809312115" lon="7.4272140712555546"><ele>549.1666666666666</ele><time>2026-05-02T15:55:01Z</time></trkpt><trkpt lat="44.62735730746941" lon="7.42733335666256"><ele>548.0</ele><time>2026-05-02T15:55:02Z</time></trkpt><trkpt lat="44.62739477442097" lon="7.427431668394058"><ele>546.6666666666666</ele><time>2026-05-02T15:55:03Z</time></trkpt><trkpt lat="44.62743454886999" lon="7.427525327935908"><ele>545.3333333333333</ele><time>2026-05-02T15:55:04Z</time></trkpt><trkpt lat="44.62747995256982" lon="7.427624502483005"><ele>544.0</ele><time>2026-05-02T15:55:05Z</time></trkpt><trkpt lat="44.62752284289329" lon="7.427714155502292"><ele>542.6666666666666</ele><time>2026-05-02T15:55:06Z</time></trkpt><trkpt lat="44.62755765061254" lon="7.427823970209125"><ele>541.3333333333334</ele><time>2026-05-02T15:55:07Z</time></trkpt><trkpt lat="44.62760589081005" lon="7.427927654900754"><ele>540.0</ele><time>2026-05-02T15:55:08Z</time></trkpt><trkpt lat="44.62767006634076" lon="7.428018562181072"><ele>538.1666666666666</ele><time>2026-05-02T15:55:09Z</time></trkpt><trkpt lat="44.62771816416159" lon="7.428120972417759"><ele>536.3333333333334</ele><time>2026-05-02T15:55:10Z</time></trkpt><trkpt lat="44.62776413679615" lon="7.428185732084776"><ele>534.5</ele><time>2026-05-02T15:55:11Z</time></trkpt><trkpt lat="44.62781394710696" lon="7.428240585902079"><ele>532.6666666666667</ele><time>2026-05-02T15:55:12Z</time></trkpt><trkpt lat="44.62788663983412" lon="7.428359455882613"><ele>530.8333333333334</ele><time>2026-05-02T15:55:14Z</time></trkpt><trkpt lat="44.62794032745022" lon="7.428441234908516"><ele>529.0</ele><time>2026-05-02T15:55:16Z</time></trkpt><trkpt lat="44.62801475139933" lon="7.428548677979132"><ele>527.5</ele><time>2026-05-02T15:55:18Z</time></trkpt><trkpt lat="44.62806667023038" lon="7.428612233703538"><ele>526.0</ele><time>2026-05-02T15:55:20Z</time></trkpt><trkpt lat="44.62808038584322" lon="7.428702234311635"><ele>524.5</ele><time>2026-05-02T15:55:23Z</time></trkpt><trkpt lat="44.628064769304814" lon="7.428562169376575"><ele>523.0</ele><time>2026-05-02T15:55:55Z</time></trkpt><trkpt lat="44.627993694958505" lon="7.428462719703059"><ele>521.5</ele><time>2026-05-02T15:55:57Z</time></trkpt><trkpt lat="44.62792946375917" lon="7.428373176893441"><ele>520.0</ele><time>2026-05-02T15:55:59Z</time></trkpt><trkpt lat="44.627867676821964" lon="7.4282790808313806"><ele>520.0</ele><time>2026-05-02T15:56:01Z</time></trkpt><trkpt lat="44.62780798307667" lon="7.4281826306005385"><ele>520.0</ele><time>2026-05-02T15:56:03Z</time></trkpt><trkpt lat="44.62775863208622" lon="7.42811477524296"><ele>520.0</ele><time>2026-05-02T15:56:06Z</time></trkpt><trkpt lat="44.627805523452416" lon="7.4282076163013135"><ele>520.0</ele><time>2026-05-02T15:57:00.999Z</time></trkpt><trkpt lat="44.62787813484252" lon="7.428299866235888"><ele>520.0</ele><time>2026-05-02T15:57:03Z</time></trkpt><trkpt lat="44.62796040217874" lon="7.428408865704556"><ele>520.0</ele><time>2026-05-02T15:57:05Z</time></trkpt><trkpt lat="44.62799490964359" lon="7.428485618442299"><ele>520.0</ele><time>2026-05-02T15:57:06Z</time></trkpt><trkpt lat="44.62803717381626" lon="7.428561659389146"><ele>520.0</ele><time>2026-05-02T15:57:07Z</time></trkpt><trkpt lat="44.62805861213743" lon="7.428646030753581"><ele>520.0</ele><time>2026-05-02T15:57:08Z</time></trkpt><trkpt lat="44.62812028142446" lon="7.428817534976291"><ele>520.0</ele><time>2026-05-02T15:57:10Z</time></trkpt><trkpt lat="44.62812893752069" lon="7.428948482226549"><ele>520.0</ele><time>2026-05-02T15:57:11Z</time></trkpt><trkpt lat="44.62814850162755" lon="7.429065393573636"><ele>519.6</ele><time>2026-05-02T15:57:12Z</time></trkpt><trkpt lat="44.628162633137826" lon="7.429152079573585"><ele>519.2</ele><time>2026-05-02T15:57:13Z</time></trkpt><trkpt lat="44.628177108781884" lon="7.429277248189001"><ele>518.8</ele><time>2026-05-02T15:57:14Z</time></trkpt><trkpt lat="44.62818033759864" lon="7.42941410713318"><ele>518.4</ele><time>2026-05-02T15:57:15Z</time></trkpt><trkpt lat="44.62818035950817" lon="7.429585255345909"><ele>518.0</ele><time>2026-05-02T15:57:16Z</time></trkpt><trkpt lat="44.628182808515014" lon="7.4297578079083255"><ele>518.0</ele><time>2026-05-02T15:57:17Z</time></trkpt><trkpt lat="44.62819493945067" lon="7.429939789777383"><ele>518.0</ele><time>2026-05-02T15:57:18Z</time></trkpt><trkpt lat="44.62821207524434" lon="7.430107954566779"><ele>518.0</ele><time>2026-05-02T15:57:19Z</time></trkpt><trkpt lat="44.62822888123165" lon="7.430261613211342"><ele>518.0</ele><time>2026-05-02T15:57:20Z</time></trkpt><trkpt lat="44.62824090367074" lon="7.430413555237209"><ele>517.0</ele><time>2026-05-02T15:57:21Z</time></trkpt><trkpt lat="44.62825137192552" lon="7.430562231823708"><ele>516.0</ele><time>2026-05-02T15:57:22Z</time></trkpt><trkpt lat="44.628269773704176" lon="7.430717228518684"><ele>515.0</ele><time>2026-05-02T15:57:23Z</time></trkpt><trkpt lat="44.628290254821515" lon="7.430869761930216"><ele>514.0</ele><time>2026-05-02T15:57:24Z</time></trkpt><trkpt lat="44.62830695897938" lon="7.431022075242196"><ele>513.0</ele><time>2026-05-02T15:57:25Z</time></trkpt><trkpt lat="44.62832170641982" lon="7.431163369797801"><ele>513.0</ele><time>2026-05-02T15:57:26Z</time></trkpt><trkpt lat="44.62833724365001" lon="7.431297365676343"><ele>513.0</ele><time>2026-05-02T15:57:27Z</time></trkpt><trkpt lat="44.62836761395613" lon="7.431426185690309"><ele>513.0</ele><time>2026-05-02T15:57:28Z</time></trkpt><trkpt lat="44.62837581115195" lon="7.431562488259312"><ele>513.0</ele><time>2026-05-02T15:57:29Z</time></trkpt><trkpt lat="44.628395724710195" lon="7.43169909433905"><ele>513.0</ele><time>2026-05-02T15:57:30Z</time></trkpt><trkpt lat="44.62840943423683" lon="7.431832550415511"><ele>510.59999999999997</ele><time>2026-05-02T15:57:31Z</time></trkpt><trkpt lat="44.62841696785754" lon="7.4319593865135625"><ele>508.19999999999993</ele><time>2026-05-02T15:57:32Z</time></trkpt><trkpt lat="44.62841996039346" lon="7.432083639989109"><ele>505.8</ele><time>2026-05-02T15:57:33Z</time></trkpt><trkpt lat="44.62839812468185" lon="7.432210839659181"><ele>503.4</ele><time>2026-05-02T15:57:34Z</time></trkpt><trkpt lat="44.62839027398726" lon="7.432353460313033"><ele>501.0</ele><time>2026-05-02T15:57:35Z</time></trkpt><trkpt lat="44.6283869825289" lon="7.432506958298803"><ele>499.6</ele><time>2026-05-02T15:57:36Z</time></trkpt><trkpt lat="44.62838534363668" lon="7.432657921228203"><ele>498.20000000000005</ele><time>2026-05-02T15:57:37Z</time></trkpt><trkpt lat="44.62839675936156" lon="7.4327998196066005"><ele>496.79999999999995</ele><time>2026-05-02T15:57:38Z</time></trkpt><trkpt lat="44.628388716258215" lon="7.432925701307595"><ele>495.4</ele><time>2026-05-02T15:57:39Z</time></trkpt><trkpt lat="44.62836772055774" lon="7.433048350180354"><ele>494.0</ele><time>2026-05-02T15:57:40Z</time></trkpt><trkpt lat="44.62834139545762" lon="7.433153135656585"><ele>493.79999999999995</ele><time>2026-05-02T15:57:41Z</time></trkpt><trkpt lat="44.628285778619436" lon="7.43325078837394"><ele>493.59999999999997</ele><time>2026-05-02T15:57:42Z</time></trkpt><trkpt lat="44.62820102167694" lon="7.433356718823997"><ele>493.4</ele><time>2026-05-02T15:57:43Z</time></trkpt><trkpt lat="44.628137864216725" lon="7.433471500360944"><ele>493.2</ele><time>2026-05-02T15:57:44Z</time></trkpt><trkpt lat="44.62808258664726" lon="7.433599964174213"><ele>493.0</ele><time>2026-05-02T15:57:45Z</time></trkpt><trkpt lat="44.628032586044974" lon="7.43371021323705"><ele>493.0</ele><time>2026-05-02T15:57:46Z</time></trkpt><trkpt lat="44.62799078932179" lon="7.433805030359584"><ele>492.99999999999994</ele><time>2026-05-02T15:57:47Z</time></trkpt><trkpt lat="44.62795779912566" lon="7.433884914925089"><ele>492.99999999999994</ele><time>2026-05-02T15:57:48Z</time></trkpt><trkpt lat="44.627964004858185" lon="7.434051845329794"><ele>493.0</ele><time>2026-05-02T15:57:50Z</time></trkpt><trkpt lat="44.62800830511436" lon="7.434148528888407"><ele>493.0</ele><time>2026-05-02T15:57:52Z</time></trkpt><trkpt lat="44.627984972517915" lon="7.434316921711682"><ele>493.0</ele><time>2026-05-02T15:57:54Z</time></trkpt><trkpt lat="44.627907392430494" lon="7.43439759167121"><ele>492.99999999999994</ele><time>2026-05-02T15:57:55Z</time></trkpt><trkpt lat="44.62785844399225" lon="7.434473912515052"><ele>492.99999999999994</ele><time>2026-05-02T15:57:56Z</time></trkpt><trkpt lat="44.627775419301344" lon="7.43457905457474"><ele>493.0</ele><time>2026-05-02T15:57:57Z</time></trkpt><trkpt lat="44.62767431460418" lon="7.434701457876725"><ele>493.0</ele><time>2026-05-02T15:57:58Z</time></trkpt><trkpt lat="44.62758329907994" lon="7.434788276735822"><ele>487.00000000000006</ele><time>2026-05-02T15:57:59Z</time></trkpt><trkpt lat="44.62749681639555" lon="7.434882048293093"><ele>481.0</ele><time>2026-05-02T15:58:00Z</time></trkpt><trkpt lat="44.62742435093187" lon="7.434963104775857"><ele>475.0</ele><time>2026-05-02T15:58:01Z</time></trkpt><trkpt lat="44.62737319886247" lon="7.435041668277007"><ele>469.0</ele><time>2026-05-02T15:58:02Z</time></trkpt><trkpt lat="44.627326485455924" lon="7.435137235717093"><ele>463.00000000000006</ele><time>2026-05-02T15:58:03Z</time></trkpt><trkpt lat="44.62728038558787" lon="7.435243477960444"><ele>457.0</ele><time>2026-05-02T15:58:04Z</time></trkpt><trkpt lat="44.62723689726169" lon="7.435321745617048"><ele>457.00000000000006</ele><time>2026-05-02T15:58:05Z</time></trkpt><trkpt lat="44.62716743860066" lon="7.435349233054569"><ele>457.0</ele><time>2026-05-02T15:58:06Z</time></trkpt><trkpt lat="44.62710832607861" lon="7.435396098204013"><ele>457.0</ele><time>2026-05-02T15:58:07Z</time></trkpt><trkpt lat="44.627044107979444" lon="7.435448589386287"><ele>457.0</ele><time>2026-05-02T15:58:08Z</time></trkpt><trkpt lat="44.62696012232606" lon="7.435546312454227"><ele>457.00000000000006</ele><time>2026-05-02T15:58:10Z</time></trkpt><trkpt lat="44.62696137347168" lon="7.435670656865417"><ele>457.0</ele><time>2026-05-02T15:58:12Z</time></trkpt><trkpt lat="44.6270068089911" lon="7.435745460481689"><ele>455.40000000000003</ele><time>2026-05-02T15:58:13Z</time></trkpt><trkpt lat="44.6270490132482" lon="7.43582047557598"><ele>453.80000000000007</ele><time>2026-05-02T15:58:14Z</time></trkpt><trkpt lat="44.62713246725305" lon="7.435941308151274"><ele>452.2</ele><time>2026-05-02T15:58:16Z</time></trkpt><trkpt lat="44.62722322418047" lon="7.436002724011832"><ele>450.6</ele><time>2026-05-02T15:58:17.999Z</time></trkpt><trkpt lat="44.62715293761654" lon="7.4360319572284705"><ele>449.0</ele><time>2026-05-02T15:58:22.999Z</time></trkpt><trkpt lat="44.62706095129513" lon="7.435989189244148"><ele>448.99999999999994</ele><time>2026-05-02T15:58:23.999Z</time></trkpt><trkpt lat="44.626992356536554" lon="7.435903980024219"><ele>449.0</ele><time>2026-05-02T15:58:24.999Z</time></trkpt><trkpt lat="44.62692967342938" lon="7.435873251959951"><ele>449.0</ele><time>2026-05-02T15:58:27.999Z</time></trkpt><trkpt lat="44.626909169552604" lon="7.435989171263684"><ele>449.0</ele><time>2026-05-02T15:58:29.999Z</time></trkpt><trkpt lat="44.62699625225569" lon="7.436072721738145"><ele>448.99999999999994</ele><time>2026-05-02T15:58:30.999Z</time></trkpt><trkpt lat="44.62706237898308" lon="7.436172144965849"><ele>449.0</ele><time>2026-05-02T15:58:31.999Z</time></trkpt><trkpt lat="44.627120663181024" lon="7.4362428505837785"><ele>444.79999999999995</ele><time>2026-05-02T15:58:32.999Z</time></trkpt><trkpt lat="44.62720744751891" lon="7.436334384943044"><ele>440.59999999999997</ele><time>2026-05-02T15:58:34.999Z</time></trkpt><trkpt lat="44.627280533384216" lon="7.436370912599302"><ele>436.4</ele><time>2026-05-02T15:58:36.999Z</time></trkpt><trkpt lat="44.62724687666808" lon="7.436503471467406"><ele>432.2</ele><time>2026-05-02T15:58:38.999Z</time></trkpt><trkpt lat="44.62712161144362" lon="7.4365046443242715"><ele>428.0</ele><time>2026-05-02T15:58:40.999Z</time></trkpt><trkpt lat="44.62704852603988" lon="7.436472256260792"><ele>426.8333333333333</ele><time>2026-05-02T15:58:41.999Z</time></trkpt><trkpt lat="44.62697515139029" lon="7.436439940179793"><ele>425.66666666666663</ele><time>2026-05-02T15:58:42.999Z</time></trkpt><trkpt lat="44.62689471589782" lon="7.436421934761707"><ele>424.5</ele><time>2026-05-02T15:58:43.999Z</time></trkpt><trkpt lat="44.62680929992421" lon="7.4364005996327744"><ele>423.33333333333337</ele><time>2026-05-02T15:58:44.999Z</time></trkpt><trkpt lat="44.62671469904571" lon="7.436385979906132"><ele>422.1666666666667</ele><time>2026-05-02T15:58:45.999Z</time></trkpt><trkpt lat="44.626611525813004" lon="7.436390556773832"><ele>421.0</ele><time>2026-05-02T15:58:46.999Z</time></trkpt><trkpt lat="44.62650510108106" lon="7.436412188853081"><ele>421.0</ele><time>2026-05-02T15:58:47.999Z</time></trkpt><trkpt lat="44.62639509381739" lon="7.4364516039881625"><ele>421.0</ele><time>2026-05-02T15:58:48.999Z</time></trkpt><trkpt lat="44.626285212493016" lon="7.436502204212395"><ele>421.0</ele><time>2026-05-02T15:58:49.999Z</time></trkpt><trkpt lat="44.62618519674333" lon="7.436542591245024"><ele>421.0</ele><time>2026-05-02T15:58:50.999Z</time></trkpt><trkpt lat="44.62609599587669" lon="7.436563942923018"><ele>421.0</ele><time>2026-05-02T15:58:51.999Z</time></trkpt><trkpt lat="44.62601130496125" lon="7.436573127842429"><ele>418.50000000000006</ele><time>2026-05-02T15:58:52.999Z</time></trkpt><trkpt lat="44.62594081880022" lon="7.436520951656859"><ele>416.0</ele><time>2026-05-02T15:58:53.999Z</time></trkpt><trkpt lat="44.62587292796297" lon="7.436508106165705"><ele>413.5</ele><time>2026-05-02T15:58:54.999Z</time></trkpt><trkpt lat="44.6258169143178" lon="7.436459273407264"><ele>411.0</ele><time>2026-05-02T15:58:55.999Z</time></trkpt><trkpt lat="44.62576298405332" lon="7.436405775984441"><ele>408.50000000000006</ele><time>2026-05-02T15:58:56.999Z</time></trkpt><trkpt lat="44.625713118219814" lon="7.436338162039752"><ele>406.0</ele><time>2026-05-02T15:58:57.999Z</time></trkpt><trkpt lat="44.6256071179051" lon="7.436295553181281"><ele>406.0</ele><time>2026-05-02T15:58:59.999Z</time></trkpt><trkpt lat="44.62554021018736" lon="7.4363612048166186"><ele>406.0</ele><time>2026-05-02T15:59:00.999Z</time></trkpt><trkpt lat="44.62546189355232" lon="7.436446766036224"><ele>406.0</ele><time>2026-05-02T15:59:01.999Z</time></trkpt><trkpt lat="44.62534937998669" lon="7.436501519839579"><ele>406.0</ele><time>2026-05-02T15:59:02.999Z</time></trkpt><trkpt lat="44.625201671821294" lon="7.436507310728686"><ele>406.0</ele><time>2026-05-02T15:59:03.999Z</time></trkpt><trkpt lat="44.625064259805974" lon="7.436574558191608"><ele>403.6</ele><time>2026-05-02T15:59:04.999Z</time></trkpt><trkpt lat="44.62493729755742" lon="7.436635488783977"><ele>401.20000000000005</ele><time>2026-05-02T15:59:05.999Z</time></trkpt><trkpt lat="44.62482609407511" lon="7.436700312570417"><ele>398.79999999999995</ele><time>2026-05-02T15:59:06.999Z</time></trkpt><trkpt lat="44.6247262765667" lon="7.436734774815235"><ele>396.4</ele><time>2026-05-02T15:59:07.999Z</time></trkpt><trkpt lat="44.62465961838533" lon="7.436775343737716"><ele>394.0</ele><time>2026-05-02T15:59:09Z</time></trkpt><trkpt lat="44.6246083196136" lon="7.436834509960593"><ele>394.00000000000006</ele><time>2026-05-02T15:59:11Z</time></trkpt><trkpt lat="44.6245754230931" lon="7.436758940401812"><ele>394.0</ele><time>2026-05-02T15:59:13Z</time></trkpt><trkpt lat="44.62464721095134" lon="7.4365903101220905"><ele>394.0</ele><time>2026-05-02T15:59:15Z</time></trkpt><trkpt lat="44.624694282847145" lon="7.436503677253991"><ele>394.0</ele><time>2026-05-02T15:59:16Z</time></trkpt><trkpt lat="44.62473835529652" lon="7.436414812088596"><ele>394.00000000000006</ele><time>2026-05-02T15:59:17Z</time></trkpt><trkpt lat="44.62478267459614" lon="7.436318668639764"><ele>394.0</ele><time>2026-05-02T15:59:18Z</time></trkpt><trkpt lat="44.62483194348491" lon="7.436208012482959"><ele>392.4</ele><time>2026-05-02T15:59:19Z</time></trkpt><trkpt lat="44.62488933387337" lon="7.4361016430014"><ele>390.79999999999995</ele><time>2026-05-02T15:59:20Z</time></trkpt><trkpt lat="44.62495268912917" lon="7.436016116888098"><ele>389.20000000000005</ele><time>2026-05-02T15:59:21Z</time></trkpt><trkpt lat="44.62499193420178" lon="7.435902906000033"><ele>387.6</ele><time>2026-05-02T15:59:22Z</time></trkpt><trkpt lat="44.62505524312784" lon="7.435789595832008"><ele>386.0</ele><time>2026-05-02T15:59:23Z</time></trkpt><trkpt lat="44.62510183076617" lon="7.435677306229306"><ele>385.99999999999994</ele><time>2026-05-02T15:59:24Z</time></trkpt><trkpt lat="44.62514142249828" lon="7.435581852611966"><ele>386.0</ele><time>2026-05-02T15:59:25Z</time></trkpt><trkpt lat="44.625155723045424" lon="7.4354806904761075"><ele>386.0</ele><time>2026-05-02T15:59:26Z</time></trkpt><trkpt lat="44.62514658148138" lon="7.4353793116432705"><ele>386.0</ele><time>2026-05-02T15:59:27Z</time></trkpt><trkpt lat="44.625113458465016" lon="7.435267916610783"><ele>385.99999999999994</ele><time>2026-05-02T15:59:28Z</time></trkpt><trkpt lat="44.62505879924138" lon="7.435174112189162"><ele>386.0</ele><time>2026-05-02T15:59:29Z</time></trkpt><trkpt lat="44.62499237288589" lon="7.435107920369275"><ele>385.99999999999994</ele><time>2026-05-02T15:59:30Z</time></trkpt><trkpt lat="44.62493706135806" lon="7.4350353701101515"><ele>386.0</ele><time>2026-05-02T15:59:31Z</time></trkpt><trkpt lat="44.624835201516255" lon="7.435048989083781"><ele>386.0</ele><time>2026-05-02T15:59:32Z</time></trkpt><trkpt lat="44.62475516011693" lon="7.435106169952023"><ele>386.0</ele><time>2026-05-02T15:59:33Z</time></trkpt><trkpt lat="44.62468878726066" lon="7.43515097370397"><ele>385.99999999999994</ele><time>2026-05-02T15:59:34Z</time></trkpt><trkpt lat="44.62461897695653" lon="7.435204225202051"><ele>386.0</ele><time>2026-05-02T15:59:35Z</time></trkpt><trkpt lat="44.62454565480525" lon="7.435252835177782"><ele>385.16666666666663</ele><time>2026-05-02T15:59:36Z</time></trkpt><trkpt lat="44.624462241679616" lon="7.435269961485371"><ele>384.3333333333333</ele><time>2026-05-02T15:59:37Z</time></trkpt><trkpt lat="44.62438940752719" lon="7.435319345387879"><ele>383.5</ele><time>2026-05-02T15:59:38Z</time></trkpt><trkpt lat="44.624311691354706" lon="7.43534024473689"><ele>382.66666666666663</ele><time>2026-05-02T15:59:39Z</time></trkpt><trkpt lat="44.62423837380462" lon="7.435361902578484"><ele>381.8333333333333</ele><time>2026-05-02T15:59:40Z</time></trkpt><trkpt lat="44.62416739216341" lon="7.43538267871945"><ele>381.0</ele><time>2026-05-02T15:59:41Z</time></trkpt><trkpt lat="44.62409469027027" lon="7.435392770299149"><ele>381.0</ele><time>2026-05-02T15:59:42Z</time></trkpt><trkpt lat="44.624020549150906" lon="7.435405089478287"><ele>381.0</ele><time>2026-05-02T15:59:43Z</time></trkpt><trkpt lat="44.623942837598655" lon="7.435422912294794"><ele>381.0</ele><time>2026-05-02T15:59:44Z</time></trkpt><trkpt lat="44.62386637641538" lon="7.43543796033715"><ele>381.0</ele><time>2026-05-02T15:59:45Z</time></trkpt><trkpt lat="44.62379033021835" lon="7.435447514197382"><ele>381.0</ele><time>2026-05-02T15:59:46Z</time></trkpt><trkpt lat="44.623711723527926" lon="7.435443755777408"><ele>381.0</ele><time>2026-05-02T15:59:47Z</time></trkpt><trkpt lat="44.62363671304518" lon="7.435425922203168"><ele>378.6666666666667</ele><time>2026-05-02T15:59:48Z</time></trkpt><trkpt lat="44.623562070531534" lon="7.4353941398684"><ele>376.3333333333333</ele><time>2026-05-02T15:59:49Z</time></trkpt><trkpt lat="44.62348653427889" lon="7.435365431039113"><ele>374.0</ele><time>2026-05-02T15:59:50Z</time></trkpt><trkpt lat="44.62341302123319" lon="7.4353312460043295"><ele>371.66666666666663</ele><time>2026-05-02T15:59:51Z</time></trkpt><trkpt lat="44.623343445318156" lon="7.435291253833992"><ele>369.3333333333333</ele><time>2026-05-02T15:59:52Z</time></trkpt><trkpt lat="44.62327391774272" lon="7.435263121417258"><ele>367.0</ele><time>2026-05-02T15:59:53Z</time></trkpt><trkpt lat="44.623204443319906" lon="7.435253938393547"><ele>367.0</ele><time>2026-05-02T15:59:54Z</time></trkpt><trkpt lat="44.623129769128845" lon="7.435250061826718"><ele>367.0</ele><time>2026-05-02T15:59:55Z</time></trkpt><trkpt lat="44.62304886306208" lon="7.435262499847268"><ele>367.0</ele><time>2026-05-02T15:59:56Z</time></trkpt><trkpt lat="44.62296753256457" lon="7.435279796189532"><ele>367.0</ele><time>2026-05-02T15:59:57Z</time></trkpt><trkpt lat="44.62288598326894" lon="7.435304375232365"><ele>367.0</ele><time>2026-05-02T15:59:58Z</time></trkpt><trkpt lat="44.6228026283944" lon="7.435341890244661"><ele>367.0</ele><time>2026-05-02T15:59:59Z</time></trkpt><trkpt lat="44.62272668948459" lon="7.4353918577204325"><ele>366.3333333333333</ele><time>2026-05-02T16:00:00Z</time></trkpt><trkpt lat="44.62263968737307" lon="7.43545834703279"><ele>365.66666666666663</ele><time>2026-05-02T16:00:01Z</time></trkpt><trkpt lat="44.62256042319694" lon="7.435516726463649"><ele>365.0</ele><time>2026-05-02T16:00:02Z</time></trkpt><trkpt lat="44.62248415951512" lon="7.435572853753681"><ele>364.3333333333333</ele><time>2026-05-02T16:00:03Z</time></trkpt><trkpt lat="44.62241151998933" lon="7.435632910533233"><ele>363.6666666666667</ele><time>2026-05-02T16:00:04Z</time></trkpt><trkpt lat="44.622343451744044" lon="7.435686418017547"><ele>363.0</ele><time>2026-05-02T16:00:05Z</time></trkpt><trkpt lat="44.62227906817095" lon="7.4357437929414125"><ele>362.3333333333333</ele><time>2026-05-02T16:00:06Z</time></trkpt><trkpt lat="44.622218485119404" lon="7.4357952143186425"><ele>361.6666666666667</ele><time>2026-05-02T16:00:07Z</time></trkpt><trkpt lat="44.62215779755651" lon="7.435859444380397"><ele>361.0</ele><time>2026-05-02T16:00:08Z</time></trkpt><trkpt lat="44.62210164452041" lon="7.43593356796433"><ele>360.33333333333337</ele><time>2026-05-02T16:00:09Z</time></trkpt><trkpt lat="44.622040895029556" lon="7.435990964861954"><ele>359.6666666666667</ele><time>2026-05-02T16:00:10Z</time></trkpt><trkpt lat="44.621977361676834" lon="7.43604939525689"><ele>359.0</ele><time>2026-05-02T16:00:11Z</time></trkpt><trkpt lat="44.621916275089916" lon="7.436114394757669"><ele>358.6666666666667</ele><time>2026-05-02T16:00:12Z</time></trkpt><trkpt lat="44.62185322207357" lon="7.436177892385652"><ele>358.33333333333337</ele><time>2026-05-02T16:00:13Z</time></trkpt><trkpt lat="44.621794377526165" lon="7.436241509196185"><ele>358.0</ele><time>2026-05-02T16:00:14Z</time></trkpt><trkpt lat="44.62173928472851" lon="7.436293562714105"><ele>357.6666666666667</ele><time>2026-05-02T16:00:15Z</time></trkpt><trkpt lat="44.621686359010276" lon="7.436341858316949"><ele>357.3333333333333</ele><time>2026-05-02T16:00:16Z</time></trkpt><trkpt lat="44.62163512254853" lon="7.436394291985211"><ele>357.0</ele><time>2026-05-02T16:00:17Z</time></trkpt><trkpt lat="44.62153576059766" lon="7.436468206547774"><ele>357.0</ele><time>2026-05-02T16:00:18.999Z</time></trkpt><trkpt lat="44.62146627315708" lon="7.436541938623072"><ele>357.0</ele><time>2026-05-02T16:00:23.999Z</time></trkpt><trkpt lat="44.62139655500851" lon="7.436617165696544"><ele>357.0</ele><time>2026-05-02T16:00:26.999Z</time></trkpt><trkpt lat="44.62131790035811" lon="7.436709254091689"><ele>357.0</ele><time>2026-05-02T16:00:28.999Z</time></trkpt><trkpt lat="44.62124106646303" lon="7.436800738866304"><ele>357.0</ele><time>2026-05-02T16:00:30.999Z</time></trkpt><trkpt lat="44.621197970255764" lon="7.436872888786645"><ele>357.0</ele><time>2026-05-02T16:00:31.999Z</time></trkpt><trkpt lat="44.62114309218394" lon="7.4369615946980385"><ele>356.5</ele><time>2026-05-02T16:00:32.999Z</time></trkpt><trkpt lat="44.621089021522764" lon="7.437054244067877"><ele>356.0</ele><time>2026-05-02T16:00:33.999Z</time></trkpt><trkpt lat="44.62102731189336" lon="7.4371390025191895"><ele>355.5</ele><time>2026-05-02T16:00:34.999Z</time></trkpt><trkpt lat="44.620978839120134" lon="7.437213722856669"><ele>355.0</ele><time>2026-05-02T16:00:35.999Z</time></trkpt><trkpt lat="44.62092220627968" lon="7.437293724819981"><ele>354.5</ele><time>2026-05-02T16:00:36.999Z</time></trkpt><trkpt lat="44.620862782983494" lon="7.437392875028074"><ele>354.0</ele><time>2026-05-02T16:00:37.999Z</time></trkpt><trkpt lat="44.6207978140562" lon="7.4375012333837445"><ele>354.0</ele><time>2026-05-02T16:00:38.999Z</time></trkpt><trkpt lat="44.620742043923364" lon="7.43761294721582"><ele>354.0</ele><time>2026-05-02T16:00:39.999Z</time></trkpt><trkpt lat="44.62068956191699" lon="7.437737193205218"><ele>354.0</ele><time>2026-05-02T16:00:40.999Z</time></trkpt><trkpt lat="44.620642050231744" lon="7.437850373471152"><ele>354.0</ele><time>2026-05-02T16:00:41.999Z</time></trkpt><trkpt lat="44.620601895688445" lon="7.437960302707456"><ele>354.0</ele><time>2026-05-02T16:00:42.999Z</time></trkpt><trkpt lat="44.6205681364604" lon="7.438065150502725"><ele>354.7142857142857</ele><time>2026-05-02T16:00:43.999Z</time></trkpt><trkpt lat="44.620537457743836" lon="7.438167351145011"><ele>355.4285714285714</ele><time>2026-05-02T16:00:44.999Z</time></trkpt><trkpt lat="44.62051108928004" lon="7.438262044769904"><ele>356.1428571428571</ele><time>2026-05-02T16:00:45.999Z</time></trkpt><trkpt lat="44.620482341496476" lon="7.438354207399705"><ele>356.8571428571429</ele><time>2026-05-02T16:00:46.999Z</time></trkpt><trkpt lat="44.62045474007177" lon="7.438440473651677"><ele>357.57142857142856</ele><time>2026-05-02T16:00:47.999Z</time></trkpt><trkpt lat="44.620426570074606" lon="7.438524639623145"><ele>358.2857142857143</ele><time>2026-05-02T16:00:48.999Z</time></trkpt><trkpt lat="44.62039061801559" lon="7.438628312869734"><ele>359.0</ele><time>2026-05-02T16:00:50.999Z</time></trkpt><trkpt lat="44.62034251808284" lon="7.438756834402182"><ele>359.0</ele><time>2026-05-02T16:00:55.999Z</time></trkpt><trkpt lat="44.62028439326819" lon="7.438841687642449"><ele>346.0</ele><time>2026-05-02T16:00:56.999Z</time></trkpt><trkpt lat="44.620216594522496" lon="7.438926264501612"><ele>346.0</ele><time>2026-05-02T16:00:57.999Z</time></trkpt><trkpt lat="44.62016201564699" lon="7.438995190350017"><ele>346.0</ele><time>2026-05-02T16:00:58.999Z</time></trkpt><trkpt lat="44.62010668874393" lon="7.439058447972972"><ele>346.0</ele><time>2026-05-02T16:00:59.999Z</time></trkpt><trkpt lat="44.62005143977894" lon="7.439108311155334"><ele>346.0</ele><time>2026-05-02T16:01:01.999Z</time></trkpt></trkseg></trk></gpx>